<?xml version="1.0" encoding="UTF-8" standalone="no" ?>
<gpx xmlns="http://www.topografix.com/GPX/1/1" xmlns:xsi="http://www.w3.org/2001/XMLSchema-instance" xsi:schemaLocation="http://www.topografix.com/GPX/1/1 http://www.topografix.com/GPX/1/1/gpx.xsd" version="1.1" creator="VisuGPX - https://www.visugpx.com">
  <metadata>
    <name>Sortie Moto Vallée de l\'arve Mont VOUAN</name>
    <desc><![CDATA[un petit tour bien sympa]]></desc>
  </metadata>
  <wpt lat="46.06102" lon="6.37358">
    <ele>486</ele>
  </wpt>
  <wpt lat="46.09873" lon="6.41226">
    <ele>885</ele>
  </wpt>
  <trk>
    <name><![CDATA[Sortie Moto Vallée de l\'arve Mont VOUAN_1]]></name>
    <trkseg>
      <trkpt lat="46.06102" lon="6.37358">
        <ele>486</ele>
        <time>2011-04-03T09:10:27Z</time>
      </trkpt>
      <trkpt lat="46.06112" lon="6.37362">
        <ele>486</ele>
        <time>2011-04-03T09:10:28Z</time>
      </trkpt>
      <trkpt lat="46.06121" lon="6.37365">
        <ele>486</ele>
        <time>2011-04-03T09:10:29Z</time>
      </trkpt>
      <trkpt lat="46.06139" lon="6.37368">
        <ele>486</ele>
        <time>2011-04-03T09:10:31Z</time>
      </trkpt>
      <trkpt lat="46.06149" lon="6.37372">
        <ele>486</ele>
        <time>2011-04-03T09:10:32Z</time>
      </trkpt>
      <trkpt lat="46.0616" lon="6.37373">
        <ele>486</ele>
        <time>2011-04-03T09:10:33Z</time>
      </trkpt>
      <trkpt lat="46.06172" lon="6.37374">
        <ele>486</ele>
        <time>2011-04-03T09:10:34Z</time>
      </trkpt>
      <trkpt lat="46.06185" lon="6.37373">
        <ele>486</ele>
        <time>2011-04-03T09:10:35Z</time>
      </trkpt>
      <trkpt lat="46.06199" lon="6.37372">
        <ele>486</ele>
        <time>2011-04-03T09:10:36Z</time>
      </trkpt>
      <trkpt lat="46.06213" lon="6.37371">
        <ele>486</ele>
        <time>2011-04-03T09:10:37Z</time>
      </trkpt>
      <trkpt lat="46.06228" lon="6.37369">
        <ele>486</ele>
        <time>2011-04-03T09:10:38Z</time>
      </trkpt>
      <trkpt lat="46.06242" lon="6.37367">
        <ele>486</ele>
        <time>2011-04-03T09:10:39Z</time>
      </trkpt>
      <trkpt lat="46.06257" lon="6.37365">
        <ele>486</ele>
        <time>2011-04-03T09:10:40Z</time>
      </trkpt>
      <trkpt lat="46.06272" lon="6.3736">
        <ele>486</ele>
        <time>2011-04-03T09:10:41Z</time>
      </trkpt>
      <trkpt lat="46.06286" lon="6.37356">
        <ele>486</ele>
        <time>2011-04-03T09:10:42Z</time>
      </trkpt>
      <trkpt lat="46.06299" lon="6.3735">
        <ele>486</ele>
        <time>2011-04-03T09:10:43Z</time>
      </trkpt>
      <trkpt lat="46.06312" lon="6.37347">
        <ele>486</ele>
        <time>2011-04-03T09:10:44Z</time>
      </trkpt>
      <trkpt lat="46.06324" lon="6.37343">
        <ele>486</ele>
        <time>2011-04-03T09:10:45Z</time>
      </trkpt>
      <trkpt lat="46.06335" lon="6.37341">
        <ele>486</ele>
        <time>2011-04-03T09:10:46Z</time>
      </trkpt>
      <trkpt lat="46.06346" lon="6.3734">
        <ele>486</ele>
        <time>2011-04-03T09:10:47Z</time>
      </trkpt>
      <trkpt lat="46.06364" lon="6.37339">
        <ele>486</ele>
        <time>2011-04-03T09:10:49Z</time>
      </trkpt>
      <trkpt lat="46.06391" lon="6.37357">
        <ele>486</ele>
        <time>2011-04-03T09:10:51Z</time>
      </trkpt>
      <trkpt lat="46.06365" lon="6.37414">
        <ele>486</ele>
        <time>2011-04-03T09:10:52Z</time>
      </trkpt>
      <trkpt lat="46.06372" lon="6.3736">
        <ele>486</ele>
        <time>2011-04-03T09:10:53Z</time>
      </trkpt>
      <trkpt lat="46.06392" lon="6.37392">
        <ele>486</ele>
        <time>2011-04-03T09:10:54Z</time>
      </trkpt>
      <trkpt lat="46.06405" lon="6.37409">
        <ele>486</ele>
        <time>2011-04-03T09:10:55Z</time>
      </trkpt>
      <trkpt lat="46.06395" lon="6.37422">
        <ele>486</ele>
        <time>2011-04-03T09:10:56Z</time>
      </trkpt>
      <trkpt lat="46.06404" lon="6.37438">
        <ele>486</ele>
        <time>2011-04-03T09:10:57Z</time>
      </trkpt>
      <trkpt lat="46.06412" lon="6.37457">
        <ele>486</ele>
        <time>2011-04-03T09:10:58Z</time>
      </trkpt>
      <trkpt lat="46.06417" lon="6.37476">
        <ele>486</ele>
        <time>2011-04-03T09:10:59Z</time>
      </trkpt>
      <trkpt lat="46.06425" lon="6.37496">
        <ele>486</ele>
        <time>2011-04-03T09:11:00Z</time>
      </trkpt>
      <trkpt lat="46.06432" lon="6.37516">
        <ele>486</ele>
        <time>2011-04-03T09:11:01Z</time>
      </trkpt>
      <trkpt lat="46.06441" lon="6.37535">
        <ele>486</ele>
        <time>2011-04-03T09:11:02Z</time>
      </trkpt>
      <trkpt lat="46.06439" lon="6.37557">
        <ele>486</ele>
        <time>2011-04-03T09:11:03Z</time>
      </trkpt>
      <trkpt lat="46.06461" lon="6.37572">
        <ele>486</ele>
        <time>2011-04-03T09:11:04Z</time>
      </trkpt>
      <trkpt lat="46.06466" lon="6.3759">
        <ele>486</ele>
        <time>2011-04-03T09:11:05Z</time>
      </trkpt>
      <trkpt lat="46.06469" lon="6.37637">
        <ele>486</ele>
        <time>2011-04-03T09:11:06Z</time>
      </trkpt>
      <trkpt lat="46.06488" lon="6.37628">
        <ele>486</ele>
        <time>2011-04-03T09:11:07Z</time>
      </trkpt>
      <trkpt lat="46.06501" lon="6.37675">
        <ele>486</ele>
        <time>2011-04-03T09:11:10Z</time>
      </trkpt>
      <trkpt lat="46.0653" lon="6.37639">
        <ele>486</ele>
        <time>2011-04-03T09:11:11Z</time>
      </trkpt>
      <trkpt lat="46.06534" lon="6.37675">
        <ele>486</ele>
        <time>2011-04-03T09:11:12Z</time>
      </trkpt>
      <trkpt lat="46.06544" lon="6.37694">
        <ele>486</ele>
        <time>2011-04-03T09:11:13Z</time>
      </trkpt>
      <trkpt lat="46.06547" lon="6.37728">
        <ele>486</ele>
        <time>2011-04-03T09:11:14Z</time>
      </trkpt>
      <trkpt lat="46.06559" lon="6.37776">
        <ele>486</ele>
        <time>2011-04-03T09:11:15Z</time>
      </trkpt>
      <trkpt lat="46.06567" lon="6.37786">
        <ele>486</ele>
        <time>2011-04-03T09:11:16Z</time>
      </trkpt>
      <trkpt lat="46.06574" lon="6.37777">
        <ele>486</ele>
        <time>2011-04-03T09:11:17Z</time>
      </trkpt>
      <trkpt lat="46.06556" lon="6.37817">
        <ele>486</ele>
        <time>2011-04-03T09:11:18Z</time>
      </trkpt>
      <trkpt lat="46.06556" lon="6.37851">
        <ele>486</ele>
        <time>2011-04-03T09:11:19Z</time>
      </trkpt>
      <trkpt lat="46.06552" lon="6.37886">
        <ele>486</ele>
        <time>2011-04-03T09:11:20Z</time>
      </trkpt>
      <trkpt lat="46.06549" lon="6.37902">
        <ele>486</ele>
        <time>2011-04-03T09:11:21Z</time>
      </trkpt>
      <trkpt lat="46.06559" lon="6.37917">
        <ele>486</ele>
        <time>2011-04-03T09:11:22Z</time>
      </trkpt>
      <trkpt lat="46.06551" lon="6.37934">
        <ele>486</ele>
        <time>2011-04-03T09:11:23Z</time>
      </trkpt>
      <trkpt lat="46.06546" lon="6.37947">
        <ele>486</ele>
        <time>2011-04-03T09:11:24Z</time>
      </trkpt>
      <trkpt lat="46.06546" lon="6.37989">
        <ele>486</ele>
        <time>2011-04-03T09:11:25Z</time>
      </trkpt>
      <trkpt lat="46.06557" lon="6.37997">
        <ele>502</ele>
        <time>2011-04-03T09:11:26Z</time>
      </trkpt>
      <trkpt lat="46.06568" lon="6.38005">
        <ele>502</ele>
        <time>2011-04-03T09:11:27Z</time>
      </trkpt>
      <trkpt lat="46.0658" lon="6.38023">
        <ele>502</ele>
        <time>2011-04-03T09:11:29Z</time>
      </trkpt>
      <trkpt lat="46.06592" lon="6.38026">
        <ele>502</ele>
        <time>2011-04-03T09:11:30Z</time>
      </trkpt>
      <trkpt lat="46.06605" lon="6.38031">
        <ele>495</ele>
        <time>2011-04-03T09:11:31Z</time>
      </trkpt>
      <trkpt lat="46.06619" lon="6.38038">
        <ele>495</ele>
        <time>2011-04-03T09:11:32Z</time>
      </trkpt>
      <trkpt lat="46.06632" lon="6.38048">
        <ele>495</ele>
        <time>2011-04-03T09:11:33Z</time>
      </trkpt>
      <trkpt lat="46.06644" lon="6.3806">
        <ele>495</ele>
        <time>2011-04-03T09:11:34Z</time>
      </trkpt>
      <trkpt lat="46.06656" lon="6.38073">
        <ele>489</ele>
        <time>2011-04-03T09:11:35Z</time>
      </trkpt>
      <trkpt lat="46.06665" lon="6.38088">
        <ele>489</ele>
        <time>2011-04-03T09:11:36Z</time>
      </trkpt>
      <trkpt lat="46.06675" lon="6.38102">
        <ele>489</ele>
        <time>2011-04-03T09:11:37Z</time>
      </trkpt>
      <trkpt lat="46.06692" lon="6.38134">
        <ele>489</ele>
        <time>2011-04-03T09:11:39Z</time>
      </trkpt>
      <trkpt lat="46.06701" lon="6.38149">
        <ele>489</ele>
        <time>2011-04-03T09:11:40Z</time>
      </trkpt>
      <trkpt lat="46.06711" lon="6.38162">
        <ele>489</ele>
        <time>2011-04-03T09:11:41Z</time>
      </trkpt>
      <trkpt lat="46.06722" lon="6.38174">
        <ele>489</ele>
        <time>2011-04-03T09:11:42Z</time>
      </trkpt>
      <trkpt lat="46.06733" lon="6.38184">
        <ele>489</ele>
        <time>2011-04-03T09:11:43Z</time>
      </trkpt>
      <trkpt lat="46.06746" lon="6.38191">
        <ele>489</ele>
        <time>2011-04-03T09:11:44Z</time>
      </trkpt>
      <trkpt lat="46.06758" lon="6.38196">
        <ele>489</ele>
        <time>2011-04-03T09:11:45Z</time>
      </trkpt>
      <trkpt lat="46.06769" lon="6.38202">
        <ele>489</ele>
        <time>2011-04-03T09:11:46Z</time>
      </trkpt>
      <trkpt lat="46.0678" lon="6.38206">
        <ele>489</ele>
        <time>2011-04-03T09:11:47Z</time>
      </trkpt>
      <trkpt lat="46.06789" lon="6.3821">
        <ele>489</ele>
        <time>2011-04-03T09:11:48Z</time>
      </trkpt>
      <trkpt lat="46.06798" lon="6.38214">
        <ele>489</ele>
        <time>2011-04-03T09:11:49Z</time>
      </trkpt>
      <trkpt lat="46.06814" lon="6.38221">
        <ele>489</ele>
        <time>2011-04-03T09:11:51Z</time>
      </trkpt>
      <trkpt lat="46.06827" lon="6.38226">
        <ele>489</ele>
        <time>2011-04-03T09:11:53Z</time>
      </trkpt>
      <trkpt lat="46.06836" lon="6.38235">
        <ele>489</ele>
        <time>2011-04-03T09:11:55Z</time>
      </trkpt>
      <trkpt lat="46.06841" lon="6.38252">
        <ele>489</ele>
        <time>2011-04-03T09:11:57Z</time>
      </trkpt>
      <trkpt lat="46.06841" lon="6.38278">
        <ele>489</ele>
        <time>2011-04-03T09:11:59Z</time>
      </trkpt>
      <trkpt lat="46.06841" lon="6.38295">
        <ele>489</ele>
        <time>2011-04-03T09:12:00Z</time>
      </trkpt>
      <trkpt lat="46.06839" lon="6.38311">
        <ele>484</ele>
        <time>2011-04-03T09:12:01Z</time>
      </trkpt>
      <trkpt lat="46.06839" lon="6.38326">
        <ele>484</ele>
        <time>2011-04-03T09:12:02Z</time>
      </trkpt>
      <trkpt lat="46.06837" lon="6.38339">
        <ele>484</ele>
        <time>2011-04-03T09:12:03Z</time>
      </trkpt>
      <trkpt lat="46.06834" lon="6.38363">
        <ele>484</ele>
        <time>2011-04-03T09:12:05Z</time>
      </trkpt>
      <trkpt lat="46.06836" lon="6.38382">
        <ele>484</ele>
        <time>2011-04-03T09:12:07Z</time>
      </trkpt>
      <trkpt lat="46.06845" lon="6.38398">
        <ele>484</ele>
        <time>2011-04-03T09:12:09Z</time>
      </trkpt>
      <trkpt lat="46.06854" lon="6.38406">
        <ele>484</ele>
        <time>2011-04-03T09:12:10Z</time>
      </trkpt>
      <trkpt lat="46.06867" lon="6.38412">
        <ele>484</ele>
        <time>2011-04-03T09:12:11Z</time>
      </trkpt>
      <trkpt lat="46.06881" lon="6.38417">
        <ele>484</ele>
        <time>2011-04-03T09:12:12Z</time>
      </trkpt>
      <trkpt lat="46.06896" lon="6.38422">
        <ele>484</ele>
        <time>2011-04-03T09:12:13Z</time>
      </trkpt>
      <trkpt lat="46.06911" lon="6.38426">
        <ele>484</ele>
        <time>2011-04-03T09:12:14Z</time>
      </trkpt>
      <trkpt lat="46.06927" lon="6.38432">
        <ele>484</ele>
        <time>2011-04-03T09:12:15Z</time>
      </trkpt>
      <trkpt lat="46.06942" lon="6.38437">
        <ele>484</ele>
        <time>2011-04-03T09:12:16Z</time>
      </trkpt>
      <trkpt lat="46.06957" lon="6.38442">
        <ele>484</ele>
        <time>2011-04-03T09:12:17Z</time>
      </trkpt>
      <trkpt lat="46.0697" lon="6.38449">
        <ele>484</ele>
        <time>2011-04-03T09:12:18Z</time>
      </trkpt>
      <trkpt lat="46.06983" lon="6.38458">
        <ele>484</ele>
        <time>2011-04-03T09:12:19Z</time>
      </trkpt>
      <trkpt lat="46.06996" lon="6.38469">
        <ele>484</ele>
        <time>2011-04-03T09:12:20Z</time>
      </trkpt>
      <trkpt lat="46.07026" lon="6.38491">
        <ele>484</ele>
        <time>2011-04-03T09:12:22Z</time>
      </trkpt>
      <trkpt lat="46.0704" lon="6.38506">
        <ele>484</ele>
        <time>2011-04-03T09:12:23Z</time>
      </trkpt>
      <trkpt lat="46.07053" lon="6.38524">
        <ele>484</ele>
        <time>2011-04-03T09:12:24Z</time>
      </trkpt>
      <trkpt lat="46.07063" lon="6.38545">
        <ele>484</ele>
        <time>2011-04-03T09:12:25Z</time>
      </trkpt>
      <trkpt lat="46.07101" lon="6.38597">
        <ele>484</ele>
        <time>2011-04-03T09:12:28Z</time>
      </trkpt>
      <trkpt lat="46.07113" lon="6.38617">
        <ele>484</ele>
        <time>2011-04-03T09:12:29Z</time>
      </trkpt>
      <trkpt lat="46.07123" lon="6.38635">
        <ele>484</ele>
        <time>2011-04-03T09:12:30Z</time>
      </trkpt>
      <trkpt lat="46.07135" lon="6.38647">
        <ele>484</ele>
        <time>2011-04-03T09:12:31Z</time>
      </trkpt>
      <trkpt lat="46.07148" lon="6.38658">
        <ele>484</ele>
        <time>2011-04-03T09:12:32Z</time>
      </trkpt>
      <trkpt lat="46.07162" lon="6.38668">
        <ele>484</ele>
        <time>2011-04-03T09:12:33Z</time>
      </trkpt>
      <trkpt lat="46.07176" lon="6.38675">
        <ele>484</ele>
        <time>2011-04-03T09:12:34Z</time>
      </trkpt>
      <trkpt lat="46.07191" lon="6.38684">
        <ele>484</ele>
        <time>2011-04-03T09:12:35Z</time>
      </trkpt>
      <trkpt lat="46.07204" lon="6.38691">
        <ele>484</ele>
        <time>2011-04-03T09:12:36Z</time>
      </trkpt>
      <trkpt lat="46.07216" lon="6.38698">
        <ele>484</ele>
        <time>2011-04-03T09:12:37Z</time>
      </trkpt>
      <trkpt lat="46.07228" lon="6.38704">
        <ele>484</ele>
        <time>2011-04-03T09:12:38Z</time>
      </trkpt>
      <trkpt lat="46.07238" lon="6.3871">
        <ele>484</ele>
        <time>2011-04-03T09:12:39Z</time>
      </trkpt>
      <trkpt lat="46.07248" lon="6.38716">
        <ele>484</ele>
        <time>2011-04-03T09:12:40Z</time>
      </trkpt>
      <trkpt lat="46.07257" lon="6.38722">
        <ele>484</ele>
        <time>2011-04-03T09:12:41Z</time>
      </trkpt>
      <trkpt lat="46.07271" lon="6.38732">
        <ele>484</ele>
        <time>2011-04-03T09:12:43Z</time>
      </trkpt>
      <trkpt lat="46.0728" lon="6.3874">
        <ele>484</ele>
        <time>2011-04-03T09:12:46Z</time>
      </trkpt>
      <trkpt lat="46.07283" lon="6.38761">
        <ele>484</ele>
        <time>2011-04-03T09:12:49Z</time>
      </trkpt>
      <trkpt lat="46.07284" lon="6.38781">
        <ele>484</ele>
        <time>2011-04-03T09:12:51Z</time>
      </trkpt>
      <trkpt lat="46.07285" lon="6.38804">
        <ele>484</ele>
        <time>2011-04-03T09:12:53Z</time>
      </trkpt>
      <trkpt lat="46.07285" lon="6.38823">
        <ele>484</ele>
        <time>2011-04-03T09:12:55Z</time>
      </trkpt>
      <trkpt lat="46.07283" lon="6.38841">
        <ele>484</ele>
        <time>2011-04-03T09:12:57Z</time>
      </trkpt>
      <trkpt lat="46.07283" lon="6.38861">
        <ele>484</ele>
        <time>2011-04-03T09:13:00Z</time>
      </trkpt>
      <trkpt lat="46.07286" lon="6.38885">
        <ele>484</ele>
        <time>2011-04-03T09:13:02Z</time>
      </trkpt>
      <trkpt lat="46.07287" lon="6.38901">
        <ele>484</ele>
        <time>2011-04-03T09:13:03Z</time>
      </trkpt>
      <trkpt lat="46.07288" lon="6.3892">
        <ele>484</ele>
        <time>2011-04-03T09:13:04Z</time>
      </trkpt>
      <trkpt lat="46.0729" lon="6.38938">
        <ele>484</ele>
        <time>2011-04-03T09:13:05Z</time>
      </trkpt>
      <trkpt lat="46.07291" lon="6.38959">
        <ele>484</ele>
        <time>2011-04-03T09:13:06Z</time>
      </trkpt>
      <trkpt lat="46.07292" lon="6.38981">
        <ele>484</ele>
        <time>2011-04-03T09:13:07Z</time>
      </trkpt>
      <trkpt lat="46.07293" lon="6.39001">
        <ele>484</ele>
        <time>2011-04-03T09:13:08Z</time>
      </trkpt>
      <trkpt lat="46.07295" lon="6.39024">
        <ele>484</ele>
        <time>2011-04-03T09:13:09Z</time>
      </trkpt>
      <trkpt lat="46.07295" lon="6.39045">
        <ele>484</ele>
        <time>2011-04-03T09:13:10Z</time>
      </trkpt>
      <trkpt lat="46.07296" lon="6.39067">
        <ele>484</ele>
        <time>2011-04-03T09:13:11Z</time>
      </trkpt>
      <trkpt lat="46.07298" lon="6.39089">
        <ele>484</ele>
        <time>2011-04-03T09:13:12Z</time>
      </trkpt>
      <trkpt lat="46.07299" lon="6.39112">
        <ele>484</ele>
        <time>2011-04-03T09:13:13Z</time>
      </trkpt>
      <trkpt lat="46.073" lon="6.39133">
        <ele>484</ele>
        <time>2011-04-03T09:13:14Z</time>
      </trkpt>
      <trkpt lat="46.073" lon="6.39155">
        <ele>484</ele>
        <time>2011-04-03T09:13:15Z</time>
      </trkpt>
      <trkpt lat="46.07301" lon="6.39175">
        <ele>484</ele>
        <time>2011-04-03T09:13:16Z</time>
      </trkpt>
      <trkpt lat="46.07303" lon="6.39194">
        <ele>484</ele>
        <time>2011-04-03T09:13:17Z</time>
      </trkpt>
      <trkpt lat="46.07304" lon="6.39213">
        <ele>484</ele>
        <time>2011-04-03T09:13:18Z</time>
      </trkpt>
      <trkpt lat="46.07305" lon="6.39231">
        <ele>484</ele>
        <time>2011-04-03T09:13:19Z</time>
      </trkpt>
      <trkpt lat="46.07307" lon="6.39249">
        <ele>484</ele>
        <time>2011-04-03T09:13:20Z</time>
      </trkpt>
      <trkpt lat="46.07308" lon="6.39266">
        <ele>484</ele>
        <time>2011-04-03T09:13:21Z</time>
      </trkpt>
      <trkpt lat="46.07309" lon="6.39283">
        <ele>484</ele>
        <time>2011-04-03T09:13:22Z</time>
      </trkpt>
      <trkpt lat="46.0731" lon="6.39297">
        <ele>484</ele>
        <time>2011-04-03T09:13:23Z</time>
      </trkpt>
      <trkpt lat="46.07311" lon="6.39311">
        <ele>484</ele>
        <time>2011-04-03T09:13:24Z</time>
      </trkpt>
      <trkpt lat="46.0731" lon="6.39326">
        <ele>484</ele>
        <time>2011-04-03T09:13:25Z</time>
      </trkpt>
      <trkpt lat="46.07312" lon="6.39311">
        <ele>484</ele>
        <time>2011-04-03T09:13:30Z</time>
      </trkpt>
      <trkpt lat="46.07308" lon="6.39288">
        <ele>477</ele>
        <time>2011-04-03T09:13:32Z</time>
      </trkpt>
      <trkpt lat="46.07304" lon="6.39274">
        <ele>467</ele>
        <time>2011-04-03T09:13:37Z</time>
      </trkpt>
      <trkpt lat="46.07315" lon="6.39266">
        <ele>457</ele>
        <time>2011-04-03T09:13:49Z</time>
      </trkpt>
      <trkpt lat="46.07323" lon="6.39259">
        <ele>446</ele>
        <time>2011-04-03T09:13:59Z</time>
      </trkpt>
      <trkpt lat="46.07333" lon="6.39247">
        <ele>446</ele>
        <time>2011-04-03T09:14:06Z</time>
      </trkpt>
      <trkpt lat="46.07348" lon="6.39233">
        <ele>446</ele>
        <time>2011-04-03T09:14:15Z</time>
      </trkpt>
      <trkpt lat="46.07338" lon="6.39236">
        <ele>436</ele>
        <time>2011-04-03T09:14:31Z</time>
      </trkpt>
      <trkpt lat="46.07345" lon="6.39226">
        <ele>436</ele>
        <time>2011-04-03T09:14:33Z</time>
      </trkpt>
      <trkpt lat="46.07331" lon="6.39245">
        <ele>436</ele>
        <time>2011-04-03T09:14:42Z</time>
      </trkpt>
      <trkpt lat="46.07317" lon="6.3926">
        <ele>436</ele>
        <time>2011-04-03T09:14:44Z</time>
      </trkpt>
      <trkpt lat="46.07304" lon="6.39274">
        <ele>436</ele>
        <time>2011-04-03T09:14:45Z</time>
      </trkpt>
      <trkpt lat="46.07296" lon="6.39295">
        <ele>443</ele>
        <time>2011-04-03T09:14:47Z</time>
      </trkpt>
      <trkpt lat="46.07277" lon="6.39321">
        <ele>443</ele>
        <time>2011-04-03T09:14:49Z</time>
      </trkpt>
      <trkpt lat="46.07263" lon="6.39335">
        <ele>436</ele>
        <time>2011-04-03T09:14:52Z</time>
      </trkpt>
      <trkpt lat="46.07255" lon="6.39346">
        <ele>436</ele>
        <time>2011-04-03T09:14:53Z</time>
      </trkpt>
      <trkpt lat="46.07261" lon="6.39336">
        <ele>427</ele>
        <time>2011-04-03T09:14:59Z</time>
      </trkpt>
      <trkpt lat="46.07275" lon="6.39311">
        <ele>420</ele>
        <time>2011-04-03T09:15:06Z</time>
      </trkpt>
      <trkpt lat="46.07286" lon="6.39298">
        <ele>420</ele>
        <time>2011-04-03T09:15:08Z</time>
      </trkpt>
      <trkpt lat="46.07298" lon="6.39281">
        <ele>420</ele>
        <time>2011-04-03T09:15:10Z</time>
      </trkpt>
      <trkpt lat="46.07315" lon="6.39263">
        <ele>420</ele>
        <time>2011-04-03T09:15:16Z</time>
      </trkpt>
      <trkpt lat="46.07308" lon="6.39273">
        <ele>420</ele>
        <time>2011-04-03T09:15:17Z</time>
      </trkpt>
      <trkpt lat="46.07298" lon="6.39283">
        <ele>420</ele>
        <time>2011-04-03T09:15:20Z</time>
      </trkpt>
      <trkpt lat="46.07289" lon="6.39291">
        <ele>420</ele>
        <time>2011-04-03T09:15:22Z</time>
      </trkpt>
      <trkpt lat="46.07277" lon="6.39302">
        <ele>413</ele>
        <time>2011-04-03T09:15:25Z</time>
      </trkpt>
      <trkpt lat="46.0727" lon="6.39311">
        <ele>413</ele>
        <time>2011-04-03T09:15:26Z</time>
      </trkpt>
      <trkpt lat="46.07259" lon="6.39323">
        <ele>413</ele>
        <time>2011-04-03T09:15:27Z</time>
      </trkpt>
      <trkpt lat="46.07272" lon="6.39318">
        <ele>424</ele>
        <time>2011-04-03T09:15:37Z</time>
      </trkpt>
      <trkpt lat="46.07278" lon="6.39307">
        <ele>430</ele>
        <time>2011-04-03T09:15:46Z</time>
      </trkpt>
      <trkpt lat="46.07288" lon="6.393">
        <ele>430</ele>
        <time>2011-04-03T09:15:48Z</time>
      </trkpt>
      <trkpt lat="46.07298" lon="6.39298">
        <ele>442</ele>
        <time>2011-04-03T09:15:53Z</time>
      </trkpt>
      <trkpt lat="46.07307" lon="6.39285">
        <ele>442</ele>
        <time>2011-04-03T09:15:59Z</time>
      </trkpt>
      <trkpt lat="46.07313" lon="6.39276">
        <ele>442</ele>
        <time>2011-04-03T09:16:07Z</time>
      </trkpt>
      <trkpt lat="46.07321" lon="6.39268">
        <ele>429</ele>
        <time>2011-04-03T09:16:23Z</time>
      </trkpt>
      <trkpt lat="46.07312" lon="6.39267">
        <ele>429</ele>
        <time>2011-04-03T09:16:56Z</time>
      </trkpt>
      <trkpt lat="46.0732" lon="6.39261">
        <ele>429</ele>
        <time>2011-04-03T09:17:17Z</time>
      </trkpt>
      <trkpt lat="46.07318" lon="6.39247">
        <ele>437</ele>
        <time>2011-04-03T09:18:20Z</time>
      </trkpt>
      <trkpt lat="46.07312" lon="6.39231">
        <ele>437</ele>
        <time>2011-04-03T09:18:23Z</time>
      </trkpt>
      <trkpt lat="46.07303" lon="6.3924">
        <ele>447</ele>
        <time>2011-04-03T09:18:27Z</time>
      </trkpt>
      <trkpt lat="46.07303" lon="6.39265">
        <ele>447</ele>
        <time>2011-04-03T09:18:29Z</time>
      </trkpt>
      <trkpt lat="46.07303" lon="6.39285">
        <ele>447</ele>
        <time>2011-04-03T09:18:30Z</time>
      </trkpt>
      <trkpt lat="46.07305" lon="6.39309">
        <ele>447</ele>
        <time>2011-04-03T09:18:31Z</time>
      </trkpt>
      <trkpt lat="46.07308" lon="6.39334">
        <ele>452</ele>
        <time>2011-04-03T09:18:32Z</time>
      </trkpt>
      <trkpt lat="46.0731" lon="6.3936">
        <ele>452</ele>
        <time>2011-04-03T09:18:33Z</time>
      </trkpt>
      <trkpt lat="46.07311" lon="6.39387">
        <ele>452</ele>
        <time>2011-04-03T09:18:34Z</time>
      </trkpt>
      <trkpt lat="46.07312" lon="6.39413">
        <ele>452</ele>
        <time>2011-04-03T09:18:35Z</time>
      </trkpt>
      <trkpt lat="46.07313" lon="6.39436">
        <ele>452</ele>
        <time>2011-04-03T09:18:36Z</time>
      </trkpt>
      <trkpt lat="46.07314" lon="6.39459">
        <ele>452</ele>
        <time>2011-04-03T09:18:37Z</time>
      </trkpt>
      <trkpt lat="46.07315" lon="6.39478">
        <ele>458</ele>
        <time>2011-04-03T09:18:38Z</time>
      </trkpt>
      <trkpt lat="46.07315" lon="6.39496">
        <ele>458</ele>
        <time>2011-04-03T09:18:39Z</time>
      </trkpt>
      <trkpt lat="46.07315" lon="6.39512">
        <ele>458</ele>
        <time>2011-04-03T09:18:40Z</time>
      </trkpt>
      <trkpt lat="46.07313" lon="6.39536">
        <ele>458</ele>
        <time>2011-04-03T09:18:42Z</time>
      </trkpt>
      <trkpt lat="46.07315" lon="6.39552">
        <ele>458</ele>
        <time>2011-04-03T09:18:44Z</time>
      </trkpt>
      <trkpt lat="46.07325" lon="6.39567">
        <ele>458</ele>
        <time>2011-04-03T09:18:46Z</time>
      </trkpt>
      <trkpt lat="46.07335" lon="6.39575">
        <ele>458</ele>
        <time>2011-04-03T09:18:47Z</time>
      </trkpt>
      <trkpt lat="46.07347" lon="6.39583">
        <ele>458</ele>
        <time>2011-04-03T09:18:48Z</time>
      </trkpt>
      <trkpt lat="46.07359" lon="6.39594">
        <ele>458</ele>
        <time>2011-04-03T09:18:49Z</time>
      </trkpt>
      <trkpt lat="46.0737" lon="6.39605">
        <ele>458</ele>
        <time>2011-04-03T09:18:50Z</time>
      </trkpt>
      <trkpt lat="46.07383" lon="6.39615">
        <ele>458</ele>
        <time>2011-04-03T09:18:51Z</time>
      </trkpt>
      <trkpt lat="46.07395" lon="6.39625">
        <ele>458</ele>
        <time>2011-04-03T09:18:52Z</time>
      </trkpt>
      <trkpt lat="46.07407" lon="6.39636">
        <ele>458</ele>
        <time>2011-04-03T09:18:53Z</time>
      </trkpt>
      <trkpt lat="46.07418" lon="6.39645">
        <ele>458</ele>
        <time>2011-04-03T09:18:54Z</time>
      </trkpt>
      <trkpt lat="46.07428" lon="6.39655">
        <ele>458</ele>
        <time>2011-04-03T09:18:55Z</time>
      </trkpt>
      <trkpt lat="46.07438" lon="6.39663">
        <ele>458</ele>
        <time>2011-04-03T09:18:56Z</time>
      </trkpt>
      <trkpt lat="46.07447" lon="6.39672">
        <ele>458</ele>
        <time>2011-04-03T09:18:57Z</time>
      </trkpt>
      <trkpt lat="46.07455" lon="6.39679">
        <ele>458</ele>
        <time>2011-04-03T09:18:58Z</time>
      </trkpt>
      <trkpt lat="46.07468" lon="6.39691">
        <ele>458</ele>
        <time>2011-04-03T09:19:00Z</time>
      </trkpt>
      <trkpt lat="46.07478" lon="6.39702">
        <ele>458</ele>
        <time>2011-04-03T09:19:02Z</time>
      </trkpt>
      <trkpt lat="46.07488" lon="6.39709">
        <ele>458</ele>
        <time>2011-04-03T09:19:06Z</time>
      </trkpt>
      <trkpt lat="46.07501" lon="6.3972">
        <ele>458</ele>
        <time>2011-04-03T09:19:08Z</time>
      </trkpt>
      <trkpt lat="46.07514" lon="6.3973">
        <ele>458</ele>
        <time>2011-04-03T09:19:10Z</time>
      </trkpt>
      <trkpt lat="46.07523" lon="6.39735">
        <ele>458</ele>
        <time>2011-04-03T09:19:12Z</time>
      </trkpt>
      <trkpt lat="46.07526" lon="6.39751">
        <ele>458</ele>
        <time>2011-04-03T09:19:15Z</time>
      </trkpt>
      <trkpt lat="46.0753" lon="6.39763">
        <ele>458</ele>
        <time>2011-04-03T09:19:19Z</time>
      </trkpt>
      <trkpt lat="46.07538" lon="6.39771">
        <ele>458</ele>
        <time>2011-04-03T09:19:28Z</time>
      </trkpt>
      <trkpt lat="46.07548" lon="6.3978">
        <ele>458</ele>
        <time>2011-04-03T09:19:30Z</time>
      </trkpt>
      <trkpt lat="46.07563" lon="6.39794">
        <ele>458</ele>
        <time>2011-04-03T09:19:32Z</time>
      </trkpt>
      <trkpt lat="46.07578" lon="6.39809">
        <ele>458</ele>
        <time>2011-04-03T09:19:34Z</time>
      </trkpt>
      <trkpt lat="46.07586" lon="6.39817">
        <ele>458</ele>
        <time>2011-04-03T09:19:35Z</time>
      </trkpt>
      <trkpt lat="46.07595" lon="6.39825">
        <ele>458</ele>
        <time>2011-04-03T09:19:36Z</time>
      </trkpt>
      <trkpt lat="46.07603" lon="6.39834">
        <ele>458</ele>
        <time>2011-04-03T09:19:37Z</time>
      </trkpt>
      <trkpt lat="46.07612" lon="6.39843">
        <ele>458</ele>
        <time>2011-04-03T09:19:38Z</time>
      </trkpt>
      <trkpt lat="46.0762" lon="6.39852">
        <ele>458</ele>
        <time>2011-04-03T09:19:39Z</time>
      </trkpt>
      <trkpt lat="46.07628" lon="6.3986">
        <ele>458</ele>
        <time>2011-04-03T09:19:40Z</time>
      </trkpt>
      <trkpt lat="46.07638" lon="6.39868">
        <ele>458</ele>
        <time>2011-04-03T09:19:41Z</time>
      </trkpt>
      <trkpt lat="46.07648" lon="6.39877">
        <ele>458</ele>
        <time>2011-04-03T09:19:42Z</time>
      </trkpt>
      <trkpt lat="46.07657" lon="6.39885">
        <ele>458</ele>
        <time>2011-04-03T09:19:43Z</time>
      </trkpt>
      <trkpt lat="46.07667" lon="6.39892">
        <ele>458</ele>
        <time>2011-04-03T09:19:44Z</time>
      </trkpt>
      <trkpt lat="46.07676" lon="6.39899">
        <ele>458</ele>
        <time>2011-04-03T09:19:45Z</time>
      </trkpt>
      <trkpt lat="46.07685" lon="6.39905">
        <ele>458</ele>
        <time>2011-04-03T09:19:46Z</time>
      </trkpt>
      <trkpt lat="46.07694" lon="6.3991">
        <ele>458</ele>
        <time>2011-04-03T09:19:47Z</time>
      </trkpt>
      <trkpt lat="46.07705" lon="6.39916">
        <ele>458</ele>
        <time>2011-04-03T09:19:48Z</time>
      </trkpt>
      <trkpt lat="46.07715" lon="6.39921">
        <ele>458</ele>
        <time>2011-04-03T09:19:49Z</time>
      </trkpt>
      <trkpt lat="46.07725" lon="6.39928">
        <ele>458</ele>
        <time>2011-04-03T09:19:50Z</time>
      </trkpt>
      <trkpt lat="46.07734" lon="6.39933">
        <ele>458</ele>
        <time>2011-04-03T09:19:51Z</time>
      </trkpt>
      <trkpt lat="46.07742" lon="6.39937">
        <ele>458</ele>
        <time>2011-04-03T09:19:52Z</time>
      </trkpt>
      <trkpt lat="46.07751" lon="6.39942">
        <ele>458</ele>
        <time>2011-04-03T09:19:53Z</time>
      </trkpt>
      <trkpt lat="46.07768" lon="6.3995">
        <ele>458</ele>
        <time>2011-04-03T09:19:55Z</time>
      </trkpt>
      <trkpt lat="46.07777" lon="6.39955">
        <ele>458</ele>
        <time>2011-04-03T09:19:56Z</time>
      </trkpt>
      <trkpt lat="46.07788" lon="6.3996">
        <ele>458</ele>
        <time>2011-04-03T09:19:57Z</time>
      </trkpt>
      <trkpt lat="46.07799" lon="6.39963">
        <ele>458</ele>
        <time>2011-04-03T09:19:58Z</time>
      </trkpt>
      <trkpt lat="46.0781" lon="6.39968">
        <ele>458</ele>
        <time>2011-04-03T09:19:59Z</time>
      </trkpt>
      <trkpt lat="46.0782" lon="6.39971">
        <ele>458</ele>
        <time>2011-04-03T09:20:00Z</time>
      </trkpt>
      <trkpt lat="46.07829" lon="6.39974">
        <ele>458</ele>
        <time>2011-04-03T09:20:01Z</time>
      </trkpt>
      <trkpt lat="46.07839" lon="6.39977">
        <ele>458</ele>
        <time>2011-04-03T09:20:02Z</time>
      </trkpt>
      <trkpt lat="46.07849" lon="6.39979">
        <ele>458</ele>
        <time>2011-04-03T09:20:03Z</time>
      </trkpt>
      <trkpt lat="46.07859" lon="6.3998">
        <ele>458</ele>
        <time>2011-04-03T09:20:04Z</time>
      </trkpt>
      <trkpt lat="46.07868" lon="6.39981">
        <ele>458</ele>
        <time>2011-04-03T09:20:05Z</time>
      </trkpt>
      <trkpt lat="46.07885" lon="6.39984">
        <ele>458</ele>
        <time>2011-04-03T09:20:07Z</time>
      </trkpt>
      <trkpt lat="46.07902" lon="6.39985">
        <ele>458</ele>
        <time>2011-04-03T09:20:09Z</time>
      </trkpt>
      <trkpt lat="46.07915" lon="6.39985">
        <ele>458</ele>
        <time>2011-04-03T09:20:11Z</time>
      </trkpt>
      <trkpt lat="46.07925" lon="6.39981">
        <ele>458</ele>
        <time>2011-04-03T09:20:13Z</time>
      </trkpt>
      <trkpt lat="46.0793" lon="6.39993">
        <ele>458</ele>
        <time>2011-04-03T09:20:19Z</time>
      </trkpt>
      <trkpt lat="46.07928" lon="6.40014">
        <ele>458</ele>
        <time>2011-04-03T09:20:21Z</time>
      </trkpt>
      <trkpt lat="46.07925" lon="6.40039">
        <ele>458</ele>
        <time>2011-04-03T09:20:23Z</time>
      </trkpt>
      <trkpt lat="46.07924" lon="6.40052">
        <ele>458</ele>
        <time>2011-04-03T09:20:24Z</time>
      </trkpt>
      <trkpt lat="46.07921" lon="6.40065">
        <ele>453</ele>
        <time>2011-04-03T09:20:25Z</time>
      </trkpt>
      <trkpt lat="46.07917" lon="6.40087">
        <ele>453</ele>
        <time>2011-04-03T09:20:27Z</time>
      </trkpt>
      <trkpt lat="46.07914" lon="6.40106">
        <ele>453</ele>
        <time>2011-04-03T09:20:29Z</time>
      </trkpt>
      <trkpt lat="46.0791" lon="6.40125">
        <ele>453</ele>
        <time>2011-04-03T09:20:31Z</time>
      </trkpt>
      <trkpt lat="46.07907" lon="6.4014">
        <ele>453</ele>
        <time>2011-04-03T09:20:33Z</time>
      </trkpt>
      <trkpt lat="46.07904" lon="6.40152">
        <ele>453</ele>
        <time>2011-04-03T09:20:36Z</time>
      </trkpt>
      <trkpt lat="46.079" lon="6.40165">
        <ele>453</ele>
        <time>2011-04-03T09:20:43Z</time>
      </trkpt>
      <trkpt lat="46.07897" lon="6.40181">
        <ele>453</ele>
        <time>2011-04-03T09:20:45Z</time>
      </trkpt>
      <trkpt lat="46.07894" lon="6.40204">
        <ele>453</ele>
        <time>2011-04-03T09:20:47Z</time>
      </trkpt>
      <trkpt lat="46.07892" lon="6.40218">
        <ele>453</ele>
        <time>2011-04-03T09:20:48Z</time>
      </trkpt>
      <trkpt lat="46.0789" lon="6.40232">
        <ele>453</ele>
        <time>2011-04-03T09:20:49Z</time>
      </trkpt>
      <trkpt lat="46.07887" lon="6.40245">
        <ele>453</ele>
        <time>2011-04-03T09:20:50Z</time>
      </trkpt>
      <trkpt lat="46.07882" lon="6.40267">
        <ele>453</ele>
        <time>2011-04-03T09:20:52Z</time>
      </trkpt>
      <trkpt lat="46.07877" lon="6.40282">
        <ele>453</ele>
        <time>2011-04-03T09:20:54Z</time>
      </trkpt>
      <trkpt lat="46.07877" lon="6.40296">
        <ele>453</ele>
        <time>2011-04-03T09:20:56Z</time>
      </trkpt>
      <trkpt lat="46.07882" lon="6.40314">
        <ele>453</ele>
        <time>2011-04-03T09:20:58Z</time>
      </trkpt>
      <trkpt lat="46.07892" lon="6.40333">
        <ele>453</ele>
        <time>2011-04-03T09:21:00Z</time>
      </trkpt>
      <trkpt lat="46.079" lon="6.40355">
        <ele>453</ele>
        <time>2011-04-03T09:21:02Z</time>
      </trkpt>
      <trkpt lat="46.0791" lon="6.40376">
        <ele>453</ele>
        <time>2011-04-03T09:21:04Z</time>
      </trkpt>
      <trkpt lat="46.07917" lon="6.40395">
        <ele>453</ele>
        <time>2011-04-03T09:21:06Z</time>
      </trkpt>
      <trkpt lat="46.07922" lon="6.4041">
        <ele>453</ele>
        <time>2011-04-03T09:21:08Z</time>
      </trkpt>
      <trkpt lat="46.07927" lon="6.40424">
        <ele>453</ele>
        <time>2011-04-03T09:21:11Z</time>
      </trkpt>
      <trkpt lat="46.07937" lon="6.40422">
        <ele>453</ele>
        <time>2011-04-03T09:21:15Z</time>
      </trkpt>
      <trkpt lat="46.07947" lon="6.4042">
        <ele>453</ele>
        <time>2011-04-03T09:21:18Z</time>
      </trkpt>
      <trkpt lat="46.07945" lon="6.40432">
        <ele>453</ele>
        <time>2011-04-03T09:21:23Z</time>
      </trkpt>
      <trkpt lat="46.07939" lon="6.40443">
        <ele>453</ele>
        <time>2011-04-03T09:21:25Z</time>
      </trkpt>
      <trkpt lat="46.0794" lon="6.40462">
        <ele>447</ele>
        <time>2011-04-03T09:21:27Z</time>
      </trkpt>
      <trkpt lat="46.07945" lon="6.40476">
        <ele>447</ele>
        <time>2011-04-03T09:21:28Z</time>
      </trkpt>
      <trkpt lat="46.0795" lon="6.40491">
        <ele>447</ele>
        <time>2011-04-03T09:21:29Z</time>
      </trkpt>
      <trkpt lat="46.07958" lon="6.40504">
        <ele>447</ele>
        <time>2011-04-03T09:21:30Z</time>
      </trkpt>
      <trkpt lat="46.07965" lon="6.40519">
        <ele>447</ele>
        <time>2011-04-03T09:21:31Z</time>
      </trkpt>
      <trkpt lat="46.0797" lon="6.40533">
        <ele>447</ele>
        <time>2011-04-03T09:21:32Z</time>
      </trkpt>
      <trkpt lat="46.07974" lon="6.40547">
        <ele>447</ele>
        <time>2011-04-03T09:21:33Z</time>
      </trkpt>
      <trkpt lat="46.07977" lon="6.4056">
        <ele>447</ele>
        <time>2011-04-03T09:21:34Z</time>
      </trkpt>
      <trkpt lat="46.0798" lon="6.40579">
        <ele>447</ele>
        <time>2011-04-03T09:21:36Z</time>
      </trkpt>
      <trkpt lat="46.07985" lon="6.40591">
        <ele>447</ele>
        <time>2011-04-03T09:21:40Z</time>
      </trkpt>
      <trkpt lat="46.07997" lon="6.40589">
        <ele>453</ele>
        <time>2011-04-03T09:21:43Z</time>
      </trkpt>
      <trkpt lat="46.0801" lon="6.40581">
        <ele>453</ele>
        <time>2011-04-03T09:21:45Z</time>
      </trkpt>
      <trkpt lat="46.08023" lon="6.40578">
        <ele>453</ele>
        <time>2011-04-03T09:21:47Z</time>
      </trkpt>
      <trkpt lat="46.08032" lon="6.40576">
        <ele>453</ele>
        <time>2011-04-03T09:21:49Z</time>
      </trkpt>
      <trkpt lat="46.08043" lon="6.40574">
        <ele>453</ele>
        <time>2011-04-03T09:21:51Z</time>
      </trkpt>
      <trkpt lat="46.08056" lon="6.40572">
        <ele>453</ele>
        <time>2011-04-03T09:21:53Z</time>
      </trkpt>
      <trkpt lat="46.08072" lon="6.40566">
        <ele>453</ele>
        <time>2011-04-03T09:21:55Z</time>
      </trkpt>
      <trkpt lat="46.08091" lon="6.40561">
        <ele>453</ele>
        <time>2011-04-03T09:21:57Z</time>
      </trkpt>
      <trkpt lat="46.081" lon="6.40557">
        <ele>453</ele>
        <time>2011-04-03T09:21:58Z</time>
      </trkpt>
      <trkpt lat="46.0811" lon="6.40553">
        <ele>453</ele>
        <time>2011-04-03T09:21:59Z</time>
      </trkpt>
      <trkpt lat="46.0812" lon="6.40551">
        <ele>453</ele>
        <time>2011-04-03T09:22:00Z</time>
      </trkpt>
      <trkpt lat="46.08131" lon="6.40552">
        <ele>453</ele>
        <time>2011-04-03T09:22:01Z</time>
      </trkpt>
      <trkpt lat="46.08142" lon="6.40559">
        <ele>453</ele>
        <time>2011-04-03T09:22:02Z</time>
      </trkpt>
      <trkpt lat="46.08155" lon="6.40569">
        <ele>453</ele>
        <time>2011-04-03T09:22:03Z</time>
      </trkpt>
      <trkpt lat="46.08167" lon="6.40579">
        <ele>453</ele>
        <time>2011-04-03T09:22:04Z</time>
      </trkpt>
      <trkpt lat="46.08179" lon="6.4059">
        <ele>453</ele>
        <time>2011-04-03T09:22:05Z</time>
      </trkpt>
      <trkpt lat="46.08191" lon="6.40601">
        <ele>453</ele>
        <time>2011-04-03T09:22:06Z</time>
      </trkpt>
      <trkpt lat="46.08203" lon="6.40615">
        <ele>453</ele>
        <time>2011-04-03T09:22:07Z</time>
      </trkpt>
      <trkpt lat="46.08215" lon="6.40629">
        <ele>453</ele>
        <time>2011-04-03T09:22:08Z</time>
      </trkpt>
      <trkpt lat="46.08227" lon="6.40643">
        <ele>453</ele>
        <time>2011-04-03T09:22:09Z</time>
      </trkpt>
      <trkpt lat="46.0824" lon="6.40657">
        <ele>453</ele>
        <time>2011-04-03T09:22:10Z</time>
      </trkpt>
      <trkpt lat="46.08252" lon="6.4067">
        <ele>453</ele>
        <time>2011-04-03T09:22:11Z</time>
      </trkpt>
      <trkpt lat="46.08262" lon="6.4068">
        <ele>453</ele>
        <time>2011-04-03T09:22:12Z</time>
      </trkpt>
      <trkpt lat="46.08272" lon="6.4069">
        <ele>453</ele>
        <time>2011-04-03T09:22:13Z</time>
      </trkpt>
      <trkpt lat="46.08281" lon="6.407">
        <ele>453</ele>
        <time>2011-04-03T09:22:14Z</time>
      </trkpt>
      <trkpt lat="46.08291" lon="6.40709">
        <ele>453</ele>
        <time>2011-04-03T09:22:15Z</time>
      </trkpt>
      <trkpt lat="46.08301" lon="6.40717">
        <ele>453</ele>
        <time>2011-04-03T09:22:16Z</time>
      </trkpt>
      <trkpt lat="46.08311" lon="6.40724">
        <ele>453</ele>
        <time>2011-04-03T09:22:17Z</time>
      </trkpt>
      <trkpt lat="46.08321" lon="6.40731">
        <ele>453</ele>
        <time>2011-04-03T09:22:18Z</time>
      </trkpt>
      <trkpt lat="46.08332" lon="6.40738">
        <ele>453</ele>
        <time>2011-04-03T09:22:19Z</time>
      </trkpt>
      <trkpt lat="46.08343" lon="6.40744">
        <ele>453</ele>
        <time>2011-04-03T09:22:20Z</time>
      </trkpt>
      <trkpt lat="46.08354" lon="6.40751">
        <ele>453</ele>
        <time>2011-04-03T09:22:21Z</time>
      </trkpt>
      <trkpt lat="46.08364" lon="6.40757">
        <ele>453</ele>
        <time>2011-04-03T09:22:22Z</time>
      </trkpt>
      <trkpt lat="46.08373" lon="6.40762">
        <ele>453</ele>
        <time>2011-04-03T09:22:23Z</time>
      </trkpt>
      <trkpt lat="46.08383" lon="6.40767">
        <ele>458</ele>
        <time>2011-04-03T09:22:24Z</time>
      </trkpt>
      <trkpt lat="46.08393" lon="6.40771">
        <ele>458</ele>
        <time>2011-04-03T09:22:25Z</time>
      </trkpt>
      <trkpt lat="46.08404" lon="6.40773">
        <ele>458</ele>
        <time>2011-04-03T09:22:26Z</time>
      </trkpt>
      <trkpt lat="46.08413" lon="6.40774">
        <ele>458</ele>
        <time>2011-04-03T09:22:27Z</time>
      </trkpt>
      <trkpt lat="46.08429" lon="6.40772">
        <ele>458</ele>
        <time>2011-04-03T09:22:29Z</time>
      </trkpt>
      <trkpt lat="46.08443" lon="6.40763">
        <ele>458</ele>
        <time>2011-04-03T09:22:31Z</time>
      </trkpt>
      <trkpt lat="46.08449" lon="6.40753">
        <ele>458</ele>
        <time>2011-04-03T09:22:32Z</time>
      </trkpt>
      <trkpt lat="46.08455" lon="6.40741">
        <ele>458</ele>
        <time>2011-04-03T09:22:33Z</time>
      </trkpt>
      <trkpt lat="46.08465" lon="6.40719">
        <ele>458</ele>
        <time>2011-04-03T09:22:35Z</time>
      </trkpt>
      <trkpt lat="46.08474" lon="6.40705">
        <ele>458</ele>
        <time>2011-04-03T09:22:37Z</time>
      </trkpt>
      <trkpt lat="46.08489" lon="6.40704">
        <ele>458</ele>
        <time>2011-04-03T09:22:39Z</time>
      </trkpt>
      <trkpt lat="46.085" lon="6.40718">
        <ele>458</ele>
        <time>2011-04-03T09:22:41Z</time>
      </trkpt>
      <trkpt lat="46.08502" lon="6.40742">
        <ele>465</ele>
        <time>2011-04-03T09:22:43Z</time>
      </trkpt>
      <trkpt lat="46.08501" lon="6.40759">
        <ele>465</ele>
        <time>2011-04-03T09:22:44Z</time>
      </trkpt>
      <trkpt lat="46.08498" lon="6.40778">
        <ele>465</ele>
        <time>2011-04-03T09:22:45Z</time>
      </trkpt>
      <trkpt lat="46.08496" lon="6.40797">
        <ele>465</ele>
        <time>2011-04-03T09:22:46Z</time>
      </trkpt>
      <trkpt lat="46.08494" lon="6.40817">
        <ele>465</ele>
        <time>2011-04-03T09:22:47Z</time>
      </trkpt>
      <trkpt lat="46.0849" lon="6.40837">
        <ele>465</ele>
        <time>2011-04-03T09:22:48Z</time>
      </trkpt>
      <trkpt lat="46.08488" lon="6.40855">
        <ele>465</ele>
        <time>2011-04-03T09:22:49Z</time>
      </trkpt>
      <trkpt lat="46.08486" lon="6.40873">
        <ele>465</ele>
        <time>2011-04-03T09:22:50Z</time>
      </trkpt>
      <trkpt lat="46.08483" lon="6.4089">
        <ele>465</ele>
        <time>2011-04-03T09:22:51Z</time>
      </trkpt>
      <trkpt lat="46.08481" lon="6.40906">
        <ele>465</ele>
        <time>2011-04-03T09:22:52Z</time>
      </trkpt>
      <trkpt lat="46.08479" lon="6.40919">
        <ele>465</ele>
        <time>2011-04-03T09:22:53Z</time>
      </trkpt>
      <trkpt lat="46.08474" lon="6.40943">
        <ele>465</ele>
        <time>2011-04-03T09:22:55Z</time>
      </trkpt>
      <trkpt lat="46.08468" lon="6.40961">
        <ele>465</ele>
        <time>2011-04-03T09:22:57Z</time>
      </trkpt>
      <trkpt lat="46.08462" lon="6.40975">
        <ele>465</ele>
        <time>2011-04-03T09:22:59Z</time>
      </trkpt>
      <trkpt lat="46.08469" lon="6.40988">
        <ele>465</ele>
        <time>2011-04-03T09:23:02Z</time>
      </trkpt>
      <trkpt lat="46.08484" lon="6.40972">
        <ele>465</ele>
        <time>2011-04-03T09:23:04Z</time>
      </trkpt>
      <trkpt lat="46.08491" lon="6.40959">
        <ele>465</ele>
        <time>2011-04-03T09:23:05Z</time>
      </trkpt>
      <trkpt lat="46.08497" lon="6.40946">
        <ele>465</ele>
        <time>2011-04-03T09:23:06Z</time>
      </trkpt>
      <trkpt lat="46.08504" lon="6.40935">
        <ele>465</ele>
        <time>2011-04-03T09:23:07Z</time>
      </trkpt>
      <trkpt lat="46.08514" lon="6.40926">
        <ele>465</ele>
        <time>2011-04-03T09:23:08Z</time>
      </trkpt>
      <trkpt lat="46.08527" lon="6.40915">
        <ele>465</ele>
        <time>2011-04-03T09:23:10Z</time>
      </trkpt>
      <trkpt lat="46.08542" lon="6.40917">
        <ele>465</ele>
        <time>2011-04-03T09:23:12Z</time>
      </trkpt>
      <trkpt lat="46.08552" lon="6.40924">
        <ele>465</ele>
        <time>2011-04-03T09:23:13Z</time>
      </trkpt>
      <trkpt lat="46.08562" lon="6.40932">
        <ele>465</ele>
        <time>2011-04-03T09:23:14Z</time>
      </trkpt>
      <trkpt lat="46.08572" lon="6.40941">
        <ele>465</ele>
        <time>2011-04-03T09:23:15Z</time>
      </trkpt>
      <trkpt lat="46.08584" lon="6.40949">
        <ele>465</ele>
        <time>2011-04-03T09:23:16Z</time>
      </trkpt>
      <trkpt lat="46.08594" lon="6.40958">
        <ele>465</ele>
        <time>2011-04-03T09:23:17Z</time>
      </trkpt>
      <trkpt lat="46.08603" lon="6.40966">
        <ele>470</ele>
        <time>2011-04-03T09:23:18Z</time>
      </trkpt>
      <trkpt lat="46.08618" lon="6.40973">
        <ele>470</ele>
        <time>2011-04-03T09:23:20Z</time>
      </trkpt>
      <trkpt lat="46.08627" lon="6.40967">
        <ele>470</ele>
        <time>2011-04-03T09:23:22Z</time>
      </trkpt>
      <trkpt lat="46.08641" lon="6.40947">
        <ele>476</ele>
        <time>2011-04-03T09:23:24Z</time>
      </trkpt>
      <trkpt lat="46.08649" lon="6.40936">
        <ele>476</ele>
        <time>2011-04-03T09:23:25Z</time>
      </trkpt>
      <trkpt lat="46.08657" lon="6.40925">
        <ele>476</ele>
        <time>2011-04-03T09:23:26Z</time>
      </trkpt>
      <trkpt lat="46.0867" lon="6.40912">
        <ele>476</ele>
        <time>2011-04-03T09:23:28Z</time>
      </trkpt>
      <trkpt lat="46.08684" lon="6.40907">
        <ele>483</ele>
        <time>2011-04-03T09:23:30Z</time>
      </trkpt>
      <trkpt lat="46.08696" lon="6.40904">
        <ele>483</ele>
        <time>2011-04-03T09:23:32Z</time>
      </trkpt>
      <trkpt lat="46.08702" lon="6.40917">
        <ele>483</ele>
        <time>2011-04-03T09:23:36Z</time>
      </trkpt>
      <trkpt lat="46.08698" lon="6.40937">
        <ele>483</ele>
        <time>2011-04-03T09:23:38Z</time>
      </trkpt>
      <trkpt lat="46.08692" lon="6.4096">
        <ele>483</ele>
        <time>2011-04-03T09:23:40Z</time>
      </trkpt>
      <trkpt lat="46.08687" lon="6.40982">
        <ele>483</ele>
        <time>2011-04-03T09:23:42Z</time>
      </trkpt>
      <trkpt lat="46.08682" lon="6.41005">
        <ele>489</ele>
        <time>2011-04-03T09:23:44Z</time>
      </trkpt>
      <trkpt lat="46.0868" lon="6.4102">
        <ele>489</ele>
        <time>2011-04-03T09:23:46Z</time>
      </trkpt>
      <trkpt lat="46.08684" lon="6.41005">
        <ele>489</ele>
        <time>2011-04-03T09:23:54Z</time>
      </trkpt>
      <trkpt lat="46.08689" lon="6.40984">
        <ele>489</ele>
        <time>2011-04-03T09:23:56Z</time>
      </trkpt>
      <trkpt lat="46.08695" lon="6.4096">
        <ele>489</ele>
        <time>2011-04-03T09:23:58Z</time>
      </trkpt>
      <trkpt lat="46.087" lon="6.40938">
        <ele>489</ele>
        <time>2011-04-03T09:24:00Z</time>
      </trkpt>
      <trkpt lat="46.08702" lon="6.40917">
        <ele>489</ele>
        <time>2011-04-03T09:24:02Z</time>
      </trkpt>
      <trkpt lat="46.08703" lon="6.40901">
        <ele>489</ele>
        <time>2011-04-03T09:24:04Z</time>
      </trkpt>
      <trkpt lat="46.08712" lon="6.40893">
        <ele>489</ele>
        <time>2011-04-03T09:24:10Z</time>
      </trkpt>
      <trkpt lat="46.08723" lon="6.40893">
        <ele>489</ele>
        <time>2011-04-03T09:24:12Z</time>
      </trkpt>
      <trkpt lat="46.08741" lon="6.40902">
        <ele>489</ele>
        <time>2011-04-03T09:24:14Z</time>
      </trkpt>
      <trkpt lat="46.08752" lon="6.40908">
        <ele>489</ele>
        <time>2011-04-03T09:24:15Z</time>
      </trkpt>
      <trkpt lat="46.08762" lon="6.40914">
        <ele>489</ele>
        <time>2011-04-03T09:24:16Z</time>
      </trkpt>
      <trkpt lat="46.08773" lon="6.4092">
        <ele>494</ele>
        <time>2011-04-03T09:24:17Z</time>
      </trkpt>
      <trkpt lat="46.08782" lon="6.40926">
        <ele>494</ele>
        <time>2011-04-03T09:24:18Z</time>
      </trkpt>
      <trkpt lat="46.08791" lon="6.4093">
        <ele>494</ele>
        <time>2011-04-03T09:24:19Z</time>
      </trkpt>
      <trkpt lat="46.08805" lon="6.40938">
        <ele>502</ele>
        <time>2011-04-03T09:24:21Z</time>
      </trkpt>
      <trkpt lat="46.08814" lon="6.40947">
        <ele>502</ele>
        <time>2011-04-03T09:24:23Z</time>
      </trkpt>
      <trkpt lat="46.0881" lon="6.4097">
        <ele>512</ele>
        <time>2011-04-03T09:24:26Z</time>
      </trkpt>
      <trkpt lat="46.08806" lon="6.40985">
        <ele>512</ele>
        <time>2011-04-03T09:24:28Z</time>
      </trkpt>
      <trkpt lat="46.08802" lon="6.40997">
        <ele>512</ele>
        <time>2011-04-03T09:24:30Z</time>
      </trkpt>
      <trkpt lat="46.08796" lon="6.41012">
        <ele>517</ele>
        <time>2011-04-03T09:24:32Z</time>
      </trkpt>
      <trkpt lat="46.08788" lon="6.4103">
        <ele>517</ele>
        <time>2011-04-03T09:24:34Z</time>
      </trkpt>
      <trkpt lat="46.0878" lon="6.41052">
        <ele>517</ele>
        <time>2011-04-03T09:24:36Z</time>
      </trkpt>
      <trkpt lat="46.08774" lon="6.41075">
        <ele>523</ele>
        <time>2011-04-03T09:24:38Z</time>
      </trkpt>
      <trkpt lat="46.08772" lon="6.41088">
        <ele>523</ele>
        <time>2011-04-03T09:24:39Z</time>
      </trkpt>
      <trkpt lat="46.0877" lon="6.41101">
        <ele>523</ele>
        <time>2011-04-03T09:24:40Z</time>
      </trkpt>
      <trkpt lat="46.08767" lon="6.41114">
        <ele>523</ele>
        <time>2011-04-03T09:24:41Z</time>
      </trkpt>
      <trkpt lat="46.08766" lon="6.41128">
        <ele>523</ele>
        <time>2011-04-03T09:24:42Z</time>
      </trkpt>
      <trkpt lat="46.08764" lon="6.4115">
        <ele>523</ele>
        <time>2011-04-03T09:24:44Z</time>
      </trkpt>
      <trkpt lat="46.08764" lon="6.41165">
        <ele>523</ele>
        <time>2011-04-03T09:24:47Z</time>
      </trkpt>
      <trkpt lat="46.08767" lon="6.41152">
        <ele>523</ele>
        <time>2011-04-03T09:24:55Z</time>
      </trkpt>
      <trkpt lat="46.08778" lon="6.41149">
        <ele>523</ele>
        <time>2011-04-03T09:24:59Z</time>
      </trkpt>
      <trkpt lat="46.08787" lon="6.41156">
        <ele>523</ele>
        <time>2011-04-03T09:25:01Z</time>
      </trkpt>
      <trkpt lat="46.08796" lon="6.41159">
        <ele>529</ele>
        <time>2011-04-03T09:25:03Z</time>
      </trkpt>
      <trkpt lat="46.08805" lon="6.41162">
        <ele>529</ele>
        <time>2011-04-03T09:25:05Z</time>
      </trkpt>
      <trkpt lat="46.08817" lon="6.41159">
        <ele>534</ele>
        <time>2011-04-03T09:25:07Z</time>
      </trkpt>
      <trkpt lat="46.08829" lon="6.41155">
        <ele>534</ele>
        <time>2011-04-03T09:25:09Z</time>
      </trkpt>
      <trkpt lat="46.08842" lon="6.41152">
        <ele>540</ele>
        <time>2011-04-03T09:25:11Z</time>
      </trkpt>
      <trkpt lat="46.08851" lon="6.41149">
        <ele>540</ele>
        <time>2011-04-03T09:25:15Z</time>
      </trkpt>
      <trkpt lat="46.08861" lon="6.41145">
        <ele>548</ele>
        <time>2011-04-03T09:25:29Z</time>
      </trkpt>
      <trkpt lat="46.08874" lon="6.41139">
        <ele>548</ele>
        <time>2011-04-03T09:25:31Z</time>
      </trkpt>
      <trkpt lat="46.08886" lon="6.41133">
        <ele>548</ele>
        <time>2011-04-03T09:25:33Z</time>
      </trkpt>
      <trkpt lat="46.08896" lon="6.41134">
        <ele>548</ele>
        <time>2011-04-03T09:25:35Z</time>
      </trkpt>
      <trkpt lat="46.08909" lon="6.41138">
        <ele>554</ele>
        <time>2011-04-03T09:25:37Z</time>
      </trkpt>
      <trkpt lat="46.08918" lon="6.41138">
        <ele>554</ele>
        <time>2011-04-03T09:25:39Z</time>
      </trkpt>
      <trkpt lat="46.08927" lon="6.41125">
        <ele>554</ele>
        <time>2011-04-03T09:25:42Z</time>
      </trkpt>
      <trkpt lat="46.08936" lon="6.41113">
        <ele>560</ele>
        <time>2011-04-03T09:25:44Z</time>
      </trkpt>
      <trkpt lat="46.08944" lon="6.41104">
        <ele>560</ele>
        <time>2011-04-03T09:25:46Z</time>
      </trkpt>
      <trkpt lat="46.08956" lon="6.41108">
        <ele>560</ele>
        <time>2011-04-03T09:25:49Z</time>
      </trkpt>
      <trkpt lat="46.08965" lon="6.41114">
        <ele>567</ele>
        <time>2011-04-03T09:25:51Z</time>
      </trkpt>
      <trkpt lat="46.08975" lon="6.4112">
        <ele>567</ele>
        <time>2011-04-03T09:25:53Z</time>
      </trkpt>
      <trkpt lat="46.08984" lon="6.4112">
        <ele>578</ele>
        <time>2011-04-03T09:25:57Z</time>
      </trkpt>
      <trkpt lat="46.08994" lon="6.41118">
        <ele>578</ele>
        <time>2011-04-03T09:26:01Z</time>
      </trkpt>
      <trkpt lat="46.09007" lon="6.41116">
        <ele>593</ele>
        <time>2011-04-03T09:26:05Z</time>
      </trkpt>
      <trkpt lat="46.09019" lon="6.41117">
        <ele>601</ele>
        <time>2011-04-03T09:26:08Z</time>
      </trkpt>
      <trkpt lat="46.09032" lon="6.41119">
        <ele>611</ele>
        <time>2011-04-03T09:26:11Z</time>
      </trkpt>
      <trkpt lat="46.09046" lon="6.4112">
        <ele>617</ele>
        <time>2011-04-03T09:26:14Z</time>
      </trkpt>
      <trkpt lat="46.09059" lon="6.41119">
        <ele>617</ele>
        <time>2011-04-03T09:26:17Z</time>
      </trkpt>
      <trkpt lat="46.09071" lon="6.4112">
        <ele>626</ele>
        <time>2011-04-03T09:26:21Z</time>
      </trkpt>
      <trkpt lat="46.09081" lon="6.41123">
        <ele>626</ele>
        <time>2011-04-03T09:26:24Z</time>
      </trkpt>
      <trkpt lat="46.0909" lon="6.41124">
        <ele>626</ele>
        <time>2011-04-03T09:26:34Z</time>
      </trkpt>
      <trkpt lat="46.09098" lon="6.4113">
        <ele>616</ele>
        <time>2011-04-03T09:26:47Z</time>
      </trkpt>
      <trkpt lat="46.09102" lon="6.41142">
        <ele>597</ele>
        <time>2011-04-03T09:26:55Z</time>
      </trkpt>
      <trkpt lat="46.0911" lon="6.41153">
        <ele>579</ele>
        <time>2011-04-03T09:27:17Z</time>
      </trkpt>
      <trkpt lat="46.09117" lon="6.41163">
        <ele>568</ele>
        <time>2011-04-03T09:27:25Z</time>
      </trkpt>
      <trkpt lat="46.0911" lon="6.41154">
        <ele>568</ele>
        <time>2011-04-03T09:27:43Z</time>
      </trkpt>
      <trkpt lat="46.09102" lon="6.41145">
        <ele>583</ele>
        <time>2011-04-03T09:27:54Z</time>
      </trkpt>
      <trkpt lat="46.09096" lon="6.41132">
        <ele>600</ele>
        <time>2011-04-03T09:29:04Z</time>
      </trkpt>
      <trkpt lat="46.09104" lon="6.41138">
        <ele>584</ele>
        <time>2011-04-03T09:30:26Z</time>
      </trkpt>
      <trkpt lat="46.09096" lon="6.41132">
        <ele>600</ele>
        <time>2011-04-03T09:31:22Z</time>
      </trkpt>
      <trkpt lat="46.09087" lon="6.41123">
        <ele>611</ele>
        <time>2011-04-03T09:31:54Z</time>
      </trkpt>
      <trkpt lat="46.09082" lon="6.41112">
        <ele>621</ele>
        <time>2011-04-03T09:32:07Z</time>
      </trkpt>
      <trkpt lat="46.0909" lon="6.41122">
        <ele>608</ele>
        <time>2011-04-03T09:32:20Z</time>
      </trkpt>
      <trkpt lat="46.09097" lon="6.41134">
        <ele>597</ele>
        <time>2011-04-03T09:32:23Z</time>
      </trkpt>
      <trkpt lat="46.09103" lon="6.41144">
        <ele>585</ele>
        <time>2011-04-03T09:32:27Z</time>
      </trkpt>
      <trkpt lat="46.09094" lon="6.41138">
        <ele>597</ele>
        <time>2011-04-03T09:33:24Z</time>
      </trkpt>
      <trkpt lat="46.09087" lon="6.41129">
        <ele>608</ele>
        <time>2011-04-03T09:33:40Z</time>
      </trkpt>
      <trkpt lat="46.09097" lon="6.41129">
        <ele>589</ele>
        <time>2011-04-03T09:34:13Z</time>
      </trkpt>
      <trkpt lat="46.09089" lon="6.41134">
        <ele>617</ele>
        <time>2011-04-03T09:34:53Z</time>
      </trkpt>
      <trkpt lat="46.09097" lon="6.41138">
        <ele>626</ele>
        <time>2011-04-03T09:35:05Z</time>
      </trkpt>
      <trkpt lat="46.09112" lon="6.41141">
        <ele>626</ele>
        <time>2011-04-03T09:35:09Z</time>
      </trkpt>
      <trkpt lat="46.09129" lon="6.41138">
        <ele>626</ele>
        <time>2011-04-03T09:35:13Z</time>
      </trkpt>
      <trkpt lat="46.0914" lon="6.41134">
        <ele>626</ele>
        <time>2011-04-03T09:35:15Z</time>
      </trkpt>
      <trkpt lat="46.09149" lon="6.4113">
        <ele>626</ele>
        <time>2011-04-03T09:35:17Z</time>
      </trkpt>
      <trkpt lat="46.0916" lon="6.41128">
        <ele>626</ele>
        <time>2011-04-03T09:35:19Z</time>
      </trkpt>
      <trkpt lat="46.09172" lon="6.41128">
        <ele>626</ele>
        <time>2011-04-03T09:35:21Z</time>
      </trkpt>
      <trkpt lat="46.09185" lon="6.41129">
        <ele>631</ele>
        <time>2011-04-03T09:35:23Z</time>
      </trkpt>
      <trkpt lat="46.09197" lon="6.41128">
        <ele>631</ele>
        <time>2011-04-03T09:35:25Z</time>
      </trkpt>
      <trkpt lat="46.09209" lon="6.41127">
        <ele>640</ele>
        <time>2011-04-03T09:35:28Z</time>
      </trkpt>
      <trkpt lat="46.0922" lon="6.41128">
        <ele>640</ele>
        <time>2011-04-03T09:35:30Z</time>
      </trkpt>
      <trkpt lat="46.09231" lon="6.41129">
        <ele>646</ele>
        <time>2011-04-03T09:35:32Z</time>
      </trkpt>
      <trkpt lat="46.09241" lon="6.41138">
        <ele>652</ele>
        <time>2011-04-03T09:35:35Z</time>
      </trkpt>
      <trkpt lat="46.09249" lon="6.41145">
        <ele>652</ele>
        <time>2011-04-03T09:35:39Z</time>
      </trkpt>
      <trkpt lat="46.09257" lon="6.41156">
        <ele>664</ele>
        <time>2011-04-03T09:35:45Z</time>
      </trkpt>
      <trkpt lat="46.09268" lon="6.41162">
        <ele>664</ele>
        <time>2011-04-03T09:35:48Z</time>
      </trkpt>
      <trkpt lat="46.09277" lon="6.4117">
        <ele>673</ele>
        <time>2011-04-03T09:35:50Z</time>
      </trkpt>
      <trkpt lat="46.09284" lon="6.41182">
        <ele>673</ele>
        <time>2011-04-03T09:35:52Z</time>
      </trkpt>
      <trkpt lat="46.09295" lon="6.41188">
        <ele>681</ele>
        <time>2011-04-03T09:35:55Z</time>
      </trkpt>
      <trkpt lat="46.09305" lon="6.41181">
        <ele>681</ele>
        <time>2011-04-03T09:35:58Z</time>
      </trkpt>
      <trkpt lat="46.09316" lon="6.41177">
        <ele>681</ele>
        <time>2011-04-03T09:36:02Z</time>
      </trkpt>
      <trkpt lat="46.09326" lon="6.41183">
        <ele>687</ele>
        <time>2011-04-03T09:36:05Z</time>
      </trkpt>
      <trkpt lat="46.09339" lon="6.41189">
        <ele>687</ele>
        <time>2011-04-03T09:36:08Z</time>
      </trkpt>
      <trkpt lat="46.0935" lon="6.4119">
        <ele>696</ele>
        <time>2011-04-03T09:36:11Z</time>
      </trkpt>
      <trkpt lat="46.09362" lon="6.41189">
        <ele>696</ele>
        <time>2011-04-03T09:36:14Z</time>
      </trkpt>
      <trkpt lat="46.09371" lon="6.41193">
        <ele>703</ele>
        <time>2011-04-03T09:36:17Z</time>
      </trkpt>
      <trkpt lat="46.0938" lon="6.412">
        <ele>703</ele>
        <time>2011-04-03T09:36:20Z</time>
      </trkpt>
      <trkpt lat="46.09388" lon="6.41209">
        <ele>703</ele>
        <time>2011-04-03T09:36:24Z</time>
      </trkpt>
      <trkpt lat="46.09391" lon="6.41222">
        <ele>703</ele>
        <time>2011-04-03T09:36:32Z</time>
      </trkpt>
      <trkpt lat="46.09389" lon="6.41209">
        <ele>703</ele>
        <time>2011-04-03T09:37:25Z</time>
      </trkpt>
      <trkpt lat="46.09389" lon="6.41222">
        <ele>703</ele>
        <time>2011-04-03T09:42:17Z</time>
      </trkpt>
      <trkpt lat="46.09386" lon="6.41209">
        <ele>712</ele>
        <time>2011-04-03T09:43:10Z</time>
      </trkpt>
      <trkpt lat="46.09381" lon="6.41198">
        <ele>712</ele>
        <time>2011-04-03T09:43:46Z</time>
      </trkpt>
      <trkpt lat="46.09386" lon="6.41209">
        <ele>712</ele>
        <time>2011-04-03T09:44:38Z</time>
      </trkpt>
      <trkpt lat="46.09394" lon="6.41217">
        <ele>712</ele>
        <time>2011-04-03T09:44:57Z</time>
      </trkpt>
      <trkpt lat="46.09403" lon="6.41223">
        <ele>712</ele>
        <time>2011-04-03T09:45:01Z</time>
      </trkpt>
      <trkpt lat="46.09413" lon="6.41225">
        <ele>712</ele>
        <time>2011-04-03T09:45:05Z</time>
      </trkpt>
      <trkpt lat="46.09423" lon="6.41231">
        <ele>721</ele>
        <time>2011-04-03T09:45:09Z</time>
      </trkpt>
      <trkpt lat="46.09436" lon="6.41231">
        <ele>721</ele>
        <time>2011-04-03T09:45:12Z</time>
      </trkpt>
      <trkpt lat="46.09448" lon="6.41231">
        <ele>721</ele>
        <time>2011-04-03T09:45:15Z</time>
      </trkpt>
      <trkpt lat="46.09457" lon="6.41235">
        <ele>721</ele>
        <time>2011-04-03T09:45:17Z</time>
      </trkpt>
      <trkpt lat="46.09468" lon="6.4124">
        <ele>721</ele>
        <time>2011-04-03T09:45:20Z</time>
      </trkpt>
      <trkpt lat="46.09473" lon="6.41253">
        <ele>732</ele>
        <time>2011-04-03T09:45:25Z</time>
      </trkpt>
      <trkpt lat="46.09479" lon="6.41263">
        <ele>732</ele>
        <time>2011-04-03T09:45:27Z</time>
      </trkpt>
      <trkpt lat="46.09489" lon="6.41263">
        <ele>740</ele>
        <time>2011-04-03T09:45:30Z</time>
      </trkpt>
      <trkpt lat="46.09502" lon="6.41258">
        <ele>747</ele>
        <time>2011-04-03T09:46:23Z</time>
      </trkpt>
      <trkpt lat="46.09515" lon="6.4125">
        <ele>747</ele>
        <time>2011-04-03T09:46:25Z</time>
      </trkpt>
      <trkpt lat="46.09527" lon="6.41243">
        <ele>747</ele>
        <time>2011-04-03T09:46:27Z</time>
      </trkpt>
      <trkpt lat="46.09539" lon="6.41241">
        <ele>747</ele>
        <time>2011-04-03T09:46:29Z</time>
      </trkpt>
      <trkpt lat="46.09555" lon="6.4124">
        <ele>747</ele>
        <time>2011-04-03T09:46:31Z</time>
      </trkpt>
      <trkpt lat="46.09571" lon="6.41237">
        <ele>747</ele>
        <time>2011-04-03T09:46:33Z</time>
      </trkpt>
      <trkpt lat="46.09586" lon="6.41234">
        <ele>747</ele>
        <time>2011-04-03T09:46:35Z</time>
      </trkpt>
      <trkpt lat="46.09602" lon="6.41229">
        <ele>747</ele>
        <time>2011-04-03T09:46:37Z</time>
      </trkpt>
      <trkpt lat="46.09617" lon="6.41225">
        <ele>754</ele>
        <time>2011-04-03T09:46:39Z</time>
      </trkpt>
      <trkpt lat="46.09627" lon="6.41224">
        <ele>754</ele>
        <time>2011-04-03T09:46:41Z</time>
      </trkpt>
      <trkpt lat="46.09639" lon="6.41226">
        <ele>764</ele>
        <time>2011-04-03T09:46:44Z</time>
      </trkpt>
      <trkpt lat="46.09652" lon="6.41228">
        <ele>770</ele>
        <time>2011-04-03T09:46:47Z</time>
      </trkpt>
      <trkpt lat="46.09662" lon="6.41233">
        <ele>770</ele>
        <time>2011-04-03T09:46:49Z</time>
      </trkpt>
      <trkpt lat="46.09671" lon="6.41236">
        <ele>780</ele>
        <time>2011-04-03T09:46:51Z</time>
      </trkpt>
      <trkpt lat="46.09682" lon="6.41241">
        <ele>786</ele>
        <time>2011-04-03T09:46:54Z</time>
      </trkpt>
      <trkpt lat="46.09691" lon="6.4123">
        <ele>794</ele>
        <time>2011-04-03T09:48:23Z</time>
      </trkpt>
      <trkpt lat="46.09692" lon="6.41214">
        <ele>794</ele>
        <time>2011-04-03T09:48:27Z</time>
      </trkpt>
      <trkpt lat="46.09699" lon="6.412">
        <ele>794</ele>
        <time>2011-04-03T09:48:31Z</time>
      </trkpt>
      <trkpt lat="46.09707" lon="6.41189">
        <ele>794</ele>
        <time>2011-04-03T09:48:34Z</time>
      </trkpt>
      <trkpt lat="46.09714" lon="6.41178">
        <ele>801</ele>
        <time>2011-04-03T09:48:36Z</time>
      </trkpt>
      <trkpt lat="46.09721" lon="6.4117">
        <ele>801</ele>
        <time>2011-04-03T09:48:38Z</time>
      </trkpt>
      <trkpt lat="46.09732" lon="6.41163">
        <ele>801</ele>
        <time>2011-04-03T09:48:41Z</time>
      </trkpt>
      <trkpt lat="46.09741" lon="6.41155">
        <ele>801</ele>
        <time>2011-04-03T09:48:44Z</time>
      </trkpt>
      <trkpt lat="46.09751" lon="6.41145">
        <ele>807</ele>
        <time>2011-04-03T09:48:47Z</time>
      </trkpt>
      <trkpt lat="46.09761" lon="6.41134">
        <ele>807</ele>
        <time>2011-04-03T09:48:50Z</time>
      </trkpt>
      <trkpt lat="46.0977" lon="6.41127">
        <ele>819</ele>
        <time>2011-04-03T09:48:53Z</time>
      </trkpt>
      <trkpt lat="46.09779" lon="6.41135">
        <ele>829</ele>
        <time>2011-04-03T09:50:08Z</time>
      </trkpt>
      <trkpt lat="46.09787" lon="6.41143">
        <ele>829</ele>
        <time>2011-04-03T09:50:11Z</time>
      </trkpt>
      <trkpt lat="46.09796" lon="6.41147">
        <ele>829</ele>
        <time>2011-04-03T09:50:18Z</time>
      </trkpt>
      <trkpt lat="46.09787" lon="6.41141">
        <ele>835</ele>
        <time>2011-04-03T09:50:30Z</time>
      </trkpt>
      <trkpt lat="46.09797" lon="6.4115">
        <ele>857</ele>
        <time>2011-04-03T09:51:19Z</time>
      </trkpt>
      <trkpt lat="46.09807" lon="6.41158">
        <ele>857</ele>
        <time>2011-04-03T09:51:22Z</time>
      </trkpt>
      <trkpt lat="46.09816" lon="6.41165">
        <ele>857</ele>
        <time>2011-04-03T09:51:24Z</time>
      </trkpt>
      <trkpt lat="46.09826" lon="6.41175">
        <ele>857</ele>
        <time>2011-04-03T09:51:27Z</time>
      </trkpt>
      <trkpt lat="46.09832" lon="6.41191">
        <ele>857</ele>
        <time>2011-04-03T09:51:30Z</time>
      </trkpt>
      <trkpt lat="46.09837" lon="6.41203">
        <ele>857</ele>
        <time>2011-04-03T09:51:33Z</time>
      </trkpt>
      <trkpt lat="46.09846" lon="6.41211">
        <ele>857</ele>
        <time>2011-04-03T09:51:36Z</time>
      </trkpt>
      <trkpt lat="46.09854" lon="6.41203">
        <ele>857</ele>
        <time>2011-04-03T09:54:28Z</time>
      </trkpt>
      <trkpt lat="46.09845" lon="6.41199">
        <ele>867</ele>
        <time>2011-04-03T09:55:30Z</time>
      </trkpt>
      <trkpt lat="46.09852" lon="6.41208">
        <ele>857</ele>
        <time>2011-04-03T09:56:22Z</time>
      </trkpt>
      <trkpt lat="46.09844" lon="6.41203">
        <ele>874</ele>
        <time>2011-04-03T09:57:35Z</time>
      </trkpt>
      <trkpt lat="46.09834" lon="6.41206">
        <ele>886</ele>
        <time>2011-04-03T09:58:56Z</time>
      </trkpt>
      <trkpt lat="46.09825" lon="6.41208">
        <ele>894</ele>
        <time>2011-04-03T09:59:22Z</time>
      </trkpt>
      <trkpt lat="46.09833" lon="6.41215">
        <ele>876</ele>
        <time>2011-04-03T09:59:42Z</time>
      </trkpt>
      <trkpt lat="46.09842" lon="6.41212">
        <ele>876</ele>
        <time>2011-04-03T10:00:11Z</time>
      </trkpt>
      <trkpt lat="46.09834" lon="6.41205">
        <ele>891</ele>
        <time>2011-04-03T10:00:34Z</time>
      </trkpt>
      <trkpt lat="46.09844" lon="6.41211">
        <ele>870</ele>
        <time>2011-04-03T10:02:26Z</time>
      </trkpt>
      <trkpt lat="46.09841" lon="6.41199">
        <ele>878</ele>
        <time>2011-04-03T10:03:08Z</time>
      </trkpt>
      <trkpt lat="46.09844" lon="6.41212">
        <ele>865</ele>
        <time>2011-04-03T10:04:08Z</time>
      </trkpt>
      <trkpt lat="46.09852" lon="6.41218">
        <ele>878</ele>
        <time>2011-04-03T10:04:36Z</time>
      </trkpt>
      <trkpt lat="46.09847" lon="6.41207">
        <ele>893</ele>
        <time>2011-04-03T10:05:09Z</time>
      </trkpt>
      <trkpt lat="46.09855" lon="6.41215">
        <ele>893</ele>
        <time>2011-04-03T10:05:26Z</time>
      </trkpt>
      <trkpt lat="46.09864" lon="6.41225">
        <ele>893</ele>
        <time>2011-04-03T10:05:30Z</time>
      </trkpt>
      <trkpt lat="46.09855" lon="6.41219">
        <ele>910</ele>
        <time>2011-04-03T10:06:27Z</time>
      </trkpt>
      <trkpt lat="46.09864" lon="6.41222">
        <ele>885</ele>
        <time>2011-04-03T10:07:03Z</time>
      </trkpt>
      <trkpt lat="46.09873" lon="6.41226">
        <ele>885</ele>
        <time>2011-04-03T10:07:18Z</time>
      </trkpt>
      <trkpt lat="46.09942" lon="6.41327">
        <ele>744</ele>
        <time>2011-04-03T10:19:05Z</time>
      </trkpt>
      <trkpt lat="46.09912" lon="6.41307">
        <ele>880</ele>
        <time>2011-04-03T10:19:06Z</time>
      </trkpt>
      <trkpt lat="46.09907" lon="6.41295">
        <ele>888</ele>
        <time>2011-04-03T10:19:10Z</time>
      </trkpt>
      <trkpt lat="46.09907" lon="6.4128">
        <ele>897</ele>
        <time>2011-04-03T10:19:22Z</time>
      </trkpt>
      <trkpt lat="46.09912" lon="6.41293">
        <ele>880</ele>
        <time>2011-04-03T10:19:28Z</time>
      </trkpt>
      <trkpt lat="46.09921" lon="6.413">
        <ele>904</ele>
        <time>2011-04-03T10:21:07Z</time>
      </trkpt>
      <trkpt lat="46.09927" lon="6.41309">
        <ele>885</ele>
        <time>2011-04-03T10:23:41Z</time>
      </trkpt>
      <trkpt lat="46.09919" lon="6.41313">
        <ele>919</ele>
        <time>2011-04-03T10:24:57Z</time>
      </trkpt>
      <trkpt lat="46.09928" lon="6.41306">
        <ele>898</ele>
        <time>2011-04-03T10:26:27Z</time>
      </trkpt>
      <trkpt lat="46.09927" lon="6.41293">
        <ele>898</ele>
        <time>2011-04-03T10:28:24Z</time>
      </trkpt>
      <trkpt lat="46.09924" lon="6.41276">
        <ele>898</ele>
        <time>2011-04-03T10:28:33Z</time>
      </trkpt>
      <trkpt lat="46.09925" lon="6.41261">
        <ele>898</ele>
        <time>2011-04-03T10:28:36Z</time>
      </trkpt>
      <trkpt lat="46.09924" lon="6.41242">
        <ele>898</ele>
        <time>2011-04-03T10:28:39Z</time>
      </trkpt>
      <trkpt lat="46.09922" lon="6.41226">
        <ele>898</ele>
        <time>2011-04-03T10:28:41Z</time>
      </trkpt>
      <trkpt lat="46.09926" lon="6.41211">
        <ele>898</ele>
        <time>2011-04-03T10:28:44Z</time>
      </trkpt>
      <trkpt lat="46.09934" lon="6.41206">
        <ele>906</ele>
        <time>2011-04-03T10:30:38Z</time>
      </trkpt>
      <trkpt lat="46.09926" lon="6.412">
        <ele>916</ele>
        <time>2011-04-03T10:31:05Z</time>
      </trkpt>
      <trkpt lat="46.09925" lon="6.41183">
        <ele>916</ele>
        <time>2011-04-03T10:31:42Z</time>
      </trkpt>
      <trkpt lat="46.09927" lon="6.41171">
        <ele>916</ele>
        <time>2011-04-03T10:31:45Z</time>
      </trkpt>
      <trkpt lat="46.09927" lon="6.41156">
        <ele>916</ele>
        <time>2011-04-03T10:31:54Z</time>
      </trkpt>
      <trkpt lat="46.09927" lon="6.41138">
        <ele>916</ele>
        <time>2011-04-03T10:31:59Z</time>
      </trkpt>
      <trkpt lat="46.09929" lon="6.41121">
        <ele>916</ele>
        <time>2011-04-03T10:32:02Z</time>
      </trkpt>
      <trkpt lat="46.09931" lon="6.41106">
        <ele>922</ele>
        <time>2011-04-03T10:32:04Z</time>
      </trkpt>
      <trkpt lat="46.09934" lon="6.41093">
        <ele>922</ele>
        <time>2011-04-03T10:32:06Z</time>
      </trkpt>
      <trkpt lat="46.09937" lon="6.41078">
        <ele>922</ele>
        <time>2011-04-03T10:32:08Z</time>
      </trkpt>
      <trkpt lat="46.0994" lon="6.41063">
        <ele>922</ele>
        <time>2011-04-03T10:32:10Z</time>
      </trkpt>
      <trkpt lat="46.09937" lon="6.41045">
        <ele>922</ele>
        <time>2011-04-03T10:32:12Z</time>
      </trkpt>
      <trkpt lat="46.09931" lon="6.41031">
        <ele>928</ele>
        <time>2011-04-03T10:32:14Z</time>
      </trkpt>
      <trkpt lat="46.09929" lon="6.41014">
        <ele>928</ele>
        <time>2011-04-03T10:32:17Z</time>
      </trkpt>
      <trkpt lat="46.0994" lon="6.41005">
        <ele>935</ele>
        <time>2011-04-03T10:32:20Z</time>
      </trkpt>
      <trkpt lat="46.09951" lon="6.41004">
        <ele>935</ele>
        <time>2011-04-03T10:32:22Z</time>
      </trkpt>
      <trkpt lat="46.09962" lon="6.41005">
        <ele>941</ele>
        <time>2011-04-03T10:32:24Z</time>
      </trkpt>
      <trkpt lat="46.09971" lon="6.41009">
        <ele>935</ele>
        <time>2011-04-03T10:34:08Z</time>
      </trkpt>
      <trkpt lat="46.09972" lon="6.40991">
        <ele>940</ele>
        <time>2011-04-03T10:35:17Z</time>
      </trkpt>
      <trkpt lat="46.09974" lon="6.40973">
        <ele>940</ele>
        <time>2011-04-03T10:35:20Z</time>
      </trkpt>
      <trkpt lat="46.09977" lon="6.40957">
        <ele>940</ele>
        <time>2011-04-03T10:35:23Z</time>
      </trkpt>
      <trkpt lat="46.09979" lon="6.40944">
        <ele>940</ele>
        <time>2011-04-03T10:35:25Z</time>
      </trkpt>
      <trkpt lat="46.09982" lon="6.40931">
        <ele>940</ele>
        <time>2011-04-03T10:35:27Z</time>
      </trkpt>
      <trkpt lat="46.09987" lon="6.40917">
        <ele>940</ele>
        <time>2011-04-03T10:35:29Z</time>
      </trkpt>
      <trkpt lat="46.09996" lon="6.40897">
        <ele>945</ele>
        <time>2011-04-03T10:35:31Z</time>
      </trkpt>
      <trkpt lat="46.10003" lon="6.40883">
        <ele>945</ele>
        <time>2011-04-03T10:35:33Z</time>
      </trkpt>
      <trkpt lat="46.1001" lon="6.40872">
        <ele>945</ele>
        <time>2011-04-03T10:35:35Z</time>
      </trkpt>
      <trkpt lat="46.10019" lon="6.4086">
        <ele>945</ele>
        <time>2011-04-03T10:35:46Z</time>
      </trkpt>
      <trkpt lat="46.10024" lon="6.40846">
        <ele>945</ele>
        <time>2011-04-03T10:35:48Z</time>
      </trkpt>
      <trkpt lat="46.10029" lon="6.40829">
        <ele>945</ele>
        <time>2011-04-03T10:35:50Z</time>
      </trkpt>
      <trkpt lat="46.10033" lon="6.40811">
        <ele>945</ele>
        <time>2011-04-03T10:35:52Z</time>
      </trkpt>
      <trkpt lat="46.10036" lon="6.40799">
        <ele>951</ele>
        <time>2011-04-03T10:35:54Z</time>
      </trkpt>
      <trkpt lat="46.10039" lon="6.40786">
        <ele>951</ele>
        <time>2011-04-03T10:35:57Z</time>
      </trkpt>
      <trkpt lat="46.10039" lon="6.40768">
        <ele>951</ele>
        <time>2011-04-03T10:36:00Z</time>
      </trkpt>
      <trkpt lat="46.10041" lon="6.40752">
        <ele>951</ele>
        <time>2011-04-03T10:36:02Z</time>
      </trkpt>
      <trkpt lat="46.1004" lon="6.40735">
        <ele>951</ele>
        <time>2011-04-03T10:36:04Z</time>
      </trkpt>
      <trkpt lat="46.10038" lon="6.40718">
        <ele>951</ele>
        <time>2011-04-03T10:36:06Z</time>
      </trkpt>
      <trkpt lat="46.10032" lon="6.407">
        <ele>951</ele>
        <time>2011-04-03T10:36:09Z</time>
      </trkpt>
      <trkpt lat="46.10026" lon="6.40689">
        <ele>951</ele>
        <time>2011-04-03T10:36:11Z</time>
      </trkpt>
      <trkpt lat="46.1002" lon="6.40679">
        <ele>951</ele>
        <time>2011-04-03T10:36:13Z</time>
      </trkpt>
      <trkpt lat="46.10021" lon="6.40661">
        <ele>958</ele>
        <time>2011-04-03T10:36:16Z</time>
      </trkpt>
      <trkpt lat="46.10029" lon="6.4065">
        <ele>958</ele>
        <time>2011-04-03T10:36:18Z</time>
      </trkpt>
      <trkpt lat="46.10043" lon="6.40645">
        <ele>958</ele>
        <time>2011-04-03T10:36:20Z</time>
      </trkpt>
      <trkpt lat="46.10054" lon="6.40641">
        <ele>958</ele>
        <time>2011-04-03T10:36:22Z</time>
      </trkpt>
      <trkpt lat="46.10065" lon="6.40631">
        <ele>958</ele>
        <time>2011-04-03T10:36:24Z</time>
      </trkpt>
      <trkpt lat="46.10077" lon="6.40625">
        <ele>958</ele>
        <time>2011-04-03T10:36:26Z</time>
      </trkpt>
      <trkpt lat="46.10087" lon="6.40615">
        <ele>964</ele>
        <time>2011-04-03T10:36:28Z</time>
      </trkpt>
      <trkpt lat="46.10096" lon="6.40599">
        <ele>964</ele>
        <time>2011-04-03T10:36:30Z</time>
      </trkpt>
      <trkpt lat="46.10104" lon="6.40581">
        <ele>964</ele>
        <time>2011-04-03T10:36:32Z</time>
      </trkpt>
      <trkpt lat="46.10111" lon="6.40565">
        <ele>964</ele>
        <time>2011-04-03T10:36:34Z</time>
      </trkpt>
      <trkpt lat="46.10121" lon="6.40555">
        <ele>964</ele>
        <time>2011-04-03T10:36:36Z</time>
      </trkpt>
      <trkpt lat="46.10132" lon="6.40552">
        <ele>972</ele>
        <time>2011-04-03T10:36:38Z</time>
      </trkpt>
      <trkpt lat="46.10145" lon="6.40542">
        <ele>972</ele>
        <time>2011-04-03T10:36:40Z</time>
      </trkpt>
      <trkpt lat="46.10158" lon="6.40528">
        <ele>977</ele>
        <time>2011-04-03T10:36:42Z</time>
      </trkpt>
      <trkpt lat="46.10167" lon="6.40516">
        <ele>977</ele>
        <time>2011-04-03T10:36:44Z</time>
      </trkpt>
      <trkpt lat="46.10164" lon="6.40503">
        <ele>983</ele>
        <time>2011-04-03T10:36:57Z</time>
      </trkpt>
      <trkpt lat="46.10159" lon="6.4049">
        <ele>991</ele>
        <time>2011-04-03T10:37:01Z</time>
      </trkpt>
      <trkpt lat="46.10156" lon="6.40475">
        <ele>991</ele>
        <time>2011-04-03T10:37:05Z</time>
      </trkpt>
      <trkpt lat="46.10157" lon="6.40461">
        <ele>991</ele>
        <time>2011-04-03T10:37:09Z</time>
      </trkpt>
      <trkpt lat="46.10153" lon="6.40447">
        <ele>1004</ele>
        <time>2011-04-03T10:37:26Z</time>
      </trkpt>
      <trkpt lat="46.1015" lon="6.40431">
        <ele>1009</ele>
        <time>2011-04-03T10:37:37Z</time>
      </trkpt>
      <trkpt lat="46.10149" lon="6.40418">
        <ele>1009</ele>
        <time>2011-04-03T10:37:46Z</time>
      </trkpt>
      <trkpt lat="46.10144" lon="6.40406">
        <ele>1009</ele>
        <time>2011-04-03T10:37:56Z</time>
      </trkpt>
      <trkpt lat="46.10143" lon="6.40393">
        <ele>1003</ele>
        <time>2011-04-03T10:38:01Z</time>
      </trkpt>
      <trkpt lat="46.1014" lon="6.40377">
        <ele>1003</ele>
        <time>2011-04-03T10:38:06Z</time>
      </trkpt>
      <trkpt lat="46.10139" lon="6.40361">
        <ele>1003</ele>
        <time>2011-04-03T10:38:10Z</time>
      </trkpt>
      <trkpt lat="46.10137" lon="6.40347">
        <ele>1003</ele>
        <time>2011-04-03T10:38:13Z</time>
      </trkpt>
      <trkpt lat="46.10135" lon="6.40333">
        <ele>1003</ele>
        <time>2011-04-03T10:38:17Z</time>
      </trkpt>
      <trkpt lat="46.10128" lon="6.40323">
        <ele>1008</ele>
        <time>2011-04-03T10:38:29Z</time>
      </trkpt>
      <trkpt lat="46.10137" lon="6.40326">
        <ele>986</ele>
        <time>2011-04-03T10:39:13Z</time>
      </trkpt>
      <trkpt lat="46.10144" lon="6.40337">
        <ele>986</ele>
        <time>2011-04-03T10:39:24Z</time>
      </trkpt>
      <trkpt lat="46.10136" lon="6.40331">
        <ele>1005</ele>
        <time>2011-04-03T10:39:37Z</time>
      </trkpt>
      <trkpt lat="46.10141" lon="6.40342">
        <ele>995</ele>
        <time>2011-04-03T10:40:36Z</time>
      </trkpt>
      <trkpt lat="46.10144" lon="6.40354">
        <ele>995</ele>
        <time>2011-04-03T10:40:55Z</time>
      </trkpt>
      <trkpt lat="46.10142" lon="6.40339">
        <ele>995</ele>
        <time>2011-04-03T10:41:11Z</time>
      </trkpt>
      <trkpt lat="46.10144" lon="6.40322">
        <ele>995</ele>
        <time>2011-04-03T10:41:14Z</time>
      </trkpt>
      <trkpt lat="46.10147" lon="6.40309">
        <ele>995</ele>
        <time>2011-04-03T10:41:16Z</time>
      </trkpt>
      <trkpt lat="46.10151" lon="6.40293">
        <ele>995</ele>
        <time>2011-04-03T10:41:19Z</time>
      </trkpt>
      <trkpt lat="46.10151" lon="6.40278">
        <ele>1000</ele>
        <time>2011-04-03T10:41:22Z</time>
      </trkpt>
      <trkpt lat="46.10152" lon="6.4026">
        <ele>1000</ele>
        <time>2011-04-03T10:41:25Z</time>
      </trkpt>
      <trkpt lat="46.10154" lon="6.40241">
        <ele>1000</ele>
        <time>2011-04-03T10:41:28Z</time>
      </trkpt>
      <trkpt lat="46.10153" lon="6.40227">
        <ele>1000</ele>
        <time>2011-04-03T10:41:30Z</time>
      </trkpt>
      <trkpt lat="46.10152" lon="6.40212">
        <ele>1000</ele>
        <time>2011-04-03T10:41:32Z</time>
      </trkpt>
      <trkpt lat="46.10147" lon="6.40196">
        <ele>1000</ele>
        <time>2011-04-03T10:41:34Z</time>
      </trkpt>
      <trkpt lat="46.10142" lon="6.4018">
        <ele>1000</ele>
        <time>2011-04-03T10:41:36Z</time>
      </trkpt>
      <trkpt lat="46.10139" lon="6.40166">
        <ele>1000</ele>
        <time>2011-04-03T10:41:39Z</time>
      </trkpt>
      <trkpt lat="46.10147" lon="6.40157">
        <ele>991</ele>
        <time>2011-04-03T10:41:45Z</time>
      </trkpt>
      <trkpt lat="46.10156" lon="6.4015">
        <ele>991</ele>
        <time>2011-04-03T10:41:48Z</time>
      </trkpt>
      <trkpt lat="46.10161" lon="6.40131">
        <ele>991</ele>
        <time>2011-04-03T10:41:51Z</time>
      </trkpt>
      <trkpt lat="46.10164" lon="6.40117">
        <ele>985</ele>
        <time>2011-04-03T10:41:54Z</time>
      </trkpt>
      <trkpt lat="46.10173" lon="6.40106">
        <ele>985</ele>
        <time>2011-04-03T10:41:58Z</time>
      </trkpt>
      <trkpt lat="46.10184" lon="6.40097">
        <ele>985</ele>
        <time>2011-04-03T10:42:01Z</time>
      </trkpt>
      <trkpt lat="46.10191" lon="6.40086">
        <ele>976</ele>
        <time>2011-04-03T10:42:04Z</time>
      </trkpt>
      <trkpt lat="46.10199" lon="6.40074">
        <ele>976</ele>
        <time>2011-04-03T10:42:08Z</time>
      </trkpt>
      <trkpt lat="46.10202" lon="6.40061">
        <ele>968</ele>
        <time>2011-04-03T10:42:11Z</time>
      </trkpt>
      <trkpt lat="46.10206" lon="6.40048">
        <ele>968</ele>
        <time>2011-04-03T10:42:14Z</time>
      </trkpt>
      <trkpt lat="46.10208" lon="6.40029">
        <ele>968</ele>
        <time>2011-04-03T10:42:17Z</time>
      </trkpt>
      <trkpt lat="46.10212" lon="6.40016">
        <ele>962</ele>
        <time>2011-04-03T10:42:19Z</time>
      </trkpt>
      <trkpt lat="46.10215" lon="6.4">
        <ele>962</ele>
        <time>2011-04-03T10:42:21Z</time>
      </trkpt>
      <trkpt lat="46.10218" lon="6.39988">
        <ele>957</ele>
        <time>2011-04-03T10:42:23Z</time>
      </trkpt>
      <trkpt lat="46.10223" lon="6.39974">
        <ele>957</ele>
        <time>2011-04-03T10:42:25Z</time>
      </trkpt>
      <trkpt lat="46.10229" lon="6.39963">
        <ele>950</ele>
        <time>2011-04-03T10:42:27Z</time>
      </trkpt>
      <trkpt lat="46.10239" lon="6.39949">
        <ele>950</ele>
        <time>2011-04-03T10:42:30Z</time>
      </trkpt>
      <trkpt lat="46.10245" lon="6.39937">
        <ele>943</ele>
        <time>2011-04-03T10:42:32Z</time>
      </trkpt>
      <trkpt lat="46.10254" lon="6.39922">
        <ele>943</ele>
        <time>2011-04-03T10:42:34Z</time>
      </trkpt>
      <trkpt lat="46.10263" lon="6.3991">
        <ele>943</ele>
        <time>2011-04-03T10:42:36Z</time>
      </trkpt>
      <trkpt lat="46.1027" lon="6.39897">
        <ele>936</ele>
        <time>2011-04-03T10:42:38Z</time>
      </trkpt>
      <trkpt lat="46.10276" lon="6.39884">
        <ele>936</ele>
        <time>2011-04-03T10:42:40Z</time>
      </trkpt>
      <trkpt lat="46.10285" lon="6.39877">
        <ele>929</ele>
        <time>2011-04-03T10:42:42Z</time>
      </trkpt>
      <trkpt lat="46.10295" lon="6.39872">
        <ele>929</ele>
        <time>2011-04-03T10:42:44Z</time>
      </trkpt>
      <trkpt lat="46.10305" lon="6.39859">
        <ele>923</ele>
        <time>2011-04-03T10:42:47Z</time>
      </trkpt>
      <trkpt lat="46.1031" lon="6.39848">
        <ele>923</ele>
        <time>2011-04-03T10:42:51Z</time>
      </trkpt>
      <trkpt lat="46.10317" lon="6.39836">
        <ele>915</ele>
        <time>2011-04-03T10:43:29Z</time>
      </trkpt>
      <trkpt lat="46.10319" lon="6.39823">
        <ele>915</ele>
        <time>2011-04-03T10:43:30Z</time>
      </trkpt>
      <trkpt lat="46.10322" lon="6.39807">
        <ele>915</ele>
        <time>2011-04-03T10:43:31Z</time>
      </trkpt>
      <trkpt lat="46.10325" lon="6.39788">
        <ele>915</ele>
        <time>2011-04-03T10:43:32Z</time>
      </trkpt>
      <trkpt lat="46.10327" lon="6.39769">
        <ele>920</ele>
        <time>2011-04-03T10:43:33Z</time>
      </trkpt>
      <trkpt lat="46.10328" lon="6.39751">
        <ele>920</ele>
        <time>2011-04-03T10:43:34Z</time>
      </trkpt>
      <trkpt lat="46.10329" lon="6.39737">
        <ele>920</ele>
        <time>2011-04-03T10:43:35Z</time>
      </trkpt>
      <trkpt lat="46.10329" lon="6.39716">
        <ele>920</ele>
        <time>2011-04-03T10:43:37Z</time>
      </trkpt>
      <trkpt lat="46.1033" lon="6.39689">
        <ele>927</ele>
        <time>2011-04-03T10:43:39Z</time>
      </trkpt>
      <trkpt lat="46.10331" lon="6.39676">
        <ele>927</ele>
        <time>2011-04-03T10:43:40Z</time>
      </trkpt>
      <trkpt lat="46.1033" lon="6.39651">
        <ele>927</ele>
        <time>2011-04-03T10:43:42Z</time>
      </trkpt>
      <trkpt lat="46.1033" lon="6.39637">
        <ele>933</ele>
        <time>2011-04-03T10:43:43Z</time>
      </trkpt>
      <trkpt lat="46.10328" lon="6.39621">
        <ele>933</ele>
        <time>2011-04-03T10:43:44Z</time>
      </trkpt>
      <trkpt lat="46.10326" lon="6.39604">
        <ele>933</ele>
        <time>2011-04-03T10:43:45Z</time>
      </trkpt>
      <trkpt lat="46.10325" lon="6.39588">
        <ele>933</ele>
        <time>2011-04-03T10:43:46Z</time>
      </trkpt>
      <trkpt lat="46.10324" lon="6.39571">
        <ele>933</ele>
        <time>2011-04-03T10:43:47Z</time>
      </trkpt>
      <trkpt lat="46.10323" lon="6.39554">
        <ele>933</ele>
        <time>2011-04-03T10:43:48Z</time>
      </trkpt>
      <trkpt lat="46.10322" lon="6.39538">
        <ele>933</ele>
        <time>2011-04-03T10:43:49Z</time>
      </trkpt>
      <trkpt lat="46.10323" lon="6.39524">
        <ele>938</ele>
        <time>2011-04-03T10:43:50Z</time>
      </trkpt>
      <trkpt lat="46.10325" lon="6.39501">
        <ele>938</ele>
        <time>2011-04-03T10:43:52Z</time>
      </trkpt>
      <trkpt lat="46.10325" lon="6.39487">
        <ele>938</ele>
        <time>2011-04-03T10:43:53Z</time>
      </trkpt>
      <trkpt lat="46.10329" lon="6.39465">
        <ele>938</ele>
        <time>2011-04-03T10:43:55Z</time>
      </trkpt>
      <trkpt lat="46.10329" lon="6.39438">
        <ele>944</ele>
        <time>2011-04-03T10:43:57Z</time>
      </trkpt>
      <trkpt lat="46.10329" lon="6.39422">
        <ele>944</ele>
        <time>2011-04-03T10:43:58Z</time>
      </trkpt>
      <trkpt lat="46.10329" lon="6.39405">
        <ele>944</ele>
        <time>2011-04-03T10:43:59Z</time>
      </trkpt>
      <trkpt lat="46.10327" lon="6.39387">
        <ele>944</ele>
        <time>2011-04-03T10:44:00Z</time>
      </trkpt>
      <trkpt lat="46.10327" lon="6.39367">
        <ele>944</ele>
        <time>2011-04-03T10:44:01Z</time>
      </trkpt>
      <trkpt lat="46.10325" lon="6.39347">
        <ele>944</ele>
        <time>2011-04-03T10:44:02Z</time>
      </trkpt>
      <trkpt lat="46.10324" lon="6.39329">
        <ele>944</ele>
        <time>2011-04-03T10:44:03Z</time>
      </trkpt>
      <trkpt lat="46.10323" lon="6.39312">
        <ele>944</ele>
        <time>2011-04-03T10:44:04Z</time>
      </trkpt>
      <trkpt lat="46.10322" lon="6.39299">
        <ele>944</ele>
        <time>2011-04-03T10:44:05Z</time>
      </trkpt>
      <trkpt lat="46.10319" lon="6.39275">
        <ele>944</ele>
        <time>2011-04-03T10:44:07Z</time>
      </trkpt>
      <trkpt lat="46.10312" lon="6.39255">
        <ele>944</ele>
        <time>2011-04-03T10:44:09Z</time>
      </trkpt>
      <trkpt lat="46.103" lon="6.39236">
        <ele>944</ele>
        <time>2011-04-03T10:44:11Z</time>
      </trkpt>
      <trkpt lat="46.10293" lon="6.39221">
        <ele>944</ele>
        <time>2011-04-03T10:44:13Z</time>
      </trkpt>
      <trkpt lat="46.1029" lon="6.39206">
        <ele>944</ele>
        <time>2011-04-03T10:44:17Z</time>
      </trkpt>
      <trkpt lat="46.10292" lon="6.39191">
        <ele>944</ele>
        <time>2011-04-03T10:44:20Z</time>
      </trkpt>
      <trkpt lat="46.10295" lon="6.39177">
        <ele>944</ele>
        <time>2011-04-03T10:44:23Z</time>
      </trkpt>
      <trkpt lat="46.10302" lon="6.39163">
        <ele>935</ele>
        <time>2011-04-03T10:47:37Z</time>
      </trkpt>
      <trkpt lat="46.1031" lon="6.39151">
        <ele>935</ele>
        <time>2011-04-03T10:47:39Z</time>
      </trkpt>
      <trkpt lat="46.1032" lon="6.39132">
        <ele>935</ele>
        <time>2011-04-03T10:47:41Z</time>
      </trkpt>
      <trkpt lat="46.10331" lon="6.39114">
        <ele>935</ele>
        <time>2011-04-03T10:47:43Z</time>
      </trkpt>
      <trkpt lat="46.1034" lon="6.39104">
        <ele>935</ele>
        <time>2011-04-03T10:47:45Z</time>
      </trkpt>
      <trkpt lat="46.10353" lon="6.39095">
        <ele>935</ele>
        <time>2011-04-03T10:47:47Z</time>
      </trkpt>
      <trkpt lat="46.1037" lon="6.39087">
        <ele>935</ele>
        <time>2011-04-03T10:47:49Z</time>
      </trkpt>
      <trkpt lat="46.10384" lon="6.39078">
        <ele>944</ele>
        <time>2011-04-03T10:47:51Z</time>
      </trkpt>
      <trkpt lat="46.10394" lon="6.39068">
        <ele>944</ele>
        <time>2011-04-03T10:47:53Z</time>
      </trkpt>
      <trkpt lat="46.104" lon="6.39054">
        <ele>944</ele>
        <time>2011-04-03T10:47:56Z</time>
      </trkpt>
      <trkpt lat="46.10401" lon="6.39035">
        <ele>944</ele>
        <time>2011-04-03T10:47:59Z</time>
      </trkpt>
      <trkpt lat="46.104" lon="6.39022">
        <ele>944</ele>
        <time>2011-04-03T10:48:01Z</time>
      </trkpt>
      <trkpt lat="46.10401" lon="6.39005">
        <ele>944</ele>
        <time>2011-04-03T10:48:03Z</time>
      </trkpt>
      <trkpt lat="46.10402" lon="6.3899">
        <ele>944</ele>
        <time>2011-04-03T10:48:05Z</time>
      </trkpt>
      <trkpt lat="46.104" lon="6.38972">
        <ele>944</ele>
        <time>2011-04-03T10:48:08Z</time>
      </trkpt>
      <trkpt lat="46.10398" lon="6.38956">
        <ele>944</ele>
        <time>2011-04-03T10:48:10Z</time>
      </trkpt>
      <trkpt lat="46.10397" lon="6.38938">
        <ele>944</ele>
        <time>2011-04-03T10:48:12Z</time>
      </trkpt>
      <trkpt lat="46.10395" lon="6.38919">
        <ele>944</ele>
        <time>2011-04-03T10:48:14Z</time>
      </trkpt>
      <trkpt lat="46.10391" lon="6.38902">
        <ele>944</ele>
        <time>2011-04-03T10:48:16Z</time>
      </trkpt>
      <trkpt lat="46.10386" lon="6.38886">
        <ele>944</ele>
        <time>2011-04-03T10:48:18Z</time>
      </trkpt>
      <trkpt lat="46.10383" lon="6.38873">
        <ele>949</ele>
        <time>2011-04-03T10:48:20Z</time>
      </trkpt>
      <trkpt lat="46.10387" lon="6.38859">
        <ele>949</ele>
        <time>2011-04-03T10:48:59Z</time>
      </trkpt>
      <trkpt lat="46.10393" lon="6.3884">
        <ele>949</ele>
        <time>2011-04-03T10:49:01Z</time>
      </trkpt>
      <trkpt lat="46.10397" lon="6.38818">
        <ele>949</ele>
        <time>2011-04-03T10:49:03Z</time>
      </trkpt>
      <trkpt lat="46.10398" lon="6.38802">
        <ele>949</ele>
        <time>2011-04-03T10:49:05Z</time>
      </trkpt>
      <trkpt lat="46.10397" lon="6.38787">
        <ele>949</ele>
        <time>2011-04-03T10:49:07Z</time>
      </trkpt>
      <trkpt lat="46.10397" lon="6.3877">
        <ele>949</ele>
        <time>2011-04-03T10:49:10Z</time>
      </trkpt>
      <trkpt lat="46.10397" lon="6.38756">
        <ele>949</ele>
        <time>2011-04-03T10:49:12Z</time>
      </trkpt>
      <trkpt lat="46.10394" lon="6.38737">
        <ele>949</ele>
        <time>2011-04-03T10:49:14Z</time>
      </trkpt>
      <trkpt lat="46.10393" lon="6.38724">
        <ele>949</ele>
        <time>2011-04-03T10:49:16Z</time>
      </trkpt>
      <trkpt lat="46.10385" lon="6.38708">
        <ele>949</ele>
        <time>2011-04-03T10:49:19Z</time>
      </trkpt>
      <trkpt lat="46.10377" lon="6.387">
        <ele>949</ele>
        <time>2011-04-03T10:49:21Z</time>
      </trkpt>
      <trkpt lat="46.10368" lon="6.38687">
        <ele>949</ele>
        <time>2011-04-03T10:49:24Z</time>
      </trkpt>
      <trkpt lat="46.10363" lon="6.38674">
        <ele>949</ele>
        <time>2011-04-03T10:49:27Z</time>
      </trkpt>
      <trkpt lat="46.10354" lon="6.38669">
        <ele>949</ele>
        <time>2011-04-03T10:49:30Z</time>
      </trkpt>
      <trkpt lat="46.10344" lon="6.38673">
        <ele>949</ele>
        <time>2011-04-03T10:49:33Z</time>
      </trkpt>
      <trkpt lat="46.10341" lon="6.38687">
        <ele>949</ele>
        <time>2011-04-03T10:49:36Z</time>
      </trkpt>
      <trkpt lat="46.10352" lon="6.38693">
        <ele>949</ele>
        <time>2011-04-03T10:49:39Z</time>
      </trkpt>
      <trkpt lat="46.10363" lon="6.3869">
        <ele>949</ele>
        <time>2011-04-03T10:49:42Z</time>
      </trkpt>
      <trkpt lat="46.10372" lon="6.38682">
        <ele>949</ele>
        <time>2011-04-03T10:49:47Z</time>
      </trkpt>
      <trkpt lat="46.10375" lon="6.38669">
        <ele>949</ele>
        <time>2011-04-03T10:49:49Z</time>
      </trkpt>
      <trkpt lat="46.10381" lon="6.38652">
        <ele>949</ele>
        <time>2011-04-03T10:49:51Z</time>
      </trkpt>
      <trkpt lat="46.10387" lon="6.38629">
        <ele>949</ele>
        <time>2011-04-03T10:49:53Z</time>
      </trkpt>
      <trkpt lat="46.1039" lon="6.38607">
        <ele>949</ele>
        <time>2011-04-03T10:49:55Z</time>
      </trkpt>
      <trkpt lat="46.10393" lon="6.38592">
        <ele>949</ele>
        <time>2011-04-03T10:49:57Z</time>
      </trkpt>
      <trkpt lat="46.10395" lon="6.38578">
        <ele>949</ele>
        <time>2011-04-03T10:49:59Z</time>
      </trkpt>
      <trkpt lat="46.10399" lon="6.3856">
        <ele>949</ele>
        <time>2011-04-03T10:50:01Z</time>
      </trkpt>
      <trkpt lat="46.10404" lon="6.38537">
        <ele>949</ele>
        <time>2011-04-03T10:50:03Z</time>
      </trkpt>
      <trkpt lat="46.10405" lon="6.38523">
        <ele>949</ele>
        <time>2011-04-03T10:50:04Z</time>
      </trkpt>
      <trkpt lat="46.10405" lon="6.38509">
        <ele>949</ele>
        <time>2011-04-03T10:50:05Z</time>
      </trkpt>
      <trkpt lat="46.10407" lon="6.38496">
        <ele>949</ele>
        <time>2011-04-03T10:50:06Z</time>
      </trkpt>
      <trkpt lat="46.1041" lon="6.3847">
        <ele>949</ele>
        <time>2011-04-03T10:50:08Z</time>
      </trkpt>
      <trkpt lat="46.10416" lon="6.38451">
        <ele>949</ele>
        <time>2011-04-03T10:50:10Z</time>
      </trkpt>
      <trkpt lat="46.10416" lon="6.38435">
        <ele>949</ele>
        <time>2011-04-03T10:50:12Z</time>
      </trkpt>
      <trkpt lat="46.10408" lon="6.38424">
        <ele>957</ele>
        <time>2011-04-03T10:50:15Z</time>
      </trkpt>
      <trkpt lat="46.10404" lon="6.38411">
        <ele>957</ele>
        <time>2011-04-03T10:50:19Z</time>
      </trkpt>
      <trkpt lat="46.10405" lon="6.38394">
        <ele>966</ele>
        <time>2011-04-03T10:50:30Z</time>
      </trkpt>
      <trkpt lat="46.1041" lon="6.38382">
        <ele>966</ele>
        <time>2011-04-03T10:50:32Z</time>
      </trkpt>
      <trkpt lat="46.10418" lon="6.3837">
        <ele>966</ele>
        <time>2011-04-03T10:50:34Z</time>
      </trkpt>
      <trkpt lat="46.10427" lon="6.38356">
        <ele>966</ele>
        <time>2011-04-03T10:50:36Z</time>
      </trkpt>
      <trkpt lat="46.10442" lon="6.38345">
        <ele>966</ele>
        <time>2011-04-03T10:50:38Z</time>
      </trkpt>
      <trkpt lat="46.10455" lon="6.38333">
        <ele>966</ele>
        <time>2011-04-03T10:50:40Z</time>
      </trkpt>
      <trkpt lat="46.10469" lon="6.38318">
        <ele>966</ele>
        <time>2011-04-03T10:50:42Z</time>
      </trkpt>
      <trkpt lat="46.10481" lon="6.38304">
        <ele>966</ele>
        <time>2011-04-03T10:50:44Z</time>
      </trkpt>
      <trkpt lat="46.1049" lon="6.38293">
        <ele>966</ele>
        <time>2011-04-03T10:50:46Z</time>
      </trkpt>
      <trkpt lat="46.10498" lon="6.38281">
        <ele>958</ele>
        <time>2011-04-03T10:50:48Z</time>
      </trkpt>
      <trkpt lat="46.10506" lon="6.3827">
        <ele>958</ele>
        <time>2011-04-03T10:50:50Z</time>
      </trkpt>
      <trkpt lat="46.10517" lon="6.38262">
        <ele>958</ele>
        <time>2011-04-03T10:50:53Z</time>
      </trkpt>
      <trkpt lat="46.10527" lon="6.38253">
        <ele>951</ele>
        <time>2011-04-03T10:50:56Z</time>
      </trkpt>
      <trkpt lat="46.10539" lon="6.38241">
        <ele>951</ele>
        <time>2011-04-03T10:50:59Z</time>
      </trkpt>
      <trkpt lat="46.10547" lon="6.3823">
        <ele>951</ele>
        <time>2011-04-03T10:51:01Z</time>
      </trkpt>
      <trkpt lat="46.10555" lon="6.38216">
        <ele>951</ele>
        <time>2011-04-03T10:51:03Z</time>
      </trkpt>
      <trkpt lat="46.10564" lon="6.38206">
        <ele>945</ele>
        <time>2011-04-03T10:51:06Z</time>
      </trkpt>
      <trkpt lat="46.10573" lon="6.3821">
        <ele>945</ele>
        <time>2011-04-03T10:51:09Z</time>
      </trkpt>
      <trkpt lat="46.10584" lon="6.38212">
        <ele>945</ele>
        <time>2011-04-03T10:51:13Z</time>
      </trkpt>
      <trkpt lat="46.10594" lon="6.382">
        <ele>945</ele>
        <time>2011-04-03T10:51:16Z</time>
      </trkpt>
      <trkpt lat="46.10604" lon="6.38189">
        <ele>937</ele>
        <time>2011-04-03T10:51:18Z</time>
      </trkpt>
      <trkpt lat="46.10613" lon="6.38179">
        <ele>937</ele>
        <time>2011-04-03T10:51:20Z</time>
      </trkpt>
      <trkpt lat="46.10625" lon="6.3817">
        <ele>930</ele>
        <time>2011-04-03T10:51:22Z</time>
      </trkpt>
      <trkpt lat="46.10639" lon="6.3816">
        <ele>930</ele>
        <time>2011-04-03T10:51:24Z</time>
      </trkpt>
      <trkpt lat="46.10648" lon="6.38154">
        <ele>925</ele>
        <time>2011-04-03T10:51:25Z</time>
      </trkpt>
      <trkpt lat="46.10656" lon="6.38148">
        <ele>925</ele>
        <time>2011-04-03T10:51:26Z</time>
      </trkpt>
      <trkpt lat="46.10668" lon="6.38134">
        <ele>925</ele>
        <time>2011-04-03T10:51:28Z</time>
      </trkpt>
      <trkpt lat="46.10674" lon="6.38123">
        <ele>916</ele>
        <time>2011-04-03T10:51:30Z</time>
      </trkpt>
      <trkpt lat="46.10674" lon="6.38109">
        <ele>916</ele>
        <time>2011-04-03T10:51:37Z</time>
      </trkpt>
      <trkpt lat="46.10674" lon="6.38095">
        <ele>910</ele>
        <time>2011-04-03T10:51:42Z</time>
      </trkpt>
      <trkpt lat="46.10674" lon="6.38081">
        <ele>910</ele>
        <time>2011-04-03T10:51:44Z</time>
      </trkpt>
      <trkpt lat="46.10675" lon="6.38067">
        <ele>910</ele>
        <time>2011-04-03T10:51:46Z</time>
      </trkpt>
      <trkpt lat="46.10679" lon="6.38054">
        <ele>910</ele>
        <time>2011-04-03T10:51:48Z</time>
      </trkpt>
      <trkpt lat="46.10687" lon="6.38042">
        <ele>910</ele>
        <time>2011-04-03T10:51:50Z</time>
      </trkpt>
      <trkpt lat="46.10698" lon="6.38031">
        <ele>910</ele>
        <time>2011-04-03T10:51:52Z</time>
      </trkpt>
      <trkpt lat="46.10707" lon="6.38022">
        <ele>910</ele>
        <time>2011-04-03T10:51:54Z</time>
      </trkpt>
      <trkpt lat="46.10716" lon="6.38018">
        <ele>910</ele>
        <time>2011-04-03T10:51:58Z</time>
      </trkpt>
      <trkpt lat="46.10717" lon="6.38004">
        <ele>910</ele>
        <time>2011-04-03T10:52:05Z</time>
      </trkpt>
      <trkpt lat="46.10712" lon="6.3799">
        <ele>910</ele>
        <time>2011-04-03T10:52:08Z</time>
      </trkpt>
      <trkpt lat="46.10707" lon="6.37976">
        <ele>910</ele>
        <time>2011-04-03T10:52:10Z</time>
      </trkpt>
      <trkpt lat="46.10703" lon="6.37962">
        <ele>910</ele>
        <time>2011-04-03T10:52:12Z</time>
      </trkpt>
      <trkpt lat="46.10698" lon="6.37948">
        <ele>910</ele>
        <time>2011-04-03T10:52:14Z</time>
      </trkpt>
      <trkpt lat="46.10689" lon="6.37939">
        <ele>910</ele>
        <time>2011-04-03T10:52:16Z</time>
      </trkpt>
      <trkpt lat="46.10677" lon="6.37934">
        <ele>910</ele>
        <time>2011-04-03T10:52:18Z</time>
      </trkpt>
      <trkpt lat="46.10662" lon="6.37931">
        <ele>910</ele>
        <time>2011-04-03T10:52:20Z</time>
      </trkpt>
      <trkpt lat="46.10652" lon="6.37925">
        <ele>917</ele>
        <time>2011-04-03T10:52:22Z</time>
      </trkpt>
      <trkpt lat="46.10643" lon="6.37913">
        <ele>917</ele>
        <time>2011-04-03T10:52:24Z</time>
      </trkpt>
      <trkpt lat="46.10633" lon="6.37896">
        <ele>924</ele>
        <time>2011-04-03T10:52:26Z</time>
      </trkpt>
      <trkpt lat="46.10625" lon="6.37882">
        <ele>924</ele>
        <time>2011-04-03T10:52:28Z</time>
      </trkpt>
      <trkpt lat="46.10617" lon="6.37869">
        <ele>924</ele>
        <time>2011-04-03T10:52:30Z</time>
      </trkpt>
      <trkpt lat="46.10609" lon="6.3786">
        <ele>931</ele>
        <time>2011-04-03T10:52:32Z</time>
      </trkpt>
      <trkpt lat="46.10599" lon="6.37857">
        <ele>931</ele>
        <time>2011-04-03T10:52:34Z</time>
      </trkpt>
      <trkpt lat="46.10589" lon="6.37859">
        <ele>931</ele>
        <time>2011-04-03T10:52:36Z</time>
      </trkpt>
      <trkpt lat="46.10579" lon="6.37865">
        <ele>939</ele>
        <time>2011-04-03T10:52:38Z</time>
      </trkpt>
      <trkpt lat="46.10569" lon="6.37873">
        <ele>939</ele>
        <time>2011-04-03T10:52:40Z</time>
      </trkpt>
      <trkpt lat="46.1056" lon="6.3788">
        <ele>946</ele>
        <time>2011-04-03T10:52:42Z</time>
      </trkpt>
      <trkpt lat="46.10551" lon="6.37886">
        <ele>946</ele>
        <time>2011-04-03T10:52:44Z</time>
      </trkpt>
      <trkpt lat="46.10539" lon="6.37886">
        <ele>958</ele>
        <time>2011-04-03T10:52:47Z</time>
      </trkpt>
      <trkpt lat="46.1053" lon="6.37877">
        <ele>958</ele>
        <time>2011-04-03T10:53:08Z</time>
      </trkpt>
      <trkpt lat="46.10522" lon="6.37867">
        <ele>958</ele>
        <time>2011-04-03T10:53:12Z</time>
      </trkpt>
      <trkpt lat="46.10532" lon="6.37869">
        <ele>958</ele>
        <time>2011-04-03T10:53:22Z</time>
      </trkpt>
      <trkpt lat="46.10539" lon="6.37878">
        <ele>958</ele>
        <time>2011-04-03T10:53:25Z</time>
      </trkpt>
      <trkpt lat="46.10546" lon="6.37887">
        <ele>958</ele>
        <time>2011-04-03T10:53:29Z</time>
      </trkpt>
      <trkpt lat="46.10555" lon="6.37882">
        <ele>958</ele>
        <time>2011-04-03T10:53:32Z</time>
      </trkpt>
      <trkpt lat="46.10564" lon="6.37873">
        <ele>952</ele>
        <time>2011-04-03T10:53:35Z</time>
      </trkpt>
      <trkpt lat="46.10574" lon="6.37868">
        <ele>952</ele>
        <time>2011-04-03T10:53:38Z</time>
      </trkpt>
      <trkpt lat="46.10582" lon="6.37863">
        <ele>952</ele>
        <time>2011-04-03T10:53:41Z</time>
      </trkpt>
      <trkpt lat="46.10592" lon="6.3786">
        <ele>944</ele>
        <time>2011-04-03T10:53:44Z</time>
      </trkpt>
      <trkpt lat="46.10605" lon="6.37865">
        <ele>938</ele>
        <time>2011-04-03T10:53:47Z</time>
      </trkpt>
      <trkpt lat="46.10614" lon="6.37871">
        <ele>938</ele>
        <time>2011-04-03T10:53:50Z</time>
      </trkpt>
      <trkpt lat="46.1062" lon="6.37881">
        <ele>931</ele>
        <time>2011-04-03T10:53:53Z</time>
      </trkpt>
      <trkpt lat="46.10627" lon="6.37892">
        <ele>931</ele>
        <time>2011-04-03T10:54:02Z</time>
      </trkpt>
      <trkpt lat="46.10633" lon="6.37904">
        <ele>926</ele>
        <time>2011-04-03T10:54:04Z</time>
      </trkpt>
      <trkpt lat="46.1064" lon="6.37914">
        <ele>926</ele>
        <time>2011-04-03T10:54:06Z</time>
      </trkpt>
      <trkpt lat="46.10649" lon="6.37923">
        <ele>926</ele>
        <time>2011-04-03T10:54:08Z</time>
      </trkpt>
      <trkpt lat="46.10659" lon="6.37932">
        <ele>921</ele>
        <time>2011-04-03T10:54:11Z</time>
      </trkpt>
      <trkpt lat="46.10672" lon="6.37936">
        <ele>921</ele>
        <time>2011-04-03T10:54:14Z</time>
      </trkpt>
      <trkpt lat="46.10682" lon="6.37935">
        <ele>921</ele>
        <time>2011-04-03T10:54:25Z</time>
      </trkpt>
      <trkpt lat="46.10689" lon="6.37945">
        <ele>921</ele>
        <time>2011-04-03T10:54:31Z</time>
      </trkpt>
      <trkpt lat="46.10696" lon="6.37955">
        <ele>914</ele>
        <time>2011-04-03T10:54:34Z</time>
      </trkpt>
      <trkpt lat="46.10702" lon="6.3797">
        <ele>914</ele>
        <time>2011-04-03T10:54:38Z</time>
      </trkpt>
      <trkpt lat="46.10707" lon="6.37985">
        <ele>906</ele>
        <time>2011-04-03T10:54:41Z</time>
      </trkpt>
      <trkpt lat="46.10712" lon="6.37997">
        <ele>906</ele>
        <time>2011-04-03T10:54:43Z</time>
      </trkpt>
      <trkpt lat="46.10717" lon="6.3801">
        <ele>906</ele>
        <time>2011-04-03T10:54:45Z</time>
      </trkpt>
      <trkpt lat="46.10722" lon="6.38025">
        <ele>898</ele>
        <time>2011-04-03T10:54:48Z</time>
      </trkpt>
      <trkpt lat="46.10732" lon="6.38028">
        <ele>898</ele>
        <time>2011-04-03T10:54:52Z</time>
      </trkpt>
      <trkpt lat="46.10742" lon="6.38025">
        <ele>898</ele>
        <time>2011-04-03T10:54:54Z</time>
      </trkpt>
      <trkpt lat="46.10754" lon="6.3802">
        <ele>898</ele>
        <time>2011-04-03T10:54:56Z</time>
      </trkpt>
      <trkpt lat="46.10763" lon="6.38015">
        <ele>898</ele>
        <time>2011-04-03T10:54:58Z</time>
      </trkpt>
      <trkpt lat="46.10771" lon="6.38006">
        <ele>898</ele>
        <time>2011-04-03T10:55:00Z</time>
      </trkpt>
      <trkpt lat="46.10778" lon="6.37998">
        <ele>898</ele>
        <time>2011-04-03T10:55:02Z</time>
      </trkpt>
      <trkpt lat="46.10788" lon="6.37985">
        <ele>890</ele>
        <time>2011-04-03T10:55:05Z</time>
      </trkpt>
      <trkpt lat="46.108" lon="6.37977">
        <ele>890</ele>
        <time>2011-04-03T10:55:07Z</time>
      </trkpt>
      <trkpt lat="46.1081" lon="6.37969">
        <ele>890</ele>
        <time>2011-04-03T10:55:09Z</time>
      </trkpt>
      <trkpt lat="46.1082" lon="6.3796">
        <ele>890</ele>
        <time>2011-04-03T10:55:11Z</time>
      </trkpt>
      <trkpt lat="46.1083" lon="6.37949">
        <ele>890</ele>
        <time>2011-04-03T10:55:13Z</time>
      </trkpt>
      <trkpt lat="46.10838" lon="6.37934">
        <ele>884</ele>
        <time>2011-04-03T10:55:15Z</time>
      </trkpt>
      <trkpt lat="46.10845" lon="6.3792">
        <ele>884</ele>
        <time>2011-04-03T10:55:17Z</time>
      </trkpt>
      <trkpt lat="46.10853" lon="6.37904">
        <ele>884</ele>
        <time>2011-04-03T10:55:19Z</time>
      </trkpt>
      <trkpt lat="46.1086" lon="6.37887">
        <ele>877</ele>
        <time>2011-04-03T10:55:21Z</time>
      </trkpt>
      <trkpt lat="46.10868" lon="6.37871">
        <ele>877</ele>
        <time>2011-04-03T10:55:23Z</time>
      </trkpt>
      <trkpt lat="46.10875" lon="6.37857">
        <ele>877</ele>
        <time>2011-04-03T10:55:25Z</time>
      </trkpt>
      <trkpt lat="46.10882" lon="6.37845">
        <ele>870</ele>
        <time>2011-04-03T10:55:28Z</time>
      </trkpt>
      <trkpt lat="46.10892" lon="6.37827">
        <ele>870</ele>
        <time>2011-04-03T10:55:45Z</time>
      </trkpt>
      <trkpt lat="46.10902" lon="6.37812">
        <ele>870</ele>
        <time>2011-04-03T10:55:47Z</time>
      </trkpt>
      <trkpt lat="46.10914" lon="6.37799">
        <ele>865</ele>
        <time>2011-04-03T10:55:49Z</time>
      </trkpt>
      <trkpt lat="46.10931" lon="6.37793">
        <ele>865</ele>
        <time>2011-04-03T10:55:51Z</time>
      </trkpt>
      <trkpt lat="46.1094" lon="6.3779">
        <ele>865</ele>
        <time>2011-04-03T10:55:52Z</time>
      </trkpt>
      <trkpt lat="46.1095" lon="6.37786">
        <ele>865</ele>
        <time>2011-04-03T10:55:53Z</time>
      </trkpt>
      <trkpt lat="46.10968" lon="6.37781">
        <ele>865</ele>
        <time>2011-04-03T10:55:55Z</time>
      </trkpt>
      <trkpt lat="46.10985" lon="6.37775">
        <ele>859</ele>
        <time>2011-04-03T10:55:57Z</time>
      </trkpt>
      <trkpt lat="46.11" lon="6.37774">
        <ele>859</ele>
        <time>2011-04-03T10:55:59Z</time>
      </trkpt>
      <trkpt lat="46.11013" lon="6.37774">
        <ele>859</ele>
        <time>2011-04-03T10:56:01Z</time>
      </trkpt>
      <trkpt lat="46.11026" lon="6.3777">
        <ele>859</ele>
        <time>2011-04-03T10:56:03Z</time>
      </trkpt>
      <trkpt lat="46.11037" lon="6.37765">
        <ele>859</ele>
        <time>2011-04-03T10:56:05Z</time>
      </trkpt>
      <trkpt lat="46.11045" lon="6.37759">
        <ele>859</ele>
        <time>2011-04-03T10:56:07Z</time>
      </trkpt>
      <trkpt lat="46.11056" lon="6.37755">
        <ele>853</ele>
        <time>2011-04-03T10:56:10Z</time>
      </trkpt>
      <trkpt lat="46.11064" lon="6.37746">
        <ele>853</ele>
        <time>2011-04-03T10:56:12Z</time>
      </trkpt>
      <trkpt lat="46.11077" lon="6.37728">
        <ele>853</ele>
        <time>2011-04-03T10:56:14Z</time>
      </trkpt>
      <trkpt lat="46.11083" lon="6.37719">
        <ele>848</ele>
        <time>2011-04-03T10:56:15Z</time>
      </trkpt>
      <trkpt lat="46.11095" lon="6.37701">
        <ele>848</ele>
        <time>2011-04-03T10:56:17Z</time>
      </trkpt>
      <trkpt lat="46.11108" lon="6.37684">
        <ele>848</ele>
        <time>2011-04-03T10:56:19Z</time>
      </trkpt>
      <trkpt lat="46.11117" lon="6.37676">
        <ele>848</ele>
        <time>2011-04-03T10:56:20Z</time>
      </trkpt>
      <trkpt lat="46.11125" lon="6.3767">
        <ele>848</ele>
        <time>2011-04-03T10:56:21Z</time>
      </trkpt>
      <trkpt lat="46.11133" lon="6.37663">
        <ele>848</ele>
        <time>2011-04-03T10:56:22Z</time>
      </trkpt>
      <trkpt lat="46.11141" lon="6.37657">
        <ele>848</ele>
        <time>2011-04-03T10:56:23Z</time>
      </trkpt>
      <trkpt lat="46.11149" lon="6.3765">
        <ele>848</ele>
        <time>2011-04-03T10:56:24Z</time>
      </trkpt>
      <trkpt lat="46.11162" lon="6.37641">
        <ele>840</ele>
        <time>2011-04-03T10:56:26Z</time>
      </trkpt>
      <trkpt lat="46.11173" lon="6.3763">
        <ele>840</ele>
        <time>2011-04-03T10:56:28Z</time>
      </trkpt>
      <trkpt lat="46.11181" lon="6.3761">
        <ele>840</ele>
        <time>2011-04-03T10:56:30Z</time>
      </trkpt>
      <trkpt lat="46.11189" lon="6.37591">
        <ele>833</ele>
        <time>2011-04-03T10:56:32Z</time>
      </trkpt>
      <trkpt lat="46.11198" lon="6.37571">
        <ele>833</ele>
        <time>2011-04-03T10:56:34Z</time>
      </trkpt>
      <trkpt lat="46.11208" lon="6.37551">
        <ele>828</ele>
        <time>2011-04-03T10:56:36Z</time>
      </trkpt>
      <trkpt lat="46.11216" lon="6.37534">
        <ele>828</ele>
        <time>2011-04-03T10:56:38Z</time>
      </trkpt>
      <trkpt lat="46.11223" lon="6.37519">
        <ele>828</ele>
        <time>2011-04-03T10:56:40Z</time>
      </trkpt>
      <trkpt lat="46.11228" lon="6.37506">
        <ele>823</ele>
        <time>2011-04-03T10:56:42Z</time>
      </trkpt>
      <trkpt lat="46.11233" lon="6.37494">
        <ele>823</ele>
        <time>2011-04-03T10:56:44Z</time>
      </trkpt>
      <trkpt lat="46.1124" lon="6.37482">
        <ele>818</ele>
        <time>2011-04-03T10:56:47Z</time>
      </trkpt>
      <trkpt lat="46.11248" lon="6.37472">
        <ele>818</ele>
        <time>2011-04-03T10:56:50Z</time>
      </trkpt>
      <trkpt lat="46.11256" lon="6.3746">
        <ele>812</ele>
        <time>2011-04-03T10:56:53Z</time>
      </trkpt>
      <trkpt lat="46.11268" lon="6.37463">
        <ele>812</ele>
        <time>2011-04-03T10:56:57Z</time>
      </trkpt>
      <trkpt lat="46.11279" lon="6.37475">
        <ele>812</ele>
        <time>2011-04-03T10:56:59Z</time>
      </trkpt>
      <trkpt lat="46.11291" lon="6.37493">
        <ele>812</ele>
        <time>2011-04-03T10:57:01Z</time>
      </trkpt>
      <trkpt lat="46.11298" lon="6.37504">
        <ele>812</ele>
        <time>2011-04-03T10:57:02Z</time>
      </trkpt>
      <trkpt lat="46.11306" lon="6.37515">
        <ele>812</ele>
        <time>2011-04-03T10:57:03Z</time>
      </trkpt>
      <trkpt lat="46.11315" lon="6.37525">
        <ele>812</ele>
        <time>2011-04-03T10:57:04Z</time>
      </trkpt>
      <trkpt lat="46.11325" lon="6.37534">
        <ele>812</ele>
        <time>2011-04-03T10:57:05Z</time>
      </trkpt>
      <trkpt lat="46.11335" lon="6.37544">
        <ele>812</ele>
        <time>2011-04-03T10:57:06Z</time>
      </trkpt>
      <trkpt lat="46.11345" lon="6.37553">
        <ele>812</ele>
        <time>2011-04-03T10:57:07Z</time>
      </trkpt>
      <trkpt lat="46.11354" lon="6.37563">
        <ele>812</ele>
        <time>2011-04-03T10:57:08Z</time>
      </trkpt>
      <trkpt lat="46.11361" lon="6.37572">
        <ele>812</ele>
        <time>2011-04-03T10:57:09Z</time>
      </trkpt>
      <trkpt lat="46.11375" lon="6.37586">
        <ele>812</ele>
        <time>2011-04-03T10:57:11Z</time>
      </trkpt>
      <trkpt lat="46.11387" lon="6.37597">
        <ele>812</ele>
        <time>2011-04-03T10:57:13Z</time>
      </trkpt>
      <trkpt lat="46.11401" lon="6.37609">
        <ele>812</ele>
        <time>2011-04-03T10:57:15Z</time>
      </trkpt>
      <trkpt lat="46.11416" lon="6.37622">
        <ele>812</ele>
        <time>2011-04-03T10:57:17Z</time>
      </trkpt>
      <trkpt lat="46.1143" lon="6.37633">
        <ele>812</ele>
        <time>2011-04-03T10:57:19Z</time>
      </trkpt>
      <trkpt lat="46.11442" lon="6.37644">
        <ele>812</ele>
        <time>2011-04-03T10:57:21Z</time>
      </trkpt>
      <trkpt lat="46.11452" lon="6.37652">
        <ele>812</ele>
        <time>2011-04-03T10:57:23Z</time>
      </trkpt>
      <trkpt lat="46.11462" lon="6.37656">
        <ele>812</ele>
        <time>2011-04-03T10:57:25Z</time>
      </trkpt>
      <trkpt lat="46.11475" lon="6.37657">
        <ele>812</ele>
        <time>2011-04-03T10:57:27Z</time>
      </trkpt>
      <trkpt lat="46.11487" lon="6.37654">
        <ele>812</ele>
        <time>2011-04-03T10:57:29Z</time>
      </trkpt>
      <trkpt lat="46.115" lon="6.37656">
        <ele>812</ele>
        <time>2011-04-03T10:57:31Z</time>
      </trkpt>
      <trkpt lat="46.11511" lon="6.37664">
        <ele>807</ele>
        <time>2011-04-03T10:57:33Z</time>
      </trkpt>
      <trkpt lat="46.1152" lon="6.37674">
        <ele>807</ele>
        <time>2011-04-03T10:57:35Z</time>
      </trkpt>
      <trkpt lat="46.11528" lon="6.37681">
        <ele>807</ele>
        <time>2011-04-03T10:57:37Z</time>
      </trkpt>
      <trkpt lat="46.11539" lon="6.37677">
        <ele>807</ele>
        <time>2011-04-03T10:57:40Z</time>
      </trkpt>
      <trkpt lat="46.11544" lon="6.37658">
        <ele>800</ele>
        <time>2011-04-03T10:57:42Z</time>
      </trkpt>
      <trkpt lat="46.11548" lon="6.37636">
        <ele>800</ele>
        <time>2011-04-03T10:57:44Z</time>
      </trkpt>
      <trkpt lat="46.11549" lon="6.37622">
        <ele>800</ele>
        <time>2011-04-03T10:57:45Z</time>
      </trkpt>
      <trkpt lat="46.11551" lon="6.37597">
        <ele>800</ele>
        <time>2011-04-03T10:57:47Z</time>
      </trkpt>
      <trkpt lat="46.11551" lon="6.37575">
        <ele>794</ele>
        <time>2011-04-03T10:57:49Z</time>
      </trkpt>
      <trkpt lat="46.11553" lon="6.37555">
        <ele>794</ele>
        <time>2011-04-03T10:57:51Z</time>
      </trkpt>
      <trkpt lat="46.11556" lon="6.3754">
        <ele>794</ele>
        <time>2011-04-03T10:57:53Z</time>
      </trkpt>
      <trkpt lat="46.11563" lon="6.37525">
        <ele>794</ele>
        <time>2011-04-03T10:57:55Z</time>
      </trkpt>
      <trkpt lat="46.11573" lon="6.37508">
        <ele>794</ele>
        <time>2011-04-03T10:57:57Z</time>
      </trkpt>
      <trkpt lat="46.11581" lon="6.3749">
        <ele>789</ele>
        <time>2011-04-03T10:57:59Z</time>
      </trkpt>
      <trkpt lat="46.11586" lon="6.37472">
        <ele>789</ele>
        <time>2011-04-03T10:58:01Z</time>
      </trkpt>
      <trkpt lat="46.11589" lon="6.37454">
        <ele>789</ele>
        <time>2011-04-03T10:58:03Z</time>
      </trkpt>
      <trkpt lat="46.11589" lon="6.37436">
        <ele>789</ele>
        <time>2011-04-03T10:58:05Z</time>
      </trkpt>
      <trkpt lat="46.11588" lon="6.37419">
        <ele>782</ele>
        <time>2011-04-03T10:58:07Z</time>
      </trkpt>
      <trkpt lat="46.11585" lon="6.37402">
        <ele>782</ele>
        <time>2011-04-03T10:58:09Z</time>
      </trkpt>
      <trkpt lat="46.11583" lon="6.37387">
        <ele>782</ele>
        <time>2011-04-03T10:58:11Z</time>
      </trkpt>
      <trkpt lat="46.11581" lon="6.37372">
        <ele>782</ele>
        <time>2011-04-03T10:58:20Z</time>
      </trkpt>
      <trkpt lat="46.11579" lon="6.37356">
        <ele>782</ele>
        <time>2011-04-03T10:58:23Z</time>
      </trkpt>
      <trkpt lat="46.11577" lon="6.37339">
        <ele>776</ele>
        <time>2011-04-03T10:58:25Z</time>
      </trkpt>
      <trkpt lat="46.11576" lon="6.37323">
        <ele>776</ele>
        <time>2011-04-03T10:58:27Z</time>
      </trkpt>
      <trkpt lat="46.11576" lon="6.37307">
        <ele>776</ele>
        <time>2011-04-03T10:58:29Z</time>
      </trkpt>
      <trkpt lat="46.11571" lon="6.3729">
        <ele>776</ele>
        <time>2011-04-03T10:58:31Z</time>
      </trkpt>
      <trkpt lat="46.11562" lon="6.37276">
        <ele>776</ele>
        <time>2011-04-03T10:58:33Z</time>
      </trkpt>
      <trkpt lat="46.11554" lon="6.37259">
        <ele>770</ele>
        <time>2011-04-03T10:58:35Z</time>
      </trkpt>
      <trkpt lat="46.11548" lon="6.3724">
        <ele>770</ele>
        <time>2011-04-03T10:58:37Z</time>
      </trkpt>
      <trkpt lat="46.11544" lon="6.3722">
        <ele>770</ele>
        <time>2011-04-03T10:58:39Z</time>
      </trkpt>
      <trkpt lat="46.11542" lon="6.37199">
        <ele>770</ele>
        <time>2011-04-03T10:58:41Z</time>
      </trkpt>
      <trkpt lat="46.11542" lon="6.37176">
        <ele>764</ele>
        <time>2011-04-03T10:58:43Z</time>
      </trkpt>
      <trkpt lat="46.11548" lon="6.37151">
        <ele>764</ele>
        <time>2011-04-03T10:58:45Z</time>
      </trkpt>
      <trkpt lat="46.11552" lon="6.37137">
        <ele>764</ele>
        <time>2011-04-03T10:58:46Z</time>
      </trkpt>
      <trkpt lat="46.11556" lon="6.37123">
        <ele>764</ele>
        <time>2011-04-03T10:58:47Z</time>
      </trkpt>
      <trkpt lat="46.1156" lon="6.37109">
        <ele>764</ele>
        <time>2011-04-03T10:58:48Z</time>
      </trkpt>
      <trkpt lat="46.11564" lon="6.37095">
        <ele>764</ele>
        <time>2011-04-03T10:58:49Z</time>
      </trkpt>
      <trkpt lat="46.11568" lon="6.37082">
        <ele>759</ele>
        <time>2011-04-03T10:58:50Z</time>
      </trkpt>
      <trkpt lat="46.11574" lon="6.3706">
        <ele>759</ele>
        <time>2011-04-03T10:58:52Z</time>
      </trkpt>
      <trkpt lat="46.1158" lon="6.37048">
        <ele>759</ele>
        <time>2011-04-03T10:58:54Z</time>
      </trkpt>
      <trkpt lat="46.11593" lon="6.37048">
        <ele>759</ele>
        <time>2011-04-03T10:59:09Z</time>
      </trkpt>
      <trkpt lat="46.11605" lon="6.37059">
        <ele>759</ele>
        <time>2011-04-03T10:59:11Z</time>
      </trkpt>
      <trkpt lat="46.11613" lon="6.37068">
        <ele>759</ele>
        <time>2011-04-03T10:59:12Z</time>
      </trkpt>
      <trkpt lat="46.1162" lon="6.37077">
        <ele>759</ele>
        <time>2011-04-03T10:59:13Z</time>
      </trkpt>
      <trkpt lat="46.11629" lon="6.37088">
        <ele>759</ele>
        <time>2011-04-03T10:59:14Z</time>
      </trkpt>
      <trkpt lat="46.11637" lon="6.37099">
        <ele>759</ele>
        <time>2011-04-03T10:59:15Z</time>
      </trkpt>
      <trkpt lat="46.11646" lon="6.37109">
        <ele>759</ele>
        <time>2011-04-03T10:59:16Z</time>
      </trkpt>
      <trkpt lat="46.11654" lon="6.37118">
        <ele>759</ele>
        <time>2011-04-03T10:59:17Z</time>
      </trkpt>
      <trkpt lat="46.11663" lon="6.37127">
        <ele>759</ele>
        <time>2011-04-03T10:59:18Z</time>
      </trkpt>
      <trkpt lat="46.11671" lon="6.37136">
        <ele>759</ele>
        <time>2011-04-03T10:59:19Z</time>
      </trkpt>
      <trkpt lat="46.11679" lon="6.37145">
        <ele>759</ele>
        <time>2011-04-03T10:59:20Z</time>
      </trkpt>
      <trkpt lat="46.11688" lon="6.37155">
        <ele>759</ele>
        <time>2011-04-03T10:59:21Z</time>
      </trkpt>
      <trkpt lat="46.11696" lon="6.37163">
        <ele>759</ele>
        <time>2011-04-03T10:59:22Z</time>
      </trkpt>
      <trkpt lat="46.11704" lon="6.37172">
        <ele>759</ele>
        <time>2011-04-03T10:59:23Z</time>
      </trkpt>
      <trkpt lat="46.11713" lon="6.3718">
        <ele>759</ele>
        <time>2011-04-03T10:59:24Z</time>
      </trkpt>
      <trkpt lat="46.11723" lon="6.37187">
        <ele>759</ele>
        <time>2011-04-03T10:59:25Z</time>
      </trkpt>
      <trkpt lat="46.11731" lon="6.37193">
        <ele>759</ele>
        <time>2011-04-03T10:59:26Z</time>
      </trkpt>
      <trkpt lat="46.1174" lon="6.37199">
        <ele>759</ele>
        <time>2011-04-03T10:59:27Z</time>
      </trkpt>
      <trkpt lat="46.11754" lon="6.37216">
        <ele>759</ele>
        <time>2011-04-03T10:59:29Z</time>
      </trkpt>
      <trkpt lat="46.11764" lon="6.37234">
        <ele>759</ele>
        <time>2011-04-03T10:59:31Z</time>
      </trkpt>
      <trkpt lat="46.11774" lon="6.37247">
        <ele>759</ele>
        <time>2011-04-03T10:59:33Z</time>
      </trkpt>
      <trkpt lat="46.11787" lon="6.37252">
        <ele>759</ele>
        <time>2011-04-03T10:59:35Z</time>
      </trkpt>
      <trkpt lat="46.11804" lon="6.37257">
        <ele>759</ele>
        <time>2011-04-03T10:59:37Z</time>
      </trkpt>
      <trkpt lat="46.1182" lon="6.37263">
        <ele>759</ele>
        <time>2011-04-03T10:59:39Z</time>
      </trkpt>
      <trkpt lat="46.11834" lon="6.37271">
        <ele>753</ele>
        <time>2011-04-03T10:59:41Z</time>
      </trkpt>
      <trkpt lat="46.11847" lon="6.37277">
        <ele>753</ele>
        <time>2011-04-03T10:59:43Z</time>
      </trkpt>
      <trkpt lat="46.11862" lon="6.37284">
        <ele>753</ele>
        <time>2011-04-03T10:59:45Z</time>
      </trkpt>
      <trkpt lat="46.11879" lon="6.37288">
        <ele>753</ele>
        <time>2011-04-03T10:59:47Z</time>
      </trkpt>
      <trkpt lat="46.11894" lon="6.3729">
        <ele>753</ele>
        <time>2011-04-03T10:59:49Z</time>
      </trkpt>
      <trkpt lat="46.11909" lon="6.37289">
        <ele>747</ele>
        <time>2011-04-03T10:59:51Z</time>
      </trkpt>
      <trkpt lat="46.11921" lon="6.37285">
        <ele>747</ele>
        <time>2011-04-03T10:59:53Z</time>
      </trkpt>
      <trkpt lat="46.11932" lon="6.37279">
        <ele>747</ele>
        <time>2011-04-03T10:59:55Z</time>
      </trkpt>
      <trkpt lat="46.11941" lon="6.37277">
        <ele>747</ele>
        <time>2011-04-03T10:59:57Z</time>
      </trkpt>
      <trkpt lat="46.11953" lon="6.37274">
        <ele>747</ele>
        <time>2011-04-03T10:59:59Z</time>
      </trkpt>
      <trkpt lat="46.11962" lon="6.37269">
        <ele>747</ele>
        <time>2011-04-03T11:00:00Z</time>
      </trkpt>
      <trkpt lat="46.11971" lon="6.37267">
        <ele>747</ele>
        <time>2011-04-03T11:00:01Z</time>
      </trkpt>
      <trkpt lat="46.11982" lon="6.37266">
        <ele>747</ele>
        <time>2011-04-03T11:00:02Z</time>
      </trkpt>
      <trkpt lat="46.11994" lon="6.37266">
        <ele>747</ele>
        <time>2011-04-03T11:00:03Z</time>
      </trkpt>
      <trkpt lat="46.12006" lon="6.37267">
        <ele>747</ele>
        <time>2011-04-03T11:00:04Z</time>
      </trkpt>
      <trkpt lat="46.12017" lon="6.37267">
        <ele>747</ele>
        <time>2011-04-03T11:00:05Z</time>
      </trkpt>
      <trkpt lat="46.12027" lon="6.37268">
        <ele>747</ele>
        <time>2011-04-03T11:00:06Z</time>
      </trkpt>
      <trkpt lat="46.12037" lon="6.37268">
        <ele>747</ele>
        <time>2011-04-03T11:00:07Z</time>
      </trkpt>
      <trkpt lat="46.12049" lon="6.37267">
        <ele>747</ele>
        <time>2011-04-03T11:00:08Z</time>
      </trkpt>
      <trkpt lat="46.1206" lon="6.37264">
        <ele>742</ele>
        <time>2011-04-03T11:00:09Z</time>
      </trkpt>
      <trkpt lat="46.12072" lon="6.37259">
        <ele>742</ele>
        <time>2011-04-03T11:00:10Z</time>
      </trkpt>
      <trkpt lat="46.12085" lon="6.37249">
        <ele>742</ele>
        <time>2011-04-03T11:00:11Z</time>
      </trkpt>
      <trkpt lat="46.12096" lon="6.37237">
        <ele>742</ele>
        <time>2011-04-03T11:00:12Z</time>
      </trkpt>
      <trkpt lat="46.12107" lon="6.37225">
        <ele>742</ele>
        <time>2011-04-03T11:00:13Z</time>
      </trkpt>
      <trkpt lat="46.12116" lon="6.37213">
        <ele>742</ele>
        <time>2011-04-03T11:00:14Z</time>
      </trkpt>
      <trkpt lat="46.12126" lon="6.372">
        <ele>742</ele>
        <time>2011-04-03T11:00:15Z</time>
      </trkpt>
      <trkpt lat="46.12135" lon="6.37189">
        <ele>742</ele>
        <time>2011-04-03T11:00:16Z</time>
      </trkpt>
      <trkpt lat="46.12144" lon="6.37179">
        <ele>742</ele>
        <time>2011-04-03T11:00:17Z</time>
      </trkpt>
      <trkpt lat="46.12152" lon="6.37169">
        <ele>742</ele>
        <time>2011-04-03T11:00:18Z</time>
      </trkpt>
      <trkpt lat="46.12163" lon="6.37154">
        <ele>742</ele>
        <time>2011-04-03T11:00:20Z</time>
      </trkpt>
      <trkpt lat="46.1217" lon="6.37144">
        <ele>742</ele>
        <time>2011-04-03T11:00:22Z</time>
      </trkpt>
      <trkpt lat="46.12182" lon="6.37145">
        <ele>734</ele>
        <time>2011-04-03T11:00:28Z</time>
      </trkpt>
      <trkpt lat="46.12191" lon="6.37141">
        <ele>734</ele>
        <time>2011-04-03T11:00:30Z</time>
      </trkpt>
      <trkpt lat="46.12205" lon="6.37136">
        <ele>734</ele>
        <time>2011-04-03T11:00:32Z</time>
      </trkpt>
      <trkpt lat="46.12222" lon="6.37138">
        <ele>734</ele>
        <time>2011-04-03T11:00:34Z</time>
      </trkpt>
      <trkpt lat="46.12238" lon="6.37145">
        <ele>734</ele>
        <time>2011-04-03T11:00:36Z</time>
      </trkpt>
      <trkpt lat="46.12247" lon="6.37152">
        <ele>734</ele>
        <time>2011-04-03T11:00:37Z</time>
      </trkpt>
      <trkpt lat="46.12257" lon="6.37159">
        <ele>734</ele>
        <time>2011-04-03T11:00:38Z</time>
      </trkpt>
      <trkpt lat="46.12265" lon="6.37165">
        <ele>734</ele>
        <time>2011-04-03T11:00:39Z</time>
      </trkpt>
      <trkpt lat="46.12282" lon="6.37174">
        <ele>734</ele>
        <time>2011-04-03T11:00:41Z</time>
      </trkpt>
      <trkpt lat="46.12298" lon="6.3718">
        <ele>734</ele>
        <time>2011-04-03T11:00:43Z</time>
      </trkpt>
      <trkpt lat="46.12314" lon="6.37187">
        <ele>734</ele>
        <time>2011-04-03T11:00:45Z</time>
      </trkpt>
      <trkpt lat="46.12323" lon="6.37191">
        <ele>734</ele>
        <time>2011-04-03T11:00:46Z</time>
      </trkpt>
      <trkpt lat="46.12332" lon="6.37196">
        <ele>734</ele>
        <time>2011-04-03T11:00:47Z</time>
      </trkpt>
      <trkpt lat="46.12343" lon="6.372">
        <ele>734</ele>
        <time>2011-04-03T11:00:48Z</time>
      </trkpt>
      <trkpt lat="46.12353" lon="6.37204">
        <ele>734</ele>
        <time>2011-04-03T11:00:49Z</time>
      </trkpt>
      <trkpt lat="46.12363" lon="6.37208">
        <ele>734</ele>
        <time>2011-04-03T11:00:50Z</time>
      </trkpt>
      <trkpt lat="46.12373" lon="6.37213">
        <ele>734</ele>
        <time>2011-04-03T11:00:51Z</time>
      </trkpt>
      <trkpt lat="46.12383" lon="6.37216">
        <ele>734</ele>
        <time>2011-04-03T11:00:52Z</time>
      </trkpt>
      <trkpt lat="46.124" lon="6.37221">
        <ele>734</ele>
        <time>2011-04-03T11:00:54Z</time>
      </trkpt>
      <trkpt lat="46.12417" lon="6.37226">
        <ele>734</ele>
        <time>2011-04-03T11:00:56Z</time>
      </trkpt>
      <trkpt lat="46.12426" lon="6.37231">
        <ele>734</ele>
        <time>2011-04-03T11:00:57Z</time>
      </trkpt>
      <trkpt lat="46.12436" lon="6.37236">
        <ele>734</ele>
        <time>2011-04-03T11:00:58Z</time>
      </trkpt>
      <trkpt lat="46.12446" lon="6.37242">
        <ele>734</ele>
        <time>2011-04-03T11:00:59Z</time>
      </trkpt>
      <trkpt lat="46.12457" lon="6.37245">
        <ele>734</ele>
        <time>2011-04-03T11:01:00Z</time>
      </trkpt>
      <trkpt lat="46.12467" lon="6.37248">
        <ele>734</ele>
        <time>2011-04-03T11:01:01Z</time>
      </trkpt>
      <trkpt lat="46.12482" lon="6.3725">
        <ele>734</ele>
        <time>2011-04-03T11:01:03Z</time>
      </trkpt>
      <trkpt lat="46.12494" lon="6.37251">
        <ele>734</ele>
        <time>2011-04-03T11:01:05Z</time>
      </trkpt>
      <trkpt lat="46.12504" lon="6.37257">
        <ele>734</ele>
        <time>2011-04-03T11:01:21Z</time>
      </trkpt>
      <trkpt lat="46.12516" lon="6.37269">
        <ele>734</ele>
        <time>2011-04-03T11:01:23Z</time>
      </trkpt>
      <trkpt lat="46.12524" lon="6.37275">
        <ele>728</ele>
        <time>2011-04-03T11:01:24Z</time>
      </trkpt>
      <trkpt lat="46.12534" lon="6.37282">
        <ele>728</ele>
        <time>2011-04-03T11:01:25Z</time>
      </trkpt>
      <trkpt lat="46.12546" lon="6.37288">
        <ele>728</ele>
        <time>2011-04-03T11:01:26Z</time>
      </trkpt>
      <trkpt lat="46.12557" lon="6.37295">
        <ele>728</ele>
        <time>2011-04-03T11:01:27Z</time>
      </trkpt>
      <trkpt lat="46.12569" lon="6.37301">
        <ele>728</ele>
        <time>2011-04-03T11:01:28Z</time>
      </trkpt>
      <trkpt lat="46.12581" lon="6.37307">
        <ele>728</ele>
        <time>2011-04-03T11:01:29Z</time>
      </trkpt>
      <trkpt lat="46.12593" lon="6.37313">
        <ele>728</ele>
        <time>2011-04-03T11:01:30Z</time>
      </trkpt>
      <trkpt lat="46.12603" lon="6.37319">
        <ele>728</ele>
        <time>2011-04-03T11:01:31Z</time>
      </trkpt>
      <trkpt lat="46.12613" lon="6.37323">
        <ele>728</ele>
        <time>2011-04-03T11:01:32Z</time>
      </trkpt>
      <trkpt lat="46.12623" lon="6.37328">
        <ele>728</ele>
        <time>2011-04-03T11:01:33Z</time>
      </trkpt>
      <trkpt lat="46.12633" lon="6.3733">
        <ele>728</ele>
        <time>2011-04-03T11:01:34Z</time>
      </trkpt>
      <trkpt lat="46.12643" lon="6.3733">
        <ele>728</ele>
        <time>2011-04-03T11:01:35Z</time>
      </trkpt>
      <trkpt lat="46.12655" lon="6.3733">
        <ele>723</ele>
        <time>2011-04-03T11:01:36Z</time>
      </trkpt>
      <trkpt lat="46.12667" lon="6.37328">
        <ele>723</ele>
        <time>2011-04-03T11:01:37Z</time>
      </trkpt>
      <trkpt lat="46.1268" lon="6.37327">
        <ele>723</ele>
        <time>2011-04-03T11:01:38Z</time>
      </trkpt>
      <trkpt lat="46.12692" lon="6.37326">
        <ele>723</ele>
        <time>2011-04-03T11:01:39Z</time>
      </trkpt>
      <trkpt lat="46.12704" lon="6.37326">
        <ele>723</ele>
        <time>2011-04-03T11:01:40Z</time>
      </trkpt>
      <trkpt lat="46.12716" lon="6.37325">
        <ele>723</ele>
        <time>2011-04-03T11:01:41Z</time>
      </trkpt>
      <trkpt lat="46.12727" lon="6.37324">
        <ele>723</ele>
        <time>2011-04-03T11:01:42Z</time>
      </trkpt>
      <trkpt lat="46.12738" lon="6.37323">
        <ele>723</ele>
        <time>2011-04-03T11:01:43Z</time>
      </trkpt>
      <trkpt lat="46.12748" lon="6.37322">
        <ele>723</ele>
        <time>2011-04-03T11:01:44Z</time>
      </trkpt>
      <trkpt lat="46.1276" lon="6.37317">
        <ele>723</ele>
        <time>2011-04-03T11:01:45Z</time>
      </trkpt>
      <trkpt lat="46.12771" lon="6.37312">
        <ele>723</ele>
        <time>2011-04-03T11:01:46Z</time>
      </trkpt>
      <trkpt lat="46.12781" lon="6.37304">
        <ele>723</ele>
        <time>2011-04-03T11:01:47Z</time>
      </trkpt>
      <trkpt lat="46.12789" lon="6.37297">
        <ele>723</ele>
        <time>2011-04-03T11:01:48Z</time>
      </trkpt>
      <trkpt lat="46.12805" lon="6.37287">
        <ele>723</ele>
        <time>2011-04-03T11:01:50Z</time>
      </trkpt>
      <trkpt lat="46.12815" lon="6.37283">
        <ele>723</ele>
        <time>2011-04-03T11:01:51Z</time>
      </trkpt>
      <trkpt lat="46.12826" lon="6.37278">
        <ele>723</ele>
        <time>2011-04-03T11:01:52Z</time>
      </trkpt>
      <trkpt lat="46.12838" lon="6.37274">
        <ele>723</ele>
        <time>2011-04-03T11:01:53Z</time>
      </trkpt>
      <trkpt lat="46.12848" lon="6.37269">
        <ele>728</ele>
        <time>2011-04-03T11:01:54Z</time>
      </trkpt>
      <trkpt lat="46.12858" lon="6.37266">
        <ele>728</ele>
        <time>2011-04-03T11:01:55Z</time>
      </trkpt>
      <trkpt lat="46.12868" lon="6.37262">
        <ele>728</ele>
        <time>2011-04-03T11:01:56Z</time>
      </trkpt>
      <trkpt lat="46.12877" lon="6.37259">
        <ele>728</ele>
        <time>2011-04-03T11:01:57Z</time>
      </trkpt>
      <trkpt lat="46.12887" lon="6.37257">
        <ele>728</ele>
        <time>2011-04-03T11:01:58Z</time>
      </trkpt>
      <trkpt lat="46.12898" lon="6.37255">
        <ele>728</ele>
        <time>2011-04-03T11:01:59Z</time>
      </trkpt>
      <trkpt lat="46.12909" lon="6.37255">
        <ele>728</ele>
        <time>2011-04-03T11:02:00Z</time>
      </trkpt>
      <trkpt lat="46.12919" lon="6.37255">
        <ele>728</ele>
        <time>2011-04-03T11:02:01Z</time>
      </trkpt>
      <trkpt lat="46.12929" lon="6.37255">
        <ele>728</ele>
        <time>2011-04-03T11:02:02Z</time>
      </trkpt>
      <trkpt lat="46.12939" lon="6.37255">
        <ele>728</ele>
        <time>2011-04-03T11:02:03Z</time>
      </trkpt>
      <trkpt lat="46.12949" lon="6.37253">
        <ele>728</ele>
        <time>2011-04-03T11:02:04Z</time>
      </trkpt>
      <trkpt lat="46.12966" lon="6.37247">
        <ele>728</ele>
        <time>2011-04-03T11:02:06Z</time>
      </trkpt>
      <trkpt lat="46.1298" lon="6.37236">
        <ele>728</ele>
        <time>2011-04-03T11:02:08Z</time>
      </trkpt>
      <trkpt lat="46.12991" lon="6.3723">
        <ele>728</ele>
        <time>2011-04-03T11:02:10Z</time>
      </trkpt>
      <trkpt lat="46.13002" lon="6.37232">
        <ele>728</ele>
        <time>2011-04-03T11:02:13Z</time>
      </trkpt>
      <trkpt lat="46.1301" lon="6.37243">
        <ele>723</ele>
        <time>2011-04-03T11:02:15Z</time>
      </trkpt>
      <trkpt lat="46.13019" lon="6.3726">
        <ele>723</ele>
        <time>2011-04-03T11:02:17Z</time>
      </trkpt>
      <trkpt lat="46.13027" lon="6.37278">
        <ele>723</ele>
        <time>2011-04-03T11:02:19Z</time>
      </trkpt>
      <trkpt lat="46.13036" lon="6.37296">
        <ele>723</ele>
        <time>2011-04-03T11:02:21Z</time>
      </trkpt>
      <trkpt lat="46.13044" lon="6.37318">
        <ele>717</ele>
        <time>2011-04-03T11:02:23Z</time>
      </trkpt>
      <trkpt lat="46.13055" lon="6.37339">
        <ele>717</ele>
        <time>2011-04-03T11:02:25Z</time>
      </trkpt>
      <trkpt lat="46.13065" lon="6.37358">
        <ele>717</ele>
        <time>2011-04-03T11:02:27Z</time>
      </trkpt>
      <trkpt lat="46.13074" lon="6.3738">
        <ele>712</ele>
        <time>2011-04-03T11:02:29Z</time>
      </trkpt>
      <trkpt lat="46.1308" lon="6.37401">
        <ele>712</ele>
        <time>2011-04-03T11:02:31Z</time>
      </trkpt>
      <trkpt lat="46.13086" lon="6.37423">
        <ele>712</ele>
        <time>2011-04-03T11:02:33Z</time>
      </trkpt>
      <trkpt lat="46.13095" lon="6.37442">
        <ele>712</ele>
        <time>2011-04-03T11:02:35Z</time>
      </trkpt>
      <trkpt lat="46.13104" lon="6.37455">
        <ele>706</ele>
        <time>2011-04-03T11:02:37Z</time>
      </trkpt>
      <trkpt lat="46.13115" lon="6.37466">
        <ele>706</ele>
        <time>2011-04-03T11:02:39Z</time>
      </trkpt>
      <trkpt lat="46.13127" lon="6.37478">
        <ele>706</ele>
        <time>2011-04-03T11:02:41Z</time>
      </trkpt>
      <trkpt lat="46.13137" lon="6.37491">
        <ele>706</ele>
        <time>2011-04-03T11:02:43Z</time>
      </trkpt>
      <trkpt lat="46.13144" lon="6.37507">
        <ele>706</ele>
        <time>2011-04-03T11:02:45Z</time>
      </trkpt>
      <trkpt lat="46.13149" lon="6.3752">
        <ele>706</ele>
        <time>2011-04-03T11:02:47Z</time>
      </trkpt>
      <trkpt lat="46.13152" lon="6.37534">
        <ele>699</ele>
        <time>2011-04-03T11:02:50Z</time>
      </trkpt>
      <trkpt lat="46.13154" lon="6.37548">
        <ele>699</ele>
        <time>2011-04-03T11:03:06Z</time>
      </trkpt>
      <trkpt lat="46.13152" lon="6.37564">
        <ele>699</ele>
        <time>2011-04-03T11:03:15Z</time>
      </trkpt>
      <trkpt lat="46.13152" lon="6.37579">
        <ele>699</ele>
        <time>2011-04-03T11:03:18Z</time>
      </trkpt>
      <trkpt lat="46.13159" lon="6.37595">
        <ele>699</ele>
        <time>2011-04-03T11:03:21Z</time>
      </trkpt>
      <trkpt lat="46.13165" lon="6.37608">
        <ele>699</ele>
        <time>2011-04-03T11:03:23Z</time>
      </trkpt>
      <trkpt lat="46.13171" lon="6.3763">
        <ele>699</ele>
        <time>2011-04-03T11:03:25Z</time>
      </trkpt>
      <trkpt lat="46.13177" lon="6.37655">
        <ele>693</ele>
        <time>2011-04-03T11:03:27Z</time>
      </trkpt>
      <trkpt lat="46.1318" lon="6.37667">
        <ele>693</ele>
        <time>2011-04-03T11:03:28Z</time>
      </trkpt>
      <trkpt lat="46.13183" lon="6.37682">
        <ele>693</ele>
        <time>2011-04-03T11:03:29Z</time>
      </trkpt>
      <trkpt lat="46.13187" lon="6.37695">
        <ele>693</ele>
        <time>2011-04-03T11:03:30Z</time>
      </trkpt>
      <trkpt lat="46.1319" lon="6.37708">
        <ele>693</ele>
        <time>2011-04-03T11:03:31Z</time>
      </trkpt>
      <trkpt lat="46.13195" lon="6.37731">
        <ele>693</ele>
        <time>2011-04-03T11:03:33Z</time>
      </trkpt>
      <trkpt lat="46.13199" lon="6.37747">
        <ele>693</ele>
        <time>2011-04-03T11:03:35Z</time>
      </trkpt>
      <trkpt lat="46.13203" lon="6.37764">
        <ele>693</ele>
        <time>2011-04-03T11:03:38Z</time>
      </trkpt>
      <trkpt lat="46.13204" lon="6.37779">
        <ele>693</ele>
        <time>2011-04-03T11:03:57Z</time>
      </trkpt>
      <trkpt lat="46.13201" lon="6.37796">
        <ele>693</ele>
        <time>2011-04-03T11:04:01Z</time>
      </trkpt>
      <trkpt lat="46.13199" lon="6.37816">
        <ele>693</ele>
        <time>2011-04-03T11:04:03Z</time>
      </trkpt>
      <trkpt lat="46.13197" lon="6.3784">
        <ele>687</ele>
        <time>2011-04-03T11:04:05Z</time>
      </trkpt>
      <trkpt lat="46.13197" lon="6.37862">
        <ele>687</ele>
        <time>2011-04-03T11:04:07Z</time>
      </trkpt>
      <trkpt lat="46.13202" lon="6.37885">
        <ele>687</ele>
        <time>2011-04-03T11:04:09Z</time>
      </trkpt>
      <trkpt lat="46.13205" lon="6.37897">
        <ele>687</ele>
        <time>2011-04-03T11:04:10Z</time>
      </trkpt>
      <trkpt lat="46.13209" lon="6.3791">
        <ele>687</ele>
        <time>2011-04-03T11:04:11Z</time>
      </trkpt>
      <trkpt lat="46.13214" lon="6.37922">
        <ele>687</ele>
        <time>2011-04-03T11:04:12Z</time>
      </trkpt>
      <trkpt lat="46.13218" lon="6.37933">
        <ele>687</ele>
        <time>2011-04-03T11:04:13Z</time>
      </trkpt>
      <trkpt lat="46.13222" lon="6.37945">
        <ele>687</ele>
        <time>2011-04-03T11:04:14Z</time>
      </trkpt>
      <trkpt lat="46.13225" lon="6.37958">
        <ele>687</ele>
        <time>2011-04-03T11:04:15Z</time>
      </trkpt>
      <trkpt lat="46.13227" lon="6.3798">
        <ele>682</ele>
        <time>2011-04-03T11:04:17Z</time>
      </trkpt>
      <trkpt lat="46.13222" lon="6.38002">
        <ele>682</ele>
        <time>2011-04-03T11:04:19Z</time>
      </trkpt>
      <trkpt lat="46.1321" lon="6.38018">
        <ele>682</ele>
        <time>2011-04-03T11:04:21Z</time>
      </trkpt>
      <trkpt lat="46.13194" lon="6.38026">
        <ele>675</ele>
        <time>2011-04-03T11:04:23Z</time>
      </trkpt>
      <trkpt lat="46.13184" lon="6.38029">
        <ele>675</ele>
        <time>2011-04-03T11:04:24Z</time>
      </trkpt>
      <trkpt lat="46.13175" lon="6.38032">
        <ele>675</ele>
        <time>2011-04-03T11:04:25Z</time>
      </trkpt>
      <trkpt lat="46.13165" lon="6.38037">
        <ele>675</ele>
        <time>2011-04-03T11:04:26Z</time>
      </trkpt>
      <trkpt lat="46.13156" lon="6.38044">
        <ele>670</ele>
        <time>2011-04-03T11:04:27Z</time>
      </trkpt>
      <trkpt lat="46.13147" lon="6.38052">
        <ele>670</ele>
        <time>2011-04-03T11:04:28Z</time>
      </trkpt>
      <trkpt lat="46.1314" lon="6.38063">
        <ele>670</ele>
        <time>2011-04-03T11:04:29Z</time>
      </trkpt>
      <trkpt lat="46.13133" lon="6.38074">
        <ele>670</ele>
        <time>2011-04-03T11:04:30Z</time>
      </trkpt>
      <trkpt lat="46.13127" lon="6.38088">
        <ele>670</ele>
        <time>2011-04-03T11:04:31Z</time>
      </trkpt>
      <trkpt lat="46.13121" lon="6.381">
        <ele>665</ele>
        <time>2011-04-03T11:04:32Z</time>
      </trkpt>
      <trkpt lat="46.13115" lon="6.38113">
        <ele>665</ele>
        <time>2011-04-03T11:04:33Z</time>
      </trkpt>
      <trkpt lat="46.1311" lon="6.38125">
        <ele>665</ele>
        <time>2011-04-03T11:04:34Z</time>
      </trkpt>
      <trkpt lat="46.13105" lon="6.38136">
        <ele>665</ele>
        <time>2011-04-03T11:04:35Z</time>
      </trkpt>
      <trkpt lat="46.131" lon="6.38148">
        <ele>665</ele>
        <time>2011-04-03T11:04:36Z</time>
      </trkpt>
      <trkpt lat="46.13092" lon="6.3817">
        <ele>665</ele>
        <time>2011-04-03T11:04:38Z</time>
      </trkpt>
      <trkpt lat="46.13084" lon="6.38187">
        <ele>659</ele>
        <time>2011-04-03T11:04:40Z</time>
      </trkpt>
      <trkpt lat="46.1308" lon="6.382">
        <ele>659</ele>
        <time>2011-04-03T11:04:43Z</time>
      </trkpt>
      <trkpt lat="46.13093" lon="6.38212">
        <ele>659</ele>
        <time>2011-04-03T11:04:47Z</time>
      </trkpt>
      <trkpt lat="46.13103" lon="6.38223">
        <ele>659</ele>
        <time>2011-04-03T11:04:49Z</time>
      </trkpt>
      <trkpt lat="46.13113" lon="6.38233">
        <ele>659</ele>
        <time>2011-04-03T11:04:51Z</time>
      </trkpt>
      <trkpt lat="46.13122" lon="6.3824">
        <ele>659</ele>
        <time>2011-04-03T11:04:53Z</time>
      </trkpt>
      <trkpt lat="46.13129" lon="6.38249">
        <ele>653</ele>
        <time>2011-04-03T11:04:55Z</time>
      </trkpt>
      <trkpt lat="46.13137" lon="6.38259">
        <ele>653</ele>
        <time>2011-04-03T11:04:57Z</time>
      </trkpt>
      <trkpt lat="46.13145" lon="6.38272">
        <ele>653</ele>
        <time>2011-04-03T11:04:59Z</time>
      </trkpt>
      <trkpt lat="46.13152" lon="6.38284">
        <ele>646</ele>
        <time>2011-04-03T11:05:01Z</time>
      </trkpt>
      <trkpt lat="46.1316" lon="6.38298">
        <ele>646</ele>
        <time>2011-04-03T11:05:03Z</time>
      </trkpt>
      <trkpt lat="46.13168" lon="6.38314">
        <ele>646</ele>
        <time>2011-04-03T11:05:05Z</time>
      </trkpt>
      <trkpt lat="46.13175" lon="6.3833">
        <ele>640</ele>
        <time>2011-04-03T11:05:07Z</time>
      </trkpt>
      <trkpt lat="46.13181" lon="6.38344">
        <ele>640</ele>
        <time>2011-04-03T11:05:09Z</time>
      </trkpt>
      <trkpt lat="46.13189" lon="6.38356">
        <ele>640</ele>
        <time>2011-04-03T11:05:11Z</time>
      </trkpt>
      <trkpt lat="46.13196" lon="6.38369">
        <ele>640</ele>
        <time>2011-04-03T11:05:13Z</time>
      </trkpt>
      <trkpt lat="46.13204" lon="6.38382">
        <ele>634</ele>
        <time>2011-04-03T11:05:15Z</time>
      </trkpt>
      <trkpt lat="46.13212" lon="6.38394">
        <ele>634</ele>
        <time>2011-04-03T11:05:17Z</time>
      </trkpt>
      <trkpt lat="46.13226" lon="6.38403">
        <ele>634</ele>
        <time>2011-04-03T11:05:19Z</time>
      </trkpt>
      <trkpt lat="46.13236" lon="6.38414">
        <ele>634</ele>
        <time>2011-04-03T11:05:21Z</time>
      </trkpt>
      <trkpt lat="46.13245" lon="6.38426">
        <ele>634</ele>
        <time>2011-04-03T11:05:23Z</time>
      </trkpt>
      <trkpt lat="46.13253" lon="6.38441">
        <ele>628</ele>
        <time>2011-04-03T11:05:25Z</time>
      </trkpt>
      <trkpt lat="46.13262" lon="6.38456">
        <ele>628</ele>
        <time>2011-04-03T11:05:27Z</time>
      </trkpt>
      <trkpt lat="46.13269" lon="6.38467">
        <ele>628</ele>
        <time>2011-04-03T11:05:29Z</time>
      </trkpt>
      <trkpt lat="46.1328" lon="6.38477">
        <ele>628</ele>
        <time>2011-04-03T11:05:31Z</time>
      </trkpt>
      <trkpt lat="46.13291" lon="6.38488">
        <ele>621</ele>
        <time>2011-04-03T11:05:33Z</time>
      </trkpt>
      <trkpt lat="46.133" lon="6.38499">
        <ele>621</ele>
        <time>2011-04-03T11:05:35Z</time>
      </trkpt>
      <trkpt lat="46.13307" lon="6.38512">
        <ele>621</ele>
        <time>2011-04-03T11:05:37Z</time>
      </trkpt>
      <trkpt lat="46.13312" lon="6.38526">
        <ele>616</ele>
        <time>2011-04-03T11:05:39Z</time>
      </trkpt>
      <trkpt lat="46.13318" lon="6.38543">
        <ele>616</ele>
        <time>2011-04-03T11:05:41Z</time>
      </trkpt>
      <trkpt lat="46.13324" lon="6.38561">
        <ele>610</ele>
        <time>2011-04-03T11:05:43Z</time>
      </trkpt>
      <trkpt lat="46.13332" lon="6.3858">
        <ele>610</ele>
        <time>2011-04-03T11:05:45Z</time>
      </trkpt>
      <trkpt lat="46.13338" lon="6.38597">
        <ele>610</ele>
        <time>2011-04-03T11:05:47Z</time>
      </trkpt>
      <trkpt lat="46.13344" lon="6.38611">
        <ele>610</ele>
        <time>2011-04-03T11:05:49Z</time>
      </trkpt>
      <trkpt lat="46.13351" lon="6.38628">
        <ele>610</ele>
        <time>2011-04-03T11:05:51Z</time>
      </trkpt>
      <trkpt lat="46.13359" lon="6.38641">
        <ele>602</ele>
        <time>2011-04-03T11:05:53Z</time>
      </trkpt>
      <trkpt lat="46.13365" lon="6.38656">
        <ele>602</ele>
        <time>2011-04-03T11:05:55Z</time>
      </trkpt>
      <trkpt lat="46.13371" lon="6.38672">
        <ele>602</ele>
        <time>2011-04-03T11:05:57Z</time>
      </trkpt>
      <trkpt lat="46.13377" lon="6.38686">
        <ele>602</ele>
        <time>2011-04-03T11:05:59Z</time>
      </trkpt>
      <trkpt lat="46.13383" lon="6.38695">
        <ele>597</ele>
        <time>2011-04-03T11:06:01Z</time>
      </trkpt>
      <trkpt lat="46.13392" lon="6.38699">
        <ele>597</ele>
        <time>2011-04-03T11:06:03Z</time>
      </trkpt>
      <trkpt lat="46.13402" lon="6.38699">
        <ele>597</ele>
        <time>2011-04-03T11:06:05Z</time>
      </trkpt>
      <trkpt lat="46.13411" lon="6.38698">
        <ele>597</ele>
        <time>2011-04-03T11:06:07Z</time>
      </trkpt>
      <trkpt lat="46.13424" lon="6.38699">
        <ele>597</ele>
        <time>2011-04-03T11:06:10Z</time>
      </trkpt>
      <trkpt lat="46.13436" lon="6.38703">
        <ele>597</ele>
        <time>2011-04-03T11:06:13Z</time>
      </trkpt>
      <trkpt lat="46.13446" lon="6.38706">
        <ele>597</ele>
        <time>2011-04-03T11:06:15Z</time>
      </trkpt>
      <trkpt lat="46.13456" lon="6.38711">
        <ele>597</ele>
        <time>2011-04-03T11:06:17Z</time>
      </trkpt>
      <trkpt lat="46.13468" lon="6.38717">
        <ele>597</ele>
        <time>2011-04-03T11:06:20Z</time>
      </trkpt>
      <trkpt lat="46.13476" lon="6.38724">
        <ele>597</ele>
        <time>2011-04-03T11:06:23Z</time>
      </trkpt>
      <trkpt lat="46.13488" lon="6.38727">
        <ele>597</ele>
        <time>2011-04-03T11:06:26Z</time>
      </trkpt>
      <trkpt lat="46.13501" lon="6.38728">
        <ele>597</ele>
        <time>2011-04-03T11:06:28Z</time>
      </trkpt>
      <trkpt lat="46.13516" lon="6.38727">
        <ele>590</ele>
        <time>2011-04-03T11:06:30Z</time>
      </trkpt>
      <trkpt lat="46.13532" lon="6.38728">
        <ele>590</ele>
        <time>2011-04-03T11:06:32Z</time>
      </trkpt>
      <trkpt lat="46.13548" lon="6.38729">
        <ele>590</ele>
        <time>2011-04-03T11:06:34Z</time>
      </trkpt>
      <trkpt lat="46.13561" lon="6.38727">
        <ele>590</ele>
        <time>2011-04-03T11:06:36Z</time>
      </trkpt>
      <trkpt lat="46.13576" lon="6.38726">
        <ele>590</ele>
        <time>2011-04-03T11:06:38Z</time>
      </trkpt>
      <trkpt lat="46.13585" lon="6.38726">
        <ele>590</ele>
        <time>2011-04-03T11:06:39Z</time>
      </trkpt>
      <trkpt lat="46.13594" lon="6.38727">
        <ele>590</ele>
        <time>2011-04-03T11:06:40Z</time>
      </trkpt>
      <trkpt lat="46.13604" lon="6.38732">
        <ele>590</ele>
        <time>2011-04-03T11:06:41Z</time>
      </trkpt>
      <trkpt lat="46.13613" lon="6.38737">
        <ele>585</ele>
        <time>2011-04-03T11:06:42Z</time>
      </trkpt>
      <trkpt lat="46.13621" lon="6.38744">
        <ele>585</ele>
        <time>2011-04-03T11:06:43Z</time>
      </trkpt>
      <trkpt lat="46.13634" lon="6.38752">
        <ele>585</ele>
        <time>2011-04-03T11:06:45Z</time>
      </trkpt>
      <trkpt lat="46.13646" lon="6.38756">
        <ele>585</ele>
        <time>2011-04-03T11:06:47Z</time>
      </trkpt>
      <trkpt lat="46.13656" lon="6.38754">
        <ele>585</ele>
        <time>2011-04-03T11:06:49Z</time>
      </trkpt>
      <trkpt lat="46.13666" lon="6.38747">
        <ele>585</ele>
        <time>2011-04-03T11:06:51Z</time>
      </trkpt>
      <trkpt lat="46.13677" lon="6.38738">
        <ele>585</ele>
        <time>2011-04-03T11:06:53Z</time>
      </trkpt>
      <trkpt lat="46.13688" lon="6.38729">
        <ele>585</ele>
        <time>2011-04-03T11:06:55Z</time>
      </trkpt>
      <trkpt lat="46.13698" lon="6.38726">
        <ele>585</ele>
        <time>2011-04-03T11:06:57Z</time>
      </trkpt>
      <trkpt lat="46.13711" lon="6.38727">
        <ele>585</ele>
        <time>2011-04-03T11:06:59Z</time>
      </trkpt>
      <trkpt lat="46.13722" lon="6.38726">
        <ele>585</ele>
        <time>2011-04-03T11:07:01Z</time>
      </trkpt>
      <trkpt lat="46.13734" lon="6.38726">
        <ele>585</ele>
        <time>2011-04-03T11:07:04Z</time>
      </trkpt>
      <trkpt lat="46.13721" lon="6.38726">
        <ele>585</ele>
        <time>2011-04-03T11:07:11Z</time>
      </trkpt>
      <trkpt lat="46.1371" lon="6.38727">
        <ele>585</ele>
        <time>2011-04-03T11:07:13Z</time>
      </trkpt>
      <trkpt lat="46.13701" lon="6.38735">
        <ele>585</ele>
        <time>2011-04-03T11:07:16Z</time>
      </trkpt>
      <trkpt lat="46.13703" lon="6.3875">
        <ele>585</ele>
        <time>2011-04-03T11:07:18Z</time>
      </trkpt>
      <trkpt lat="46.13706" lon="6.38772">
        <ele>585</ele>
        <time>2011-04-03T11:07:20Z</time>
      </trkpt>
      <trkpt lat="46.13713" lon="6.38793">
        <ele>585</ele>
        <time>2011-04-03T11:07:22Z</time>
      </trkpt>
      <trkpt lat="46.13718" lon="6.38817">
        <ele>585</ele>
        <time>2011-04-03T11:07:24Z</time>
      </trkpt>
      <trkpt lat="46.13722" lon="6.38831">
        <ele>591</ele>
        <time>2011-04-03T11:07:25Z</time>
      </trkpt>
      <trkpt lat="46.13726" lon="6.38846">
        <ele>591</ele>
        <time>2011-04-03T11:07:26Z</time>
      </trkpt>
      <trkpt lat="46.13729" lon="6.38862">
        <ele>591</ele>
        <time>2011-04-03T11:07:27Z</time>
      </trkpt>
      <trkpt lat="46.13732" lon="6.38877">
        <ele>591</ele>
        <time>2011-04-03T11:07:28Z</time>
      </trkpt>
      <trkpt lat="46.13735" lon="6.38893">
        <ele>597</ele>
        <time>2011-04-03T11:07:29Z</time>
      </trkpt>
      <trkpt lat="46.1374" lon="6.38908">
        <ele>597</ele>
        <time>2011-04-03T11:07:30Z</time>
      </trkpt>
      <trkpt lat="46.13745" lon="6.38922">
        <ele>597</ele>
        <time>2011-04-03T11:07:31Z</time>
      </trkpt>
      <trkpt lat="46.13749" lon="6.38934">
        <ele>597</ele>
        <time>2011-04-03T11:07:32Z</time>
      </trkpt>
      <trkpt lat="46.13755" lon="6.38956">
        <ele>603</ele>
        <time>2011-04-03T11:07:34Z</time>
      </trkpt>
      <trkpt lat="46.13761" lon="6.38981">
        <ele>603</ele>
        <time>2011-04-03T11:07:36Z</time>
      </trkpt>
      <trkpt lat="46.13764" lon="6.38993">
        <ele>603</ele>
        <time>2011-04-03T11:07:37Z</time>
      </trkpt>
      <trkpt lat="46.13769" lon="6.39005">
        <ele>603</ele>
        <time>2011-04-03T11:07:38Z</time>
      </trkpt>
      <trkpt lat="46.13774" lon="6.39018">
        <ele>603</ele>
        <time>2011-04-03T11:07:39Z</time>
      </trkpt>
      <trkpt lat="46.13782" lon="6.39032">
        <ele>603</ele>
        <time>2011-04-03T11:07:40Z</time>
      </trkpt>
      <trkpt lat="46.13789" lon="6.39044">
        <ele>603</ele>
        <time>2011-04-03T11:07:41Z</time>
      </trkpt>
      <trkpt lat="46.13796" lon="6.39055">
        <ele>603</ele>
        <time>2011-04-03T11:07:42Z</time>
      </trkpt>
      <trkpt lat="46.13802" lon="6.39066">
        <ele>603</ele>
        <time>2011-04-03T11:07:43Z</time>
      </trkpt>
      <trkpt lat="46.13808" lon="6.39076">
        <ele>608</ele>
        <time>2011-04-03T11:07:44Z</time>
      </trkpt>
      <trkpt lat="46.13819" lon="6.39094">
        <ele>608</ele>
        <time>2011-04-03T11:07:46Z</time>
      </trkpt>
      <trkpt lat="46.13827" lon="6.39109">
        <ele>608</ele>
        <time>2011-04-03T11:07:48Z</time>
      </trkpt>
      <trkpt lat="46.13834" lon="6.39128">
        <ele>608</ele>
        <time>2011-04-03T11:07:50Z</time>
      </trkpt>
      <trkpt lat="46.13838" lon="6.39146">
        <ele>608</ele>
        <time>2011-04-03T11:07:52Z</time>
      </trkpt>
      <trkpt lat="46.13844" lon="6.39164">
        <ele>608</ele>
        <time>2011-04-03T11:07:54Z</time>
      </trkpt>
      <trkpt lat="46.13851" lon="6.39183">
        <ele>608</ele>
        <time>2011-04-03T11:07:56Z</time>
      </trkpt>
      <trkpt lat="46.13858" lon="6.39203">
        <ele>608</ele>
        <time>2011-04-03T11:07:58Z</time>
      </trkpt>
      <trkpt lat="46.13866" lon="6.39224">
        <ele>608</ele>
        <time>2011-04-03T11:08:00Z</time>
      </trkpt>
      <trkpt lat="46.1387" lon="6.39236">
        <ele>608</ele>
        <time>2011-04-03T11:08:01Z</time>
      </trkpt>
      <trkpt lat="46.13875" lon="6.39248">
        <ele>608</ele>
        <time>2011-04-03T11:08:02Z</time>
      </trkpt>
      <trkpt lat="46.13879" lon="6.39261">
        <ele>608</ele>
        <time>2011-04-03T11:08:03Z</time>
      </trkpt>
      <trkpt lat="46.13884" lon="6.39273">
        <ele>608</ele>
        <time>2011-04-03T11:08:04Z</time>
      </trkpt>
      <trkpt lat="46.13888" lon="6.39284">
        <ele>608</ele>
        <time>2011-04-03T11:08:05Z</time>
      </trkpt>
      <trkpt lat="46.13896" lon="6.39307">
        <ele>608</ele>
        <time>2011-04-03T11:08:07Z</time>
      </trkpt>
      <trkpt lat="46.13905" lon="6.39331">
        <ele>608</ele>
        <time>2011-04-03T11:08:09Z</time>
      </trkpt>
      <trkpt lat="46.13909" lon="6.39344">
        <ele>608</ele>
        <time>2011-04-03T11:08:10Z</time>
      </trkpt>
      <trkpt lat="46.13914" lon="6.39356">
        <ele>608</ele>
        <time>2011-04-03T11:08:11Z</time>
      </trkpt>
      <trkpt lat="46.13918" lon="6.39369">
        <ele>608</ele>
        <time>2011-04-03T11:08:12Z</time>
      </trkpt>
      <trkpt lat="46.13925" lon="6.39388">
        <ele>608</ele>
        <time>2011-04-03T11:08:14Z</time>
      </trkpt>
      <trkpt lat="46.13929" lon="6.39401">
        <ele>608</ele>
        <time>2011-04-03T11:08:16Z</time>
      </trkpt>
      <trkpt lat="46.13925" lon="6.39387">
        <ele>608</ele>
        <time>2011-04-03T11:08:58Z</time>
      </trkpt>
      <trkpt lat="46.1392" lon="6.3937">
        <ele>608</ele>
        <time>2011-04-03T11:09:01Z</time>
      </trkpt>
      <trkpt lat="46.13915" lon="6.39354">
        <ele>608</ele>
        <time>2011-04-03T11:09:03Z</time>
      </trkpt>
      <trkpt lat="46.1391" lon="6.39337">
        <ele>608</ele>
        <time>2011-04-03T11:09:05Z</time>
      </trkpt>
      <trkpt lat="46.13903" lon="6.3932">
        <ele>608</ele>
        <time>2011-04-03T11:09:07Z</time>
      </trkpt>
      <trkpt lat="46.13897" lon="6.39304">
        <ele>608</ele>
        <time>2011-04-03T11:09:09Z</time>
      </trkpt>
      <trkpt lat="46.13892" lon="6.39289">
        <ele>608</ele>
        <time>2011-04-03T11:09:11Z</time>
      </trkpt>
      <trkpt lat="46.13886" lon="6.39274">
        <ele>608</ele>
        <time>2011-04-03T11:09:13Z</time>
      </trkpt>
      <trkpt lat="46.13881" lon="6.39258">
        <ele>608</ele>
        <time>2011-04-03T11:09:15Z</time>
      </trkpt>
      <trkpt lat="46.13875" lon="6.39242">
        <ele>608</ele>
        <time>2011-04-03T11:09:17Z</time>
      </trkpt>
      <trkpt lat="46.13869" lon="6.39222">
        <ele>608</ele>
        <time>2011-04-03T11:09:19Z</time>
      </trkpt>
      <trkpt lat="46.13862" lon="6.39203">
        <ele>608</ele>
        <time>2011-04-03T11:09:21Z</time>
      </trkpt>
      <trkpt lat="46.13855" lon="6.39184">
        <ele>608</ele>
        <time>2011-04-03T11:09:23Z</time>
      </trkpt>
      <trkpt lat="46.13849" lon="6.39167">
        <ele>608</ele>
        <time>2011-04-03T11:09:25Z</time>
      </trkpt>
      <trkpt lat="46.13846" lon="6.39153">
        <ele>608</ele>
        <time>2011-04-03T11:09:27Z</time>
      </trkpt>
      <trkpt lat="46.13841" lon="6.39141">
        <ele>608</ele>
        <time>2011-04-03T11:09:30Z</time>
      </trkpt>
      <trkpt lat="46.13834" lon="6.39127">
        <ele>608</ele>
        <time>2011-04-03T11:09:38Z</time>
      </trkpt>
      <trkpt lat="46.13829" lon="6.39109">
        <ele>608</ele>
        <time>2011-04-03T11:09:40Z</time>
      </trkpt>
      <trkpt lat="46.13822" lon="6.39093">
        <ele>608</ele>
        <time>2011-04-03T11:09:42Z</time>
      </trkpt>
      <trkpt lat="46.13813" lon="6.39074">
        <ele>608</ele>
        <time>2011-04-03T11:09:44Z</time>
      </trkpt>
      <trkpt lat="46.13801" lon="6.39055">
        <ele>608</ele>
        <time>2011-04-03T11:09:46Z</time>
      </trkpt>
      <trkpt lat="46.13795" lon="6.39044">
        <ele>608</ele>
        <time>2011-04-03T11:09:47Z</time>
      </trkpt>
      <trkpt lat="46.13789" lon="6.39034">
        <ele>608</ele>
        <time>2011-04-03T11:09:48Z</time>
      </trkpt>
      <trkpt lat="46.13782" lon="6.39022">
        <ele>608</ele>
        <time>2011-04-03T11:09:49Z</time>
      </trkpt>
      <trkpt lat="46.13777" lon="6.39011">
        <ele>608</ele>
        <time>2011-04-03T11:09:50Z</time>
      </trkpt>
      <trkpt lat="46.13771" lon="6.39">
        <ele>608</ele>
        <time>2011-04-03T11:09:51Z</time>
      </trkpt>
      <trkpt lat="46.13763" lon="6.3898">
        <ele>608</ele>
        <time>2011-04-03T11:09:53Z</time>
      </trkpt>
      <trkpt lat="46.13756" lon="6.3896">
        <ele>608</ele>
        <time>2011-04-03T11:09:55Z</time>
      </trkpt>
      <trkpt lat="46.13751" lon="6.3894">
        <ele>608</ele>
        <time>2011-04-03T11:09:57Z</time>
      </trkpt>
      <trkpt lat="46.13745" lon="6.38921">
        <ele>608</ele>
        <time>2011-04-03T11:09:59Z</time>
      </trkpt>
      <trkpt lat="46.13739" lon="6.38902">
        <ele>608</ele>
        <time>2011-04-03T11:10:01Z</time>
      </trkpt>
      <trkpt lat="46.13733" lon="6.38881">
        <ele>603</ele>
        <time>2011-04-03T11:10:03Z</time>
      </trkpt>
      <trkpt lat="46.13728" lon="6.38859">
        <ele>603</ele>
        <time>2011-04-03T11:10:05Z</time>
      </trkpt>
      <trkpt lat="46.13724" lon="6.38835">
        <ele>603</ele>
        <time>2011-04-03T11:10:07Z</time>
      </trkpt>
      <trkpt lat="46.13718" lon="6.38814">
        <ele>595</ele>
        <time>2011-04-03T11:10:09Z</time>
      </trkpt>
      <trkpt lat="46.13713" lon="6.38794">
        <ele>595</ele>
        <time>2011-04-03T11:10:11Z</time>
      </trkpt>
      <trkpt lat="46.13709" lon="6.38777">
        <ele>595</ele>
        <time>2011-04-03T11:10:13Z</time>
      </trkpt>
      <trkpt lat="46.13706" lon="6.38762">
        <ele>590</ele>
        <time>2011-04-03T11:10:15Z</time>
      </trkpt>
      <trkpt lat="46.13704" lon="6.38745">
        <ele>590</ele>
        <time>2011-04-03T11:10:18Z</time>
      </trkpt>
      <trkpt lat="46.13704" lon="6.38731">
        <ele>590</ele>
        <time>2011-04-03T11:10:21Z</time>
      </trkpt>
      <trkpt lat="46.13713" lon="6.38725">
        <ele>590</ele>
        <time>2011-04-03T11:10:24Z</time>
      </trkpt>
      <trkpt lat="46.13726" lon="6.38722">
        <ele>590</ele>
        <time>2011-04-03T11:10:26Z</time>
      </trkpt>
      <trkpt lat="46.13742" lon="6.38722">
        <ele>590</ele>
        <time>2011-04-03T11:10:28Z</time>
      </trkpt>
      <trkpt lat="46.13758" lon="6.38719">
        <ele>590</ele>
        <time>2011-04-03T11:10:30Z</time>
      </trkpt>
      <trkpt lat="46.13767" lon="6.38714">
        <ele>590</ele>
        <time>2011-04-03T11:10:31Z</time>
      </trkpt>
      <trkpt lat="46.13775" lon="6.38706">
        <ele>590</ele>
        <time>2011-04-03T11:10:32Z</time>
      </trkpt>
      <trkpt lat="46.13783" lon="6.38698">
        <ele>590</ele>
        <time>2011-04-03T11:10:33Z</time>
      </trkpt>
      <trkpt lat="46.13791" lon="6.3869">
        <ele>590</ele>
        <time>2011-04-03T11:10:34Z</time>
      </trkpt>
      <trkpt lat="46.138" lon="6.38682">
        <ele>590</ele>
        <time>2011-04-03T11:10:35Z</time>
      </trkpt>
      <trkpt lat="46.13809" lon="6.38676">
        <ele>590</ele>
        <time>2011-04-03T11:10:36Z</time>
      </trkpt>
      <trkpt lat="46.13826" lon="6.38667">
        <ele>584</ele>
        <time>2011-04-03T11:10:38Z</time>
      </trkpt>
      <trkpt lat="46.13844" lon="6.3866">
        <ele>584</ele>
        <time>2011-04-03T11:10:40Z</time>
      </trkpt>
      <trkpt lat="46.13853" lon="6.38656">
        <ele>584</ele>
        <time>2011-04-03T11:10:41Z</time>
      </trkpt>
      <trkpt lat="46.13863" lon="6.38653">
        <ele>584</ele>
        <time>2011-04-03T11:10:42Z</time>
      </trkpt>
      <trkpt lat="46.13874" lon="6.3865">
        <ele>584</ele>
        <time>2011-04-03T11:10:43Z</time>
      </trkpt>
      <trkpt lat="46.13884" lon="6.38648">
        <ele>584</ele>
        <time>2011-04-03T11:10:44Z</time>
      </trkpt>
      <trkpt lat="46.13895" lon="6.38647">
        <ele>584</ele>
        <time>2011-04-03T11:10:45Z</time>
      </trkpt>
      <trkpt lat="46.13906" lon="6.38645">
        <ele>584</ele>
        <time>2011-04-03T11:10:46Z</time>
      </trkpt>
      <trkpt lat="46.13919" lon="6.38641">
        <ele>584</ele>
        <time>2011-04-03T11:10:47Z</time>
      </trkpt>
      <trkpt lat="46.13933" lon="6.38637">
        <ele>584</ele>
        <time>2011-04-03T11:10:48Z</time>
      </trkpt>
      <trkpt lat="46.13947" lon="6.38631">
        <ele>584</ele>
        <time>2011-04-03T11:10:49Z</time>
      </trkpt>
      <trkpt lat="46.1396" lon="6.38627">
        <ele>584</ele>
        <time>2011-04-03T11:10:50Z</time>
      </trkpt>
      <trkpt lat="46.13973" lon="6.38621">
        <ele>584</ele>
        <time>2011-04-03T11:10:51Z</time>
      </trkpt>
      <trkpt lat="46.13984" lon="6.38615">
        <ele>584</ele>
        <time>2011-04-03T11:10:52Z</time>
      </trkpt>
      <trkpt lat="46.13994" lon="6.38609">
        <ele>584</ele>
        <time>2011-04-03T11:10:53Z</time>
      </trkpt>
      <trkpt lat="46.14005" lon="6.38603">
        <ele>584</ele>
        <time>2011-04-03T11:10:54Z</time>
      </trkpt>
      <trkpt lat="46.14016" lon="6.38598">
        <ele>584</ele>
        <time>2011-04-03T11:10:55Z</time>
      </trkpt>
      <trkpt lat="46.14029" lon="6.38596">
        <ele>584</ele>
        <time>2011-04-03T11:10:56Z</time>
      </trkpt>
      <trkpt lat="46.14042" lon="6.38595">
        <ele>584</ele>
        <time>2011-04-03T11:10:57Z</time>
      </trkpt>
      <trkpt lat="46.14053" lon="6.38597">
        <ele>584</ele>
        <time>2011-04-03T11:10:58Z</time>
      </trkpt>
      <trkpt lat="46.14063" lon="6.38598">
        <ele>584</ele>
        <time>2011-04-03T11:10:59Z</time>
      </trkpt>
      <trkpt lat="46.14073" lon="6.38598">
        <ele>584</ele>
        <time>2011-04-03T11:11:00Z</time>
      </trkpt>
      <trkpt lat="46.14085" lon="6.38595">
        <ele>584</ele>
        <time>2011-04-03T11:11:01Z</time>
      </trkpt>
      <trkpt lat="46.14099" lon="6.3859">
        <ele>584</ele>
        <time>2011-04-03T11:11:02Z</time>
      </trkpt>
      <trkpt lat="46.14113" lon="6.38585">
        <ele>584</ele>
        <time>2011-04-03T11:11:03Z</time>
      </trkpt>
      <trkpt lat="46.14127" lon="6.38583">
        <ele>584</ele>
        <time>2011-04-03T11:11:04Z</time>
      </trkpt>
      <trkpt lat="46.1414" lon="6.38581">
        <ele>584</ele>
        <time>2011-04-03T11:11:05Z</time>
      </trkpt>
      <trkpt lat="46.14155" lon="6.38581">
        <ele>579</ele>
        <time>2011-04-03T11:11:06Z</time>
      </trkpt>
      <trkpt lat="46.14168" lon="6.38583">
        <ele>579</ele>
        <time>2011-04-03T11:11:07Z</time>
      </trkpt>
      <trkpt lat="46.14181" lon="6.38584">
        <ele>579</ele>
        <time>2011-04-03T11:11:08Z</time>
      </trkpt>
      <trkpt lat="46.14192" lon="6.38584">
        <ele>579</ele>
        <time>2011-04-03T11:11:09Z</time>
      </trkpt>
      <trkpt lat="46.14203" lon="6.38583">
        <ele>579</ele>
        <time>2011-04-03T11:11:10Z</time>
      </trkpt>
      <trkpt lat="46.14215" lon="6.3858">
        <ele>579</ele>
        <time>2011-04-03T11:11:11Z</time>
      </trkpt>
      <trkpt lat="46.14226" lon="6.38576">
        <ele>579</ele>
        <time>2011-04-03T11:11:12Z</time>
      </trkpt>
      <trkpt lat="46.14239" lon="6.38571">
        <ele>579</ele>
        <time>2011-04-03T11:11:13Z</time>
      </trkpt>
      <trkpt lat="46.1425" lon="6.38567">
        <ele>579</ele>
        <time>2011-04-03T11:11:14Z</time>
      </trkpt>
      <trkpt lat="46.14261" lon="6.38562">
        <ele>579</ele>
        <time>2011-04-03T11:11:15Z</time>
      </trkpt>
      <trkpt lat="46.1427" lon="6.38558">
        <ele>579</ele>
        <time>2011-04-03T11:11:16Z</time>
      </trkpt>
      <trkpt lat="46.1428" lon="6.38559">
        <ele>579</ele>
        <time>2011-04-03T11:11:17Z</time>
      </trkpt>
      <trkpt lat="46.14289" lon="6.38562">
        <ele>579</ele>
        <time>2011-04-03T11:11:18Z</time>
      </trkpt>
      <trkpt lat="46.14306" lon="6.38566">
        <ele>579</ele>
        <time>2011-04-03T11:11:20Z</time>
      </trkpt>
      <trkpt lat="46.14321" lon="6.38554">
        <ele>579</ele>
        <time>2011-04-03T11:11:22Z</time>
      </trkpt>
      <trkpt lat="46.14329" lon="6.38541">
        <ele>579</ele>
        <time>2011-04-03T11:11:23Z</time>
      </trkpt>
      <trkpt lat="46.14337" lon="6.38529">
        <ele>579</ele>
        <time>2011-04-03T11:11:24Z</time>
      </trkpt>
      <trkpt lat="46.14343" lon="6.38517">
        <ele>579</ele>
        <time>2011-04-03T11:11:25Z</time>
      </trkpt>
      <trkpt lat="46.1435" lon="6.38506">
        <ele>579</ele>
        <time>2011-04-03T11:11:26Z</time>
      </trkpt>
      <trkpt lat="46.14364" lon="6.38493">
        <ele>579</ele>
        <time>2011-04-03T11:11:28Z</time>
      </trkpt>
      <trkpt lat="46.14375" lon="6.38478">
        <ele>579</ele>
        <time>2011-04-03T11:11:30Z</time>
      </trkpt>
      <trkpt lat="46.14382" lon="6.38466">
        <ele>579</ele>
        <time>2011-04-03T11:11:32Z</time>
      </trkpt>
      <trkpt lat="46.14393" lon="6.38458">
        <ele>579</ele>
        <time>2011-04-03T11:11:36Z</time>
      </trkpt>
      <trkpt lat="46.14406" lon="6.38464">
        <ele>579</ele>
        <time>2011-04-03T11:11:39Z</time>
      </trkpt>
      <trkpt lat="46.14418" lon="6.3847">
        <ele>579</ele>
        <time>2011-04-03T11:11:41Z</time>
      </trkpt>
      <trkpt lat="46.14429" lon="6.38475">
        <ele>579</ele>
        <time>2011-04-03T11:11:43Z</time>
      </trkpt>
      <trkpt lat="46.14437" lon="6.38485">
        <ele>579</ele>
        <time>2011-04-03T11:11:45Z</time>
      </trkpt>
      <trkpt lat="46.14445" lon="6.38499">
        <ele>579</ele>
        <time>2011-04-03T11:11:47Z</time>
      </trkpt>
      <trkpt lat="46.14459" lon="6.38514">
        <ele>579</ele>
        <time>2011-04-03T11:11:49Z</time>
      </trkpt>
      <trkpt lat="46.14469" lon="6.38521">
        <ele>579</ele>
        <time>2011-04-03T11:11:50Z</time>
      </trkpt>
      <trkpt lat="46.1448" lon="6.38525">
        <ele>579</ele>
        <time>2011-04-03T11:11:51Z</time>
      </trkpt>
      <trkpt lat="46.14492" lon="6.38528">
        <ele>579</ele>
        <time>2011-04-03T11:11:52Z</time>
      </trkpt>
      <trkpt lat="46.14504" lon="6.38532">
        <ele>579</ele>
        <time>2011-04-03T11:11:53Z</time>
      </trkpt>
      <trkpt lat="46.14514" lon="6.38535">
        <ele>579</ele>
        <time>2011-04-03T11:11:54Z</time>
      </trkpt>
      <trkpt lat="46.14526" lon="6.38539">
        <ele>579</ele>
        <time>2011-04-03T11:11:55Z</time>
      </trkpt>
      <trkpt lat="46.14535" lon="6.38544">
        <ele>579</ele>
        <time>2011-04-03T11:11:56Z</time>
      </trkpt>
      <trkpt lat="46.14544" lon="6.38551">
        <ele>579</ele>
        <time>2011-04-03T11:11:57Z</time>
      </trkpt>
      <trkpt lat="46.14551" lon="6.38561">
        <ele>579</ele>
        <time>2011-04-03T11:11:58Z</time>
      </trkpt>
      <trkpt lat="46.14557" lon="6.38572">
        <ele>579</ele>
        <time>2011-04-03T11:11:59Z</time>
      </trkpt>
      <trkpt lat="46.14563" lon="6.38584">
        <ele>579</ele>
        <time>2011-04-03T11:12:00Z</time>
      </trkpt>
      <trkpt lat="46.14568" lon="6.38595">
        <ele>579</ele>
        <time>2011-04-03T11:12:01Z</time>
      </trkpt>
      <trkpt lat="46.14573" lon="6.38611">
        <ele>579</ele>
        <time>2011-04-03T11:12:03Z</time>
      </trkpt>
      <trkpt lat="46.1458" lon="6.38624">
        <ele>587</ele>
        <time>2011-04-03T11:14:16Z</time>
      </trkpt>
      <trkpt lat="46.14586" lon="6.38638">
        <ele>587</ele>
        <time>2011-04-03T11:14:18Z</time>
      </trkpt>
      <trkpt lat="46.14593" lon="6.38656">
        <ele>587</ele>
        <time>2011-04-03T11:14:20Z</time>
      </trkpt>
      <trkpt lat="46.14597" lon="6.38668">
        <ele>587</ele>
        <time>2011-04-03T11:14:21Z</time>
      </trkpt>
      <trkpt lat="46.14602" lon="6.3868">
        <ele>587</ele>
        <time>2011-04-03T11:14:22Z</time>
      </trkpt>
      <trkpt lat="46.14607" lon="6.38693">
        <ele>587</ele>
        <time>2011-04-03T11:14:23Z</time>
      </trkpt>
      <trkpt lat="46.14612" lon="6.38706">
        <ele>592</ele>
        <time>2011-04-03T11:14:24Z</time>
      </trkpt>
      <trkpt lat="46.14617" lon="6.3872">
        <ele>592</ele>
        <time>2011-04-03T11:14:25Z</time>
      </trkpt>
      <trkpt lat="46.14623" lon="6.38735">
        <ele>592</ele>
        <time>2011-04-03T11:14:26Z</time>
      </trkpt>
      <trkpt lat="46.14629" lon="6.3875">
        <ele>592</ele>
        <time>2011-04-03T11:14:27Z</time>
      </trkpt>
      <trkpt lat="46.14635" lon="6.38765">
        <ele>592</ele>
        <time>2011-04-03T11:14:28Z</time>
      </trkpt>
      <trkpt lat="46.14642" lon="6.3878">
        <ele>598</ele>
        <time>2011-04-03T11:14:29Z</time>
      </trkpt>
      <trkpt lat="46.14648" lon="6.38795">
        <ele>598</ele>
        <time>2011-04-03T11:14:30Z</time>
      </trkpt>
      <trkpt lat="46.14655" lon="6.3881">
        <ele>598</ele>
        <time>2011-04-03T11:14:31Z</time>
      </trkpt>
      <trkpt lat="46.14662" lon="6.38825">
        <ele>598</ele>
        <time>2011-04-03T11:14:32Z</time>
      </trkpt>
      <trkpt lat="46.14669" lon="6.38842">
        <ele>603</ele>
        <time>2011-04-03T11:14:33Z</time>
      </trkpt>
      <trkpt lat="46.14676" lon="6.38859">
        <ele>603</ele>
        <time>2011-04-03T11:14:34Z</time>
      </trkpt>
      <trkpt lat="46.14682" lon="6.38876">
        <ele>603</ele>
        <time>2011-04-03T11:14:35Z</time>
      </trkpt>
      <trkpt lat="46.14689" lon="6.38892">
        <ele>603</ele>
        <time>2011-04-03T11:14:36Z</time>
      </trkpt>
      <trkpt lat="46.14696" lon="6.38908">
        <ele>603</ele>
        <time>2011-04-03T11:14:37Z</time>
      </trkpt>
      <trkpt lat="46.14704" lon="6.38923">
        <ele>603</ele>
        <time>2011-04-03T11:14:38Z</time>
      </trkpt>
      <trkpt lat="46.14713" lon="6.38939">
        <ele>603</ele>
        <time>2011-04-03T11:14:39Z</time>
      </trkpt>
      <trkpt lat="46.14724" lon="6.38956">
        <ele>603</ele>
        <time>2011-04-03T11:14:40Z</time>
      </trkpt>
      <trkpt lat="46.14734" lon="6.38972">
        <ele>608</ele>
        <time>2011-04-03T11:14:41Z</time>
      </trkpt>
      <trkpt lat="46.14743" lon="6.38987">
        <ele>608</ele>
        <time>2011-04-03T11:14:42Z</time>
      </trkpt>
      <trkpt lat="46.14753" lon="6.39001">
        <ele>608</ele>
        <time>2011-04-03T11:14:43Z</time>
      </trkpt>
      <trkpt lat="46.14762" lon="6.39016">
        <ele>608</ele>
        <time>2011-04-03T11:14:44Z</time>
      </trkpt>
      <trkpt lat="46.14773" lon="6.3903">
        <ele>608</ele>
        <time>2011-04-03T11:14:45Z</time>
      </trkpt>
      <trkpt lat="46.14783" lon="6.39043">
        <ele>608</ele>
        <time>2011-04-03T11:14:46Z</time>
      </trkpt>
      <trkpt lat="46.14795" lon="6.39054">
        <ele>608</ele>
        <time>2011-04-03T11:14:47Z</time>
      </trkpt>
      <trkpt lat="46.14806" lon="6.39065">
        <ele>614</ele>
        <time>2011-04-03T11:14:48Z</time>
      </trkpt>
      <trkpt lat="46.14817" lon="6.39074">
        <ele>614</ele>
        <time>2011-04-03T11:14:49Z</time>
      </trkpt>
      <trkpt lat="46.14826" lon="6.39082">
        <ele>614</ele>
        <time>2011-04-03T11:14:50Z</time>
      </trkpt>
      <trkpt lat="46.14835" lon="6.3909">
        <ele>614</ele>
        <time>2011-04-03T11:14:51Z</time>
      </trkpt>
      <trkpt lat="46.14843" lon="6.39097">
        <ele>614</ele>
        <time>2011-04-03T11:14:52Z</time>
      </trkpt>
      <trkpt lat="46.14855" lon="6.39109">
        <ele>620</ele>
        <time>2011-04-03T11:14:54Z</time>
      </trkpt>
      <trkpt lat="46.14863" lon="6.39117">
        <ele>620</ele>
        <time>2011-04-03T11:14:57Z</time>
      </trkpt>
      <trkpt lat="46.14873" lon="6.39132">
        <ele>620</ele>
        <time>2011-04-03T11:15:00Z</time>
      </trkpt>
      <trkpt lat="46.14886" lon="6.39148">
        <ele>627</ele>
        <time>2011-04-03T11:15:02Z</time>
      </trkpt>
      <trkpt lat="46.14895" lon="6.39155">
        <ele>627</ele>
        <time>2011-04-03T11:15:03Z</time>
      </trkpt>
      <trkpt lat="46.14903" lon="6.39161">
        <ele>627</ele>
        <time>2011-04-03T11:15:04Z</time>
      </trkpt>
      <trkpt lat="46.14913" lon="6.39167">
        <ele>627</ele>
        <time>2011-04-03T11:15:05Z</time>
      </trkpt>
      <trkpt lat="46.14922" lon="6.3917">
        <ele>632</ele>
        <time>2011-04-03T11:15:06Z</time>
      </trkpt>
      <trkpt lat="46.14932" lon="6.39173">
        <ele>632</ele>
        <time>2011-04-03T11:15:07Z</time>
      </trkpt>
      <trkpt lat="46.14943" lon="6.39174">
        <ele>632</ele>
        <time>2011-04-03T11:15:08Z</time>
      </trkpt>
      <trkpt lat="46.14956" lon="6.39176">
        <ele>632</ele>
        <time>2011-04-03T11:15:09Z</time>
      </trkpt>
      <trkpt lat="46.1497" lon="6.39177">
        <ele>637</ele>
        <time>2011-04-03T11:15:10Z</time>
      </trkpt>
      <trkpt lat="46.14982" lon="6.39179">
        <ele>637</ele>
        <time>2011-04-03T11:15:11Z</time>
      </trkpt>
      <trkpt lat="46.14993" lon="6.39182">
        <ele>637</ele>
        <time>2011-04-03T11:15:12Z</time>
      </trkpt>
      <trkpt lat="46.15002" lon="6.39186">
        <ele>637</ele>
        <time>2011-04-03T11:15:13Z</time>
      </trkpt>
      <trkpt lat="46.15012" lon="6.39194">
        <ele>637</ele>
        <time>2011-04-03T11:15:14Z</time>
      </trkpt>
      <trkpt lat="46.1502" lon="6.39203">
        <ele>643</ele>
        <time>2011-04-03T11:15:15Z</time>
      </trkpt>
      <trkpt lat="46.15028" lon="6.39215">
        <ele>643</ele>
        <time>2011-04-03T11:15:16Z</time>
      </trkpt>
      <trkpt lat="46.15034" lon="6.39227">
        <ele>643</ele>
        <time>2011-04-03T11:15:17Z</time>
      </trkpt>
      <trkpt lat="46.15038" lon="6.39249">
        <ele>643</ele>
        <time>2011-04-03T11:15:19Z</time>
      </trkpt>
      <trkpt lat="46.15038" lon="6.39274">
        <ele>650</ele>
        <time>2011-04-03T11:15:21Z</time>
      </trkpt>
      <trkpt lat="46.15041" lon="6.39299">
        <ele>650</ele>
        <time>2011-04-03T11:15:23Z</time>
      </trkpt>
      <trkpt lat="46.15044" lon="6.39311">
        <ele>650</ele>
        <time>2011-04-03T11:15:24Z</time>
      </trkpt>
      <trkpt lat="46.15049" lon="6.39324">
        <ele>650</ele>
        <time>2011-04-03T11:15:25Z</time>
      </trkpt>
      <trkpt lat="46.15055" lon="6.39336">
        <ele>650</ele>
        <time>2011-04-03T11:15:26Z</time>
      </trkpt>
      <trkpt lat="46.15062" lon="6.39347">
        <ele>650</ele>
        <time>2011-04-03T11:15:27Z</time>
      </trkpt>
      <trkpt lat="46.15068" lon="6.39358">
        <ele>650</ele>
        <time>2011-04-03T11:15:28Z</time>
      </trkpt>
      <trkpt lat="46.1508" lon="6.39373">
        <ele>650</ele>
        <time>2011-04-03T11:15:30Z</time>
      </trkpt>
      <trkpt lat="46.15091" lon="6.39384">
        <ele>650</ele>
        <time>2011-04-03T11:15:32Z</time>
      </trkpt>
      <trkpt lat="46.15102" lon="6.39389">
        <ele>655</ele>
        <time>2011-04-03T11:15:35Z</time>
      </trkpt>
      <trkpt lat="46.15107" lon="6.39376">
        <ele>655</ele>
        <time>2011-04-03T11:15:38Z</time>
      </trkpt>
      <trkpt lat="46.15109" lon="6.3936">
        <ele>655</ele>
        <time>2011-04-03T11:15:40Z</time>
      </trkpt>
      <trkpt lat="46.15116" lon="6.39335">
        <ele>655</ele>
        <time>2011-04-03T11:15:42Z</time>
      </trkpt>
      <trkpt lat="46.15119" lon="6.39317">
        <ele>655</ele>
        <time>2011-04-03T11:15:43Z</time>
      </trkpt>
      <trkpt lat="46.15122" lon="6.393">
        <ele>655</ele>
        <time>2011-04-03T11:15:44Z</time>
      </trkpt>
      <trkpt lat="46.15125" lon="6.39283">
        <ele>655</ele>
        <time>2011-04-03T11:15:45Z</time>
      </trkpt>
      <trkpt lat="46.15127" lon="6.39268">
        <ele>655</ele>
        <time>2011-04-03T11:15:46Z</time>
      </trkpt>
      <trkpt lat="46.15131" lon="6.39246">
        <ele>662</ele>
        <time>2011-04-03T11:15:48Z</time>
      </trkpt>
      <trkpt lat="46.15132" lon="6.39229">
        <ele>662</ele>
        <time>2011-04-03T11:15:50Z</time>
      </trkpt>
      <trkpt lat="46.15134" lon="6.39205">
        <ele>662</ele>
        <time>2011-04-03T11:15:52Z</time>
      </trkpt>
      <trkpt lat="46.15136" lon="6.39192">
        <ele>662</ele>
        <time>2011-04-03T11:15:53Z</time>
      </trkpt>
      <trkpt lat="46.15137" lon="6.39176">
        <ele>662</ele>
        <time>2011-04-03T11:15:54Z</time>
      </trkpt>
      <trkpt lat="46.15139" lon="6.3916">
        <ele>662</ele>
        <time>2011-04-03T11:15:55Z</time>
      </trkpt>
      <trkpt lat="46.1514" lon="6.39144">
        <ele>662</ele>
        <time>2011-04-03T11:15:56Z</time>
      </trkpt>
      <trkpt lat="46.15142" lon="6.39129">
        <ele>662</ele>
        <time>2011-04-03T11:15:57Z</time>
      </trkpt>
      <trkpt lat="46.15144" lon="6.39112">
        <ele>662</ele>
        <time>2011-04-03T11:15:58Z</time>
      </trkpt>
      <trkpt lat="46.15146" lon="6.39095">
        <ele>662</ele>
        <time>2011-04-03T11:15:59Z</time>
      </trkpt>
      <trkpt lat="46.15149" lon="6.39079">
        <ele>662</ele>
        <time>2011-04-03T11:16:00Z</time>
      </trkpt>
      <trkpt lat="46.15152" lon="6.39063">
        <ele>662</ele>
        <time>2011-04-03T11:16:01Z</time>
      </trkpt>
      <trkpt lat="46.15156" lon="6.3905">
        <ele>662</ele>
        <time>2011-04-03T11:16:02Z</time>
      </trkpt>
      <trkpt lat="46.1516" lon="6.39037">
        <ele>662</ele>
        <time>2011-04-03T11:16:03Z</time>
      </trkpt>
      <trkpt lat="46.15165" lon="6.39026">
        <ele>662</ele>
        <time>2011-04-03T11:16:04Z</time>
      </trkpt>
      <trkpt lat="46.15172" lon="6.39014">
        <ele>662</ele>
        <time>2011-04-03T11:16:05Z</time>
      </trkpt>
      <trkpt lat="46.15183" lon="6.38996">
        <ele>668</ele>
        <time>2011-04-03T11:16:07Z</time>
      </trkpt>
      <trkpt lat="46.1519" lon="6.3898">
        <ele>668</ele>
        <time>2011-04-03T11:16:09Z</time>
      </trkpt>
      <trkpt lat="46.15199" lon="6.38965">
        <ele>668</ele>
        <time>2011-04-03T11:16:11Z</time>
      </trkpt>
      <trkpt lat="46.15209" lon="6.38953">
        <ele>668</ele>
        <time>2011-04-03T11:16:13Z</time>
      </trkpt>
      <trkpt lat="46.15218" lon="6.38942">
        <ele>668</ele>
        <time>2011-04-03T11:16:15Z</time>
      </trkpt>
      <trkpt lat="46.15224" lon="6.38926">
        <ele>668</ele>
        <time>2011-04-03T11:16:17Z</time>
      </trkpt>
      <trkpt lat="46.15227" lon="6.38907">
        <ele>668</ele>
        <time>2011-04-03T11:16:19Z</time>
      </trkpt>
      <trkpt lat="46.15232" lon="6.38893">
        <ele>668</ele>
        <time>2011-04-03T11:16:21Z</time>
      </trkpt>
      <trkpt lat="46.15237" lon="6.38878">
        <ele>668</ele>
        <time>2011-04-03T11:16:26Z</time>
      </trkpt>
      <trkpt lat="46.15242" lon="6.38866">
        <ele>668</ele>
        <time>2011-04-03T11:16:28Z</time>
      </trkpt>
      <trkpt lat="46.1525" lon="6.38851">
        <ele>668</ele>
        <time>2011-04-03T11:16:30Z</time>
      </trkpt>
      <trkpt lat="46.15257" lon="6.38836">
        <ele>668</ele>
        <time>2011-04-03T11:16:32Z</time>
      </trkpt>
      <trkpt lat="46.15264" lon="6.38817">
        <ele>673</ele>
        <time>2011-04-03T11:16:34Z</time>
      </trkpt>
      <trkpt lat="46.15268" lon="6.38795">
        <ele>673</ele>
        <time>2011-04-03T11:16:36Z</time>
      </trkpt>
      <trkpt lat="46.15269" lon="6.3877">
        <ele>673</ele>
        <time>2011-04-03T11:16:38Z</time>
      </trkpt>
      <trkpt lat="46.15271" lon="6.38746">
        <ele>673</ele>
        <time>2011-04-03T11:16:40Z</time>
      </trkpt>
      <trkpt lat="46.15272" lon="6.38733">
        <ele>673</ele>
        <time>2011-04-03T11:16:41Z</time>
      </trkpt>
      <trkpt lat="46.15273" lon="6.38718">
        <ele>673</ele>
        <time>2011-04-03T11:16:42Z</time>
      </trkpt>
      <trkpt lat="46.15274" lon="6.38704">
        <ele>673</ele>
        <time>2011-04-03T11:16:43Z</time>
      </trkpt>
      <trkpt lat="46.15275" lon="6.3869">
        <ele>673</ele>
        <time>2011-04-03T11:16:44Z</time>
      </trkpt>
      <trkpt lat="46.15276" lon="6.38675">
        <ele>673</ele>
        <time>2011-04-03T11:16:45Z</time>
      </trkpt>
      <trkpt lat="46.15277" lon="6.38659">
        <ele>673</ele>
        <time>2011-04-03T11:16:46Z</time>
      </trkpt>
      <trkpt lat="46.15278" lon="6.38644">
        <ele>673</ele>
        <time>2011-04-03T11:16:47Z</time>
      </trkpt>
      <trkpt lat="46.15278" lon="6.38629">
        <ele>673</ele>
        <time>2011-04-03T11:16:48Z</time>
      </trkpt>
      <trkpt lat="46.15279" lon="6.38616">
        <ele>673</ele>
        <time>2011-04-03T11:16:49Z</time>
      </trkpt>
      <trkpt lat="46.1528" lon="6.38602">
        <ele>673</ele>
        <time>2011-04-03T11:16:50Z</time>
      </trkpt>
      <trkpt lat="46.1528" lon="6.38576">
        <ele>673</ele>
        <time>2011-04-03T11:16:52Z</time>
      </trkpt>
      <trkpt lat="46.15282" lon="6.38563">
        <ele>673</ele>
        <time>2011-04-03T11:16:53Z</time>
      </trkpt>
      <trkpt lat="46.15282" lon="6.3855">
        <ele>673</ele>
        <time>2011-04-03T11:16:54Z</time>
      </trkpt>
      <trkpt lat="46.15283" lon="6.38526">
        <ele>673</ele>
        <time>2011-04-03T11:16:56Z</time>
      </trkpt>
      <trkpt lat="46.15285" lon="6.38503">
        <ele>673</ele>
        <time>2011-04-03T11:16:58Z</time>
      </trkpt>
      <trkpt lat="46.15288" lon="6.38481">
        <ele>673</ele>
        <time>2011-04-03T11:17:00Z</time>
      </trkpt>
      <trkpt lat="46.15291" lon="6.38466">
        <ele>673</ele>
        <time>2011-04-03T11:17:02Z</time>
      </trkpt>
      <trkpt lat="46.15295" lon="6.38452">
        <ele>678</ele>
        <time>2011-04-03T11:17:04Z</time>
      </trkpt>
      <trkpt lat="46.15297" lon="6.38434">
        <ele>678</ele>
        <time>2011-04-03T11:17:06Z</time>
      </trkpt>
      <trkpt lat="46.15297" lon="6.38408">
        <ele>678</ele>
        <time>2011-04-03T11:17:08Z</time>
      </trkpt>
      <trkpt lat="46.15296" lon="6.38393">
        <ele>678</ele>
        <time>2011-04-03T11:17:09Z</time>
      </trkpt>
      <trkpt lat="46.15295" lon="6.38368">
        <ele>678</ele>
        <time>2011-04-03T11:17:11Z</time>
      </trkpt>
      <trkpt lat="46.15292" lon="6.38345">
        <ele>678</ele>
        <time>2011-04-03T11:17:13Z</time>
      </trkpt>
      <trkpt lat="46.15293" lon="6.38326">
        <ele>678</ele>
        <time>2011-04-03T11:17:15Z</time>
      </trkpt>
      <trkpt lat="46.15296" lon="6.38312">
        <ele>678</ele>
        <time>2011-04-03T11:17:17Z</time>
      </trkpt>
      <trkpt lat="46.15303" lon="6.38297">
        <ele>685</ele>
        <time>2011-04-03T11:17:19Z</time>
      </trkpt>
      <trkpt lat="46.15308" lon="6.3828">
        <ele>685</ele>
        <time>2011-04-03T11:17:21Z</time>
      </trkpt>
      <trkpt lat="46.15311" lon="6.38264">
        <ele>685</ele>
        <time>2011-04-03T11:17:23Z</time>
      </trkpt>
      <trkpt lat="46.15312" lon="6.38249">
        <ele>685</ele>
        <time>2011-04-03T11:17:37Z</time>
      </trkpt>
      <trkpt lat="46.15313" lon="6.38231">
        <ele>685</ele>
        <time>2011-04-03T11:17:39Z</time>
      </trkpt>
      <trkpt lat="46.1531" lon="6.38205">
        <ele>685</ele>
        <time>2011-04-03T11:17:41Z</time>
      </trkpt>
      <trkpt lat="46.1531" lon="6.38191">
        <ele>685</ele>
        <time>2011-04-03T11:17:42Z</time>
      </trkpt>
      <trkpt lat="46.15312" lon="6.38178">
        <ele>685</ele>
        <time>2011-04-03T11:17:43Z</time>
      </trkpt>
      <trkpt lat="46.15314" lon="6.38164">
        <ele>685</ele>
        <time>2011-04-03T11:17:44Z</time>
      </trkpt>
      <trkpt lat="46.15318" lon="6.38151">
        <ele>685</ele>
        <time>2011-04-03T11:17:45Z</time>
      </trkpt>
      <trkpt lat="46.15323" lon="6.38138">
        <ele>685</ele>
        <time>2011-04-03T11:17:46Z</time>
      </trkpt>
      <trkpt lat="46.15329" lon="6.38124">
        <ele>685</ele>
        <time>2011-04-03T11:17:47Z</time>
      </trkpt>
      <trkpt lat="46.15335" lon="6.3811">
        <ele>679</ele>
        <time>2011-04-03T11:17:48Z</time>
      </trkpt>
      <trkpt lat="46.15342" lon="6.38098">
        <ele>679</ele>
        <time>2011-04-03T11:17:49Z</time>
      </trkpt>
      <trkpt lat="46.15348" lon="6.38084">
        <ele>679</ele>
        <time>2011-04-03T11:17:50Z</time>
      </trkpt>
      <trkpt lat="46.15355" lon="6.38071">
        <ele>679</ele>
        <time>2011-04-03T11:17:51Z</time>
      </trkpt>
      <trkpt lat="46.15362" lon="6.38058">
        <ele>679</ele>
        <time>2011-04-03T11:17:52Z</time>
      </trkpt>
      <trkpt lat="46.15368" lon="6.38046">
        <ele>679</ele>
        <time>2011-04-03T11:17:53Z</time>
      </trkpt>
      <trkpt lat="46.15374" lon="6.38034">
        <ele>674</ele>
        <time>2011-04-03T11:17:54Z</time>
      </trkpt>
      <trkpt lat="46.1538" lon="6.38022">
        <ele>674</ele>
        <time>2011-04-03T11:17:55Z</time>
      </trkpt>
      <trkpt lat="46.15386" lon="6.3801">
        <ele>674</ele>
        <time>2011-04-03T11:17:56Z</time>
      </trkpt>
      <trkpt lat="46.15391" lon="6.37996">
        <ele>674</ele>
        <time>2011-04-03T11:17:57Z</time>
      </trkpt>
      <trkpt lat="46.15396" lon="6.37984">
        <ele>674</ele>
        <time>2011-04-03T11:17:58Z</time>
      </trkpt>
      <trkpt lat="46.15404" lon="6.37962">
        <ele>668</ele>
        <time>2011-04-03T11:18:00Z</time>
      </trkpt>
      <trkpt lat="46.15408" lon="6.37944">
        <ele>668</ele>
        <time>2011-04-03T11:18:02Z</time>
      </trkpt>
      <trkpt lat="46.1541" lon="6.3793">
        <ele>668</ele>
        <time>2011-04-03T11:18:04Z</time>
      </trkpt>
      <trkpt lat="46.15416" lon="6.37916">
        <ele>668</ele>
        <time>2011-04-03T11:18:06Z</time>
      </trkpt>
      <trkpt lat="46.15425" lon="6.37896">
        <ele>668</ele>
        <time>2011-04-03T11:18:08Z</time>
      </trkpt>
      <trkpt lat="46.1543" lon="6.37885">
        <ele>668</ele>
        <time>2011-04-03T11:18:09Z</time>
      </trkpt>
      <trkpt lat="46.15435" lon="6.37872">
        <ele>668</ele>
        <time>2011-04-03T11:18:10Z</time>
      </trkpt>
      <trkpt lat="46.15441" lon="6.3786">
        <ele>663</ele>
        <time>2011-04-03T11:18:11Z</time>
      </trkpt>
      <trkpt lat="46.15447" lon="6.37849">
        <ele>663</ele>
        <time>2011-04-03T11:18:12Z</time>
      </trkpt>
      <trkpt lat="46.15453" lon="6.37838">
        <ele>663</ele>
        <time>2011-04-03T11:18:13Z</time>
      </trkpt>
      <trkpt lat="46.1546" lon="6.37828">
        <ele>663</ele>
        <time>2011-04-03T11:18:14Z</time>
      </trkpt>
      <trkpt lat="46.15467" lon="6.37819">
        <ele>663</ele>
        <time>2011-04-03T11:18:15Z</time>
      </trkpt>
      <trkpt lat="46.1548" lon="6.37803">
        <ele>663</ele>
        <time>2011-04-03T11:18:17Z</time>
      </trkpt>
      <trkpt lat="46.15491" lon="6.37788">
        <ele>663</ele>
        <time>2011-04-03T11:18:19Z</time>
      </trkpt>
      <trkpt lat="46.15503" lon="6.37774">
        <ele>663</ele>
        <time>2011-04-03T11:18:21Z</time>
      </trkpt>
      <trkpt lat="46.15514" lon="6.37761">
        <ele>658</ele>
        <time>2011-04-03T11:18:23Z</time>
      </trkpt>
      <trkpt lat="46.15529" lon="6.37745">
        <ele>658</ele>
        <time>2011-04-03T11:18:25Z</time>
      </trkpt>
      <trkpt lat="46.15538" lon="6.37734">
        <ele>658</ele>
        <time>2011-04-03T11:18:26Z</time>
      </trkpt>
      <trkpt lat="46.15548" lon="6.3772">
        <ele>658</ele>
        <time>2011-04-03T11:18:27Z</time>
      </trkpt>
      <trkpt lat="46.15558" lon="6.37706">
        <ele>658</ele>
        <time>2011-04-03T11:18:28Z</time>
      </trkpt>
      <trkpt lat="46.15568" lon="6.37691">
        <ele>652</ele>
        <time>2011-04-03T11:18:29Z</time>
      </trkpt>
      <trkpt lat="46.15578" lon="6.37675">
        <ele>652</ele>
        <time>2011-04-03T11:18:30Z</time>
      </trkpt>
      <trkpt lat="46.15589" lon="6.37659">
        <ele>652</ele>
        <time>2011-04-03T11:18:31Z</time>
      </trkpt>
      <trkpt lat="46.15601" lon="6.37644">
        <ele>652</ele>
        <time>2011-04-03T11:18:32Z</time>
      </trkpt>
      <trkpt lat="46.15612" lon="6.37629">
        <ele>647</ele>
        <time>2011-04-03T11:18:33Z</time>
      </trkpt>
      <trkpt lat="46.15625" lon="6.37615">
        <ele>647</ele>
        <time>2011-04-03T11:18:34Z</time>
      </trkpt>
      <trkpt lat="46.15638" lon="6.37603">
        <ele>647</ele>
        <time>2011-04-03T11:18:35Z</time>
      </trkpt>
      <trkpt lat="46.15652" lon="6.37591">
        <ele>647</ele>
        <time>2011-04-03T11:18:36Z</time>
      </trkpt>
      <trkpt lat="46.15665" lon="6.37581">
        <ele>642</ele>
        <time>2011-04-03T11:18:37Z</time>
      </trkpt>
      <trkpt lat="46.15677" lon="6.37572">
        <ele>642</ele>
        <time>2011-04-03T11:18:38Z</time>
      </trkpt>
      <trkpt lat="46.15688" lon="6.37563">
        <ele>642</ele>
        <time>2011-04-03T11:18:39Z</time>
      </trkpt>
      <trkpt lat="46.15699" lon="6.37554">
        <ele>642</ele>
        <time>2011-04-03T11:18:40Z</time>
      </trkpt>
      <trkpt lat="46.15709" lon="6.37547">
        <ele>642</ele>
        <time>2011-04-03T11:18:41Z</time>
      </trkpt>
      <trkpt lat="46.1572" lon="6.37539">
        <ele>642</ele>
        <time>2011-04-03T11:18:42Z</time>
      </trkpt>
      <trkpt lat="46.1573" lon="6.3753">
        <ele>637</ele>
        <time>2011-04-03T11:18:43Z</time>
      </trkpt>
      <trkpt lat="46.1574" lon="6.37518">
        <ele>637</ele>
        <time>2011-04-03T11:18:44Z</time>
      </trkpt>
      <trkpt lat="46.15749" lon="6.37507">
        <ele>637</ele>
        <time>2011-04-03T11:18:45Z</time>
      </trkpt>
      <trkpt lat="46.15756" lon="6.37495">
        <ele>637</ele>
        <time>2011-04-03T11:18:46Z</time>
      </trkpt>
      <trkpt lat="46.15764" lon="6.37483">
        <ele>637</ele>
        <time>2011-04-03T11:18:47Z</time>
      </trkpt>
      <trkpt lat="46.15771" lon="6.37473">
        <ele>637</ele>
        <time>2011-04-03T11:18:48Z</time>
      </trkpt>
      <trkpt lat="46.15778" lon="6.37463">
        <ele>637</ele>
        <time>2011-04-03T11:18:49Z</time>
      </trkpt>
      <trkpt lat="46.1579" lon="6.37448">
        <ele>637</ele>
        <time>2011-04-03T11:18:51Z</time>
      </trkpt>
      <trkpt lat="46.15802" lon="6.37439">
        <ele>637</ele>
        <time>2011-04-03T11:18:53Z</time>
      </trkpt>
      <trkpt lat="46.15814" lon="6.37434">
        <ele>637</ele>
        <time>2011-04-03T11:18:55Z</time>
      </trkpt>
      <trkpt lat="46.15824" lon="6.3743">
        <ele>637</ele>
        <time>2011-04-03T11:18:58Z</time>
      </trkpt>
      <trkpt lat="46.15833" lon="6.37428">
        <ele>637</ele>
        <time>2011-04-03T11:19:00Z</time>
      </trkpt>
      <trkpt lat="46.15845" lon="6.37427">
        <ele>637</ele>
        <time>2011-04-03T11:19:02Z</time>
      </trkpt>
      <trkpt lat="46.15862" lon="6.37425">
        <ele>637</ele>
        <time>2011-04-03T11:19:04Z</time>
      </trkpt>
      <trkpt lat="46.15873" lon="6.37424">
        <ele>637</ele>
        <time>2011-04-03T11:19:05Z</time>
      </trkpt>
      <trkpt lat="46.15885" lon="6.37422">
        <ele>637</ele>
        <time>2011-04-03T11:19:06Z</time>
      </trkpt>
      <trkpt lat="46.15899" lon="6.3742">
        <ele>637</ele>
        <time>2011-04-03T11:19:07Z</time>
      </trkpt>
      <trkpt lat="46.15913" lon="6.37419">
        <ele>637</ele>
        <time>2011-04-03T11:19:08Z</time>
      </trkpt>
      <trkpt lat="46.15928" lon="6.37415">
        <ele>637</ele>
        <time>2011-04-03T11:19:09Z</time>
      </trkpt>
      <trkpt lat="46.15944" lon="6.3741">
        <ele>632</ele>
        <time>2011-04-03T11:19:10Z</time>
      </trkpt>
      <trkpt lat="46.15959" lon="6.37407">
        <ele>632</ele>
        <time>2011-04-03T11:19:11Z</time>
      </trkpt>
      <trkpt lat="46.15974" lon="6.37402">
        <ele>632</ele>
        <time>2011-04-03T11:19:12Z</time>
      </trkpt>
      <trkpt lat="46.15988" lon="6.37399">
        <ele>632</ele>
        <time>2011-04-03T11:19:13Z</time>
      </trkpt>
      <trkpt lat="46.16002" lon="6.37396">
        <ele>632</ele>
        <time>2011-04-03T11:19:14Z</time>
      </trkpt>
      <trkpt lat="46.16015" lon="6.37393">
        <ele>632</ele>
        <time>2011-04-03T11:19:15Z</time>
      </trkpt>
      <trkpt lat="46.16028" lon="6.37391">
        <ele>632</ele>
        <time>2011-04-03T11:19:16Z</time>
      </trkpt>
      <trkpt lat="46.16042" lon="6.37388">
        <ele>632</ele>
        <time>2011-04-03T11:19:17Z</time>
      </trkpt>
      <trkpt lat="46.16057" lon="6.37386">
        <ele>632</ele>
        <time>2011-04-03T11:19:18Z</time>
      </trkpt>
      <trkpt lat="46.16072" lon="6.37385">
        <ele>632</ele>
        <time>2011-04-03T11:19:19Z</time>
      </trkpt>
      <trkpt lat="46.16088" lon="6.37384">
        <ele>626</ele>
        <time>2011-04-03T11:19:20Z</time>
      </trkpt>
      <trkpt lat="46.16103" lon="6.37383">
        <ele>626</ele>
        <time>2011-04-03T11:19:21Z</time>
      </trkpt>
      <trkpt lat="46.16119" lon="6.37383">
        <ele>626</ele>
        <time>2011-04-03T11:19:22Z</time>
      </trkpt>
      <trkpt lat="46.16132" lon="6.37383">
        <ele>626</ele>
        <time>2011-04-03T11:19:23Z</time>
      </trkpt>
      <trkpt lat="46.16147" lon="6.37385">
        <ele>626</ele>
        <time>2011-04-03T11:19:24Z</time>
      </trkpt>
      <trkpt lat="46.1616" lon="6.37387">
        <ele>626</ele>
        <time>2011-04-03T11:19:25Z</time>
      </trkpt>
      <trkpt lat="46.16174" lon="6.37389">
        <ele>626</ele>
        <time>2011-04-03T11:19:26Z</time>
      </trkpt>
      <trkpt lat="46.16186" lon="6.37391">
        <ele>626</ele>
        <time>2011-04-03T11:19:27Z</time>
      </trkpt>
      <trkpt lat="46.16199" lon="6.37392">
        <ele>626</ele>
        <time>2011-04-03T11:19:28Z</time>
      </trkpt>
      <trkpt lat="46.16211" lon="6.37392">
        <ele>626</ele>
        <time>2011-04-03T11:19:29Z</time>
      </trkpt>
      <trkpt lat="46.16223" lon="6.3739">
        <ele>626</ele>
        <time>2011-04-03T11:19:30Z</time>
      </trkpt>
      <trkpt lat="46.16235" lon="6.37387">
        <ele>626</ele>
        <time>2011-04-03T11:19:31Z</time>
      </trkpt>
      <trkpt lat="46.16248" lon="6.37383">
        <ele>626</ele>
        <time>2011-04-03T11:19:32Z</time>
      </trkpt>
      <trkpt lat="46.1626" lon="6.37378">
        <ele>626</ele>
        <time>2011-04-03T11:19:33Z</time>
      </trkpt>
      <trkpt lat="46.16274" lon="6.37372">
        <ele>626</ele>
        <time>2011-04-03T11:19:34Z</time>
      </trkpt>
      <trkpt lat="46.16285" lon="6.37366">
        <ele>626</ele>
        <time>2011-04-03T11:19:35Z</time>
      </trkpt>
      <trkpt lat="46.16297" lon="6.37361">
        <ele>620</ele>
        <time>2011-04-03T11:19:36Z</time>
      </trkpt>
      <trkpt lat="46.16307" lon="6.37356">
        <ele>620</ele>
        <time>2011-04-03T11:19:37Z</time>
      </trkpt>
      <trkpt lat="46.16317" lon="6.37351">
        <ele>620</ele>
        <time>2011-04-03T11:19:38Z</time>
      </trkpt>
      <trkpt lat="46.16325" lon="6.37348">
        <ele>620</ele>
        <time>2011-04-03T11:19:39Z</time>
      </trkpt>
      <trkpt lat="46.16334" lon="6.37344">
        <ele>620</ele>
        <time>2011-04-03T11:19:40Z</time>
      </trkpt>
      <trkpt lat="46.16343" lon="6.3734">
        <ele>620</ele>
        <time>2011-04-03T11:19:41Z</time>
      </trkpt>
      <trkpt lat="46.16358" lon="6.37335">
        <ele>620</ele>
        <time>2011-04-03T11:19:43Z</time>
      </trkpt>
      <trkpt lat="46.16373" lon="6.37335">
        <ele>613</ele>
        <time>2011-04-03T11:19:45Z</time>
      </trkpt>
      <trkpt lat="46.16383" lon="6.37336">
        <ele>613</ele>
        <time>2011-04-03T11:19:47Z</time>
      </trkpt>
      <trkpt lat="46.16392" lon="6.37341">
        <ele>613</ele>
        <time>2011-04-03T11:19:52Z</time>
      </trkpt>
      <trkpt lat="46.16402" lon="6.37352">
        <ele>613</ele>
        <time>2011-04-03T11:20:03Z</time>
      </trkpt>
      <trkpt lat="46.16404" lon="6.37372">
        <ele>613</ele>
        <time>2011-04-03T11:20:05Z</time>
      </trkpt>
      <trkpt lat="46.16405" lon="6.37388">
        <ele>613</ele>
        <time>2011-04-03T11:20:06Z</time>
      </trkpt>
      <trkpt lat="46.16405" lon="6.37407">
        <ele>613</ele>
        <time>2011-04-03T11:20:07Z</time>
      </trkpt>
      <trkpt lat="46.16405" lon="6.37425">
        <ele>613</ele>
        <time>2011-04-03T11:20:08Z</time>
      </trkpt>
      <trkpt lat="46.16406" lon="6.37442">
        <ele>618</ele>
        <time>2011-04-03T11:20:09Z</time>
      </trkpt>
      <trkpt lat="46.16405" lon="6.3746">
        <ele>618</ele>
        <time>2011-04-03T11:20:10Z</time>
      </trkpt>
      <trkpt lat="46.16405" lon="6.37474">
        <ele>618</ele>
        <time>2011-04-03T11:20:11Z</time>
      </trkpt>
      <trkpt lat="46.16405" lon="6.37488">
        <ele>618</ele>
        <time>2011-04-03T11:20:12Z</time>
      </trkpt>
      <trkpt lat="46.16403" lon="6.37501">
        <ele>618</ele>
        <time>2011-04-03T11:20:13Z</time>
      </trkpt>
      <trkpt lat="46.16402" lon="6.37524">
        <ele>623</ele>
        <time>2011-04-03T11:20:15Z</time>
      </trkpt>
      <trkpt lat="46.16411" lon="6.37537">
        <ele>623</ele>
        <time>2011-04-03T11:20:17Z</time>
      </trkpt>
      <trkpt lat="46.16421" lon="6.37541">
        <ele>623</ele>
        <time>2011-04-03T11:20:18Z</time>
      </trkpt>
      <trkpt lat="46.16433" lon="6.37542">
        <ele>623</ele>
        <time>2011-04-03T11:20:19Z</time>
      </trkpt>
      <trkpt lat="46.16444" lon="6.37545">
        <ele>623</ele>
        <time>2011-04-03T11:20:20Z</time>
      </trkpt>
      <trkpt lat="46.16455" lon="6.3755">
        <ele>623</ele>
        <time>2011-04-03T11:20:21Z</time>
      </trkpt>
      <trkpt lat="46.16465" lon="6.37555">
        <ele>628</ele>
        <time>2011-04-03T11:20:22Z</time>
      </trkpt>
      <trkpt lat="46.16474" lon="6.37562">
        <ele>628</ele>
        <time>2011-04-03T11:20:23Z</time>
      </trkpt>
      <trkpt lat="46.16488" lon="6.37574">
        <ele>628</ele>
        <time>2011-04-03T11:20:25Z</time>
      </trkpt>
      <trkpt lat="46.16503" lon="6.37579">
        <ele>628</ele>
        <time>2011-04-03T11:20:27Z</time>
      </trkpt>
      <trkpt lat="46.16513" lon="6.37579">
        <ele>628</ele>
        <time>2011-04-03T11:20:28Z</time>
      </trkpt>
      <trkpt lat="46.16524" lon="6.37575">
        <ele>628</ele>
        <time>2011-04-03T11:20:29Z</time>
      </trkpt>
      <trkpt lat="46.16538" lon="6.37569">
        <ele>628</ele>
        <time>2011-04-03T11:20:30Z</time>
      </trkpt>
      <trkpt lat="46.16554" lon="6.37564">
        <ele>628</ele>
        <time>2011-04-03T11:20:31Z</time>
      </trkpt>
      <trkpt lat="46.16571" lon="6.37559">
        <ele>628</ele>
        <time>2011-04-03T11:20:32Z</time>
      </trkpt>
      <trkpt lat="46.16589" lon="6.37554">
        <ele>628</ele>
        <time>2011-04-03T11:20:33Z</time>
      </trkpt>
      <trkpt lat="46.16607" lon="6.37549">
        <ele>628</ele>
        <time>2011-04-03T11:20:34Z</time>
      </trkpt>
      <trkpt lat="46.16624" lon="6.37544">
        <ele>628</ele>
        <time>2011-04-03T11:20:35Z</time>
      </trkpt>
      <trkpt lat="46.16641" lon="6.37542">
        <ele>628</ele>
        <time>2011-04-03T11:20:36Z</time>
      </trkpt>
      <trkpt lat="46.16656" lon="6.3754">
        <ele>628</ele>
        <time>2011-04-03T11:20:37Z</time>
      </trkpt>
      <trkpt lat="46.16671" lon="6.37539">
        <ele>628</ele>
        <time>2011-04-03T11:20:38Z</time>
      </trkpt>
      <trkpt lat="46.16684" lon="6.37537">
        <ele>634</ele>
        <time>2011-04-03T11:20:39Z</time>
      </trkpt>
      <trkpt lat="46.16697" lon="6.37534">
        <ele>634</ele>
        <time>2011-04-03T11:20:40Z</time>
      </trkpt>
      <trkpt lat="46.1671" lon="6.37532">
        <ele>634</ele>
        <time>2011-04-03T11:20:41Z</time>
      </trkpt>
      <trkpt lat="46.16722" lon="6.37529">
        <ele>634</ele>
        <time>2011-04-03T11:20:42Z</time>
      </trkpt>
      <trkpt lat="46.16734" lon="6.37527">
        <ele>634</ele>
        <time>2011-04-03T11:20:43Z</time>
      </trkpt>
      <trkpt lat="46.16746" lon="6.37526">
        <ele>634</ele>
        <time>2011-04-03T11:20:44Z</time>
      </trkpt>
      <trkpt lat="46.16759" lon="6.37526">
        <ele>634</ele>
        <time>2011-04-03T11:20:45Z</time>
      </trkpt>
      <trkpt lat="46.16771" lon="6.37526">
        <ele>634</ele>
        <time>2011-04-03T11:20:46Z</time>
      </trkpt>
      <trkpt lat="46.16784" lon="6.37528">
        <ele>639</ele>
        <time>2011-04-03T11:20:47Z</time>
      </trkpt>
      <trkpt lat="46.16798" lon="6.37531">
        <ele>639</ele>
        <time>2011-04-03T11:20:48Z</time>
      </trkpt>
      <trkpt lat="46.16812" lon="6.37535">
        <ele>639</ele>
        <time>2011-04-03T11:20:49Z</time>
      </trkpt>
      <trkpt lat="46.16827" lon="6.37539">
        <ele>639</ele>
        <time>2011-04-03T11:20:50Z</time>
      </trkpt>
      <trkpt lat="46.16843" lon="6.37543">
        <ele>639</ele>
        <time>2011-04-03T11:20:51Z</time>
      </trkpt>
      <trkpt lat="46.16859" lon="6.37549">
        <ele>639</ele>
        <time>2011-04-03T11:20:52Z</time>
      </trkpt>
      <trkpt lat="46.16876" lon="6.37554">
        <ele>645</ele>
        <time>2011-04-03T11:20:53Z</time>
      </trkpt>
      <trkpt lat="46.16893" lon="6.3756">
        <ele>645</ele>
        <time>2011-04-03T11:20:54Z</time>
      </trkpt>
      <trkpt lat="46.1691" lon="6.37564">
        <ele>645</ele>
        <time>2011-04-03T11:20:55Z</time>
      </trkpt>
      <trkpt lat="46.16926" lon="6.37569">
        <ele>645</ele>
        <time>2011-04-03T11:20:56Z</time>
      </trkpt>
      <trkpt lat="46.16944" lon="6.37574">
        <ele>651</ele>
        <time>2011-04-03T11:20:57Z</time>
      </trkpt>
      <trkpt lat="46.1696" lon="6.37579">
        <ele>651</ele>
        <time>2011-04-03T11:20:58Z</time>
      </trkpt>
      <trkpt lat="46.16974" lon="6.37584">
        <ele>651</ele>
        <time>2011-04-03T11:20:59Z</time>
      </trkpt>
      <trkpt lat="46.16986" lon="6.37588">
        <ele>651</ele>
        <time>2011-04-03T11:21:00Z</time>
      </trkpt>
      <trkpt lat="46.16997" lon="6.37593">
        <ele>656</ele>
        <time>2011-04-03T11:21:01Z</time>
      </trkpt>
      <trkpt lat="46.17007" lon="6.37597">
        <ele>656</ele>
        <time>2011-04-03T11:21:02Z</time>
      </trkpt>
      <trkpt lat="46.17017" lon="6.37603">
        <ele>656</ele>
        <time>2011-04-03T11:21:03Z</time>
      </trkpt>
      <trkpt lat="46.17028" lon="6.3761">
        <ele>656</ele>
        <time>2011-04-03T11:21:04Z</time>
      </trkpt>
      <trkpt lat="46.17039" lon="6.37618">
        <ele>656</ele>
        <time>2011-04-03T11:21:05Z</time>
      </trkpt>
      <trkpt lat="46.1705" lon="6.37627">
        <ele>656</ele>
        <time>2011-04-03T11:21:06Z</time>
      </trkpt>
      <trkpt lat="46.17061" lon="6.37638">
        <ele>656</ele>
        <time>2011-04-03T11:21:07Z</time>
      </trkpt>
      <trkpt lat="46.1707" lon="6.37649">
        <ele>656</ele>
        <time>2011-04-03T11:21:08Z</time>
      </trkpt>
      <trkpt lat="46.1708" lon="6.37662">
        <ele>656</ele>
        <time>2011-04-03T11:21:09Z</time>
      </trkpt>
      <trkpt lat="46.17089" lon="6.37675">
        <ele>661</ele>
        <time>2011-04-03T11:21:10Z</time>
      </trkpt>
      <trkpt lat="46.17099" lon="6.37687">
        <ele>661</ele>
        <time>2011-04-03T11:21:11Z</time>
      </trkpt>
      <trkpt lat="46.17106" lon="6.377">
        <ele>661</ele>
        <time>2011-04-03T11:21:12Z</time>
      </trkpt>
      <trkpt lat="46.17114" lon="6.37711">
        <ele>661</ele>
        <time>2011-04-03T11:21:13Z</time>
      </trkpt>
      <trkpt lat="46.17119" lon="6.37722">
        <ele>661</ele>
        <time>2011-04-03T11:21:14Z</time>
      </trkpt>
      <trkpt lat="46.17129" lon="6.37742">
        <ele>661</ele>
        <time>2011-04-03T11:21:16Z</time>
      </trkpt>
      <trkpt lat="46.17136" lon="6.37754">
        <ele>661</ele>
        <time>2011-04-03T11:21:18Z</time>
      </trkpt>
      <trkpt lat="46.17142" lon="6.37764">
        <ele>661</ele>
        <time>2011-04-03T11:21:21Z</time>
      </trkpt>
      <trkpt lat="46.17147" lon="6.37779">
        <ele>661</ele>
        <time>2011-04-03T11:21:44Z</time>
      </trkpt>
      <trkpt lat="46.17158" lon="6.37778">
        <ele>661</ele>
        <time>2011-04-03T11:21:47Z</time>
      </trkpt>
      <trkpt lat="46.17168" lon="6.37776">
        <ele>661</ele>
        <time>2011-04-03T11:21:49Z</time>
      </trkpt>
      <trkpt lat="46.1718" lon="6.37776">
        <ele>670</ele>
        <time>2011-04-03T11:21:51Z</time>
      </trkpt>
      <trkpt lat="46.17178" lon="6.3779">
        <ele>676</ele>
        <time>2011-04-03T11:21:59Z</time>
      </trkpt>
      <trkpt lat="46.17173" lon="6.37803">
        <ele>676</ele>
        <time>2011-04-03T11:22:02Z</time>
      </trkpt>
      <trkpt lat="46.17165" lon="6.37817">
        <ele>682</ele>
        <time>2011-04-03T11:22:05Z</time>
      </trkpt>
      <trkpt lat="46.17158" lon="6.37831">
        <ele>682</ele>
        <time>2011-04-03T11:22:07Z</time>
      </trkpt>
      <trkpt lat="46.17153" lon="6.37847">
        <ele>688</ele>
        <time>2011-04-03T11:22:09Z</time>
      </trkpt>
      <trkpt lat="46.17152" lon="6.37866">
        <ele>688</ele>
        <time>2011-04-03T11:22:11Z</time>
      </trkpt>
      <trkpt lat="46.17153" lon="6.37884">
        <ele>694</ele>
        <time>2011-04-03T11:22:13Z</time>
      </trkpt>
      <trkpt lat="46.17157" lon="6.37901">
        <ele>694</ele>
        <time>2011-04-03T11:22:15Z</time>
      </trkpt>
      <trkpt lat="46.1716" lon="6.37918">
        <ele>702</ele>
        <time>2011-04-03T11:22:17Z</time>
      </trkpt>
      <trkpt lat="46.17164" lon="6.37931">
        <ele>702</ele>
        <time>2011-04-03T11:22:19Z</time>
      </trkpt>
      <trkpt lat="46.17173" lon="6.37942">
        <ele>711</ele>
        <time>2011-04-03T11:22:21Z</time>
      </trkpt>
      <trkpt lat="46.17185" lon="6.3795">
        <ele>711</ele>
        <time>2011-04-03T11:22:23Z</time>
      </trkpt>
      <trkpt lat="46.17197" lon="6.37961">
        <ele>719</ele>
        <time>2011-04-03T11:22:25Z</time>
      </trkpt>
      <trkpt lat="46.17205" lon="6.37969">
        <ele>719</ele>
        <time>2011-04-03T11:22:27Z</time>
      </trkpt>
      <trkpt lat="46.17215" lon="6.37978">
        <ele>729</ele>
        <time>2011-04-03T11:22:30Z</time>
      </trkpt>
      <trkpt lat="46.17222" lon="6.37988">
        <ele>729</ele>
        <time>2011-04-03T11:22:32Z</time>
      </trkpt>
      <trkpt lat="46.17225" lon="6.38004">
        <ele>729</ele>
        <time>2011-04-03T11:22:34Z</time>
      </trkpt>
      <trkpt lat="46.17233" lon="6.38021">
        <ele>736</ele>
        <time>2011-04-03T11:22:36Z</time>
      </trkpt>
      <trkpt lat="46.17243" lon="6.38041">
        <ele>741</ele>
        <time>2011-04-03T11:22:38Z</time>
      </trkpt>
      <trkpt lat="46.17254" lon="6.38058">
        <ele>741</ele>
        <time>2011-04-03T11:22:40Z</time>
      </trkpt>
      <trkpt lat="46.17262" lon="6.38071">
        <ele>749</ele>
        <time>2011-04-03T11:22:42Z</time>
      </trkpt>
      <trkpt lat="46.17267" lon="6.38082">
        <ele>754</ele>
        <time>2011-04-03T11:22:46Z</time>
      </trkpt>
      <trkpt lat="46.17273" lon="6.38072">
        <ele>747</ele>
        <time>2011-04-03T11:26:19Z</time>
      </trkpt>
      <trkpt lat="46.1728" lon="6.38086">
        <ele>747</ele>
        <time>2011-04-03T11:26:37Z</time>
      </trkpt>
      <trkpt lat="46.17289" lon="6.38099">
        <ele>747</ele>
        <time>2011-04-03T11:26:40Z</time>
      </trkpt>
      <trkpt lat="46.17287" lon="6.38117">
        <ele>747</ele>
        <time>2011-04-03T11:26:43Z</time>
      </trkpt>
      <trkpt lat="46.17285" lon="6.38134">
        <ele>747</ele>
        <time>2011-04-03T11:26:45Z</time>
      </trkpt>
      <trkpt lat="46.17285" lon="6.38155">
        <ele>747</ele>
        <time>2011-04-03T11:26:47Z</time>
      </trkpt>
      <trkpt lat="46.17286" lon="6.38175">
        <ele>747</ele>
        <time>2011-04-03T11:26:49Z</time>
      </trkpt>
      <trkpt lat="46.1729" lon="6.38193">
        <ele>747</ele>
        <time>2011-04-03T11:26:51Z</time>
      </trkpt>
      <trkpt lat="46.17293" lon="6.3821">
        <ele>753</ele>
        <time>2011-04-03T11:26:53Z</time>
      </trkpt>
      <trkpt lat="46.17288" lon="6.38223">
        <ele>753</ele>
        <time>2011-04-03T11:26:56Z</time>
      </trkpt>
      <trkpt lat="46.17278" lon="6.38222">
        <ele>753</ele>
        <time>2011-04-03T11:27:00Z</time>
      </trkpt>
      <trkpt lat="46.17269" lon="6.38219">
        <ele>763</ele>
        <time>2011-04-03T11:27:13Z</time>
      </trkpt>
      <trkpt lat="46.1726" lon="6.38221">
        <ele>763</ele>
        <time>2011-04-03T11:27:17Z</time>
      </trkpt>
      <trkpt lat="46.17252" lon="6.38232">
        <ele>763</ele>
        <time>2011-04-03T11:27:20Z</time>
      </trkpt>
      <trkpt lat="46.17243" lon="6.38245">
        <ele>763</ele>
        <time>2011-04-03T11:27:22Z</time>
      </trkpt>
      <trkpt lat="46.17233" lon="6.38257">
        <ele>756</ele>
        <time>2011-04-03T11:27:24Z</time>
      </trkpt>
      <trkpt lat="46.17225" lon="6.38266">
        <ele>756</ele>
        <time>2011-04-03T11:27:26Z</time>
      </trkpt>
      <trkpt lat="46.17215" lon="6.38269">
        <ele>751</ele>
        <time>2011-04-03T11:27:30Z</time>
      </trkpt>
      <trkpt lat="46.17204" lon="6.38266">
        <ele>751</ele>
        <time>2011-04-03T11:27:34Z</time>
      </trkpt>
      <trkpt lat="46.17192" lon="6.38258">
        <ele>751</ele>
        <time>2011-04-03T11:27:36Z</time>
      </trkpt>
      <trkpt lat="46.17179" lon="6.38247">
        <ele>751</ele>
        <time>2011-04-03T11:27:38Z</time>
      </trkpt>
      <trkpt lat="46.17166" lon="6.38239">
        <ele>751</ele>
        <time>2011-04-03T11:27:40Z</time>
      </trkpt>
      <trkpt lat="46.17155" lon="6.38235">
        <ele>751</ele>
        <time>2011-04-03T11:27:42Z</time>
      </trkpt>
      <trkpt lat="46.17145" lon="6.38241">
        <ele>745</ele>
        <time>2011-04-03T11:27:44Z</time>
      </trkpt>
      <trkpt lat="46.17137" lon="6.38246">
        <ele>745</ele>
        <time>2011-04-03T11:27:46Z</time>
      </trkpt>
      <trkpt lat="46.17129" lon="6.38235">
        <ele>745</ele>
        <time>2011-04-03T11:27:49Z</time>
      </trkpt>
      <trkpt lat="46.17122" lon="6.38219">
        <ele>737</ele>
        <time>2011-04-03T11:27:51Z</time>
      </trkpt>
      <trkpt lat="46.17114" lon="6.38209">
        <ele>737</ele>
        <time>2011-04-03T11:27:53Z</time>
      </trkpt>
      <trkpt lat="46.17102" lon="6.38205">
        <ele>732</ele>
        <time>2011-04-03T11:27:55Z</time>
      </trkpt>
      <trkpt lat="46.17091" lon="6.38205">
        <ele>732</ele>
        <time>2011-04-03T11:27:57Z</time>
      </trkpt>
      <trkpt lat="46.17081" lon="6.38203">
        <ele>732</ele>
        <time>2011-04-03T11:27:59Z</time>
      </trkpt>
      <trkpt lat="46.17069" lon="6.38197">
        <ele>732</ele>
        <time>2011-04-03T11:28:01Z</time>
      </trkpt>
      <trkpt lat="46.17055" lon="6.38187">
        <ele>727</ele>
        <time>2011-04-03T11:28:03Z</time>
      </trkpt>
      <trkpt lat="46.17043" lon="6.38174">
        <ele>727</ele>
        <time>2011-04-03T11:28:05Z</time>
      </trkpt>
      <trkpt lat="46.17031" lon="6.38161">
        <ele>727</ele>
        <time>2011-04-03T11:28:07Z</time>
      </trkpt>
      <trkpt lat="46.17016" lon="6.38153">
        <ele>722</ele>
        <time>2011-04-03T11:28:09Z</time>
      </trkpt>
      <trkpt lat="46.17001" lon="6.38148">
        <ele>722</ele>
        <time>2011-04-03T11:28:11Z</time>
      </trkpt>
      <trkpt lat="46.16992" lon="6.38135">
        <ele>722</ele>
        <time>2011-04-03T11:28:13Z</time>
      </trkpt>
      <trkpt lat="46.16992" lon="6.38118">
        <ele>722</ele>
        <time>2011-04-03T11:28:15Z</time>
      </trkpt>
      <trkpt lat="46.16992" lon="6.38096">
        <ele>722</ele>
        <time>2011-04-03T11:28:17Z</time>
      </trkpt>
      <trkpt lat="46.16993" lon="6.38072">
        <ele>722</ele>
        <time>2011-04-03T11:28:19Z</time>
      </trkpt>
      <trkpt lat="46.16992" lon="6.38049">
        <ele>716</ele>
        <time>2011-04-03T11:28:21Z</time>
      </trkpt>
      <trkpt lat="46.16992" lon="6.38027">
        <ele>716</ele>
        <time>2011-04-03T11:28:23Z</time>
      </trkpt>
      <trkpt lat="46.16994" lon="6.38008">
        <ele>716</ele>
        <time>2011-04-03T11:28:25Z</time>
      </trkpt>
      <trkpt lat="46.16993" lon="6.3799">
        <ele>716</ele>
        <time>2011-04-03T11:28:27Z</time>
      </trkpt>
      <trkpt lat="46.16985" lon="6.37974">
        <ele>707</ele>
        <time>2011-04-03T11:28:29Z</time>
      </trkpt>
      <trkpt lat="46.16971" lon="6.37963">
        <ele>701</ele>
        <time>2011-04-03T11:28:31Z</time>
      </trkpt>
      <trkpt lat="46.16963" lon="6.37956">
        <ele>701</ele>
        <time>2011-04-03T11:28:32Z</time>
      </trkpt>
      <trkpt lat="46.16955" lon="6.3795">
        <ele>701</ele>
        <time>2011-04-03T11:28:33Z</time>
      </trkpt>
      <trkpt lat="46.16943" lon="6.37945">
        <ele>695</ele>
        <time>2011-04-03T11:28:34Z</time>
      </trkpt>
      <trkpt lat="46.16933" lon="6.37939">
        <ele>695</ele>
        <time>2011-04-03T11:28:35Z</time>
      </trkpt>
      <trkpt lat="46.1692" lon="6.37937">
        <ele>695</ele>
        <time>2011-04-03T11:28:36Z</time>
      </trkpt>
      <trkpt lat="46.16909" lon="6.37931">
        <ele>695</ele>
        <time>2011-04-03T11:28:37Z</time>
      </trkpt>
      <trkpt lat="46.16899" lon="6.37923">
        <ele>695</ele>
        <time>2011-04-03T11:28:38Z</time>
      </trkpt>
      <trkpt lat="46.16889" lon="6.37916">
        <ele>695</ele>
        <time>2011-04-03T11:28:39Z</time>
      </trkpt>
      <trkpt lat="46.16879" lon="6.37909">
        <ele>695</ele>
        <time>2011-04-03T11:28:40Z</time>
      </trkpt>
      <trkpt lat="46.16869" lon="6.37903">
        <ele>695</ele>
        <time>2011-04-03T11:28:41Z</time>
      </trkpt>
      <trkpt lat="46.16859" lon="6.37897">
        <ele>695</ele>
        <time>2011-04-03T11:28:42Z</time>
      </trkpt>
      <trkpt lat="46.16849" lon="6.37893">
        <ele>695</ele>
        <time>2011-04-03T11:28:43Z</time>
      </trkpt>
      <trkpt lat="46.1684" lon="6.37889">
        <ele>695</ele>
        <time>2011-04-03T11:28:44Z</time>
      </trkpt>
      <trkpt lat="46.16831" lon="6.37886">
        <ele>690</ele>
        <time>2011-04-03T11:28:45Z</time>
      </trkpt>
      <trkpt lat="46.16815" lon="6.37878">
        <ele>690</ele>
        <time>2011-04-03T11:28:47Z</time>
      </trkpt>
      <trkpt lat="46.16805" lon="6.37875">
        <ele>690</ele>
        <time>2011-04-03T11:28:48Z</time>
      </trkpt>
      <trkpt lat="46.16797" lon="6.37871">
        <ele>685</ele>
        <time>2011-04-03T11:28:49Z</time>
      </trkpt>
      <trkpt lat="46.16787" lon="6.37868">
        <ele>685</ele>
        <time>2011-04-03T11:28:50Z</time>
      </trkpt>
      <trkpt lat="46.16778" lon="6.37865">
        <ele>685</ele>
        <time>2011-04-03T11:28:51Z</time>
      </trkpt>
      <trkpt lat="46.16768" lon="6.37861">
        <ele>685</ele>
        <time>2011-04-03T11:28:52Z</time>
      </trkpt>
      <trkpt lat="46.16759" lon="6.37859">
        <ele>685</ele>
        <time>2011-04-03T11:28:53Z</time>
      </trkpt>
      <trkpt lat="46.16742" lon="6.37854">
        <ele>679</ele>
        <time>2011-04-03T11:28:55Z</time>
      </trkpt>
      <trkpt lat="46.16722" lon="6.37851">
        <ele>679</ele>
        <time>2011-04-03T11:28:57Z</time>
      </trkpt>
      <trkpt lat="46.16712" lon="6.37852">
        <ele>679</ele>
        <time>2011-04-03T11:28:58Z</time>
      </trkpt>
      <trkpt lat="46.16702" lon="6.37852">
        <ele>679</ele>
        <time>2011-04-03T11:28:59Z</time>
      </trkpt>
      <trkpt lat="46.16692" lon="6.37852">
        <ele>679</ele>
        <time>2011-04-03T11:29:00Z</time>
      </trkpt>
      <trkpt lat="46.16676" lon="6.37856">
        <ele>679</ele>
        <time>2011-04-03T11:29:02Z</time>
      </trkpt>
      <trkpt lat="46.16665" lon="6.37861">
        <ele>674</ele>
        <time>2011-04-03T11:29:04Z</time>
      </trkpt>
      <trkpt lat="46.16655" lon="6.37862">
        <ele>674</ele>
        <time>2011-04-03T11:29:10Z</time>
      </trkpt>
      <trkpt lat="46.16645" lon="6.37855">
        <ele>680</ele>
        <time>2011-04-03T11:29:21Z</time>
      </trkpt>
      <trkpt lat="46.16622" lon="6.37862">
        <ele>680</ele>
        <time>2011-04-03T11:29:23Z</time>
      </trkpt>
      <trkpt lat="46.16612" lon="6.37865">
        <ele>680</ele>
        <time>2011-04-03T11:29:24Z</time>
      </trkpt>
      <trkpt lat="46.166" lon="6.37869">
        <ele>680</ele>
        <time>2011-04-03T11:29:25Z</time>
      </trkpt>
      <trkpt lat="46.1659" lon="6.3787">
        <ele>680</ele>
        <time>2011-04-03T11:29:26Z</time>
      </trkpt>
      <trkpt lat="46.1658" lon="6.37874">
        <ele>680</ele>
        <time>2011-04-03T11:29:27Z</time>
      </trkpt>
      <trkpt lat="46.16569" lon="6.37878">
        <ele>680</ele>
        <time>2011-04-03T11:29:28Z</time>
      </trkpt>
      <trkpt lat="46.16558" lon="6.37882">
        <ele>680</ele>
        <time>2011-04-03T11:29:29Z</time>
      </trkpt>
      <trkpt lat="46.16547" lon="6.37883">
        <ele>680</ele>
        <time>2011-04-03T11:29:30Z</time>
      </trkpt>
      <trkpt lat="46.16537" lon="6.37884">
        <ele>680</ele>
        <time>2011-04-03T11:29:31Z</time>
      </trkpt>
      <trkpt lat="46.16526" lon="6.37882">
        <ele>680</ele>
        <time>2011-04-03T11:29:32Z</time>
      </trkpt>
      <trkpt lat="46.16516" lon="6.37878">
        <ele>680</ele>
        <time>2011-04-03T11:29:33Z</time>
      </trkpt>
      <trkpt lat="46.16505" lon="6.37874">
        <ele>680</ele>
        <time>2011-04-03T11:29:34Z</time>
      </trkpt>
      <trkpt lat="46.16493" lon="6.37872">
        <ele>680</ele>
        <time>2011-04-03T11:29:35Z</time>
      </trkpt>
      <trkpt lat="46.16481" lon="6.37869">
        <ele>680</ele>
        <time>2011-04-03T11:29:36Z</time>
      </trkpt>
      <trkpt lat="46.16471" lon="6.37869">
        <ele>680</ele>
        <time>2011-04-03T11:29:37Z</time>
      </trkpt>
      <trkpt lat="46.16462" lon="6.37867">
        <ele>680</ele>
        <time>2011-04-03T11:29:38Z</time>
      </trkpt>
      <trkpt lat="46.16449" lon="6.3787">
        <ele>680</ele>
        <time>2011-04-03T11:29:40Z</time>
      </trkpt>
      <trkpt lat="46.1644" lon="6.37885">
        <ele>680</ele>
        <time>2011-04-03T11:29:42Z</time>
      </trkpt>
      <trkpt lat="46.16425" lon="6.37898">
        <ele>680</ele>
        <time>2011-04-03T11:29:44Z</time>
      </trkpt>
      <trkpt lat="46.16415" lon="6.37902">
        <ele>680</ele>
        <time>2011-04-03T11:29:45Z</time>
      </trkpt>
      <trkpt lat="46.16405" lon="6.37905">
        <ele>685</ele>
        <time>2011-04-03T11:29:46Z</time>
      </trkpt>
      <trkpt lat="46.16394" lon="6.37907">
        <ele>685</ele>
        <time>2011-04-03T11:29:47Z</time>
      </trkpt>
      <trkpt lat="46.16384" lon="6.3791">
        <ele>685</ele>
        <time>2011-04-03T11:29:48Z</time>
      </trkpt>
      <trkpt lat="46.16368" lon="6.37915">
        <ele>685</ele>
        <time>2011-04-03T11:29:50Z</time>
      </trkpt>
      <trkpt lat="46.16356" lon="6.37928">
        <ele>685</ele>
        <time>2011-04-03T11:29:52Z</time>
      </trkpt>
      <trkpt lat="46.1635" lon="6.37942">
        <ele>685</ele>
        <time>2011-04-03T11:29:54Z</time>
      </trkpt>
      <trkpt lat="46.16338" lon="6.37931">
        <ele>685</ele>
        <time>2011-04-03T11:29:58Z</time>
      </trkpt>
      <trkpt lat="46.16328" lon="6.37913">
        <ele>685</ele>
        <time>2011-04-03T11:30:00Z</time>
      </trkpt>
      <trkpt lat="46.16317" lon="6.37907">
        <ele>685</ele>
        <time>2011-04-03T11:30:02Z</time>
      </trkpt>
      <trkpt lat="46.16303" lon="6.37914">
        <ele>685</ele>
        <time>2011-04-03T11:30:04Z</time>
      </trkpt>
      <trkpt lat="46.16294" lon="6.37916">
        <ele>685</ele>
        <time>2011-04-03T11:30:06Z</time>
      </trkpt>
      <trkpt lat="46.1628" lon="6.37907">
        <ele>691</ele>
        <time>2011-04-03T11:30:08Z</time>
      </trkpt>
      <trkpt lat="46.16268" lon="6.37896">
        <ele>691</ele>
        <time>2011-04-03T11:30:10Z</time>
      </trkpt>
      <trkpt lat="46.16259" lon="6.37889">
        <ele>691</ele>
        <time>2011-04-03T11:30:11Z</time>
      </trkpt>
      <trkpt lat="46.16249" lon="6.37886">
        <ele>697</ele>
        <time>2011-04-03T11:30:12Z</time>
      </trkpt>
      <trkpt lat="46.1623" lon="6.37882">
        <ele>697</ele>
        <time>2011-04-03T11:30:14Z</time>
      </trkpt>
      <trkpt lat="46.16214" lon="6.37876">
        <ele>697</ele>
        <time>2011-04-03T11:30:16Z</time>
      </trkpt>
      <trkpt lat="46.16201" lon="6.37863">
        <ele>697</ele>
        <time>2011-04-03T11:30:18Z</time>
      </trkpt>
      <trkpt lat="46.16187" lon="6.3785">
        <ele>697</ele>
        <time>2011-04-03T11:30:20Z</time>
      </trkpt>
      <trkpt lat="46.16174" lon="6.37833">
        <ele>697</ele>
        <time>2011-04-03T11:30:22Z</time>
      </trkpt>
      <trkpt lat="46.16167" lon="6.37821">
        <ele>697</ele>
        <time>2011-04-03T11:30:23Z</time>
      </trkpt>
      <trkpt lat="46.16154" lon="6.378">
        <ele>697</ele>
        <time>2011-04-03T11:30:25Z</time>
      </trkpt>
      <trkpt lat="46.16146" lon="6.37792">
        <ele>697</ele>
        <time>2011-04-03T11:30:26Z</time>
      </trkpt>
      <trkpt lat="46.16137" lon="6.37785">
        <ele>697</ele>
        <time>2011-04-03T11:30:27Z</time>
      </trkpt>
      <trkpt lat="46.16129" lon="6.37778">
        <ele>697</ele>
        <time>2011-04-03T11:30:28Z</time>
      </trkpt>
      <trkpt lat="46.16119" lon="6.37772">
        <ele>697</ele>
        <time>2011-04-03T11:30:29Z</time>
      </trkpt>
      <trkpt lat="46.16108" lon="6.37769">
        <ele>697</ele>
        <time>2011-04-03T11:30:30Z</time>
      </trkpt>
      <trkpt lat="46.16096" lon="6.37767">
        <ele>697</ele>
        <time>2011-04-03T11:30:31Z</time>
      </trkpt>
      <trkpt lat="46.16084" lon="6.37765">
        <ele>697</ele>
        <time>2011-04-03T11:30:32Z</time>
      </trkpt>
      <trkpt lat="46.16074" lon="6.37765">
        <ele>697</ele>
        <time>2011-04-03T11:30:33Z</time>
      </trkpt>
      <trkpt lat="46.16065" lon="6.37763">
        <ele>697</ele>
        <time>2011-04-03T11:30:34Z</time>
      </trkpt>
      <trkpt lat="46.16056" lon="6.37763">
        <ele>697</ele>
        <time>2011-04-03T11:30:35Z</time>
      </trkpt>
      <trkpt lat="46.16038" lon="6.37763">
        <ele>702</ele>
        <time>2011-04-03T11:30:37Z</time>
      </trkpt>
      <trkpt lat="46.16021" lon="6.37764">
        <ele>702</ele>
        <time>2011-04-03T11:30:39Z</time>
      </trkpt>
      <trkpt lat="46.16002" lon="6.37764">
        <ele>702</ele>
        <time>2011-04-03T11:30:41Z</time>
      </trkpt>
      <trkpt lat="46.15991" lon="6.37764">
        <ele>702</ele>
        <time>2011-04-03T11:30:42Z</time>
      </trkpt>
      <trkpt lat="46.15981" lon="6.37763">
        <ele>702</ele>
        <time>2011-04-03T11:30:43Z</time>
      </trkpt>
      <trkpt lat="46.15971" lon="6.37762">
        <ele>702</ele>
        <time>2011-04-03T11:30:44Z</time>
      </trkpt>
      <trkpt lat="46.15961" lon="6.3776">
        <ele>702</ele>
        <time>2011-04-03T11:30:45Z</time>
      </trkpt>
      <trkpt lat="46.15943" lon="6.37759">
        <ele>702</ele>
        <time>2011-04-03T11:30:47Z</time>
      </trkpt>
      <trkpt lat="46.15934" lon="6.37759">
        <ele>702</ele>
        <time>2011-04-03T11:30:48Z</time>
      </trkpt>
      <trkpt lat="46.15924" lon="6.37761">
        <ele>702</ele>
        <time>2011-04-03T11:30:49Z</time>
      </trkpt>
      <trkpt lat="46.15914" lon="6.37761">
        <ele>702</ele>
        <time>2011-04-03T11:30:50Z</time>
      </trkpt>
      <trkpt lat="46.15903" lon="6.37763">
        <ele>702</ele>
        <time>2011-04-03T11:30:51Z</time>
      </trkpt>
      <trkpt lat="46.15893" lon="6.37763">
        <ele>702</ele>
        <time>2011-04-03T11:30:52Z</time>
      </trkpt>
      <trkpt lat="46.15882" lon="6.37763">
        <ele>702</ele>
        <time>2011-04-03T11:30:53Z</time>
      </trkpt>
      <trkpt lat="46.1587" lon="6.37763">
        <ele>702</ele>
        <time>2011-04-03T11:30:54Z</time>
      </trkpt>
      <trkpt lat="46.15858" lon="6.37767">
        <ele>702</ele>
        <time>2011-04-03T11:30:55Z</time>
      </trkpt>
      <trkpt lat="46.15845" lon="6.37771">
        <ele>702</ele>
        <time>2011-04-03T11:30:56Z</time>
      </trkpt>
      <trkpt lat="46.15834" lon="6.37774">
        <ele>702</ele>
        <time>2011-04-03T11:30:57Z</time>
      </trkpt>
      <trkpt lat="46.15823" lon="6.3778">
        <ele>702</ele>
        <time>2011-04-03T11:30:58Z</time>
      </trkpt>
      <trkpt lat="46.15813" lon="6.37788">
        <ele>702</ele>
        <time>2011-04-03T11:30:59Z</time>
      </trkpt>
      <trkpt lat="46.15804" lon="6.37795">
        <ele>702</ele>
        <time>2011-04-03T11:31:00Z</time>
      </trkpt>
      <trkpt lat="46.1579" lon="6.37799">
        <ele>702</ele>
        <time>2011-04-03T11:31:02Z</time>
      </trkpt>
      <trkpt lat="46.15775" lon="6.37799">
        <ele>702</ele>
        <time>2011-04-03T11:31:04Z</time>
      </trkpt>
      <trkpt lat="46.15759" lon="6.378">
        <ele>702</ele>
        <time>2011-04-03T11:31:06Z</time>
      </trkpt>
      <trkpt lat="46.1574" lon="6.37799">
        <ele>702</ele>
        <time>2011-04-03T11:31:08Z</time>
      </trkpt>
      <trkpt lat="46.15722" lon="6.37799">
        <ele>702</ele>
        <time>2011-04-03T11:31:10Z</time>
      </trkpt>
      <trkpt lat="46.15705" lon="6.37801">
        <ele>702</ele>
        <time>2011-04-03T11:31:12Z</time>
      </trkpt>
      <trkpt lat="46.15695" lon="6.37805">
        <ele>696</ele>
        <time>2011-04-03T11:31:13Z</time>
      </trkpt>
      <trkpt lat="46.15685" lon="6.3781">
        <ele>696</ele>
        <time>2011-04-03T11:31:14Z</time>
      </trkpt>
      <trkpt lat="46.15675" lon="6.37816">
        <ele>696</ele>
        <time>2011-04-03T11:31:15Z</time>
      </trkpt>
      <trkpt lat="46.15665" lon="6.37821">
        <ele>696</ele>
        <time>2011-04-03T11:31:16Z</time>
      </trkpt>
      <trkpt lat="46.15655" lon="6.37826">
        <ele>696</ele>
        <time>2011-04-03T11:31:17Z</time>
      </trkpt>
      <trkpt lat="46.15646" lon="6.37831">
        <ele>696</ele>
        <time>2011-04-03T11:31:18Z</time>
      </trkpt>
      <trkpt lat="46.15631" lon="6.37843">
        <ele>690</ele>
        <time>2011-04-03T11:31:20Z</time>
      </trkpt>
      <trkpt lat="46.15616" lon="6.37855">
        <ele>690</ele>
        <time>2011-04-03T11:31:22Z</time>
      </trkpt>
      <trkpt lat="46.15603" lon="6.37864">
        <ele>690</ele>
        <time>2011-04-03T11:31:24Z</time>
      </trkpt>
      <trkpt lat="46.15588" lon="6.37871">
        <ele>690</ele>
        <time>2011-04-03T11:31:26Z</time>
      </trkpt>
      <trkpt lat="46.15574" lon="6.37878">
        <ele>690</ele>
        <time>2011-04-03T11:31:28Z</time>
      </trkpt>
      <trkpt lat="46.15565" lon="6.37883">
        <ele>684</ele>
        <time>2011-04-03T11:31:30Z</time>
      </trkpt>
      <trkpt lat="46.15554" lon="6.37886">
        <ele>684</ele>
        <time>2011-04-03T11:31:32Z</time>
      </trkpt>
      <trkpt lat="46.15541" lon="6.37887">
        <ele>684</ele>
        <time>2011-04-03T11:31:34Z</time>
      </trkpt>
      <trkpt lat="46.15528" lon="6.3789">
        <ele>684</ele>
        <time>2011-04-03T11:31:36Z</time>
      </trkpt>
      <trkpt lat="46.15514" lon="6.37892">
        <ele>684</ele>
        <time>2011-04-03T11:31:38Z</time>
      </trkpt>
      <trkpt lat="46.15497" lon="6.37892">
        <ele>684</ele>
        <time>2011-04-03T11:31:40Z</time>
      </trkpt>
      <trkpt lat="46.15479" lon="6.37893">
        <ele>677</ele>
        <time>2011-04-03T11:31:42Z</time>
      </trkpt>
      <trkpt lat="46.1547" lon="6.37895">
        <ele>677</ele>
        <time>2011-04-03T11:31:43Z</time>
      </trkpt>
      <trkpt lat="46.15452" lon="6.37901">
        <ele>677</ele>
        <time>2011-04-03T11:31:45Z</time>
      </trkpt>
      <trkpt lat="46.15436" lon="6.3791">
        <ele>670</ele>
        <time>2011-04-03T11:31:47Z</time>
      </trkpt>
      <trkpt lat="46.15424" lon="6.37917">
        <ele>670</ele>
        <time>2011-04-03T11:31:49Z</time>
      </trkpt>
      <trkpt lat="46.15413" lon="6.37925">
        <ele>670</ele>
        <time>2011-04-03T11:31:52Z</time>
      </trkpt>
      <trkpt lat="46.15416" lon="6.37913">
        <ele>681</ele>
        <time>2011-04-03T11:35:08Z</time>
      </trkpt>
      <trkpt lat="46.15406" lon="6.3792">
        <ele>681</ele>
        <time>2011-04-03T11:35:29Z</time>
      </trkpt>
      <trkpt lat="46.15405" lon="6.37933">
        <ele>674</ele>
        <time>2011-04-03T11:35:32Z</time>
      </trkpt>
      <trkpt lat="46.15401" lon="6.37954">
        <ele>674</ele>
        <time>2011-04-03T11:35:34Z</time>
      </trkpt>
      <trkpt lat="46.15396" lon="6.37966">
        <ele>674</ele>
        <time>2011-04-03T11:35:35Z</time>
      </trkpt>
      <trkpt lat="46.15391" lon="6.37982">
        <ele>674</ele>
        <time>2011-04-03T11:35:36Z</time>
      </trkpt>
      <trkpt lat="46.15385" lon="6.37997">
        <ele>674</ele>
        <time>2011-04-03T11:35:37Z</time>
      </trkpt>
      <trkpt lat="46.15378" lon="6.38012">
        <ele>674</ele>
        <time>2011-04-03T11:35:38Z</time>
      </trkpt>
      <trkpt lat="46.15372" lon="6.38028">
        <ele>674</ele>
        <time>2011-04-03T11:35:39Z</time>
      </trkpt>
      <trkpt lat="46.15364" lon="6.38042">
        <ele>674</ele>
        <time>2011-04-03T11:35:40Z</time>
      </trkpt>
      <trkpt lat="46.15356" lon="6.38057">
        <ele>679</ele>
        <time>2011-04-03T11:35:41Z</time>
      </trkpt>
      <trkpt lat="46.15348" lon="6.38072">
        <ele>679</ele>
        <time>2011-04-03T11:35:42Z</time>
      </trkpt>
      <trkpt lat="46.1534" lon="6.38088">
        <ele>679</ele>
        <time>2011-04-03T11:35:43Z</time>
      </trkpt>
      <trkpt lat="46.15332" lon="6.38104">
        <ele>679</ele>
        <time>2011-04-03T11:35:44Z</time>
      </trkpt>
      <trkpt lat="46.15325" lon="6.3812">
        <ele>679</ele>
        <time>2011-04-03T11:35:45Z</time>
      </trkpt>
      <trkpt lat="46.15318" lon="6.38137">
        <ele>679</ele>
        <time>2011-04-03T11:35:46Z</time>
      </trkpt>
      <trkpt lat="46.15312" lon="6.38153">
        <ele>685</ele>
        <time>2011-04-03T11:35:47Z</time>
      </trkpt>
      <trkpt lat="46.15307" lon="6.3817">
        <ele>685</ele>
        <time>2011-04-03T11:35:48Z</time>
      </trkpt>
      <trkpt lat="46.15304" lon="6.38185">
        <ele>685</ele>
        <time>2011-04-03T11:35:49Z</time>
      </trkpt>
      <trkpt lat="46.15303" lon="6.38199">
        <ele>685</ele>
        <time>2011-04-03T11:35:50Z</time>
      </trkpt>
      <trkpt lat="46.15305" lon="6.38215">
        <ele>685</ele>
        <time>2011-04-03T11:35:51Z</time>
      </trkpt>
      <trkpt lat="46.15307" lon="6.38231">
        <ele>685</ele>
        <time>2011-04-03T11:35:52Z</time>
      </trkpt>
      <trkpt lat="46.15308" lon="6.38245">
        <ele>685</ele>
        <time>2011-04-03T11:35:53Z</time>
      </trkpt>
      <trkpt lat="46.15307" lon="6.38267">
        <ele>685</ele>
        <time>2011-04-03T11:35:55Z</time>
      </trkpt>
      <trkpt lat="46.15303" lon="6.38287">
        <ele>685</ele>
        <time>2011-04-03T11:35:57Z</time>
      </trkpt>
      <trkpt lat="46.15297" lon="6.38304">
        <ele>685</ele>
        <time>2011-04-03T11:35:59Z</time>
      </trkpt>
      <trkpt lat="46.15292" lon="6.38318">
        <ele>685</ele>
        <time>2011-04-03T11:36:01Z</time>
      </trkpt>
      <trkpt lat="46.15288" lon="6.38333">
        <ele>685</ele>
        <time>2011-04-03T11:36:03Z</time>
      </trkpt>
      <trkpt lat="46.15287" lon="6.38351">
        <ele>685</ele>
        <time>2011-04-03T11:36:05Z</time>
      </trkpt>
      <trkpt lat="46.1529" lon="6.38374">
        <ele>685</ele>
        <time>2011-04-03T11:36:07Z</time>
      </trkpt>
      <trkpt lat="46.15292" lon="6.3839">
        <ele>685</ele>
        <time>2011-04-03T11:36:08Z</time>
      </trkpt>
      <trkpt lat="46.15292" lon="6.38404">
        <ele>685</ele>
        <time>2011-04-03T11:36:09Z</time>
      </trkpt>
      <trkpt lat="46.15293" lon="6.38418">
        <ele>685</ele>
        <time>2011-04-03T11:36:10Z</time>
      </trkpt>
      <trkpt lat="46.15293" lon="6.38433">
        <ele>685</ele>
        <time>2011-04-03T11:36:11Z</time>
      </trkpt>
      <trkpt lat="46.15293" lon="6.38453">
        <ele>685</ele>
        <time>2011-04-03T11:36:13Z</time>
      </trkpt>
      <trkpt lat="46.1529" lon="6.3847">
        <ele>685</ele>
        <time>2011-04-03T11:36:15Z</time>
      </trkpt>
      <trkpt lat="46.15285" lon="6.3849">
        <ele>679</ele>
        <time>2011-04-03T11:36:17Z</time>
      </trkpt>
      <trkpt lat="46.15282" lon="6.38517">
        <ele>679</ele>
        <time>2011-04-03T11:36:19Z</time>
      </trkpt>
      <trkpt lat="46.15281" lon="6.38531">
        <ele>679</ele>
        <time>2011-04-03T11:36:20Z</time>
      </trkpt>
      <trkpt lat="46.1528" lon="6.38544">
        <ele>679</ele>
        <time>2011-04-03T11:36:21Z</time>
      </trkpt>
      <trkpt lat="46.15278" lon="6.38558">
        <ele>679</ele>
        <time>2011-04-03T11:36:22Z</time>
      </trkpt>
      <trkpt lat="46.15278" lon="6.38572">
        <ele>679</ele>
        <time>2011-04-03T11:36:23Z</time>
      </trkpt>
      <trkpt lat="46.15277" lon="6.38596">
        <ele>679</ele>
        <time>2011-04-03T11:36:25Z</time>
      </trkpt>
      <trkpt lat="46.15277" lon="6.38622">
        <ele>679</ele>
        <time>2011-04-03T11:36:27Z</time>
      </trkpt>
      <trkpt lat="46.15275" lon="6.38637">
        <ele>679</ele>
        <time>2011-04-03T11:36:28Z</time>
      </trkpt>
      <trkpt lat="46.15274" lon="6.38652">
        <ele>679</ele>
        <time>2011-04-03T11:36:29Z</time>
      </trkpt>
      <trkpt lat="46.15274" lon="6.38666">
        <ele>679</ele>
        <time>2011-04-03T11:36:30Z</time>
      </trkpt>
      <trkpt lat="46.15273" lon="6.38681">
        <ele>679</ele>
        <time>2011-04-03T11:36:31Z</time>
      </trkpt>
      <trkpt lat="46.15272" lon="6.38695">
        <ele>679</ele>
        <time>2011-04-03T11:36:32Z</time>
      </trkpt>
      <trkpt lat="46.1527" lon="6.38709">
        <ele>679</ele>
        <time>2011-04-03T11:36:33Z</time>
      </trkpt>
      <trkpt lat="46.1527" lon="6.38725">
        <ele>679</ele>
        <time>2011-04-03T11:36:34Z</time>
      </trkpt>
      <trkpt lat="46.15269" lon="6.38738">
        <ele>679</ele>
        <time>2011-04-03T11:36:35Z</time>
      </trkpt>
      <trkpt lat="46.15268" lon="6.38752">
        <ele>679</ele>
        <time>2011-04-03T11:36:36Z</time>
      </trkpt>
      <trkpt lat="46.15266" lon="6.38776">
        <ele>679</ele>
        <time>2011-04-03T11:36:38Z</time>
      </trkpt>
      <trkpt lat="46.15265" lon="6.38796">
        <ele>679</ele>
        <time>2011-04-03T11:36:40Z</time>
      </trkpt>
      <trkpt lat="46.15262" lon="6.38813">
        <ele>679</ele>
        <time>2011-04-03T11:36:42Z</time>
      </trkpt>
      <trkpt lat="46.15259" lon="6.3883">
        <ele>679</ele>
        <time>2011-04-03T11:36:44Z</time>
      </trkpt>
      <trkpt lat="46.15252" lon="6.38846">
        <ele>674</ele>
        <time>2011-04-03T11:36:46Z</time>
      </trkpt>
      <trkpt lat="46.15244" lon="6.38862">
        <ele>674</ele>
        <time>2011-04-03T11:36:48Z</time>
      </trkpt>
      <trkpt lat="46.15235" lon="6.38876">
        <ele>674</ele>
        <time>2011-04-03T11:36:50Z</time>
      </trkpt>
      <trkpt lat="46.15228" lon="6.38888">
        <ele>668</ele>
        <time>2011-04-03T11:36:53Z</time>
      </trkpt>
      <trkpt lat="46.15224" lon="6.38902">
        <ele>668</ele>
        <time>2011-04-03T11:36:58Z</time>
      </trkpt>
      <trkpt lat="46.15222" lon="6.38915">
        <ele>668</ele>
        <time>2011-04-03T11:37:00Z</time>
      </trkpt>
      <trkpt lat="46.15219" lon="6.38937">
        <ele>668</ele>
        <time>2011-04-03T11:37:02Z</time>
      </trkpt>
      <trkpt lat="46.15212" lon="6.38956">
        <ele>668</ele>
        <time>2011-04-03T11:37:04Z</time>
      </trkpt>
      <trkpt lat="46.15206" lon="6.38965">
        <ele>668</ele>
        <time>2011-04-03T11:37:05Z</time>
      </trkpt>
      <trkpt lat="46.15199" lon="6.38974">
        <ele>668</ele>
        <time>2011-04-03T11:37:06Z</time>
      </trkpt>
      <trkpt lat="46.15189" lon="6.38991">
        <ele>668</ele>
        <time>2011-04-03T11:37:08Z</time>
      </trkpt>
      <trkpt lat="46.15178" lon="6.39009">
        <ele>668</ele>
        <time>2011-04-03T11:37:10Z</time>
      </trkpt>
      <trkpt lat="46.15167" lon="6.39027">
        <ele>668</ele>
        <time>2011-04-03T11:37:12Z</time>
      </trkpt>
      <trkpt lat="46.15157" lon="6.39048">
        <ele>668</ele>
        <time>2011-04-03T11:37:14Z</time>
      </trkpt>
      <trkpt lat="46.15152" lon="6.39062">
        <ele>668</ele>
        <time>2011-04-03T11:37:15Z</time>
      </trkpt>
      <trkpt lat="46.15148" lon="6.39075">
        <ele>668</ele>
        <time>2011-04-03T11:37:16Z</time>
      </trkpt>
      <trkpt lat="46.15146" lon="6.3909">
        <ele>668</ele>
        <time>2011-04-03T11:37:17Z</time>
      </trkpt>
      <trkpt lat="46.15143" lon="6.39105">
        <ele>668</ele>
        <time>2011-04-03T11:37:18Z</time>
      </trkpt>
      <trkpt lat="46.15142" lon="6.39119">
        <ele>668</ele>
        <time>2011-04-03T11:37:19Z</time>
      </trkpt>
      <trkpt lat="46.15141" lon="6.39133">
        <ele>668</ele>
        <time>2011-04-03T11:37:20Z</time>
      </trkpt>
      <trkpt lat="46.15139" lon="6.39148">
        <ele>668</ele>
        <time>2011-04-03T11:37:21Z</time>
      </trkpt>
      <trkpt lat="46.15138" lon="6.39162">
        <ele>668</ele>
        <time>2011-04-03T11:37:22Z</time>
      </trkpt>
      <trkpt lat="46.15137" lon="6.39177">
        <ele>668</ele>
        <time>2011-04-03T11:37:23Z</time>
      </trkpt>
      <trkpt lat="46.15135" lon="6.39193">
        <ele>662</ele>
        <time>2011-04-03T11:37:24Z</time>
      </trkpt>
      <trkpt lat="46.15133" lon="6.39207">
        <ele>662</ele>
        <time>2011-04-03T11:37:25Z</time>
      </trkpt>
      <trkpt lat="46.15131" lon="6.39231">
        <ele>662</ele>
        <time>2011-04-03T11:37:27Z</time>
      </trkpt>
      <trkpt lat="46.15128" lon="6.39255">
        <ele>662</ele>
        <time>2011-04-03T11:37:29Z</time>
      </trkpt>
      <trkpt lat="46.15126" lon="6.39268">
        <ele>662</ele>
        <time>2011-04-03T11:37:30Z</time>
      </trkpt>
      <trkpt lat="46.15124" lon="6.39282">
        <ele>662</ele>
        <time>2011-04-03T11:37:31Z</time>
      </trkpt>
      <trkpt lat="46.15121" lon="6.39296">
        <ele>662</ele>
        <time>2011-04-03T11:37:32Z</time>
      </trkpt>
      <trkpt lat="46.15119" lon="6.39309">
        <ele>662</ele>
        <time>2011-04-03T11:37:33Z</time>
      </trkpt>
      <trkpt lat="46.15116" lon="6.39322">
        <ele>662</ele>
        <time>2011-04-03T11:37:34Z</time>
      </trkpt>
      <trkpt lat="46.15113" lon="6.39335">
        <ele>662</ele>
        <time>2011-04-03T11:37:35Z</time>
      </trkpt>
      <trkpt lat="46.15107" lon="6.39357">
        <ele>662</ele>
        <time>2011-04-03T11:37:37Z</time>
      </trkpt>
      <trkpt lat="46.15104" lon="6.39373">
        <ele>657</ele>
        <time>2011-04-03T11:37:39Z</time>
      </trkpt>
      <trkpt lat="46.15099" lon="6.39387">
        <ele>657</ele>
        <time>2011-04-03T11:37:42Z</time>
      </trkpt>
      <trkpt lat="46.1509" lon="6.39385">
        <ele>651</ele>
        <time>2011-04-03T11:37:46Z</time>
      </trkpt>
      <trkpt lat="46.1508" lon="6.39373">
        <ele>651</ele>
        <time>2011-04-03T11:37:49Z</time>
      </trkpt>
      <trkpt lat="46.15073" lon="6.39364">
        <ele>651</ele>
        <time>2011-04-03T11:37:50Z</time>
      </trkpt>
      <trkpt lat="46.15066" lon="6.39355">
        <ele>651</ele>
        <time>2011-04-03T11:37:51Z</time>
      </trkpt>
      <trkpt lat="46.15059" lon="6.39345">
        <ele>651</ele>
        <time>2011-04-03T11:37:52Z</time>
      </trkpt>
      <trkpt lat="46.15052" lon="6.39334">
        <ele>651</ele>
        <time>2011-04-03T11:37:53Z</time>
      </trkpt>
      <trkpt lat="46.15047" lon="6.39322">
        <ele>651</ele>
        <time>2011-04-03T11:37:54Z</time>
      </trkpt>
      <trkpt lat="46.15042" lon="6.3931">
        <ele>651</ele>
        <time>2011-04-03T11:37:55Z</time>
      </trkpt>
      <trkpt lat="46.15038" lon="6.39298">
        <ele>646</ele>
        <time>2011-04-03T11:37:56Z</time>
      </trkpt>
      <trkpt lat="46.15034" lon="6.39285">
        <ele>646</ele>
        <time>2011-04-03T11:37:57Z</time>
      </trkpt>
      <trkpt lat="46.15033" lon="6.39262">
        <ele>646</ele>
        <time>2011-04-03T11:37:59Z</time>
      </trkpt>
      <trkpt lat="46.15033" lon="6.3924">
        <ele>646</ele>
        <time>2011-04-03T11:38:01Z</time>
      </trkpt>
      <trkpt lat="46.15031" lon="6.3922">
        <ele>646</ele>
        <time>2011-04-03T11:38:03Z</time>
      </trkpt>
      <trkpt lat="46.15026" lon="6.39203">
        <ele>646</ele>
        <time>2011-04-03T11:38:05Z</time>
      </trkpt>
      <trkpt lat="46.15012" lon="6.39187">
        <ele>640</ele>
        <time>2011-04-03T11:38:07Z</time>
      </trkpt>
      <trkpt lat="46.14996" lon="6.39176">
        <ele>640</ele>
        <time>2011-04-03T11:38:09Z</time>
      </trkpt>
      <trkpt lat="46.14986" lon="6.39172">
        <ele>640</ele>
        <time>2011-04-03T11:38:10Z</time>
      </trkpt>
      <trkpt lat="46.14976" lon="6.3917">
        <ele>640</ele>
        <time>2011-04-03T11:38:11Z</time>
      </trkpt>
      <trkpt lat="46.14966" lon="6.39168">
        <ele>635</ele>
        <time>2011-04-03T11:38:12Z</time>
      </trkpt>
      <trkpt lat="46.14956" lon="6.39168">
        <ele>635</ele>
        <time>2011-04-03T11:38:13Z</time>
      </trkpt>
      <trkpt lat="46.14946" lon="6.39167">
        <ele>635</ele>
        <time>2011-04-03T11:38:14Z</time>
      </trkpt>
      <trkpt lat="46.14937" lon="6.39166">
        <ele>635</ele>
        <time>2011-04-03T11:38:15Z</time>
      </trkpt>
      <trkpt lat="46.1492" lon="6.39163">
        <ele>628</ele>
        <time>2011-04-03T11:38:17Z</time>
      </trkpt>
      <trkpt lat="46.14906" lon="6.39156">
        <ele>628</ele>
        <time>2011-04-03T11:38:19Z</time>
      </trkpt>
      <trkpt lat="46.14893" lon="6.39147">
        <ele>628</ele>
        <time>2011-04-03T11:38:21Z</time>
      </trkpt>
      <trkpt lat="46.1488" lon="6.39135">
        <ele>621</ele>
        <time>2011-04-03T11:38:23Z</time>
      </trkpt>
      <trkpt lat="46.1487" lon="6.39123">
        <ele>621</ele>
        <time>2011-04-03T11:38:25Z</time>
      </trkpt>
      <trkpt lat="46.14863" lon="6.3911">
        <ele>621</ele>
        <time>2011-04-03T11:38:28Z</time>
      </trkpt>
      <trkpt lat="46.14853" lon="6.39097">
        <ele>616</ele>
        <time>2011-04-03T11:38:31Z</time>
      </trkpt>
      <trkpt lat="46.1484" lon="6.39082">
        <ele>616</ele>
        <time>2011-04-03T11:38:33Z</time>
      </trkpt>
      <trkpt lat="46.14831" lon="6.39074">
        <ele>616</ele>
        <time>2011-04-03T11:38:34Z</time>
      </trkpt>
      <trkpt lat="46.14822" lon="6.39066">
        <ele>616</ele>
        <time>2011-04-03T11:38:35Z</time>
      </trkpt>
      <trkpt lat="46.14813" lon="6.39058">
        <ele>616</ele>
        <time>2011-04-03T11:38:36Z</time>
      </trkpt>
      <trkpt lat="46.14804" lon="6.39051">
        <ele>616</ele>
        <time>2011-04-03T11:38:37Z</time>
      </trkpt>
      <trkpt lat="46.14795" lon="6.39043">
        <ele>611</ele>
        <time>2011-04-03T11:38:38Z</time>
      </trkpt>
      <trkpt lat="46.14785" lon="6.39034">
        <ele>611</ele>
        <time>2011-04-03T11:38:39Z</time>
      </trkpt>
      <trkpt lat="46.14776" lon="6.39023">
        <ele>611</ele>
        <time>2011-04-03T11:38:40Z</time>
      </trkpt>
      <trkpt lat="46.14766" lon="6.3901">
        <ele>611</ele>
        <time>2011-04-03T11:38:41Z</time>
      </trkpt>
      <trkpt lat="46.14756" lon="6.38997">
        <ele>611</ele>
        <time>2011-04-03T11:38:42Z</time>
      </trkpt>
      <trkpt lat="46.14747" lon="6.38982">
        <ele>605</ele>
        <time>2011-04-03T11:38:43Z</time>
      </trkpt>
      <trkpt lat="46.14738" lon="6.38969">
        <ele>605</ele>
        <time>2011-04-03T11:38:44Z</time>
      </trkpt>
      <trkpt lat="46.14729" lon="6.38955">
        <ele>605</ele>
        <time>2011-04-03T11:38:45Z</time>
      </trkpt>
      <trkpt lat="46.1472" lon="6.3894">
        <ele>605</ele>
        <time>2011-04-03T11:38:46Z</time>
      </trkpt>
      <trkpt lat="46.14712" lon="6.38927">
        <ele>605</ele>
        <time>2011-04-03T11:38:47Z</time>
      </trkpt>
      <trkpt lat="46.14704" lon="6.38912">
        <ele>605</ele>
        <time>2011-04-03T11:38:48Z</time>
      </trkpt>
      <trkpt lat="46.14697" lon="6.38899">
        <ele>605</ele>
        <time>2011-04-03T11:38:49Z</time>
      </trkpt>
      <trkpt lat="46.1469" lon="6.38885">
        <ele>605</ele>
        <time>2011-04-03T11:38:50Z</time>
      </trkpt>
      <trkpt lat="46.14685" lon="6.3887">
        <ele>599</ele>
        <time>2011-04-03T11:38:51Z</time>
      </trkpt>
      <trkpt lat="46.1468" lon="6.38855">
        <ele>599</ele>
        <time>2011-04-03T11:38:52Z</time>
      </trkpt>
      <trkpt lat="46.14674" lon="6.38841">
        <ele>599</ele>
        <time>2011-04-03T11:38:53Z</time>
      </trkpt>
      <trkpt lat="46.14669" lon="6.38827">
        <ele>599</ele>
        <time>2011-04-03T11:38:54Z</time>
      </trkpt>
      <trkpt lat="46.14663" lon="6.38814">
        <ele>599</ele>
        <time>2011-04-03T11:38:55Z</time>
      </trkpt>
      <trkpt lat="46.14657" lon="6.388">
        <ele>599</ele>
        <time>2011-04-03T11:38:56Z</time>
      </trkpt>
      <trkpt lat="46.1465" lon="6.38787">
        <ele>599</ele>
        <time>2011-04-03T11:38:57Z</time>
      </trkpt>
      <trkpt lat="46.14645" lon="6.38774">
        <ele>594</ele>
        <time>2011-04-03T11:38:58Z</time>
      </trkpt>
      <trkpt lat="46.14639" lon="6.38762">
        <ele>594</ele>
        <time>2011-04-03T11:38:59Z</time>
      </trkpt>
      <trkpt lat="46.14634" lon="6.3875">
        <ele>594</ele>
        <time>2011-04-03T11:39:00Z</time>
      </trkpt>
      <trkpt lat="46.14629" lon="6.38737">
        <ele>594</ele>
        <time>2011-04-03T11:39:01Z</time>
      </trkpt>
      <trkpt lat="46.14623" lon="6.38726">
        <ele>594</ele>
        <time>2011-04-03T11:39:02Z</time>
      </trkpt>
      <trkpt lat="46.14618" lon="6.38714">
        <ele>594</ele>
        <time>2011-04-03T11:39:03Z</time>
      </trkpt>
      <trkpt lat="46.14613" lon="6.38701">
        <ele>594</ele>
        <time>2011-04-03T11:39:04Z</time>
      </trkpt>
      <trkpt lat="46.14609" lon="6.3869">
        <ele>588</ele>
        <time>2011-04-03T11:39:05Z</time>
      </trkpt>
      <trkpt lat="46.146" lon="6.38667">
        <ele>588</ele>
        <time>2011-04-03T11:39:07Z</time>
      </trkpt>
      <trkpt lat="46.14592" lon="6.38647">
        <ele>588</ele>
        <time>2011-04-03T11:39:09Z</time>
      </trkpt>
      <trkpt lat="46.14587" lon="6.38633">
        <ele>588</ele>
        <time>2011-04-03T11:39:11Z</time>
      </trkpt>
      <trkpt lat="46.14582" lon="6.38621">
        <ele>588</ele>
        <time>2011-04-03T11:39:19Z</time>
      </trkpt>
      <trkpt lat="46.14574" lon="6.38603">
        <ele>582</ele>
        <time>2011-04-03T11:39:21Z</time>
      </trkpt>
      <trkpt lat="46.14569" lon="6.38591">
        <ele>582</ele>
        <time>2011-04-03T11:39:22Z</time>
      </trkpt>
      <trkpt lat="46.14564" lon="6.38577">
        <ele>582</ele>
        <time>2011-04-03T11:39:23Z</time>
      </trkpt>
      <trkpt lat="46.14558" lon="6.38565">
        <ele>582</ele>
        <time>2011-04-03T11:39:24Z</time>
      </trkpt>
      <trkpt lat="46.14552" lon="6.38554">
        <ele>582</ele>
        <time>2011-04-03T11:39:25Z</time>
      </trkpt>
      <trkpt lat="46.14545" lon="6.38544">
        <ele>582</ele>
        <time>2011-04-03T11:39:26Z</time>
      </trkpt>
      <trkpt lat="46.14536" lon="6.38535">
        <ele>582</ele>
        <time>2011-04-03T11:39:27Z</time>
      </trkpt>
      <trkpt lat="46.14524" lon="6.38527">
        <ele>582</ele>
        <time>2011-04-03T11:39:28Z</time>
      </trkpt>
      <trkpt lat="46.1451" lon="6.38521">
        <ele>582</ele>
        <time>2011-04-03T11:39:29Z</time>
      </trkpt>
      <trkpt lat="46.14493" lon="6.38517">
        <ele>582</ele>
        <time>2011-04-03T11:39:30Z</time>
      </trkpt>
      <trkpt lat="46.14477" lon="6.38512">
        <ele>582</ele>
        <time>2011-04-03T11:39:31Z</time>
      </trkpt>
      <trkpt lat="46.14464" lon="6.38506">
        <ele>576</ele>
        <time>2011-04-03T11:39:32Z</time>
      </trkpt>
      <trkpt lat="46.14452" lon="6.38499">
        <ele>576</ele>
        <time>2011-04-03T11:39:33Z</time>
      </trkpt>
      <trkpt lat="46.14442" lon="6.38491">
        <ele>576</ele>
        <time>2011-04-03T11:39:34Z</time>
      </trkpt>
      <trkpt lat="46.14434" lon="6.38483">
        <ele>576</ele>
        <time>2011-04-03T11:39:35Z</time>
      </trkpt>
      <trkpt lat="46.14422" lon="6.38469">
        <ele>576</ele>
        <time>2011-04-03T11:39:37Z</time>
      </trkpt>
      <trkpt lat="46.14405" lon="6.3846">
        <ele>576</ele>
        <time>2011-04-03T11:39:39Z</time>
      </trkpt>
      <trkpt lat="46.14393" lon="6.38452">
        <ele>576</ele>
        <time>2011-04-03T11:39:41Z</time>
      </trkpt>
      <trkpt lat="46.14379" lon="6.38454">
        <ele>576</ele>
        <time>2011-04-03T11:39:44Z</time>
      </trkpt>
      <trkpt lat="46.14369" lon="6.38463">
        <ele>576</ele>
        <time>2011-04-03T11:39:46Z</time>
      </trkpt>
      <trkpt lat="46.14363" lon="6.38478">
        <ele>576</ele>
        <time>2011-04-03T11:39:48Z</time>
      </trkpt>
      <trkpt lat="46.14351" lon="6.38496">
        <ele>576</ele>
        <time>2011-04-03T11:39:50Z</time>
      </trkpt>
      <trkpt lat="46.14343" lon="6.38506">
        <ele>576</ele>
        <time>2011-04-03T11:39:51Z</time>
      </trkpt>
      <trkpt lat="46.14336" lon="6.38519">
        <ele>576</ele>
        <time>2011-04-03T11:39:52Z</time>
      </trkpt>
      <trkpt lat="46.14328" lon="6.38532">
        <ele>576</ele>
        <time>2011-04-03T11:39:53Z</time>
      </trkpt>
      <trkpt lat="46.14321" lon="6.38545">
        <ele>576</ele>
        <time>2011-04-03T11:39:54Z</time>
      </trkpt>
      <trkpt lat="46.14306" lon="6.38558">
        <ele>576</ele>
        <time>2011-04-03T11:39:56Z</time>
      </trkpt>
      <trkpt lat="46.14287" lon="6.38557">
        <ele>576</ele>
        <time>2011-04-03T11:39:58Z</time>
      </trkpt>
      <trkpt lat="46.14277" lon="6.38552">
        <ele>576</ele>
        <time>2011-04-03T11:39:59Z</time>
      </trkpt>
      <trkpt lat="46.14266" lon="6.38551">
        <ele>576</ele>
        <time>2011-04-03T11:40:00Z</time>
      </trkpt>
      <trkpt lat="46.14255" lon="6.38552">
        <ele>576</ele>
        <time>2011-04-03T11:40:01Z</time>
      </trkpt>
      <trkpt lat="46.14243" lon="6.38557">
        <ele>576</ele>
        <time>2011-04-03T11:40:02Z</time>
      </trkpt>
      <trkpt lat="46.1423" lon="6.38563">
        <ele>576</ele>
        <time>2011-04-03T11:40:03Z</time>
      </trkpt>
      <trkpt lat="46.14218" lon="6.38569">
        <ele>576</ele>
        <time>2011-04-03T11:40:04Z</time>
      </trkpt>
      <trkpt lat="46.14206" lon="6.38574">
        <ele>576</ele>
        <time>2011-04-03T11:40:05Z</time>
      </trkpt>
      <trkpt lat="46.14193" lon="6.38576">
        <ele>576</ele>
        <time>2011-04-03T11:40:06Z</time>
      </trkpt>
      <trkpt lat="46.14179" lon="6.38576">
        <ele>576</ele>
        <time>2011-04-03T11:40:07Z</time>
      </trkpt>
      <trkpt lat="46.14164" lon="6.38575">
        <ele>576</ele>
        <time>2011-04-03T11:40:08Z</time>
      </trkpt>
      <trkpt lat="46.14149" lon="6.38573">
        <ele>576</ele>
        <time>2011-04-03T11:40:09Z</time>
      </trkpt>
      <trkpt lat="46.14134" lon="6.38573">
        <ele>576</ele>
        <time>2011-04-03T11:40:10Z</time>
      </trkpt>
      <trkpt lat="46.14119" lon="6.38576">
        <ele>576</ele>
        <time>2011-04-03T11:40:11Z</time>
      </trkpt>
      <trkpt lat="46.14104" lon="6.38579">
        <ele>576</ele>
        <time>2011-04-03T11:40:12Z</time>
      </trkpt>
      <trkpt lat="46.1409" lon="6.38584">
        <ele>576</ele>
        <time>2011-04-03T11:40:13Z</time>
      </trkpt>
      <trkpt lat="46.14077" lon="6.38589">
        <ele>576</ele>
        <time>2011-04-03T11:40:14Z</time>
      </trkpt>
      <trkpt lat="46.14064" lon="6.38594">
        <ele>576</ele>
        <time>2011-04-03T11:40:15Z</time>
      </trkpt>
      <trkpt lat="46.14051" lon="6.38594">
        <ele>576</ele>
        <time>2011-04-03T11:40:16Z</time>
      </trkpt>
      <trkpt lat="46.14037" lon="6.38593">
        <ele>576</ele>
        <time>2011-04-03T11:40:17Z</time>
      </trkpt>
      <trkpt lat="46.14024" lon="6.38592">
        <ele>576</ele>
        <time>2011-04-03T11:40:18Z</time>
      </trkpt>
      <trkpt lat="46.14012" lon="6.38594">
        <ele>576</ele>
        <time>2011-04-03T11:40:19Z</time>
      </trkpt>
      <trkpt lat="46.13998" lon="6.38598">
        <ele>582</ele>
        <time>2011-04-03T11:40:20Z</time>
      </trkpt>
      <trkpt lat="46.13985" lon="6.38604">
        <ele>582</ele>
        <time>2011-04-03T11:40:21Z</time>
      </trkpt>
      <trkpt lat="46.13971" lon="6.38612">
        <ele>582</ele>
        <time>2011-04-03T11:40:22Z</time>
      </trkpt>
      <trkpt lat="46.13957" lon="6.3862">
        <ele>582</ele>
        <time>2011-04-03T11:40:23Z</time>
      </trkpt>
      <trkpt lat="46.13942" lon="6.38625">
        <ele>582</ele>
        <time>2011-04-03T11:40:24Z</time>
      </trkpt>
      <trkpt lat="46.1393" lon="6.3863">
        <ele>582</ele>
        <time>2011-04-03T11:40:25Z</time>
      </trkpt>
      <trkpt lat="46.13918" lon="6.38634">
        <ele>582</ele>
        <time>2011-04-03T11:40:26Z</time>
      </trkpt>
      <trkpt lat="46.13907" lon="6.38638">
        <ele>582</ele>
        <time>2011-04-03T11:40:27Z</time>
      </trkpt>
      <trkpt lat="46.13897" lon="6.38641">
        <ele>582</ele>
        <time>2011-04-03T11:40:28Z</time>
      </trkpt>
      <trkpt lat="46.13885" lon="6.38643">
        <ele>582</ele>
        <time>2011-04-03T11:40:29Z</time>
      </trkpt>
      <trkpt lat="46.13875" lon="6.38645">
        <ele>582</ele>
        <time>2011-04-03T11:40:30Z</time>
      </trkpt>
      <trkpt lat="46.13864" lon="6.38647">
        <ele>582</ele>
        <time>2011-04-03T11:40:31Z</time>
      </trkpt>
      <trkpt lat="46.13852" lon="6.38652">
        <ele>582</ele>
        <time>2011-04-03T11:40:32Z</time>
      </trkpt>
      <trkpt lat="46.13841" lon="6.38656">
        <ele>582</ele>
        <time>2011-04-03T11:40:33Z</time>
      </trkpt>
      <trkpt lat="46.1383" lon="6.38661">
        <ele>582</ele>
        <time>2011-04-03T11:40:34Z</time>
      </trkpt>
      <trkpt lat="46.13819" lon="6.38665">
        <ele>582</ele>
        <time>2011-04-03T11:40:35Z</time>
      </trkpt>
      <trkpt lat="46.13809" lon="6.3867">
        <ele>582</ele>
        <time>2011-04-03T11:40:36Z</time>
      </trkpt>
      <trkpt lat="46.13799" lon="6.38676">
        <ele>582</ele>
        <time>2011-04-03T11:40:37Z</time>
      </trkpt>
      <trkpt lat="46.13789" lon="6.38683">
        <ele>582</ele>
        <time>2011-04-03T11:40:38Z</time>
      </trkpt>
      <trkpt lat="46.1378" lon="6.38692">
        <ele>582</ele>
        <time>2011-04-03T11:40:39Z</time>
      </trkpt>
      <trkpt lat="46.13771" lon="6.38701">
        <ele>582</ele>
        <time>2011-04-03T11:40:40Z</time>
      </trkpt>
      <trkpt lat="46.13763" lon="6.3871">
        <ele>582</ele>
        <time>2011-04-03T11:40:41Z</time>
      </trkpt>
      <trkpt lat="46.13747" lon="6.38721">
        <ele>582</ele>
        <time>2011-04-03T11:40:43Z</time>
      </trkpt>
      <trkpt lat="46.13737" lon="6.38722">
        <ele>582</ele>
        <time>2011-04-03T11:40:44Z</time>
      </trkpt>
      <trkpt lat="46.13727" lon="6.38723">
        <ele>582</ele>
        <time>2011-04-03T11:40:45Z</time>
      </trkpt>
      <trkpt lat="46.13718" lon="6.38725">
        <ele>582</ele>
        <time>2011-04-03T11:40:46Z</time>
      </trkpt>
      <trkpt lat="46.13702" lon="6.38726">
        <ele>582</ele>
        <time>2011-04-03T11:40:48Z</time>
      </trkpt>
      <trkpt lat="46.13688" lon="6.38726">
        <ele>582</ele>
        <time>2011-04-03T11:40:50Z</time>
      </trkpt>
      <trkpt lat="46.13672" lon="6.38732">
        <ele>582</ele>
        <time>2011-04-03T11:40:52Z</time>
      </trkpt>
      <trkpt lat="46.13663" lon="6.38738">
        <ele>582</ele>
        <time>2011-04-03T11:40:53Z</time>
      </trkpt>
      <trkpt lat="46.13648" lon="6.38751">
        <ele>587</ele>
        <time>2011-04-03T11:40:55Z</time>
      </trkpt>
      <trkpt lat="46.13634" lon="6.38749">
        <ele>587</ele>
        <time>2011-04-03T11:40:57Z</time>
      </trkpt>
      <trkpt lat="46.13617" lon="6.38736">
        <ele>587</ele>
        <time>2011-04-03T11:40:59Z</time>
      </trkpt>
      <trkpt lat="46.13607" lon="6.38728">
        <ele>587</ele>
        <time>2011-04-03T11:41:00Z</time>
      </trkpt>
      <trkpt lat="46.13597" lon="6.38722">
        <ele>587</ele>
        <time>2011-04-03T11:41:01Z</time>
      </trkpt>
      <trkpt lat="46.13586" lon="6.38717">
        <ele>587</ele>
        <time>2011-04-03T11:41:02Z</time>
      </trkpt>
      <trkpt lat="46.13575" lon="6.38717">
        <ele>587</ele>
        <time>2011-04-03T11:41:03Z</time>
      </trkpt>
      <trkpt lat="46.13562" lon="6.3872">
        <ele>587</ele>
        <time>2011-04-03T11:41:04Z</time>
      </trkpt>
      <trkpt lat="46.13548" lon="6.38721">
        <ele>587</ele>
        <time>2011-04-03T11:41:05Z</time>
      </trkpt>
      <trkpt lat="46.13535" lon="6.38721">
        <ele>587</ele>
        <time>2011-04-03T11:41:06Z</time>
      </trkpt>
      <trkpt lat="46.13521" lon="6.3872">
        <ele>587</ele>
        <time>2011-04-03T11:41:07Z</time>
      </trkpt>
      <trkpt lat="46.1351" lon="6.38721">
        <ele>587</ele>
        <time>2011-04-03T11:41:08Z</time>
      </trkpt>
      <trkpt lat="46.135" lon="6.38723">
        <ele>587</ele>
        <time>2011-04-03T11:41:09Z</time>
      </trkpt>
      <trkpt lat="46.13488" lon="6.38722">
        <ele>587</ele>
        <time>2011-04-03T11:41:11Z</time>
      </trkpt>
      <trkpt lat="46.13475" lon="6.38716">
        <ele>593</ele>
        <time>2011-04-03T11:41:14Z</time>
      </trkpt>
      <trkpt lat="46.13458" lon="6.38706">
        <ele>593</ele>
        <time>2011-04-03T11:41:16Z</time>
      </trkpt>
      <trkpt lat="46.13447" lon="6.38701">
        <ele>593</ele>
        <time>2011-04-03T11:41:17Z</time>
      </trkpt>
      <trkpt lat="46.13436" lon="6.38697">
        <ele>593</ele>
        <time>2011-04-03T11:41:18Z</time>
      </trkpt>
      <trkpt lat="46.13423" lon="6.38694">
        <ele>593</ele>
        <time>2011-04-03T11:41:19Z</time>
      </trkpt>
      <trkpt lat="46.13411" lon="6.38693">
        <ele>593</ele>
        <time>2011-04-03T11:41:20Z</time>
      </trkpt>
      <trkpt lat="46.134" lon="6.38693">
        <ele>593</ele>
        <time>2011-04-03T11:41:21Z</time>
      </trkpt>
      <trkpt lat="46.1339" lon="6.38693">
        <ele>599</ele>
        <time>2011-04-03T11:41:22Z</time>
      </trkpt>
      <trkpt lat="46.13376" lon="6.38693">
        <ele>599</ele>
        <time>2011-04-03T11:41:24Z</time>
      </trkpt>
      <trkpt lat="46.13367" lon="6.38697">
        <ele>599</ele>
        <time>2011-04-03T11:41:29Z</time>
      </trkpt>
      <trkpt lat="46.13377" lon="6.38697">
        <ele>599</ele>
        <time>2011-04-03T11:41:41Z</time>
      </trkpt>
      <trkpt lat="46.1338" lon="6.38683">
        <ele>599</ele>
        <time>2011-04-03T11:41:45Z</time>
      </trkpt>
      <trkpt lat="46.13373" lon="6.38666">
        <ele>599</ele>
        <time>2011-04-03T11:41:47Z</time>
      </trkpt>
      <trkpt lat="46.13364" lon="6.38645">
        <ele>605</ele>
        <time>2011-04-03T11:41:49Z</time>
      </trkpt>
      <trkpt lat="46.13358" lon="6.38631">
        <ele>605</ele>
        <time>2011-04-03T11:41:50Z</time>
      </trkpt>
      <trkpt lat="46.13352" lon="6.38619">
        <ele>605</ele>
        <time>2011-04-03T11:41:51Z</time>
      </trkpt>
      <trkpt lat="46.13346" lon="6.38606">
        <ele>605</ele>
        <time>2011-04-03T11:41:52Z</time>
      </trkpt>
      <trkpt lat="46.1334" lon="6.38595">
        <ele>605</ele>
        <time>2011-04-03T11:41:53Z</time>
      </trkpt>
      <trkpt lat="46.13335" lon="6.38585">
        <ele>605</ele>
        <time>2011-04-03T11:41:54Z</time>
      </trkpt>
      <trkpt lat="46.1333" lon="6.38572">
        <ele>610</ele>
        <time>2011-04-03T11:41:55Z</time>
      </trkpt>
      <trkpt lat="46.13324" lon="6.38558">
        <ele>610</ele>
        <time>2011-04-03T11:41:56Z</time>
      </trkpt>
      <trkpt lat="46.13318" lon="6.38542">
        <ele>610</ele>
        <time>2011-04-03T11:41:57Z</time>
      </trkpt>
      <trkpt lat="46.13313" lon="6.38527">
        <ele>610</ele>
        <time>2011-04-03T11:41:58Z</time>
      </trkpt>
      <trkpt lat="46.1331" lon="6.38514">
        <ele>610</ele>
        <time>2011-04-03T11:41:59Z</time>
      </trkpt>
      <trkpt lat="46.13302" lon="6.38494">
        <ele>615</ele>
        <time>2011-04-03T11:42:01Z</time>
      </trkpt>
      <trkpt lat="46.13289" lon="6.38479">
        <ele>615</ele>
        <time>2011-04-03T11:42:03Z</time>
      </trkpt>
      <trkpt lat="46.13281" lon="6.38473">
        <ele>615</ele>
        <time>2011-04-03T11:42:04Z</time>
      </trkpt>
      <trkpt lat="46.13267" lon="6.38456">
        <ele>615</ele>
        <time>2011-04-03T11:42:06Z</time>
      </trkpt>
      <trkpt lat="46.13261" lon="6.38445">
        <ele>615</ele>
        <time>2011-04-03T11:42:07Z</time>
      </trkpt>
      <trkpt lat="46.13255" lon="6.38435">
        <ele>622</ele>
        <time>2011-04-03T11:42:08Z</time>
      </trkpt>
      <trkpt lat="46.13249" lon="6.38424">
        <ele>622</ele>
        <time>2011-04-03T11:42:09Z</time>
      </trkpt>
      <trkpt lat="46.13242" lon="6.38414">
        <ele>622</ele>
        <time>2011-04-03T11:42:10Z</time>
      </trkpt>
      <trkpt lat="46.13235" lon="6.38405">
        <ele>622</ele>
        <time>2011-04-03T11:42:11Z</time>
      </trkpt>
      <trkpt lat="46.13227" lon="6.38396">
        <ele>628</ele>
        <time>2011-04-03T11:42:12Z</time>
      </trkpt>
      <trkpt lat="46.13219" lon="6.38389">
        <ele>628</ele>
        <time>2011-04-03T11:42:13Z</time>
      </trkpt>
      <trkpt lat="46.13212" lon="6.38381">
        <ele>628</ele>
        <time>2011-04-03T11:42:14Z</time>
      </trkpt>
      <trkpt lat="46.13199" lon="6.38362">
        <ele>635</ele>
        <time>2011-04-03T11:42:16Z</time>
      </trkpt>
      <trkpt lat="46.13193" lon="6.38351">
        <ele>635</ele>
        <time>2011-04-03T11:42:17Z</time>
      </trkpt>
      <trkpt lat="46.13187" lon="6.38339">
        <ele>635</ele>
        <time>2011-04-03T11:42:18Z</time>
      </trkpt>
      <trkpt lat="46.13178" lon="6.38319">
        <ele>635</ele>
        <time>2011-04-03T11:42:20Z</time>
      </trkpt>
      <trkpt lat="46.13173" lon="6.38307">
        <ele>641</ele>
        <time>2011-04-03T11:42:21Z</time>
      </trkpt>
      <trkpt lat="46.13166" lon="6.38295">
        <ele>641</ele>
        <time>2011-04-03T11:42:22Z</time>
      </trkpt>
      <trkpt lat="46.1316" lon="6.38284">
        <ele>641</ele>
        <time>2011-04-03T11:42:23Z</time>
      </trkpt>
      <trkpt lat="46.13152" lon="6.38273">
        <ele>641</ele>
        <time>2011-04-03T11:42:24Z</time>
      </trkpt>
      <trkpt lat="46.13145" lon="6.38264">
        <ele>641</ele>
        <time>2011-04-03T11:42:25Z</time>
      </trkpt>
      <trkpt lat="46.13133" lon="6.38245">
        <ele>650</ele>
        <time>2011-04-03T11:42:27Z</time>
      </trkpt>
      <trkpt lat="46.13123" lon="6.38232">
        <ele>650</ele>
        <time>2011-04-03T11:42:29Z</time>
      </trkpt>
      <trkpt lat="46.13115" lon="6.38225">
        <ele>650</ele>
        <time>2011-04-03T11:42:31Z</time>
      </trkpt>
      <trkpt lat="46.13103" lon="6.38214">
        <ele>656</ele>
        <time>2011-04-03T11:42:34Z</time>
      </trkpt>
      <trkpt lat="46.13094" lon="6.38204">
        <ele>656</ele>
        <time>2011-04-03T11:42:36Z</time>
      </trkpt>
      <trkpt lat="46.13087" lon="6.38193">
        <ele>656</ele>
        <time>2011-04-03T11:42:39Z</time>
      </trkpt>
      <trkpt lat="46.13075" lon="6.38201">
        <ele>656</ele>
        <time>2011-04-03T11:43:33Z</time>
      </trkpt>
      <trkpt lat="46.13072" lon="6.3822">
        <ele>656</ele>
        <time>2011-04-03T11:43:35Z</time>
      </trkpt>
      <trkpt lat="46.13072" lon="6.38244">
        <ele>656</ele>
        <time>2011-04-03T11:43:37Z</time>
      </trkpt>
      <trkpt lat="46.13074" lon="6.38258">
        <ele>656</ele>
        <time>2011-04-03T11:43:38Z</time>
      </trkpt>
      <trkpt lat="46.13074" lon="6.38283">
        <ele>656</ele>
        <time>2011-04-03T11:43:40Z</time>
      </trkpt>
      <trkpt lat="46.13072" lon="6.38305">
        <ele>656</ele>
        <time>2011-04-03T11:43:42Z</time>
      </trkpt>
      <trkpt lat="46.13069" lon="6.38322">
        <ele>656</ele>
        <time>2011-04-03T11:43:44Z</time>
      </trkpt>
      <trkpt lat="46.13062" lon="6.38332">
        <ele>656</ele>
        <time>2011-04-03T11:43:49Z</time>
      </trkpt>
      <trkpt lat="46.13053" lon="6.3834">
        <ele>656</ele>
        <time>2011-04-03T11:43:52Z</time>
      </trkpt>
      <trkpt lat="46.13043" lon="6.38339">
        <ele>656</ele>
        <time>2011-04-03T11:43:54Z</time>
      </trkpt>
      <trkpt lat="46.13029" lon="6.38337">
        <ele>656</ele>
        <time>2011-04-03T11:43:56Z</time>
      </trkpt>
      <trkpt lat="46.13012" lon="6.38334">
        <ele>656</ele>
        <time>2011-04-03T11:43:58Z</time>
      </trkpt>
      <trkpt lat="46.12994" lon="6.3833">
        <ele>663</ele>
        <time>2011-04-03T11:44:00Z</time>
      </trkpt>
      <trkpt lat="46.12979" lon="6.38328">
        <ele>663</ele>
        <time>2011-04-03T11:44:02Z</time>
      </trkpt>
      <trkpt lat="46.12969" lon="6.38325">
        <ele>663</ele>
        <time>2011-04-03T11:44:04Z</time>
      </trkpt>
      <trkpt lat="46.12959" lon="6.38323">
        <ele>663</ele>
        <time>2011-04-03T11:44:08Z</time>
      </trkpt>
      <trkpt lat="46.12947" lon="6.38321">
        <ele>669</ele>
        <time>2011-04-03T11:44:11Z</time>
      </trkpt>
      <trkpt lat="46.12937" lon="6.38326">
        <ele>669</ele>
        <time>2011-04-03T11:44:15Z</time>
      </trkpt>
      <trkpt lat="46.12949" lon="6.38325">
        <ele>669</ele>
        <time>2011-04-03T11:44:20Z</time>
      </trkpt>
      <trkpt lat="46.1296" lon="6.38328">
        <ele>669</ele>
        <time>2011-04-03T11:44:23Z</time>
      </trkpt>
      <trkpt lat="46.12972" lon="6.38329">
        <ele>669</ele>
        <time>2011-04-03T11:44:26Z</time>
      </trkpt>
      <trkpt lat="46.12982" lon="6.38331">
        <ele>669</ele>
        <time>2011-04-03T11:44:28Z</time>
      </trkpt>
      <trkpt lat="46.12995" lon="6.38333">
        <ele>669</ele>
        <time>2011-04-03T11:44:31Z</time>
      </trkpt>
      <trkpt lat="46.13004" lon="6.38333">
        <ele>664</ele>
        <time>2011-04-03T11:44:33Z</time>
      </trkpt>
      <trkpt lat="46.13014" lon="6.38335">
        <ele>664</ele>
        <time>2011-04-03T11:44:35Z</time>
      </trkpt>
      <trkpt lat="46.13024" lon="6.38338">
        <ele>664</ele>
        <time>2011-04-03T11:44:37Z</time>
      </trkpt>
      <trkpt lat="46.13034" lon="6.38339">
        <ele>664</ele>
        <time>2011-04-03T11:44:39Z</time>
      </trkpt>
      <trkpt lat="46.13044" lon="6.38341">
        <ele>664</ele>
        <time>2011-04-03T11:44:41Z</time>
      </trkpt>
      <trkpt lat="46.13055" lon="6.38343">
        <ele>664</ele>
        <time>2011-04-03T11:44:44Z</time>
      </trkpt>
      <trkpt lat="46.13062" lon="6.38334">
        <ele>664</ele>
        <time>2011-04-03T11:44:48Z</time>
      </trkpt>
      <trkpt lat="46.1306" lon="6.38316">
        <ele>664</ele>
        <time>2011-04-03T11:44:50Z</time>
      </trkpt>
      <trkpt lat="46.13056" lon="6.38292">
        <ele>664</ele>
        <time>2011-04-03T11:44:52Z</time>
      </trkpt>
      <trkpt lat="46.13053" lon="6.38278">
        <ele>664</ele>
        <time>2011-04-03T11:44:53Z</time>
      </trkpt>
      <trkpt lat="46.13051" lon="6.38265">
        <ele>664</ele>
        <time>2011-04-03T11:44:54Z</time>
      </trkpt>
      <trkpt lat="46.13047" lon="6.38249">
        <ele>664</ele>
        <time>2011-04-03T11:44:55Z</time>
      </trkpt>
      <trkpt lat="46.13045" lon="6.38235">
        <ele>664</ele>
        <time>2011-04-03T11:44:56Z</time>
      </trkpt>
      <trkpt lat="46.13042" lon="6.38221">
        <ele>664</ele>
        <time>2011-04-03T11:44:57Z</time>
      </trkpt>
      <trkpt lat="46.13038" lon="6.38206">
        <ele>664</ele>
        <time>2011-04-03T11:44:58Z</time>
      </trkpt>
      <trkpt lat="46.13034" lon="6.38191">
        <ele>664</ele>
        <time>2011-04-03T11:44:59Z</time>
      </trkpt>
      <trkpt lat="46.13029" lon="6.38176">
        <ele>664</ele>
        <time>2011-04-03T11:45:00Z</time>
      </trkpt>
      <trkpt lat="46.13025" lon="6.3816">
        <ele>664</ele>
        <time>2011-04-03T11:45:01Z</time>
      </trkpt>
      <trkpt lat="46.1302" lon="6.38143">
        <ele>664</ele>
        <time>2011-04-03T11:45:02Z</time>
      </trkpt>
      <trkpt lat="46.13015" lon="6.38125">
        <ele>664</ele>
        <time>2011-04-03T11:45:03Z</time>
      </trkpt>
      <trkpt lat="46.1301" lon="6.38108">
        <ele>664</ele>
        <time>2011-04-03T11:45:04Z</time>
      </trkpt>
      <trkpt lat="46.13004" lon="6.3809">
        <ele>664</ele>
        <time>2011-04-03T11:45:05Z</time>
      </trkpt>
      <trkpt lat="46.12997" lon="6.38074">
        <ele>664</ele>
        <time>2011-04-03T11:45:06Z</time>
      </trkpt>
      <trkpt lat="46.12988" lon="6.38059">
        <ele>664</ele>
        <time>2011-04-03T11:45:07Z</time>
      </trkpt>
      <trkpt lat="46.12979" lon="6.38045">
        <ele>664</ele>
        <time>2011-04-03T11:45:08Z</time>
      </trkpt>
      <trkpt lat="46.12969" lon="6.38031">
        <ele>664</ele>
        <time>2011-04-03T11:45:09Z</time>
      </trkpt>
      <trkpt lat="46.1296" lon="6.3802">
        <ele>670</ele>
        <time>2011-04-03T11:45:10Z</time>
      </trkpt>
      <trkpt lat="46.12949" lon="6.3801">
        <ele>670</ele>
        <time>2011-04-03T11:45:11Z</time>
      </trkpt>
      <trkpt lat="46.12939" lon="6.38">
        <ele>670</ele>
        <time>2011-04-03T11:45:12Z</time>
      </trkpt>
      <trkpt lat="46.12929" lon="6.37989">
        <ele>670</ele>
        <time>2011-04-03T11:45:13Z</time>
      </trkpt>
      <trkpt lat="46.12919" lon="6.37977">
        <ele>670</ele>
        <time>2011-04-03T11:45:14Z</time>
      </trkpt>
      <trkpt lat="46.12909" lon="6.37966">
        <ele>670</ele>
        <time>2011-04-03T11:45:15Z</time>
      </trkpt>
      <trkpt lat="46.12899" lon="6.37952">
        <ele>670</ele>
        <time>2011-04-03T11:45:16Z</time>
      </trkpt>
      <trkpt lat="46.1289" lon="6.37937">
        <ele>675</ele>
        <time>2011-04-03T11:45:17Z</time>
      </trkpt>
      <trkpt lat="46.12882" lon="6.3792">
        <ele>675</ele>
        <time>2011-04-03T11:45:18Z</time>
      </trkpt>
      <trkpt lat="46.12876" lon="6.379">
        <ele>675</ele>
        <time>2011-04-03T11:45:19Z</time>
      </trkpt>
      <trkpt lat="46.12871" lon="6.37879">
        <ele>675</ele>
        <time>2011-04-03T11:45:20Z</time>
      </trkpt>
      <trkpt lat="46.12867" lon="6.37859">
        <ele>675</ele>
        <time>2011-04-03T11:45:21Z</time>
      </trkpt>
      <trkpt lat="46.12865" lon="6.37838">
        <ele>675</ele>
        <time>2011-04-03T11:45:22Z</time>
      </trkpt>
      <trkpt lat="46.12865" lon="6.37819">
        <ele>675</ele>
        <time>2011-04-03T11:45:23Z</time>
      </trkpt>
      <trkpt lat="46.12868" lon="6.378">
        <ele>675</ele>
        <time>2011-04-03T11:45:24Z</time>
      </trkpt>
      <trkpt lat="46.12873" lon="6.37783">
        <ele>680</ele>
        <time>2011-04-03T11:45:25Z</time>
      </trkpt>
      <trkpt lat="46.1288" lon="6.37766">
        <ele>680</ele>
        <time>2011-04-03T11:45:26Z</time>
      </trkpt>
      <trkpt lat="46.12889" lon="6.37751">
        <ele>680</ele>
        <time>2011-04-03T11:45:27Z</time>
      </trkpt>
      <trkpt lat="46.12899" lon="6.37735">
        <ele>680</ele>
        <time>2011-04-03T11:45:28Z</time>
      </trkpt>
      <trkpt lat="46.12909" lon="6.37719">
        <ele>680</ele>
        <time>2011-04-03T11:45:29Z</time>
      </trkpt>
      <trkpt lat="46.12919" lon="6.37706">
        <ele>680</ele>
        <time>2011-04-03T11:45:30Z</time>
      </trkpt>
      <trkpt lat="46.12928" lon="6.37693">
        <ele>680</ele>
        <time>2011-04-03T11:45:31Z</time>
      </trkpt>
      <trkpt lat="46.12938" lon="6.37683">
        <ele>680</ele>
        <time>2011-04-03T11:45:32Z</time>
      </trkpt>
      <trkpt lat="46.12947" lon="6.37673">
        <ele>680</ele>
        <time>2011-04-03T11:45:33Z</time>
      </trkpt>
      <trkpt lat="46.12957" lon="6.37665">
        <ele>686</ele>
        <time>2011-04-03T11:45:34Z</time>
      </trkpt>
      <trkpt lat="46.12967" lon="6.37657">
        <ele>686</ele>
        <time>2011-04-03T11:45:35Z</time>
      </trkpt>
      <trkpt lat="46.12976" lon="6.3765">
        <ele>686</ele>
        <time>2011-04-03T11:45:36Z</time>
      </trkpt>
      <trkpt lat="46.12986" lon="6.37643">
        <ele>686</ele>
        <time>2011-04-03T11:45:37Z</time>
      </trkpt>
      <trkpt lat="46.12995" lon="6.37637">
        <ele>686</ele>
        <time>2011-04-03T11:45:38Z</time>
      </trkpt>
      <trkpt lat="46.13004" lon="6.37631">
        <ele>686</ele>
        <time>2011-04-03T11:45:39Z</time>
      </trkpt>
      <trkpt lat="46.13013" lon="6.37624">
        <ele>686</ele>
        <time>2011-04-03T11:45:40Z</time>
      </trkpt>
      <trkpt lat="46.13021" lon="6.37618">
        <ele>686</ele>
        <time>2011-04-03T11:45:41Z</time>
      </trkpt>
      <trkpt lat="46.13034" lon="6.37608">
        <ele>691</ele>
        <time>2011-04-03T11:45:43Z</time>
      </trkpt>
      <trkpt lat="46.13046" lon="6.37599">
        <ele>691</ele>
        <time>2011-04-03T11:45:45Z</time>
      </trkpt>
      <trkpt lat="46.13058" lon="6.37593">
        <ele>691</ele>
        <time>2011-04-03T11:45:47Z</time>
      </trkpt>
      <trkpt lat="46.13071" lon="6.3759">
        <ele>691</ele>
        <time>2011-04-03T11:45:50Z</time>
      </trkpt>
      <trkpt lat="46.13082" lon="6.37592">
        <ele>691</ele>
        <time>2011-04-03T11:45:52Z</time>
      </trkpt>
      <trkpt lat="46.13097" lon="6.37595">
        <ele>691</ele>
        <time>2011-04-03T11:45:54Z</time>
      </trkpt>
      <trkpt lat="46.13114" lon="6.37594">
        <ele>691</ele>
        <time>2011-04-03T11:45:56Z</time>
      </trkpt>
      <trkpt lat="46.13129" lon="6.37586">
        <ele>691</ele>
        <time>2011-04-03T11:45:58Z</time>
      </trkpt>
      <trkpt lat="46.13142" lon="6.37573">
        <ele>697</ele>
        <time>2011-04-03T11:46:00Z</time>
      </trkpt>
      <trkpt lat="46.13155" lon="6.3756">
        <ele>697</ele>
        <time>2011-04-03T11:46:02Z</time>
      </trkpt>
      <trkpt lat="46.13162" lon="6.37546">
        <ele>697</ele>
        <time>2011-04-03T11:46:04Z</time>
      </trkpt>
      <trkpt lat="46.1316" lon="6.37533">
        <ele>697</ele>
        <time>2011-04-03T11:46:06Z</time>
      </trkpt>
      <trkpt lat="46.1315" lon="6.37531">
        <ele>697</ele>
        <time>2011-04-03T11:46:30Z</time>
      </trkpt>
      <trkpt lat="46.13144" lon="6.37542">
        <ele>697</ele>
        <time>2011-04-03T11:46:33Z</time>
      </trkpt>
      <trkpt lat="46.13137" lon="6.37553">
        <ele>697</ele>
        <time>2011-04-03T11:46:36Z</time>
      </trkpt>
      <trkpt lat="46.13135" lon="6.37569">
        <ele>697</ele>
        <time>2011-04-03T11:46:40Z</time>
      </trkpt>
      <trkpt lat="46.13127" lon="6.37582">
        <ele>697</ele>
        <time>2011-04-03T11:46:43Z</time>
      </trkpt>
      <trkpt lat="46.13117" lon="6.37589">
        <ele>697</ele>
        <time>2011-04-03T11:46:45Z</time>
      </trkpt>
      <trkpt lat="46.13105" lon="6.37594">
        <ele>697</ele>
        <time>2011-04-03T11:46:47Z</time>
      </trkpt>
      <trkpt lat="46.13095" lon="6.37594">
        <ele>697</ele>
        <time>2011-04-03T11:46:49Z</time>
      </trkpt>
      <trkpt lat="46.13082" lon="6.37592">
        <ele>697</ele>
        <time>2011-04-03T11:46:51Z</time>
      </trkpt>
      <trkpt lat="46.13072" lon="6.3759">
        <ele>697</ele>
        <time>2011-04-03T11:46:53Z</time>
      </trkpt>
      <trkpt lat="46.13059" lon="6.37593">
        <ele>697</ele>
        <time>2011-04-03T11:46:56Z</time>
      </trkpt>
      <trkpt lat="46.1305" lon="6.37596">
        <ele>697</ele>
        <time>2011-04-03T11:46:58Z</time>
      </trkpt>
      <trkpt lat="46.13039" lon="6.37604">
        <ele>697</ele>
        <time>2011-04-03T11:47:01Z</time>
      </trkpt>
      <trkpt lat="46.13048" lon="6.37603">
        <ele>687</ele>
        <time>2011-04-03T11:49:29Z</time>
      </trkpt>
      <trkpt lat="46.13039" lon="6.37606">
        <ele>693</ele>
        <time>2011-04-03T11:53:01Z</time>
      </trkpt>
      <trkpt lat="46.13041" lon="6.37593">
        <ele>687</ele>
        <time>2011-04-03T11:56:24Z</time>
      </trkpt>
      <trkpt lat="46.13044" lon="6.37605">
        <ele>687</ele>
        <time>2011-04-03T11:57:10Z</time>
      </trkpt>
      <trkpt lat="46.13034" lon="6.37604">
        <ele>687</ele>
        <time>2011-04-03T12:05:07Z</time>
      </trkpt>
      <trkpt lat="46.13044" lon="6.37605">
        <ele>687</ele>
        <time>2011-04-03T12:06:18Z</time>
      </trkpt>
      <trkpt lat="46.13035" lon="6.37613">
        <ele>693</ele>
        <time>2011-04-03T12:08:24Z</time>
      </trkpt>
      <trkpt lat="46.13045" lon="6.37604">
        <ele>693</ele>
        <time>2011-04-03T12:08:54Z</time>
      </trkpt>
      <trkpt lat="46.13054" lon="6.37597">
        <ele>693</ele>
        <time>2011-04-03T12:08:56Z</time>
      </trkpt>
      <trkpt lat="46.13068" lon="6.37595">
        <ele>693</ele>
        <time>2011-04-03T12:08:58Z</time>
      </trkpt>
      <trkpt lat="46.13083" lon="6.37597">
        <ele>693</ele>
        <time>2011-04-03T12:09:00Z</time>
      </trkpt>
      <trkpt lat="46.131" lon="6.37597">
        <ele>693</ele>
        <time>2011-04-03T12:09:02Z</time>
      </trkpt>
      <trkpt lat="46.13119" lon="6.3759">
        <ele>693</ele>
        <time>2011-04-03T12:09:04Z</time>
      </trkpt>
      <trkpt lat="46.1313" lon="6.37582">
        <ele>693</ele>
        <time>2011-04-03T12:09:05Z</time>
      </trkpt>
      <trkpt lat="46.1314" lon="6.37573">
        <ele>693</ele>
        <time>2011-04-03T12:09:06Z</time>
      </trkpt>
      <trkpt lat="46.13149" lon="6.37565">
        <ele>693</ele>
        <time>2011-04-03T12:09:07Z</time>
      </trkpt>
      <trkpt lat="46.1316" lon="6.37548">
        <ele>699</ele>
        <time>2011-04-03T12:09:09Z</time>
      </trkpt>
      <trkpt lat="46.13155" lon="6.37526">
        <ele>699</ele>
        <time>2011-04-03T12:09:11Z</time>
      </trkpt>
      <trkpt lat="46.1315" lon="6.37512">
        <ele>699</ele>
        <time>2011-04-03T12:09:12Z</time>
      </trkpt>
      <trkpt lat="46.13145" lon="6.37498">
        <ele>699</ele>
        <time>2011-04-03T12:09:13Z</time>
      </trkpt>
      <trkpt lat="46.13137" lon="6.37483">
        <ele>699</ele>
        <time>2011-04-03T12:09:14Z</time>
      </trkpt>
      <trkpt lat="46.1313" lon="6.37471">
        <ele>699</ele>
        <time>2011-04-03T12:09:15Z</time>
      </trkpt>
      <trkpt lat="46.13119" lon="6.37458">
        <ele>704</ele>
        <time>2011-04-03T12:09:16Z</time>
      </trkpt>
      <trkpt lat="46.13109" lon="6.37447">
        <ele>704</ele>
        <time>2011-04-03T12:09:17Z</time>
      </trkpt>
      <trkpt lat="46.131" lon="6.37435">
        <ele>704</ele>
        <time>2011-04-03T12:09:18Z</time>
      </trkpt>
      <trkpt lat="46.1309" lon="6.37422">
        <ele>704</ele>
        <time>2011-04-03T12:09:19Z</time>
      </trkpt>
      <trkpt lat="46.13083" lon="6.37405">
        <ele>704</ele>
        <time>2011-04-03T12:09:20Z</time>
      </trkpt>
      <trkpt lat="46.13076" lon="6.37386">
        <ele>704</ele>
        <time>2011-04-03T12:09:21Z</time>
      </trkpt>
      <trkpt lat="46.13069" lon="6.37366">
        <ele>709</ele>
        <time>2011-04-03T12:09:22Z</time>
      </trkpt>
      <trkpt lat="46.13061" lon="6.37347">
        <ele>709</ele>
        <time>2011-04-03T12:09:23Z</time>
      </trkpt>
      <trkpt lat="46.13052" lon="6.37328">
        <ele>709</ele>
        <time>2011-04-03T12:09:24Z</time>
      </trkpt>
      <trkpt lat="46.13042" lon="6.37309">
        <ele>709</ele>
        <time>2011-04-03T12:09:25Z</time>
      </trkpt>
      <trkpt lat="46.13034" lon="6.3729">
        <ele>715</ele>
        <time>2011-04-03T12:09:26Z</time>
      </trkpt>
      <trkpt lat="46.13026" lon="6.37273">
        <ele>715</ele>
        <time>2011-04-03T12:09:27Z</time>
      </trkpt>
      <trkpt lat="46.13018" lon="6.37257">
        <ele>715</ele>
        <time>2011-04-03T12:09:28Z</time>
      </trkpt>
      <trkpt lat="46.1301" lon="6.37242">
        <ele>715</ele>
        <time>2011-04-03T12:09:29Z</time>
      </trkpt>
      <trkpt lat="46.13002" lon="6.37228">
        <ele>720</ele>
        <time>2011-04-03T12:09:30Z</time>
      </trkpt>
      <trkpt lat="46.12994" lon="6.37216">
        <ele>720</ele>
        <time>2011-04-03T12:09:31Z</time>
      </trkpt>
      <trkpt lat="46.12984" lon="6.372">
        <ele>720</ele>
        <time>2011-04-03T12:09:33Z</time>
      </trkpt>
      <trkpt lat="46.12976" lon="6.37183">
        <ele>720</ele>
        <time>2011-04-03T12:09:35Z</time>
      </trkpt>
      <trkpt lat="46.12968" lon="6.37161">
        <ele>726</ele>
        <time>2011-04-03T12:09:37Z</time>
      </trkpt>
      <trkpt lat="46.12964" lon="6.37148">
        <ele>726</ele>
        <time>2011-04-03T12:09:38Z</time>
      </trkpt>
      <trkpt lat="46.12958" lon="6.37135">
        <ele>726</ele>
        <time>2011-04-03T12:09:39Z</time>
      </trkpt>
      <trkpt lat="46.12951" lon="6.37122">
        <ele>726</ele>
        <time>2011-04-03T12:09:40Z</time>
      </trkpt>
      <trkpt lat="46.12944" lon="6.37111">
        <ele>726</ele>
        <time>2011-04-03T12:09:41Z</time>
      </trkpt>
      <trkpt lat="46.12937" lon="6.37101">
        <ele>726</ele>
        <time>2011-04-03T12:09:42Z</time>
      </trkpt>
      <trkpt lat="46.12929" lon="6.37091">
        <ele>726</ele>
        <time>2011-04-03T12:09:43Z</time>
      </trkpt>
      <trkpt lat="46.12922" lon="6.37082">
        <ele>726</ele>
        <time>2011-04-03T12:09:44Z</time>
      </trkpt>
      <trkpt lat="46.12915" lon="6.3707">
        <ele>726</ele>
        <time>2011-04-03T12:09:45Z</time>
      </trkpt>
      <trkpt lat="46.12907" lon="6.37057">
        <ele>726</ele>
        <time>2011-04-03T12:09:46Z</time>
      </trkpt>
      <trkpt lat="46.12901" lon="6.37043">
        <ele>726</ele>
        <time>2011-04-03T12:09:47Z</time>
      </trkpt>
      <trkpt lat="46.12893" lon="6.37028">
        <ele>726</ele>
        <time>2011-04-03T12:09:48Z</time>
      </trkpt>
      <trkpt lat="46.12885" lon="6.37012">
        <ele>726</ele>
        <time>2011-04-03T12:09:49Z</time>
      </trkpt>
      <trkpt lat="46.12876" lon="6.36997">
        <ele>726</ele>
        <time>2011-04-03T12:09:50Z</time>
      </trkpt>
      <trkpt lat="46.12867" lon="6.36982">
        <ele>726</ele>
        <time>2011-04-03T12:09:51Z</time>
      </trkpt>
      <trkpt lat="46.12858" lon="6.36968">
        <ele>726</ele>
        <time>2011-04-03T12:09:52Z</time>
      </trkpt>
      <trkpt lat="46.12847" lon="6.36957">
        <ele>726</ele>
        <time>2011-04-03T12:09:53Z</time>
      </trkpt>
      <trkpt lat="46.12836" lon="6.36945">
        <ele>726</ele>
        <time>2011-04-03T12:09:54Z</time>
      </trkpt>
      <trkpt lat="46.12823" lon="6.36933">
        <ele>726</ele>
        <time>2011-04-03T12:09:55Z</time>
      </trkpt>
      <trkpt lat="46.1281" lon="6.36922">
        <ele>726</ele>
        <time>2011-04-03T12:09:56Z</time>
      </trkpt>
      <trkpt lat="46.12796" lon="6.3691">
        <ele>721</ele>
        <time>2011-04-03T12:09:57Z</time>
      </trkpt>
      <trkpt lat="46.12783" lon="6.36897">
        <ele>721</ele>
        <time>2011-04-03T12:09:58Z</time>
      </trkpt>
      <trkpt lat="46.1277" lon="6.36883">
        <ele>721</ele>
        <time>2011-04-03T12:09:59Z</time>
      </trkpt>
      <trkpt lat="46.12758" lon="6.3687">
        <ele>721</ele>
        <time>2011-04-03T12:10:00Z</time>
      </trkpt>
      <trkpt lat="46.12747" lon="6.36855">
        <ele>721</ele>
        <time>2011-04-03T12:10:01Z</time>
      </trkpt>
      <trkpt lat="46.12736" lon="6.36842">
        <ele>721</ele>
        <time>2011-04-03T12:10:02Z</time>
      </trkpt>
      <trkpt lat="46.12727" lon="6.36829">
        <ele>721</ele>
        <time>2011-04-03T12:10:03Z</time>
      </trkpt>
      <trkpt lat="46.12718" lon="6.36818">
        <ele>721</ele>
        <time>2011-04-03T12:10:04Z</time>
      </trkpt>
      <trkpt lat="46.12711" lon="6.36808">
        <ele>721</ele>
        <time>2011-04-03T12:10:05Z</time>
      </trkpt>
      <trkpt lat="46.12699" lon="6.36792">
        <ele>721</ele>
        <time>2011-04-03T12:10:07Z</time>
      </trkpt>
      <trkpt lat="46.12686" lon="6.36788">
        <ele>721</ele>
        <time>2011-04-03T12:10:09Z</time>
      </trkpt>
      <trkpt lat="46.12668" lon="6.36794">
        <ele>721</ele>
        <time>2011-04-03T12:10:11Z</time>
      </trkpt>
      <trkpt lat="46.12657" lon="6.368">
        <ele>721</ele>
        <time>2011-04-03T12:10:12Z</time>
      </trkpt>
      <trkpt lat="46.12646" lon="6.36808">
        <ele>721</ele>
        <time>2011-04-03T12:10:13Z</time>
      </trkpt>
      <trkpt lat="46.12636" lon="6.36816">
        <ele>721</ele>
        <time>2011-04-03T12:10:14Z</time>
      </trkpt>
      <trkpt lat="46.12629" lon="6.36825">
        <ele>721</ele>
        <time>2011-04-03T12:10:15Z</time>
      </trkpt>
      <trkpt lat="46.12624" lon="6.36836">
        <ele>721</ele>
        <time>2011-04-03T12:10:16Z</time>
      </trkpt>
      <trkpt lat="46.12621" lon="6.36849">
        <ele>721</ele>
        <time>2011-04-03T12:10:17Z</time>
      </trkpt>
      <trkpt lat="46.12621" lon="6.36862">
        <ele>721</ele>
        <time>2011-04-03T12:10:18Z</time>
      </trkpt>
      <trkpt lat="46.1262" lon="6.36878">
        <ele>721</ele>
        <time>2011-04-03T12:10:19Z</time>
      </trkpt>
      <trkpt lat="46.12618" lon="6.36893">
        <ele>721</ele>
        <time>2011-04-03T12:10:20Z</time>
      </trkpt>
      <trkpt lat="46.12618" lon="6.36908">
        <ele>726</ele>
        <time>2011-04-03T12:10:21Z</time>
      </trkpt>
      <trkpt lat="46.12616" lon="6.36932">
        <ele>726</ele>
        <time>2011-04-03T12:10:23Z</time>
      </trkpt>
      <trkpt lat="46.12611" lon="6.3695">
        <ele>726</ele>
        <time>2011-04-03T12:10:25Z</time>
      </trkpt>
      <trkpt lat="46.126" lon="6.36965">
        <ele>732</ele>
        <time>2011-04-03T12:10:27Z</time>
      </trkpt>
      <trkpt lat="46.12584" lon="6.36975">
        <ele>732</ele>
        <time>2011-04-03T12:10:29Z</time>
      </trkpt>
      <trkpt lat="46.12575" lon="6.36978">
        <ele>732</ele>
        <time>2011-04-03T12:10:30Z</time>
      </trkpt>
      <trkpt lat="46.12566" lon="6.36982">
        <ele>732</ele>
        <time>2011-04-03T12:10:31Z</time>
      </trkpt>
      <trkpt lat="46.12556" lon="6.36986">
        <ele>732</ele>
        <time>2011-04-03T12:10:32Z</time>
      </trkpt>
      <trkpt lat="46.12545" lon="6.36991">
        <ele>732</ele>
        <time>2011-04-03T12:10:33Z</time>
      </trkpt>
      <trkpt lat="46.12536" lon="6.36995">
        <ele>732</ele>
        <time>2011-04-03T12:10:34Z</time>
      </trkpt>
      <trkpt lat="46.12527" lon="6.36999">
        <ele>732</ele>
        <time>2011-04-03T12:10:35Z</time>
      </trkpt>
      <trkpt lat="46.12511" lon="6.37008">
        <ele>732</ele>
        <time>2011-04-03T12:10:37Z</time>
      </trkpt>
      <trkpt lat="46.12503" lon="6.37015">
        <ele>732</ele>
        <time>2011-04-03T12:10:38Z</time>
      </trkpt>
      <trkpt lat="46.12495" lon="6.37023">
        <ele>732</ele>
        <time>2011-04-03T12:10:39Z</time>
      </trkpt>
      <trkpt lat="46.12483" lon="6.37042">
        <ele>732</ele>
        <time>2011-04-03T12:10:41Z</time>
      </trkpt>
      <trkpt lat="46.12478" lon="6.37057">
        <ele>732</ele>
        <time>2011-04-03T12:10:42Z</time>
      </trkpt>
      <trkpt lat="46.12474" lon="6.37075">
        <ele>732</ele>
        <time>2011-04-03T12:10:43Z</time>
      </trkpt>
      <trkpt lat="46.1247" lon="6.37097">
        <ele>732</ele>
        <time>2011-04-03T12:10:44Z</time>
      </trkpt>
      <trkpt lat="46.12465" lon="6.37118">
        <ele>737</ele>
        <time>2011-04-03T12:10:45Z</time>
      </trkpt>
      <trkpt lat="46.12462" lon="6.37136">
        <ele>737</ele>
        <time>2011-04-03T12:10:46Z</time>
      </trkpt>
      <trkpt lat="46.1246" lon="6.37152">
        <ele>737</ele>
        <time>2011-04-03T12:10:47Z</time>
      </trkpt>
      <trkpt lat="46.1246" lon="6.37166">
        <ele>737</ele>
        <time>2011-04-03T12:10:48Z</time>
      </trkpt>
      <trkpt lat="46.1246" lon="6.3718">
        <ele>737</ele>
        <time>2011-04-03T12:10:49Z</time>
      </trkpt>
      <trkpt lat="46.1246" lon="6.37204">
        <ele>737</ele>
        <time>2011-04-03T12:10:51Z</time>
      </trkpt>
      <trkpt lat="46.1246" lon="6.37219">
        <ele>737</ele>
        <time>2011-04-03T12:10:53Z</time>
      </trkpt>
      <trkpt lat="46.1247" lon="6.37231">
        <ele>737</ele>
        <time>2011-04-03T12:10:55Z</time>
      </trkpt>
      <trkpt lat="46.1248" lon="6.37242">
        <ele>737</ele>
        <time>2011-04-03T12:10:57Z</time>
      </trkpt>
      <trkpt lat="46.12468" lon="6.37242">
        <ele>737</ele>
        <time>2011-04-03T12:11:03Z</time>
      </trkpt>
      <trkpt lat="46.12456" lon="6.37235">
        <ele>737</ele>
        <time>2011-04-03T12:11:04Z</time>
      </trkpt>
      <trkpt lat="46.12444" lon="6.37229">
        <ele>737</ele>
        <time>2011-04-03T12:11:05Z</time>
      </trkpt>
      <trkpt lat="46.1243" lon="6.37222">
        <ele>737</ele>
        <time>2011-04-03T12:11:06Z</time>
      </trkpt>
      <trkpt lat="46.12415" lon="6.37217">
        <ele>737</ele>
        <time>2011-04-03T12:11:07Z</time>
      </trkpt>
      <trkpt lat="46.124" lon="6.37213">
        <ele>737</ele>
        <time>2011-04-03T12:11:08Z</time>
      </trkpt>
      <trkpt lat="46.12387" lon="6.37208">
        <ele>737</ele>
        <time>2011-04-03T12:11:09Z</time>
      </trkpt>
      <trkpt lat="46.12374" lon="6.37205">
        <ele>737</ele>
        <time>2011-04-03T12:11:10Z</time>
      </trkpt>
      <trkpt lat="46.12362" lon="6.37201">
        <ele>737</ele>
        <time>2011-04-03T12:11:11Z</time>
      </trkpt>
      <trkpt lat="46.12352" lon="6.37198">
        <ele>737</ele>
        <time>2011-04-03T12:11:12Z</time>
      </trkpt>
      <trkpt lat="46.12343" lon="6.37194">
        <ele>737</ele>
        <time>2011-04-03T12:11:13Z</time>
      </trkpt>
      <trkpt lat="46.12334" lon="6.3719">
        <ele>737</ele>
        <time>2011-04-03T12:11:14Z</time>
      </trkpt>
      <trkpt lat="46.12325" lon="6.37187">
        <ele>737</ele>
        <time>2011-04-03T12:11:15Z</time>
      </trkpt>
      <trkpt lat="46.12315" lon="6.37182">
        <ele>737</ele>
        <time>2011-04-03T12:11:16Z</time>
      </trkpt>
      <trkpt lat="46.12305" lon="6.37178">
        <ele>737</ele>
        <time>2011-04-03T12:11:17Z</time>
      </trkpt>
      <trkpt lat="46.12296" lon="6.37174">
        <ele>737</ele>
        <time>2011-04-03T12:11:18Z</time>
      </trkpt>
      <trkpt lat="46.12279" lon="6.3717">
        <ele>737</ele>
        <time>2011-04-03T12:11:20Z</time>
      </trkpt>
      <trkpt lat="46.1227" lon="6.37166">
        <ele>737</ele>
        <time>2011-04-03T12:11:21Z</time>
      </trkpt>
      <trkpt lat="46.12261" lon="6.3716">
        <ele>737</ele>
        <time>2011-04-03T12:11:22Z</time>
      </trkpt>
      <trkpt lat="46.12251" lon="6.37153">
        <ele>737</ele>
        <time>2011-04-03T12:11:23Z</time>
      </trkpt>
      <trkpt lat="46.12242" lon="6.37145">
        <ele>737</ele>
        <time>2011-04-03T12:11:24Z</time>
      </trkpt>
      <trkpt lat="46.12232" lon="6.37139">
        <ele>737</ele>
        <time>2011-04-03T12:11:25Z</time>
      </trkpt>
      <trkpt lat="46.12215" lon="6.37132">
        <ele>737</ele>
        <time>2011-04-03T12:11:27Z</time>
      </trkpt>
      <trkpt lat="46.12197" lon="6.37134">
        <ele>737</ele>
        <time>2011-04-03T12:11:29Z</time>
      </trkpt>
      <trkpt lat="46.12187" lon="6.37139">
        <ele>737</ele>
        <time>2011-04-03T12:11:30Z</time>
      </trkpt>
      <trkpt lat="46.12177" lon="6.37146">
        <ele>737</ele>
        <time>2011-04-03T12:11:31Z</time>
      </trkpt>
      <trkpt lat="46.12169" lon="6.37153">
        <ele>737</ele>
        <time>2011-04-03T12:11:32Z</time>
      </trkpt>
      <trkpt lat="46.12157" lon="6.3716">
        <ele>737</ele>
        <time>2011-04-03T12:11:34Z</time>
      </trkpt>
      <trkpt lat="46.12145" lon="6.37168">
        <ele>737</ele>
        <time>2011-04-03T12:11:37Z</time>
      </trkpt>
      <trkpt lat="46.12133" lon="6.37184">
        <ele>737</ele>
        <time>2011-04-03T12:11:39Z</time>
      </trkpt>
      <trkpt lat="46.12125" lon="6.37194">
        <ele>737</ele>
        <time>2011-04-03T12:11:40Z</time>
      </trkpt>
      <trkpt lat="46.12116" lon="6.37204">
        <ele>737</ele>
        <time>2011-04-03T12:11:41Z</time>
      </trkpt>
      <trkpt lat="46.12107" lon="6.37216">
        <ele>737</ele>
        <time>2011-04-03T12:11:42Z</time>
      </trkpt>
      <trkpt lat="46.12099" lon="6.37226">
        <ele>737</ele>
        <time>2011-04-03T12:11:43Z</time>
      </trkpt>
      <trkpt lat="46.12089" lon="6.37237">
        <ele>737</ele>
        <time>2011-04-03T12:11:44Z</time>
      </trkpt>
      <trkpt lat="46.12079" lon="6.37247">
        <ele>737</ele>
        <time>2011-04-03T12:11:45Z</time>
      </trkpt>
      <trkpt lat="46.12067" lon="6.37255">
        <ele>737</ele>
        <time>2011-04-03T12:11:46Z</time>
      </trkpt>
      <trkpt lat="46.12055" lon="6.37261">
        <ele>737</ele>
        <time>2011-04-03T12:11:47Z</time>
      </trkpt>
      <trkpt lat="46.12042" lon="6.37265">
        <ele>737</ele>
        <time>2011-04-03T12:11:48Z</time>
      </trkpt>
      <trkpt lat="46.12028" lon="6.37266">
        <ele>737</ele>
        <time>2011-04-03T12:11:49Z</time>
      </trkpt>
      <trkpt lat="46.12015" lon="6.37266">
        <ele>737</ele>
        <time>2011-04-03T12:11:50Z</time>
      </trkpt>
      <trkpt lat="46.12002" lon="6.37265">
        <ele>737</ele>
        <time>2011-04-03T12:11:51Z</time>
      </trkpt>
      <trkpt lat="46.11988" lon="6.37264">
        <ele>737</ele>
        <time>2011-04-03T12:11:52Z</time>
      </trkpt>
      <trkpt lat="46.11976" lon="6.37263">
        <ele>737</ele>
        <time>2011-04-03T12:11:53Z</time>
      </trkpt>
      <trkpt lat="46.11964" lon="6.37263">
        <ele>737</ele>
        <time>2011-04-03T12:11:54Z</time>
      </trkpt>
      <trkpt lat="46.11952" lon="6.37266">
        <ele>737</ele>
        <time>2011-04-03T12:11:55Z</time>
      </trkpt>
      <trkpt lat="46.11941" lon="6.3727">
        <ele>742</ele>
        <time>2011-04-03T12:11:56Z</time>
      </trkpt>
      <trkpt lat="46.11928" lon="6.37275">
        <ele>742</ele>
        <time>2011-04-03T12:11:57Z</time>
      </trkpt>
      <trkpt lat="46.11916" lon="6.37279">
        <ele>742</ele>
        <time>2011-04-03T12:11:58Z</time>
      </trkpt>
      <trkpt lat="46.11903" lon="6.37283">
        <ele>742</ele>
        <time>2011-04-03T12:11:59Z</time>
      </trkpt>
      <trkpt lat="46.1189" lon="6.37286">
        <ele>742</ele>
        <time>2011-04-03T12:12:00Z</time>
      </trkpt>
      <trkpt lat="46.11877" lon="6.37285">
        <ele>742</ele>
        <time>2011-04-03T12:12:01Z</time>
      </trkpt>
      <trkpt lat="46.11865" lon="6.37283">
        <ele>742</ele>
        <time>2011-04-03T12:12:02Z</time>
      </trkpt>
      <trkpt lat="46.11852" lon="6.37278">
        <ele>747</ele>
        <time>2011-04-03T12:12:03Z</time>
      </trkpt>
      <trkpt lat="46.11839" lon="6.37272">
        <ele>747</ele>
        <time>2011-04-03T12:12:04Z</time>
      </trkpt>
      <trkpt lat="46.11827" lon="6.37265">
        <ele>747</ele>
        <time>2011-04-03T12:12:05Z</time>
      </trkpt>
      <trkpt lat="46.11815" lon="6.37259">
        <ele>747</ele>
        <time>2011-04-03T12:12:06Z</time>
      </trkpt>
      <trkpt lat="46.11803" lon="6.37254">
        <ele>747</ele>
        <time>2011-04-03T12:12:07Z</time>
      </trkpt>
      <trkpt lat="46.11791" lon="6.37252">
        <ele>753</ele>
        <time>2011-04-03T12:12:08Z</time>
      </trkpt>
      <trkpt lat="46.11777" lon="6.37255">
        <ele>753</ele>
        <time>2011-04-03T12:12:09Z</time>
      </trkpt>
      <trkpt lat="46.11763" lon="6.3726">
        <ele>753</ele>
        <time>2011-04-03T12:12:10Z</time>
      </trkpt>
      <trkpt lat="46.11748" lon="6.37266">
        <ele>753</ele>
        <time>2011-04-03T12:12:11Z</time>
      </trkpt>
      <trkpt lat="46.11729" lon="6.37273">
        <ele>753</ele>
        <time>2011-04-03T12:12:12Z</time>
      </trkpt>
      <trkpt lat="46.11709" lon="6.37281">
        <ele>759</ele>
        <time>2011-04-03T12:12:13Z</time>
      </trkpt>
      <trkpt lat="46.11688" lon="6.37291">
        <ele>759</ele>
        <time>2011-04-03T12:12:14Z</time>
      </trkpt>
      <trkpt lat="46.11667" lon="6.373">
        <ele>759</ele>
        <time>2011-04-03T12:12:15Z</time>
      </trkpt>
      <trkpt lat="46.11648" lon="6.37311">
        <ele>759</ele>
        <time>2011-04-03T12:12:16Z</time>
      </trkpt>
      <trkpt lat="46.11631" lon="6.37323">
        <ele>766</ele>
        <time>2011-04-03T12:12:17Z</time>
      </trkpt>
      <trkpt lat="46.11616" lon="6.37337">
        <ele>766</ele>
        <time>2011-04-03T12:12:18Z</time>
      </trkpt>
      <trkpt lat="46.11603" lon="6.3735">
        <ele>766</ele>
        <time>2011-04-03T12:12:19Z</time>
      </trkpt>
      <trkpt lat="46.1159" lon="6.3736">
        <ele>766</ele>
        <time>2011-04-03T12:12:20Z</time>
      </trkpt>
      <trkpt lat="46.11578" lon="6.37368">
        <ele>771</ele>
        <time>2011-04-03T12:12:21Z</time>
      </trkpt>
      <trkpt lat="46.11567" lon="6.37374">
        <ele>771</ele>
        <time>2011-04-03T12:12:22Z</time>
      </trkpt>
      <trkpt lat="46.11555" lon="6.37376">
        <ele>771</ele>
        <time>2011-04-03T12:12:23Z</time>
      </trkpt>
      <trkpt lat="46.11543" lon="6.37379">
        <ele>771</ele>
        <time>2011-04-03T12:12:24Z</time>
      </trkpt>
      <trkpt lat="46.11531" lon="6.37381">
        <ele>777</ele>
        <time>2011-04-03T12:12:25Z</time>
      </trkpt>
      <trkpt lat="46.11517" lon="6.37381">
        <ele>777</ele>
        <time>2011-04-03T12:12:26Z</time>
      </trkpt>
      <trkpt lat="46.11504" lon="6.37379">
        <ele>777</ele>
        <time>2011-04-03T12:12:27Z</time>
      </trkpt>
      <trkpt lat="46.11491" lon="6.37374">
        <ele>777</ele>
        <time>2011-04-03T12:12:28Z</time>
      </trkpt>
      <trkpt lat="46.11478" lon="6.37366">
        <ele>783</ele>
        <time>2011-04-03T12:12:29Z</time>
      </trkpt>
      <trkpt lat="46.11465" lon="6.37358">
        <ele>783</ele>
        <time>2011-04-03T12:12:30Z</time>
      </trkpt>
      <trkpt lat="46.11451" lon="6.37354">
        <ele>783</ele>
        <time>2011-04-03T12:12:31Z</time>
      </trkpt>
      <trkpt lat="46.11435" lon="6.3735">
        <ele>783</ele>
        <time>2011-04-03T12:12:32Z</time>
      </trkpt>
      <trkpt lat="46.11418" lon="6.37348">
        <ele>783</ele>
        <time>2011-04-03T12:12:33Z</time>
      </trkpt>
      <trkpt lat="46.11401" lon="6.37344">
        <ele>790</ele>
        <time>2011-04-03T12:12:34Z</time>
      </trkpt>
      <trkpt lat="46.11383" lon="6.37341">
        <ele>790</ele>
        <time>2011-04-03T12:12:35Z</time>
      </trkpt>
      <trkpt lat="46.11365" lon="6.37339">
        <ele>790</ele>
        <time>2011-04-03T12:12:36Z</time>
      </trkpt>
      <trkpt lat="46.11348" lon="6.37338">
        <ele>790</ele>
        <time>2011-04-03T12:12:37Z</time>
      </trkpt>
      <trkpt lat="46.11333" lon="6.37336">
        <ele>797</ele>
        <time>2011-04-03T12:12:38Z</time>
      </trkpt>
      <trkpt lat="46.11321" lon="6.37334">
        <ele>797</ele>
        <time>2011-04-03T12:12:39Z</time>
      </trkpt>
      <trkpt lat="46.1131" lon="6.37332">
        <ele>797</ele>
        <time>2011-04-03T12:12:40Z</time>
      </trkpt>
      <trkpt lat="46.113" lon="6.3733">
        <ele>802</ele>
        <time>2011-04-03T12:12:41Z</time>
      </trkpt>
      <trkpt lat="46.1129" lon="6.3733">
        <ele>802</ele>
        <time>2011-04-03T12:12:42Z</time>
      </trkpt>
      <trkpt lat="46.11275" lon="6.37336">
        <ele>802</ele>
        <time>2011-04-03T12:12:44Z</time>
      </trkpt>
      <trkpt lat="46.11266" lon="6.37344">
        <ele>810</ele>
        <time>2011-04-03T12:12:47Z</time>
      </trkpt>
      <trkpt lat="46.11258" lon="6.37349">
        <ele>820</ele>
        <time>2011-04-03T12:13:00Z</time>
      </trkpt>
      <trkpt lat="46.11251" lon="6.37361">
        <ele>820</ele>
        <time>2011-04-03T12:13:22Z</time>
      </trkpt>
      <trkpt lat="46.11248" lon="6.37378">
        <ele>820</ele>
        <time>2011-04-03T12:13:24Z</time>
      </trkpt>
      <trkpt lat="46.11245" lon="6.37406">
        <ele>820</ele>
        <time>2011-04-03T12:13:26Z</time>
      </trkpt>
      <trkpt lat="46.11244" lon="6.37422">
        <ele>820</ele>
        <time>2011-04-03T12:13:27Z</time>
      </trkpt>
      <trkpt lat="46.11243" lon="6.37436">
        <ele>820</ele>
        <time>2011-04-03T12:13:28Z</time>
      </trkpt>
      <trkpt lat="46.11241" lon="6.3745">
        <ele>820</ele>
        <time>2011-04-03T12:13:29Z</time>
      </trkpt>
      <trkpt lat="46.11233" lon="6.3747">
        <ele>820</ele>
        <time>2011-04-03T12:13:31Z</time>
      </trkpt>
      <trkpt lat="46.11221" lon="6.37489">
        <ele>820</ele>
        <time>2011-04-03T12:13:33Z</time>
      </trkpt>
      <trkpt lat="46.11215" lon="6.375">
        <ele>820</ele>
        <time>2011-04-03T12:13:34Z</time>
      </trkpt>
      <trkpt lat="46.1121" lon="6.37513">
        <ele>820</ele>
        <time>2011-04-03T12:13:35Z</time>
      </trkpt>
      <trkpt lat="46.11204" lon="6.37526">
        <ele>827</ele>
        <time>2011-04-03T12:13:36Z</time>
      </trkpt>
      <trkpt lat="46.11198" lon="6.37541">
        <ele>827</ele>
        <time>2011-04-03T12:13:37Z</time>
      </trkpt>
      <trkpt lat="46.1119" lon="6.37558">
        <ele>827</ele>
        <time>2011-04-03T12:13:38Z</time>
      </trkpt>
      <trkpt lat="46.11183" lon="6.37575">
        <ele>833</ele>
        <time>2011-04-03T12:13:39Z</time>
      </trkpt>
      <trkpt lat="46.11174" lon="6.37593">
        <ele>833</ele>
        <time>2011-04-03T12:13:40Z</time>
      </trkpt>
      <trkpt lat="46.11166" lon="6.37611">
        <ele>833</ele>
        <time>2011-04-03T12:13:41Z</time>
      </trkpt>
      <trkpt lat="46.1116" lon="6.37626">
        <ele>833</ele>
        <time>2011-04-03T12:13:42Z</time>
      </trkpt>
      <trkpt lat="46.11151" lon="6.37643">
        <ele>839</ele>
        <time>2011-04-03T12:13:44Z</time>
      </trkpt>
      <trkpt lat="46.11139" lon="6.37655">
        <ele>839</ele>
        <time>2011-04-03T12:13:46Z</time>
      </trkpt>
      <trkpt lat="46.1113" lon="6.37661">
        <ele>839</ele>
        <time>2011-04-03T12:13:47Z</time>
      </trkpt>
      <trkpt lat="46.11122" lon="6.3767">
        <ele>844</ele>
        <time>2011-04-03T12:13:48Z</time>
      </trkpt>
      <trkpt lat="46.11112" lon="6.37678">
        <ele>844</ele>
        <time>2011-04-03T12:13:49Z</time>
      </trkpt>
      <trkpt lat="46.11104" lon="6.37687">
        <ele>844</ele>
        <time>2011-04-03T12:13:50Z</time>
      </trkpt>
      <trkpt lat="46.11095" lon="6.37699">
        <ele>844</ele>
        <time>2011-04-03T12:13:51Z</time>
      </trkpt>
      <trkpt lat="46.11087" lon="6.3771">
        <ele>850</ele>
        <time>2011-04-03T12:13:52Z</time>
      </trkpt>
      <trkpt lat="46.11078" lon="6.37723">
        <ele>850</ele>
        <time>2011-04-03T12:13:53Z</time>
      </trkpt>
      <trkpt lat="46.11069" lon="6.37736">
        <ele>850</ele>
        <time>2011-04-03T12:13:54Z</time>
      </trkpt>
      <trkpt lat="46.1106" lon="6.37745">
        <ele>850</ele>
        <time>2011-04-03T12:13:55Z</time>
      </trkpt>
      <trkpt lat="46.11048" lon="6.37757">
        <ele>857</ele>
        <time>2011-04-03T12:13:57Z</time>
      </trkpt>
      <trkpt lat="46.11035" lon="6.37761">
        <ele>857</ele>
        <time>2011-04-03T12:13:59Z</time>
      </trkpt>
      <trkpt lat="46.1102" lon="6.37763">
        <ele>857</ele>
        <time>2011-04-03T12:14:01Z</time>
      </trkpt>
      <trkpt lat="46.11002" lon="6.37767">
        <ele>857</ele>
        <time>2011-04-03T12:14:03Z</time>
      </trkpt>
      <trkpt lat="46.10991" lon="6.37769">
        <ele>857</ele>
        <time>2011-04-03T12:14:04Z</time>
      </trkpt>
      <trkpt lat="46.1098" lon="6.37771">
        <ele>857</ele>
        <time>2011-04-03T12:14:05Z</time>
      </trkpt>
      <trkpt lat="46.10968" lon="6.37775">
        <ele>857</ele>
        <time>2011-04-03T12:14:06Z</time>
      </trkpt>
      <trkpt lat="46.10955" lon="6.37781">
        <ele>857</ele>
        <time>2011-04-03T12:14:07Z</time>
      </trkpt>
      <trkpt lat="46.10941" lon="6.37786">
        <ele>862</ele>
        <time>2011-04-03T12:14:08Z</time>
      </trkpt>
      <trkpt lat="46.10928" lon="6.3779">
        <ele>862</ele>
        <time>2011-04-03T12:14:09Z</time>
      </trkpt>
      <trkpt lat="46.10917" lon="6.37794">
        <ele>862</ele>
        <time>2011-04-03T12:14:10Z</time>
      </trkpt>
      <trkpt lat="46.10907" lon="6.378">
        <ele>862</ele>
        <time>2011-04-03T12:14:11Z</time>
      </trkpt>
      <trkpt lat="46.10898" lon="6.3781">
        <ele>862</ele>
        <time>2011-04-03T12:14:12Z</time>
      </trkpt>
      <trkpt lat="46.10888" lon="6.37823">
        <ele>862</ele>
        <time>2011-04-03T12:14:13Z</time>
      </trkpt>
      <trkpt lat="46.1088" lon="6.37836">
        <ele>862</ele>
        <time>2011-04-03T12:14:14Z</time>
      </trkpt>
      <trkpt lat="46.10873" lon="6.3785">
        <ele>868</ele>
        <time>2011-04-03T12:14:15Z</time>
      </trkpt>
      <trkpt lat="46.10866" lon="6.37863">
        <ele>868</ele>
        <time>2011-04-03T12:14:16Z</time>
      </trkpt>
      <trkpt lat="46.10859" lon="6.37877">
        <ele>868</ele>
        <time>2011-04-03T12:14:17Z</time>
      </trkpt>
      <trkpt lat="46.10852" lon="6.37889">
        <ele>868</ele>
        <time>2011-04-03T12:14:18Z</time>
      </trkpt>
      <trkpt lat="46.10847" lon="6.37902">
        <ele>873</ele>
        <time>2011-04-03T12:14:19Z</time>
      </trkpt>
      <trkpt lat="46.10842" lon="6.37913">
        <ele>873</ele>
        <time>2011-04-03T12:14:20Z</time>
      </trkpt>
      <trkpt lat="46.10836" lon="6.37924">
        <ele>873</ele>
        <time>2011-04-03T12:14:21Z</time>
      </trkpt>
      <trkpt lat="46.1083" lon="6.37935">
        <ele>873</ele>
        <time>2011-04-03T12:14:22Z</time>
      </trkpt>
      <trkpt lat="46.10821" lon="6.37951">
        <ele>881</ele>
        <time>2011-04-03T12:14:24Z</time>
      </trkpt>
      <trkpt lat="46.1081" lon="6.37963">
        <ele>881</ele>
        <time>2011-04-03T12:14:26Z</time>
      </trkpt>
      <trkpt lat="46.10799" lon="6.37974">
        <ele>887</ele>
        <time>2011-04-03T12:14:28Z</time>
      </trkpt>
      <trkpt lat="46.10788" lon="6.37986">
        <ele>887</ele>
        <time>2011-04-03T12:14:30Z</time>
      </trkpt>
      <trkpt lat="46.10782" lon="6.37997">
        <ele>892</ele>
        <time>2011-04-03T12:14:32Z</time>
      </trkpt>
      <trkpt lat="46.10772" lon="6.38007">
        <ele>903</ele>
        <time>2011-04-03T12:14:45Z</time>
      </trkpt>
      <trkpt lat="46.10763" lon="6.38016">
        <ele>903</ele>
        <time>2011-04-03T12:14:48Z</time>
      </trkpt>
      <trkpt lat="46.1075" lon="6.38026">
        <ele>903</ele>
        <time>2011-04-03T12:14:51Z</time>
      </trkpt>
      <trkpt lat="46.10738" lon="6.38025">
        <ele>910</ele>
        <time>2011-04-03T12:14:54Z</time>
      </trkpt>
      <trkpt lat="46.10729" lon="6.38017">
        <ele>910</ele>
        <time>2011-04-03T12:14:57Z</time>
      </trkpt>
      <trkpt lat="46.1072" lon="6.38016">
        <ele>922</ele>
        <time>2011-04-03T12:15:05Z</time>
      </trkpt>
      <trkpt lat="46.10712" lon="6.38023">
        <ele>922</ele>
        <time>2011-04-03T12:15:12Z</time>
      </trkpt>
      <trkpt lat="46.10702" lon="6.38033">
        <ele>922</ele>
        <time>2011-04-03T12:15:14Z</time>
      </trkpt>
      <trkpt lat="46.1069" lon="6.38049">
        <ele>922</ele>
        <time>2011-04-03T12:15:16Z</time>
      </trkpt>
      <trkpt lat="46.10681" lon="6.3807">
        <ele>922</ele>
        <time>2011-04-03T12:15:18Z</time>
      </trkpt>
      <trkpt lat="46.10677" lon="6.38082">
        <ele>922</ele>
        <time>2011-04-03T12:15:19Z</time>
      </trkpt>
      <trkpt lat="46.10677" lon="6.38103">
        <ele>922</ele>
        <time>2011-04-03T12:15:21Z</time>
      </trkpt>
      <trkpt lat="46.10677" lon="6.38118">
        <ele>922</ele>
        <time>2011-04-03T12:15:25Z</time>
      </trkpt>
      <trkpt lat="46.10665" lon="6.38134">
        <ele>915</ele>
        <time>2011-04-03T12:15:28Z</time>
      </trkpt>
      <trkpt lat="46.10649" lon="6.38146">
        <ele>915</ele>
        <time>2011-04-03T12:15:30Z</time>
      </trkpt>
      <trkpt lat="46.1064" lon="6.38152">
        <ele>915</ele>
        <time>2011-04-03T12:15:31Z</time>
      </trkpt>
      <trkpt lat="46.10629" lon="6.38158">
        <ele>915</ele>
        <time>2011-04-03T12:15:32Z</time>
      </trkpt>
      <trkpt lat="46.10619" lon="6.38164">
        <ele>915</ele>
        <time>2011-04-03T12:15:33Z</time>
      </trkpt>
      <trkpt lat="46.10609" lon="6.38171">
        <ele>915</ele>
        <time>2011-04-03T12:15:34Z</time>
      </trkpt>
      <trkpt lat="46.106" lon="6.38177">
        <ele>915</ele>
        <time>2011-04-03T12:15:35Z</time>
      </trkpt>
      <trkpt lat="46.10588" lon="6.38193">
        <ele>923</ele>
        <time>2011-04-03T12:15:37Z</time>
      </trkpt>
      <trkpt lat="46.10576" lon="6.38204">
        <ele>923</ele>
        <time>2011-04-03T12:15:39Z</time>
      </trkpt>
      <trkpt lat="46.10564" lon="6.38205">
        <ele>930</ele>
        <time>2011-04-03T12:15:42Z</time>
      </trkpt>
      <trkpt lat="46.10554" lon="6.38203">
        <ele>930</ele>
        <time>2011-04-03T12:15:44Z</time>
      </trkpt>
      <trkpt lat="46.10544" lon="6.38211">
        <ele>937</ele>
        <time>2011-04-03T12:15:47Z</time>
      </trkpt>
      <trkpt lat="46.10535" lon="6.38224">
        <ele>937</ele>
        <time>2011-04-03T12:15:49Z</time>
      </trkpt>
      <trkpt lat="46.10524" lon="6.3824">
        <ele>937</ele>
        <time>2011-04-03T12:15:51Z</time>
      </trkpt>
      <trkpt lat="46.10515" lon="6.38251">
        <ele>944</ele>
        <time>2011-04-03T12:15:53Z</time>
      </trkpt>
      <trkpt lat="46.10507" lon="6.38256">
        <ele>944</ele>
        <time>2011-04-03T12:15:56Z</time>
      </trkpt>
      <trkpt lat="46.10498" lon="6.38265">
        <ele>950</ele>
        <time>2011-04-03T12:15:59Z</time>
      </trkpt>
      <trkpt lat="46.10492" lon="6.38276">
        <ele>950</ele>
        <time>2011-04-03T12:16:01Z</time>
      </trkpt>
      <trkpt lat="46.10484" lon="6.38289">
        <ele>950</ele>
        <time>2011-04-03T12:16:03Z</time>
      </trkpt>
      <trkpt lat="46.10477" lon="6.38302">
        <ele>950</ele>
        <time>2011-04-03T12:16:05Z</time>
      </trkpt>
      <trkpt lat="46.10468" lon="6.38317">
        <ele>956</ele>
        <time>2011-04-03T12:16:07Z</time>
      </trkpt>
      <trkpt lat="46.10457" lon="6.38331">
        <ele>956</ele>
        <time>2011-04-03T12:16:09Z</time>
      </trkpt>
      <trkpt lat="46.10445" lon="6.38341">
        <ele>956</ele>
        <time>2011-04-03T12:16:11Z</time>
      </trkpt>
      <trkpt lat="46.10436" lon="6.38346">
        <ele>956</ele>
        <time>2011-04-03T12:16:13Z</time>
      </trkpt>
      <trkpt lat="46.10429" lon="6.38359">
        <ele>956</ele>
        <time>2011-04-03T12:16:22Z</time>
      </trkpt>
      <trkpt lat="46.10419" lon="6.38372">
        <ele>956</ele>
        <time>2011-04-03T12:16:24Z</time>
      </trkpt>
      <trkpt lat="46.10408" lon="6.3839">
        <ele>956</ele>
        <time>2011-04-03T12:16:26Z</time>
      </trkpt>
      <trkpt lat="46.104" lon="6.38407">
        <ele>956</ele>
        <time>2011-04-03T12:16:28Z</time>
      </trkpt>
      <trkpt lat="46.10393" lon="6.38417">
        <ele>956</ele>
        <time>2011-04-03T12:16:30Z</time>
      </trkpt>
      <trkpt lat="46.10384" lon="6.38426">
        <ele>956</ele>
        <time>2011-04-03T12:16:33Z</time>
      </trkpt>
      <trkpt lat="46.10394" lon="6.38425">
        <ele>967</ele>
        <time>2011-04-03T12:17:12Z</time>
      </trkpt>
      <trkpt lat="46.10402" lon="6.3843">
        <ele>967</ele>
        <time>2011-04-03T12:17:14Z</time>
      </trkpt>
      <trkpt lat="46.1041" lon="6.38441">
        <ele>967</ele>
        <time>2011-04-03T12:17:16Z</time>
      </trkpt>
      <trkpt lat="46.1041" lon="6.38457">
        <ele>957</ele>
        <time>2011-04-03T12:17:19Z</time>
      </trkpt>
      <trkpt lat="46.10404" lon="6.38475">
        <ele>957</ele>
        <time>2011-04-03T12:17:21Z</time>
      </trkpt>
      <trkpt lat="46.104" lon="6.38503">
        <ele>951</ele>
        <time>2011-04-03T12:17:23Z</time>
      </trkpt>
      <trkpt lat="46.104" lon="6.3852">
        <ele>951</ele>
        <time>2011-04-03T12:17:24Z</time>
      </trkpt>
      <trkpt lat="46.10399" lon="6.38534">
        <ele>951</ele>
        <time>2011-04-03T12:17:25Z</time>
      </trkpt>
      <trkpt lat="46.10397" lon="6.38558">
        <ele>951</ele>
        <time>2011-04-03T12:17:27Z</time>
      </trkpt>
      <trkpt lat="46.10394" lon="6.3858">
        <ele>951</ele>
        <time>2011-04-03T12:17:29Z</time>
      </trkpt>
      <trkpt lat="46.1039" lon="6.38602">
        <ele>951</ele>
        <time>2011-04-03T12:17:31Z</time>
      </trkpt>
      <trkpt lat="46.10386" lon="6.38627">
        <ele>951</ele>
        <time>2011-04-03T12:17:33Z</time>
      </trkpt>
      <trkpt lat="46.10383" lon="6.38639">
        <ele>951</ele>
        <time>2011-04-03T12:17:34Z</time>
      </trkpt>
      <trkpt lat="46.10379" lon="6.38659">
        <ele>946</ele>
        <time>2011-04-03T12:17:36Z</time>
      </trkpt>
      <trkpt lat="46.10374" lon="6.38675">
        <ele>946</ele>
        <time>2011-04-03T12:17:38Z</time>
      </trkpt>
      <trkpt lat="46.10374" lon="6.38692">
        <ele>946</ele>
        <time>2011-04-03T12:17:41Z</time>
      </trkpt>
      <trkpt lat="46.10379" lon="6.38704">
        <ele>946</ele>
        <time>2011-04-03T12:17:43Z</time>
      </trkpt>
      <trkpt lat="46.10387" lon="6.38715">
        <ele>946</ele>
        <time>2011-04-03T12:17:45Z</time>
      </trkpt>
      <trkpt lat="46.10397" lon="6.38724">
        <ele>946</ele>
        <time>2011-04-03T12:18:02Z</time>
      </trkpt>
      <trkpt lat="46.10408" lon="6.38726">
        <ele>946</ele>
        <time>2011-04-03T12:18:05Z</time>
      </trkpt>
      <trkpt lat="46.1042" lon="6.38726">
        <ele>946</ele>
        <time>2011-04-03T12:18:07Z</time>
      </trkpt>
      <trkpt lat="46.1043" lon="6.38725">
        <ele>946</ele>
        <time>2011-04-03T12:18:09Z</time>
      </trkpt>
      <trkpt lat="46.10442" lon="6.38729">
        <ele>951</ele>
        <time>2011-04-03T12:18:11Z</time>
      </trkpt>
      <trkpt lat="46.10452" lon="6.38737">
        <ele>951</ele>
        <time>2011-04-03T12:18:13Z</time>
      </trkpt>
      <trkpt lat="46.10462" lon="6.38744">
        <ele>951</ele>
        <time>2011-04-03T12:18:15Z</time>
      </trkpt>
      <trkpt lat="46.1047" lon="6.38751">
        <ele>943</ele>
        <time>2011-04-03T12:18:17Z</time>
      </trkpt>
      <trkpt lat="46.1048" lon="6.38755">
        <ele>943</ele>
        <time>2011-04-03T12:18:19Z</time>
      </trkpt>
      <trkpt lat="46.10489" lon="6.38762">
        <ele>943</ele>
        <time>2011-04-03T12:18:21Z</time>
      </trkpt>
      <trkpt lat="46.10499" lon="6.3877">
        <ele>938</ele>
        <time>2011-04-03T12:18:23Z</time>
      </trkpt>
      <trkpt lat="46.10511" lon="6.38778">
        <ele>938</ele>
        <time>2011-04-03T12:18:25Z</time>
      </trkpt>
      <trkpt lat="46.10527" lon="6.38782">
        <ele>938</ele>
        <time>2011-04-03T12:18:27Z</time>
      </trkpt>
      <trkpt lat="46.10542" lon="6.38788">
        <ele>930</ele>
        <time>2011-04-03T12:18:29Z</time>
      </trkpt>
      <trkpt lat="46.10559" lon="6.3879">
        <ele>930</ele>
        <time>2011-04-03T12:18:31Z</time>
      </trkpt>
      <trkpt lat="46.10575" lon="6.3879">
        <ele>923</ele>
        <time>2011-04-03T12:18:33Z</time>
      </trkpt>
      <trkpt lat="46.10592" lon="6.38791">
        <ele>917</ele>
        <time>2011-04-03T12:18:35Z</time>
      </trkpt>
      <trkpt lat="46.10606" lon="6.38794">
        <ele>917</ele>
        <time>2011-04-03T12:18:37Z</time>
      </trkpt>
      <trkpt lat="46.10617" lon="6.38802">
        <ele>909</ele>
        <time>2011-04-03T12:18:39Z</time>
      </trkpt>
      <trkpt lat="46.10627" lon="6.38811">
        <ele>909</ele>
        <time>2011-04-03T12:18:42Z</time>
      </trkpt>
      <trkpt lat="46.10622" lon="6.38824">
        <ele>902</ele>
        <time>2011-04-03T12:18:49Z</time>
      </trkpt>
      <trkpt lat="46.10612" lon="6.38832">
        <ele>902</ele>
        <time>2011-04-03T12:18:51Z</time>
      </trkpt>
      <trkpt lat="46.10605" lon="6.3884">
        <ele>902</ele>
        <time>2011-04-03T12:18:53Z</time>
      </trkpt>
      <trkpt lat="46.10595" lon="6.38849">
        <ele>902</ele>
        <time>2011-04-03T12:18:55Z</time>
      </trkpt>
      <trkpt lat="46.10581" lon="6.38861">
        <ele>909</ele>
        <time>2011-04-03T12:18:57Z</time>
      </trkpt>
      <trkpt lat="46.10572" lon="6.38868">
        <ele>909</ele>
        <time>2011-04-03T12:18:58Z</time>
      </trkpt>
      <trkpt lat="46.10563" lon="6.38875">
        <ele>909</ele>
        <time>2011-04-03T12:18:59Z</time>
      </trkpt>
      <trkpt lat="46.10553" lon="6.38881">
        <ele>909</ele>
        <time>2011-04-03T12:19:00Z</time>
      </trkpt>
      <trkpt lat="46.10542" lon="6.38889">
        <ele>914</ele>
        <time>2011-04-03T12:19:01Z</time>
      </trkpt>
      <trkpt lat="46.10532" lon="6.38897">
        <ele>914</ele>
        <time>2011-04-03T12:19:02Z</time>
      </trkpt>
      <trkpt lat="46.10522" lon="6.38903">
        <ele>914</ele>
        <time>2011-04-03T12:19:03Z</time>
      </trkpt>
      <trkpt lat="46.10513" lon="6.38909">
        <ele>914</ele>
        <time>2011-04-03T12:19:04Z</time>
      </trkpt>
      <trkpt lat="46.10502" lon="6.38914">
        <ele>921</ele>
        <time>2011-04-03T12:19:05Z</time>
      </trkpt>
      <trkpt lat="46.10492" lon="6.38917">
        <ele>921</ele>
        <time>2011-04-03T12:19:06Z</time>
      </trkpt>
      <trkpt lat="46.10483" lon="6.38918">
        <ele>933</ele>
        <time>2011-04-03T12:19:08Z</time>
      </trkpt>
      <trkpt lat="46.10472" lon="6.38923">
        <ele>933</ele>
        <time>2011-04-03T12:19:10Z</time>
      </trkpt>
      <trkpt lat="46.10468" lon="6.38938">
        <ele>957</ele>
        <time>2011-04-03T12:19:22Z</time>
      </trkpt>
      <trkpt lat="46.10465" lon="6.38954">
        <ele>957</ele>
        <time>2011-04-03T12:19:24Z</time>
      </trkpt>
      <trkpt lat="46.10458" lon="6.38973">
        <ele>957</ele>
        <time>2011-04-03T12:19:26Z</time>
      </trkpt>
      <trkpt lat="46.1045" lon="6.38987">
        <ele>950</ele>
        <time>2011-04-03T12:19:28Z</time>
      </trkpt>
      <trkpt lat="46.1044" lon="6.38999">
        <ele>950</ele>
        <time>2011-04-03T12:19:30Z</time>
      </trkpt>
      <trkpt lat="46.10428" lon="6.39003">
        <ele>950</ele>
        <time>2011-04-03T12:19:32Z</time>
      </trkpt>
      <trkpt lat="46.10417" lon="6.39014">
        <ele>950</ele>
        <time>2011-04-03T12:19:34Z</time>
      </trkpt>
      <trkpt lat="46.10404" lon="6.39027">
        <ele>945</ele>
        <time>2011-04-03T12:19:36Z</time>
      </trkpt>
      <trkpt lat="46.10397" lon="6.3904">
        <ele>945</ele>
        <time>2011-04-03T12:19:38Z</time>
      </trkpt>
      <trkpt lat="46.10392" lon="6.39053">
        <ele>945</ele>
        <time>2011-04-03T12:19:40Z</time>
      </trkpt>
      <trkpt lat="46.10387" lon="6.39064">
        <ele>945</ele>
        <time>2011-04-03T12:19:42Z</time>
      </trkpt>
      <trkpt lat="46.10378" lon="6.39076">
        <ele>945</ele>
        <time>2011-04-03T12:19:44Z</time>
      </trkpt>
      <trkpt lat="46.10365" lon="6.39088">
        <ele>945</ele>
        <time>2011-04-03T12:19:46Z</time>
      </trkpt>
      <trkpt lat="46.1035" lon="6.39098">
        <ele>945</ele>
        <time>2011-04-03T12:19:48Z</time>
      </trkpt>
      <trkpt lat="46.10342" lon="6.39105">
        <ele>945</ele>
        <time>2011-04-03T12:19:49Z</time>
      </trkpt>
      <trkpt lat="46.10334" lon="6.39113">
        <ele>939</ele>
        <time>2011-04-03T12:19:50Z</time>
      </trkpt>
      <trkpt lat="46.10327" lon="6.39123">
        <ele>939</ele>
        <time>2011-04-03T12:19:51Z</time>
      </trkpt>
      <trkpt lat="46.1032" lon="6.39133">
        <ele>939</ele>
        <time>2011-04-03T12:19:52Z</time>
      </trkpt>
      <trkpt lat="46.1031" lon="6.3915">
        <ele>939</ele>
        <time>2011-04-03T12:19:54Z</time>
      </trkpt>
      <trkpt lat="46.10303" lon="6.3916">
        <ele>939</ele>
        <time>2011-04-03T12:19:56Z</time>
      </trkpt>
      <trkpt lat="46.10304" lon="6.39175">
        <ele>939</ele>
        <time>2011-04-03T12:22:15Z</time>
      </trkpt>
      <trkpt lat="46.10299" lon="6.3919">
        <ele>939</ele>
        <time>2011-04-03T12:22:17Z</time>
      </trkpt>
      <trkpt lat="46.10294" lon="6.39211">
        <ele>939</ele>
        <time>2011-04-03T12:22:19Z</time>
      </trkpt>
      <trkpt lat="46.10296" lon="6.39231">
        <ele>939</ele>
        <time>2011-04-03T12:22:21Z</time>
      </trkpt>
      <trkpt lat="46.10301" lon="6.39244">
        <ele>939</ele>
        <time>2011-04-03T12:22:22Z</time>
      </trkpt>
      <trkpt lat="46.10307" lon="6.39256">
        <ele>939</ele>
        <time>2011-04-03T12:22:23Z</time>
      </trkpt>
      <trkpt lat="46.10312" lon="6.39268">
        <ele>939</ele>
        <time>2011-04-03T12:22:24Z</time>
      </trkpt>
      <trkpt lat="46.10317" lon="6.3928">
        <ele>939</ele>
        <time>2011-04-03T12:22:25Z</time>
      </trkpt>
      <trkpt lat="46.1032" lon="6.39292">
        <ele>939</ele>
        <time>2011-04-03T12:22:26Z</time>
      </trkpt>
      <trkpt lat="46.10322" lon="6.39307">
        <ele>939</ele>
        <time>2011-04-03T12:22:27Z</time>
      </trkpt>
      <trkpt lat="46.10323" lon="6.39327">
        <ele>939</ele>
        <time>2011-04-03T12:22:28Z</time>
      </trkpt>
      <trkpt lat="46.10323" lon="6.39349">
        <ele>939</ele>
        <time>2011-04-03T12:22:29Z</time>
      </trkpt>
      <trkpt lat="46.10324" lon="6.39371">
        <ele>939</ele>
        <time>2011-04-03T12:22:30Z</time>
      </trkpt>
      <trkpt lat="46.10325" lon="6.39391">
        <ele>945</ele>
        <time>2011-04-03T12:22:31Z</time>
      </trkpt>
      <trkpt lat="46.10327" lon="6.3941">
        <ele>945</ele>
        <time>2011-04-03T12:22:32Z</time>
      </trkpt>
      <trkpt lat="46.1033" lon="6.39431">
        <ele>945</ele>
        <time>2011-04-03T12:22:33Z</time>
      </trkpt>
      <trkpt lat="46.10331" lon="6.39451">
        <ele>945</ele>
        <time>2011-04-03T12:22:34Z</time>
      </trkpt>
      <trkpt lat="46.10332" lon="6.39467">
        <ele>945</ele>
        <time>2011-04-03T12:22:35Z</time>
      </trkpt>
      <trkpt lat="46.10332" lon="6.39482">
        <ele>945</ele>
        <time>2011-04-03T12:22:36Z</time>
      </trkpt>
      <trkpt lat="46.10322" lon="6.39506">
        <ele>945</ele>
        <time>2011-04-03T12:22:38Z</time>
      </trkpt>
      <trkpt lat="46.10317" lon="6.39521">
        <ele>945</ele>
        <time>2011-04-03T12:22:39Z</time>
      </trkpt>
      <trkpt lat="46.10314" lon="6.39539">
        <ele>945</ele>
        <time>2011-04-03T12:22:40Z</time>
      </trkpt>
      <trkpt lat="46.1031" lon="6.39556">
        <ele>945</ele>
        <time>2011-04-03T12:22:41Z</time>
      </trkpt>
      <trkpt lat="46.10311" lon="6.39572">
        <ele>945</ele>
        <time>2011-04-03T12:22:42Z</time>
      </trkpt>
      <trkpt lat="46.10315" lon="6.39586">
        <ele>945</ele>
        <time>2011-04-03T12:22:43Z</time>
      </trkpt>
      <trkpt lat="46.10315" lon="6.396">
        <ele>945</ele>
        <time>2011-04-03T12:22:44Z</time>
      </trkpt>
      <trkpt lat="46.10315" lon="6.39614">
        <ele>945</ele>
        <time>2011-04-03T12:22:45Z</time>
      </trkpt>
      <trkpt lat="46.10315" lon="6.39627">
        <ele>945</ele>
        <time>2011-04-03T12:22:46Z</time>
      </trkpt>
      <trkpt lat="46.10318" lon="6.39642">
        <ele>945</ele>
        <time>2011-04-03T12:22:47Z</time>
      </trkpt>
      <trkpt lat="46.10319" lon="6.39655">
        <ele>945</ele>
        <time>2011-04-03T12:22:48Z</time>
      </trkpt>
      <trkpt lat="46.1032" lon="6.3967">
        <ele>939</ele>
        <time>2011-04-03T12:22:49Z</time>
      </trkpt>
      <trkpt lat="46.10319" lon="6.39687">
        <ele>939</ele>
        <time>2011-04-03T12:22:50Z</time>
      </trkpt>
      <trkpt lat="46.10319" lon="6.39704">
        <ele>939</ele>
        <time>2011-04-03T12:22:51Z</time>
      </trkpt>
      <trkpt lat="46.10317" lon="6.3972">
        <ele>939</ele>
        <time>2011-04-03T12:22:52Z</time>
      </trkpt>
      <trkpt lat="46.10317" lon="6.39735">
        <ele>939</ele>
        <time>2011-04-03T12:22:53Z</time>
      </trkpt>
      <trkpt lat="46.10317" lon="6.3975">
        <ele>934</ele>
        <time>2011-04-03T12:22:54Z</time>
      </trkpt>
      <trkpt lat="46.10316" lon="6.39763">
        <ele>934</ele>
        <time>2011-04-03T12:22:55Z</time>
      </trkpt>
      <trkpt lat="46.10315" lon="6.39777">
        <ele>934</ele>
        <time>2011-04-03T12:22:56Z</time>
      </trkpt>
      <trkpt lat="46.10314" lon="6.39791">
        <ele>934</ele>
        <time>2011-04-03T12:22:57Z</time>
      </trkpt>
      <trkpt lat="46.10313" lon="6.39804">
        <ele>934</ele>
        <time>2011-04-03T12:22:58Z</time>
      </trkpt>
      <trkpt lat="46.1031" lon="6.39829">
        <ele>927</ele>
        <time>2011-04-03T12:23:00Z</time>
      </trkpt>
      <trkpt lat="46.10304" lon="6.39849">
        <ele>927</ele>
        <time>2011-04-03T12:23:02Z</time>
      </trkpt>
      <trkpt lat="46.10297" lon="6.39869">
        <ele>921</ele>
        <time>2011-04-03T12:23:04Z</time>
      </trkpt>
      <trkpt lat="46.10287" lon="6.39878">
        <ele>921</ele>
        <time>2011-04-03T12:23:06Z</time>
      </trkpt>
      <trkpt lat="46.10279" lon="6.39889">
        <ele>921</ele>
        <time>2011-04-03T12:23:27Z</time>
      </trkpt>
      <trkpt lat="46.10278" lon="6.39917">
        <ele>921</ele>
        <time>2011-04-03T12:23:29Z</time>
      </trkpt>
      <trkpt lat="46.10276" lon="6.39937">
        <ele>921</ele>
        <time>2011-04-03T12:23:30Z</time>
      </trkpt>
      <trkpt lat="46.10274" lon="6.39954">
        <ele>921</ele>
        <time>2011-04-03T12:23:31Z</time>
      </trkpt>
      <trkpt lat="46.10272" lon="6.39971">
        <ele>916</ele>
        <time>2011-04-03T12:23:32Z</time>
      </trkpt>
      <trkpt lat="46.10272" lon="6.39989">
        <ele>916</ele>
        <time>2011-04-03T12:23:33Z</time>
      </trkpt>
      <trkpt lat="46.10271" lon="6.40006">
        <ele>916</ele>
        <time>2011-04-03T12:23:34Z</time>
      </trkpt>
      <trkpt lat="46.10271" lon="6.40023">
        <ele>916</ele>
        <time>2011-04-03T12:23:35Z</time>
      </trkpt>
      <trkpt lat="46.10272" lon="6.40038">
        <ele>916</ele>
        <time>2011-04-03T12:23:36Z</time>
      </trkpt>
      <trkpt lat="46.10274" lon="6.40052">
        <ele>916</ele>
        <time>2011-04-03T12:23:37Z</time>
      </trkpt>
      <trkpt lat="46.10274" lon="6.40066">
        <ele>916</ele>
        <time>2011-04-03T12:23:38Z</time>
      </trkpt>
      <trkpt lat="46.10275" lon="6.4009">
        <ele>916</ele>
        <time>2011-04-03T12:23:40Z</time>
      </trkpt>
      <trkpt lat="46.10277" lon="6.40109">
        <ele>916</ele>
        <time>2011-04-03T12:23:42Z</time>
      </trkpt>
      <trkpt lat="46.10277" lon="6.40127">
        <ele>916</ele>
        <time>2011-04-03T12:23:44Z</time>
      </trkpt>
      <trkpt lat="46.1028" lon="6.40146">
        <ele>916</ele>
        <time>2011-04-03T12:23:46Z</time>
      </trkpt>
      <trkpt lat="46.10284" lon="6.40158">
        <ele>916</ele>
        <time>2011-04-03T12:23:47Z</time>
      </trkpt>
      <trkpt lat="46.10287" lon="6.40173">
        <ele>916</ele>
        <time>2011-04-03T12:23:48Z</time>
      </trkpt>
      <trkpt lat="46.1029" lon="6.40185">
        <ele>916</ele>
        <time>2011-04-03T12:23:49Z</time>
      </trkpt>
      <trkpt lat="46.10294" lon="6.40205">
        <ele>922</ele>
        <time>2011-04-03T12:23:51Z</time>
      </trkpt>
      <trkpt lat="46.103" lon="6.40226">
        <ele>922</ele>
        <time>2011-04-03T12:23:53Z</time>
      </trkpt>
      <trkpt lat="46.10307" lon="6.40248">
        <ele>922</ele>
        <time>2011-04-03T12:23:55Z</time>
      </trkpt>
      <trkpt lat="46.10312" lon="6.40269">
        <ele>927</ele>
        <time>2011-04-03T12:23:57Z</time>
      </trkpt>
      <trkpt lat="46.10318" lon="6.40284">
        <ele>927</ele>
        <time>2011-04-03T12:23:59Z</time>
      </trkpt>
      <trkpt lat="46.10323" lon="6.40296">
        <ele>927</ele>
        <time>2011-04-03T12:24:01Z</time>
      </trkpt>
      <trkpt lat="46.10331" lon="6.40306">
        <ele>927</ele>
        <time>2011-04-03T12:24:03Z</time>
      </trkpt>
      <trkpt lat="46.10335" lon="6.40318">
        <ele>927</ele>
        <time>2011-04-03T12:24:05Z</time>
      </trkpt>
      <trkpt lat="46.10337" lon="6.40333">
        <ele>927</ele>
        <time>2011-04-03T12:24:07Z</time>
      </trkpt>
      <trkpt lat="46.10346" lon="6.40346">
        <ele>921</ele>
        <time>2011-04-03T12:24:10Z</time>
      </trkpt>
      <trkpt lat="46.10357" lon="6.40349">
        <ele>921</ele>
        <time>2011-04-03T12:24:13Z</time>
      </trkpt>
      <trkpt lat="46.10354" lon="6.40369">
        <ele>921</ele>
        <time>2011-04-03T12:24:16Z</time>
      </trkpt>
      <trkpt lat="46.1035" lon="6.40387">
        <ele>921</ele>
        <time>2011-04-03T12:24:18Z</time>
      </trkpt>
      <trkpt lat="46.10346" lon="6.40402">
        <ele>921</ele>
        <time>2011-04-03T12:24:20Z</time>
      </trkpt>
      <trkpt lat="46.10342" lon="6.40416">
        <ele>921</ele>
        <time>2011-04-03T12:24:22Z</time>
      </trkpt>
      <trkpt lat="46.10342" lon="6.4043">
        <ele>921</ele>
        <time>2011-04-03T12:24:24Z</time>
      </trkpt>
      <trkpt lat="46.10341" lon="6.40449">
        <ele>921</ele>
        <time>2011-04-03T12:24:27Z</time>
      </trkpt>
      <trkpt lat="46.10339" lon="6.40469">
        <ele>921</ele>
        <time>2011-04-03T12:24:30Z</time>
      </trkpt>
      <trkpt lat="46.1034" lon="6.40489">
        <ele>921</ele>
        <time>2011-04-03T12:24:32Z</time>
      </trkpt>
      <trkpt lat="46.10345" lon="6.4051">
        <ele>921</ele>
        <time>2011-04-03T12:24:34Z</time>
      </trkpt>
      <trkpt lat="46.10351" lon="6.40528">
        <ele>927</ele>
        <time>2011-04-03T12:24:36Z</time>
      </trkpt>
      <trkpt lat="46.10357" lon="6.40546">
        <ele>927</ele>
        <time>2011-04-03T12:24:38Z</time>
      </trkpt>
      <trkpt lat="46.10357" lon="6.4057">
        <ele>927</ele>
        <time>2011-04-03T12:24:40Z</time>
      </trkpt>
      <trkpt lat="46.10358" lon="6.40583">
        <ele>927</ele>
        <time>2011-04-03T12:24:41Z</time>
      </trkpt>
      <trkpt lat="46.1036" lon="6.40608">
        <ele>932</ele>
        <time>2011-04-03T12:24:43Z</time>
      </trkpt>
      <trkpt lat="46.10364" lon="6.40626">
        <ele>932</ele>
        <time>2011-04-03T12:24:45Z</time>
      </trkpt>
      <trkpt lat="46.10367" lon="6.40644">
        <ele>932</ele>
        <time>2011-04-03T12:24:47Z</time>
      </trkpt>
      <trkpt lat="46.1037" lon="6.40666">
        <ele>932</ele>
        <time>2011-04-03T12:24:49Z</time>
      </trkpt>
      <trkpt lat="46.10371" lon="6.40685">
        <ele>932</ele>
        <time>2011-04-03T12:24:51Z</time>
      </trkpt>
      <trkpt lat="46.10367" lon="6.40702">
        <ele>932</ele>
        <time>2011-04-03T12:24:53Z</time>
      </trkpt>
      <trkpt lat="46.10361" lon="6.40716">
        <ele>932</ele>
        <time>2011-04-03T12:24:55Z</time>
      </trkpt>
      <trkpt lat="46.10347" lon="6.40725">
        <ele>932</ele>
        <time>2011-04-03T12:24:57Z</time>
      </trkpt>
      <trkpt lat="46.1033" lon="6.40731">
        <ele>932</ele>
        <time>2011-04-03T12:24:59Z</time>
      </trkpt>
      <trkpt lat="46.10313" lon="6.40732">
        <ele>932</ele>
        <time>2011-04-03T12:25:01Z</time>
      </trkpt>
      <trkpt lat="46.10304" lon="6.40735">
        <ele>932</ele>
        <time>2011-04-03T12:25:02Z</time>
      </trkpt>
      <trkpt lat="46.10294" lon="6.40739">
        <ele>932</ele>
        <time>2011-04-03T12:25:03Z</time>
      </trkpt>
      <trkpt lat="46.10284" lon="6.40741">
        <ele>926</ele>
        <time>2011-04-03T12:25:04Z</time>
      </trkpt>
      <trkpt lat="46.10274" lon="6.40744">
        <ele>926</ele>
        <time>2011-04-03T12:25:05Z</time>
      </trkpt>
      <trkpt lat="46.10264" lon="6.40748">
        <ele>926</ele>
        <time>2011-04-03T12:25:06Z</time>
      </trkpt>
      <trkpt lat="46.10253" lon="6.40751">
        <ele>926</ele>
        <time>2011-04-03T12:25:07Z</time>
      </trkpt>
      <trkpt lat="46.10242" lon="6.40754">
        <ele>926</ele>
        <time>2011-04-03T12:25:08Z</time>
      </trkpt>
      <trkpt lat="46.10233" lon="6.40758">
        <ele>926</ele>
        <time>2011-04-03T12:25:09Z</time>
      </trkpt>
      <trkpt lat="46.10224" lon="6.40759">
        <ele>921</ele>
        <time>2011-04-03T12:25:10Z</time>
      </trkpt>
      <trkpt lat="46.10215" lon="6.40763">
        <ele>921</ele>
        <time>2011-04-03T12:25:11Z</time>
      </trkpt>
      <trkpt lat="46.10199" lon="6.40772">
        <ele>921</ele>
        <time>2011-04-03T12:25:13Z</time>
      </trkpt>
      <trkpt lat="46.10186" lon="6.40786">
        <ele>921</ele>
        <time>2011-04-03T12:25:15Z</time>
      </trkpt>
      <trkpt lat="46.10173" lon="6.408">
        <ele>921</ele>
        <time>2011-04-03T12:25:17Z</time>
      </trkpt>
      <trkpt lat="46.10164" lon="6.4082">
        <ele>921</ele>
        <time>2011-04-03T12:25:19Z</time>
      </trkpt>
      <trkpt lat="46.10159" lon="6.40842">
        <ele>921</ele>
        <time>2011-04-03T12:25:21Z</time>
      </trkpt>
      <trkpt lat="46.10154" lon="6.40859">
        <ele>921</ele>
        <time>2011-04-03T12:25:23Z</time>
      </trkpt>
      <trkpt lat="46.10142" lon="6.40869">
        <ele>921</ele>
        <time>2011-04-03T12:25:26Z</time>
      </trkpt>
      <trkpt lat="46.10131" lon="6.4088">
        <ele>921</ele>
        <time>2011-04-03T12:25:28Z</time>
      </trkpt>
      <trkpt lat="46.10123" lon="6.40887">
        <ele>921</ele>
        <time>2011-04-03T12:25:29Z</time>
      </trkpt>
      <trkpt lat="46.10116" lon="6.40896">
        <ele>927</ele>
        <time>2011-04-03T12:25:30Z</time>
      </trkpt>
      <trkpt lat="46.10104" lon="6.40917">
        <ele>927</ele>
        <time>2011-04-03T12:25:32Z</time>
      </trkpt>
      <trkpt lat="46.10094" lon="6.40934">
        <ele>934</ele>
        <time>2011-04-03T12:25:33Z</time>
      </trkpt>
      <trkpt lat="46.10085" lon="6.40949">
        <ele>934</ele>
        <time>2011-04-03T12:25:34Z</time>
      </trkpt>
      <trkpt lat="46.10077" lon="6.40963">
        <ele>934</ele>
        <time>2011-04-03T12:25:35Z</time>
      </trkpt>
      <trkpt lat="46.10068" lon="6.40974">
        <ele>940</ele>
        <time>2011-04-03T12:25:36Z</time>
      </trkpt>
      <trkpt lat="46.10061" lon="6.40984">
        <ele>940</ele>
        <time>2011-04-03T12:25:37Z</time>
      </trkpt>
      <trkpt lat="46.10047" lon="6.40995">
        <ele>940</ele>
        <time>2011-04-03T12:25:39Z</time>
      </trkpt>
      <trkpt lat="46.10039" lon="6.41001">
        <ele>946</ele>
        <time>2011-04-03T12:25:40Z</time>
      </trkpt>
      <trkpt lat="46.10022" lon="6.41006">
        <ele>946</ele>
        <time>2011-04-03T12:25:42Z</time>
      </trkpt>
      <trkpt lat="46.10012" lon="6.41006">
        <ele>951</ele>
        <time>2011-04-03T12:25:43Z</time>
      </trkpt>
      <trkpt lat="46.10001" lon="6.41003">
        <ele>951</ele>
        <time>2011-04-03T12:25:44Z</time>
      </trkpt>
      <trkpt lat="46.09991" lon="6.41002">
        <ele>951</ele>
        <time>2011-04-03T12:25:45Z</time>
      </trkpt>
      <trkpt lat="46.09981" lon="6.41">
        <ele>951</ele>
        <time>2011-04-03T12:25:46Z</time>
      </trkpt>
      <trkpt lat="46.09967" lon="6.40997">
        <ele>951</ele>
        <time>2011-04-03T12:25:48Z</time>
      </trkpt>
      <trkpt lat="46.09957" lon="6.40999">
        <ele>951</ele>
        <time>2011-04-03T12:26:00Z</time>
      </trkpt>
      <trkpt lat="46.09947" lon="6.40999">
        <ele>946</ele>
        <time>2011-04-03T12:27:03Z</time>
      </trkpt>
      <trkpt lat="46.09934" lon="6.41004">
        <ele>946</ele>
        <time>2011-04-03T12:27:06Z</time>
      </trkpt>
      <trkpt lat="46.09927" lon="6.41012">
        <ele>946</ele>
        <time>2011-04-03T12:27:08Z</time>
      </trkpt>
      <trkpt lat="46.09922" lon="6.41028">
        <ele>936</ele>
        <time>2011-04-03T12:27:11Z</time>
      </trkpt>
      <trkpt lat="46.09925" lon="6.41043">
        <ele>936</ele>
        <time>2011-04-03T12:27:13Z</time>
      </trkpt>
      <trkpt lat="46.09929" lon="6.41061">
        <ele>927</ele>
        <time>2011-04-03T12:27:15Z</time>
      </trkpt>
      <trkpt lat="46.09931" lon="6.41078">
        <ele>927</ele>
        <time>2011-04-03T12:27:17Z</time>
      </trkpt>
      <trkpt lat="46.09933" lon="6.41094">
        <ele>920</ele>
        <time>2011-04-03T12:27:20Z</time>
      </trkpt>
      <trkpt lat="46.09932" lon="6.41111">
        <ele>914</ele>
        <time>2011-04-03T12:27:24Z</time>
      </trkpt>
      <trkpt lat="46.09929" lon="6.41129">
        <ele>914</ele>
        <time>2011-04-03T12:27:27Z</time>
      </trkpt>
      <trkpt lat="46.09927" lon="6.41148">
        <ele>914</ele>
        <time>2011-04-03T12:27:30Z</time>
      </trkpt>
      <trkpt lat="46.09926" lon="6.41163">
        <ele>908</ele>
        <time>2011-04-03T12:27:33Z</time>
      </trkpt>
      <trkpt lat="46.09925" lon="6.41176">
        <ele>902</ele>
        <time>2011-04-03T12:27:37Z</time>
      </trkpt>
      <trkpt lat="46.09926" lon="6.41195">
        <ele>902</ele>
        <time>2011-04-03T12:27:40Z</time>
      </trkpt>
      <trkpt lat="46.09924" lon="6.41211">
        <ele>902</ele>
        <time>2011-04-03T12:27:44Z</time>
      </trkpt>
      <trkpt lat="46.09919" lon="6.41224">
        <ele>902</ele>
        <time>2011-04-03T12:27:47Z</time>
      </trkpt>
      <trkpt lat="46.09916" lon="6.41237">
        <ele>902</ele>
        <time>2011-04-03T12:27:49Z</time>
      </trkpt>
      <trkpt lat="46.09919" lon="6.41252">
        <ele>897</ele>
        <time>2011-04-03T12:27:51Z</time>
      </trkpt>
      <trkpt lat="46.09922" lon="6.41265">
        <ele>897</ele>
        <time>2011-04-03T12:27:53Z</time>
      </trkpt>
      <trkpt lat="46.09924" lon="6.41279">
        <ele>892</ele>
        <time>2011-04-03T12:27:55Z</time>
      </trkpt>
      <trkpt lat="46.09927" lon="6.41291">
        <ele>892</ele>
        <time>2011-04-03T12:27:58Z</time>
      </trkpt>
      <trkpt lat="46.09919" lon="6.413">
        <ele>892</ele>
        <time>2011-04-03T12:28:24Z</time>
      </trkpt>
      <trkpt lat="46.09911" lon="6.41294">
        <ele>892</ele>
        <time>2011-04-03T12:28:30Z</time>
      </trkpt>
      <trkpt lat="46.09902" lon="6.41287">
        <ele>892</ele>
        <time>2011-04-03T12:28:35Z</time>
      </trkpt>
      <trkpt lat="46.09892" lon="6.41279">
        <ele>892</ele>
        <time>2011-04-03T12:28:41Z</time>
      </trkpt>
      <trkpt lat="46.09883" lon="6.41271">
        <ele>892</ele>
        <time>2011-04-03T12:28:46Z</time>
      </trkpt>
      <trkpt lat="46.09879" lon="6.41258">
        <ele>884</ele>
        <time>2011-04-03T12:28:49Z</time>
      </trkpt>
      <trkpt lat="46.09878" lon="6.41243">
        <ele>884</ele>
        <time>2011-04-03T12:28:53Z</time>
      </trkpt>
      <trkpt lat="46.09871" lon="6.41231">
        <ele>878</ele>
        <time>2011-04-03T12:28:58Z</time>
      </trkpt>
      <trkpt lat="46.09866" lon="6.41219">
        <ele>878</ele>
        <time>2011-04-03T12:29:02Z</time>
      </trkpt>
      <trkpt lat="46.09857" lon="6.41212">
        <ele>878</ele>
        <time>2011-04-03T12:29:06Z</time>
      </trkpt>
      <trkpt lat="46.09849" lon="6.41203">
        <ele>866</ele>
        <time>2011-04-03T12:29:26Z</time>
      </trkpt>
      <trkpt lat="46.09838" lon="6.41204">
        <ele>866</ele>
        <time>2011-04-03T12:29:33Z</time>
      </trkpt>
      <trkpt lat="46.09832" lon="6.41191">
        <ele>856</ele>
        <time>2011-04-03T12:29:39Z</time>
      </trkpt>
      <trkpt lat="46.09826" lon="6.41175">
        <ele>851</ele>
        <time>2011-04-03T12:29:43Z</time>
      </trkpt>
      <trkpt lat="46.09816" lon="6.41164">
        <ele>851</ele>
        <time>2011-04-03T12:29:46Z</time>
      </trkpt>
      <trkpt lat="46.09807" lon="6.41156">
        <ele>843</ele>
        <time>2011-04-03T12:29:49Z</time>
      </trkpt>
      <trkpt lat="46.098" lon="6.41144">
        <ele>843</ele>
        <time>2011-04-03T12:29:52Z</time>
      </trkpt>
      <trkpt lat="46.09791" lon="6.41134">
        <ele>835</ele>
        <time>2011-04-03T12:29:58Z</time>
      </trkpt>
      <trkpt lat="46.09781" lon="6.41123">
        <ele>835</ele>
        <time>2011-04-03T12:30:02Z</time>
      </trkpt>
      <trkpt lat="46.09772" lon="6.41117">
        <ele>828</ele>
        <time>2011-04-03T12:30:05Z</time>
      </trkpt>
      <trkpt lat="46.09761" lon="6.41118">
        <ele>828</ele>
        <time>2011-04-03T12:30:08Z</time>
      </trkpt>
      <trkpt lat="46.09748" lon="6.41123">
        <ele>828</ele>
        <time>2011-04-03T12:30:11Z</time>
      </trkpt>
      <trkpt lat="46.09741" lon="6.41132">
        <ele>823</ele>
        <time>2011-04-03T12:30:13Z</time>
      </trkpt>
      <trkpt lat="46.09732" lon="6.41143">
        <ele>817</ele>
        <time>2011-04-03T12:30:16Z</time>
      </trkpt>
      <trkpt lat="46.09724" lon="6.41149">
        <ele>817</ele>
        <time>2011-04-03T12:30:18Z</time>
      </trkpt>
      <trkpt lat="46.09715" lon="6.41157">
        <ele>817</ele>
        <time>2011-04-03T12:30:20Z</time>
      </trkpt>
      <trkpt lat="46.09706" lon="6.41172">
        <ele>811</ele>
        <time>2011-04-03T12:30:23Z</time>
      </trkpt>
      <trkpt lat="46.09698" lon="6.41183">
        <ele>805</ele>
        <time>2011-04-03T12:30:26Z</time>
      </trkpt>
      <trkpt lat="46.09691" lon="6.41198">
        <ele>797</ele>
        <time>2011-04-03T12:30:31Z</time>
      </trkpt>
      <trkpt lat="46.09689" lon="6.41215">
        <ele>791</ele>
        <time>2011-04-03T12:30:35Z</time>
      </trkpt>
      <trkpt lat="46.09682" lon="6.41227">
        <ele>791</ele>
        <time>2011-04-03T12:30:38Z</time>
      </trkpt>
      <trkpt lat="46.09672" lon="6.41224">
        <ele>791</ele>
        <time>2011-04-03T12:30:42Z</time>
      </trkpt>
      <trkpt lat="46.09661" lon="6.41219">
        <ele>783</ele>
        <time>2011-04-03T12:30:46Z</time>
      </trkpt>
      <trkpt lat="46.09651" lon="6.41215">
        <ele>783</ele>
        <time>2011-04-03T12:30:50Z</time>
      </trkpt>
      <trkpt lat="46.09641" lon="6.41212">
        <ele>776</ele>
        <time>2011-04-03T12:30:54Z</time>
      </trkpt>
      <trkpt lat="46.09629" lon="6.4121">
        <ele>776</ele>
        <time>2011-04-03T12:30:59Z</time>
      </trkpt>
      <trkpt lat="46.0962" lon="6.41207">
        <ele>776</ele>
        <time>2011-04-03T12:31:04Z</time>
      </trkpt>
      <trkpt lat="46.09611" lon="6.4121">
        <ele>770</ele>
        <time>2011-04-03T12:31:07Z</time>
      </trkpt>
      <trkpt lat="46.09601" lon="6.41214">
        <ele>770</ele>
        <time>2011-04-03T12:31:09Z</time>
      </trkpt>
      <trkpt lat="46.09591" lon="6.41217">
        <ele>770</ele>
        <time>2011-04-03T12:31:11Z</time>
      </trkpt>
      <trkpt lat="46.09579" lon="6.41222">
        <ele>770</ele>
        <time>2011-04-03T12:31:13Z</time>
      </trkpt>
      <trkpt lat="46.09566" lon="6.41228">
        <ele>763</ele>
        <time>2011-04-03T12:31:15Z</time>
      </trkpt>
      <trkpt lat="46.09554" lon="6.41234">
        <ele>763</ele>
        <time>2011-04-03T12:31:17Z</time>
      </trkpt>
      <trkpt lat="46.09541" lon="6.41237">
        <ele>763</ele>
        <time>2011-04-03T12:31:19Z</time>
      </trkpt>
      <trkpt lat="46.09531" lon="6.41235">
        <ele>755</ele>
        <time>2011-04-03T12:31:21Z</time>
      </trkpt>
      <trkpt lat="46.09521" lon="6.41234">
        <ele>755</ele>
        <time>2011-04-03T12:31:23Z</time>
      </trkpt>
      <trkpt lat="46.0951" lon="6.41237">
        <ele>755</ele>
        <time>2011-04-03T12:31:25Z</time>
      </trkpt>
      <trkpt lat="46.09499" lon="6.41247">
        <ele>755</ele>
        <time>2011-04-03T12:31:27Z</time>
      </trkpt>
      <trkpt lat="46.0949" lon="6.41255">
        <ele>755</ele>
        <time>2011-04-03T12:31:29Z</time>
      </trkpt>
      <trkpt lat="46.09479" lon="6.41262">
        <ele>749</ele>
        <time>2011-04-03T12:31:32Z</time>
      </trkpt>
      <trkpt lat="46.09469" lon="6.41248">
        <ele>743</ele>
        <time>2011-04-03T12:31:36Z</time>
      </trkpt>
      <trkpt lat="46.09467" lon="6.41233">
        <ele>743</ele>
        <time>2011-04-03T12:31:39Z</time>
      </trkpt>
      <trkpt lat="46.09457" lon="6.41228">
        <ele>733</ele>
        <time>2011-04-03T12:31:44Z</time>
      </trkpt>
      <trkpt lat="46.09447" lon="6.41223">
        <ele>733</ele>
        <time>2011-04-03T12:31:47Z</time>
      </trkpt>
      <trkpt lat="46.09435" lon="6.41226">
        <ele>728</ele>
        <time>2011-04-03T12:31:50Z</time>
      </trkpt>
      <trkpt lat="46.09425" lon="6.41229">
        <ele>728</ele>
        <time>2011-04-03T12:31:53Z</time>
      </trkpt>
      <trkpt lat="46.09416" lon="6.41218">
        <ele>716</ele>
        <time>2011-04-03T12:31:58Z</time>
      </trkpt>
      <trkpt lat="46.09407" lon="6.41214">
        <ele>716</ele>
        <time>2011-04-03T12:32:01Z</time>
      </trkpt>
      <trkpt lat="46.09393" lon="6.41204">
        <ele>708</ele>
        <time>2011-04-03T12:32:04Z</time>
      </trkpt>
      <trkpt lat="46.09384" lon="6.41194">
        <ele>708</ele>
        <time>2011-04-03T12:32:06Z</time>
      </trkpt>
      <trkpt lat="46.09372" lon="6.41182">
        <ele>702</ele>
        <time>2011-04-03T12:32:09Z</time>
      </trkpt>
      <trkpt lat="46.09364" lon="6.41178">
        <ele>702</ele>
        <time>2011-04-03T12:32:12Z</time>
      </trkpt>
      <trkpt lat="46.09355" lon="6.41183">
        <ele>702</ele>
        <time>2011-04-03T12:32:15Z</time>
      </trkpt>
      <trkpt lat="46.09345" lon="6.41182">
        <ele>696</ele>
        <time>2011-04-03T12:32:19Z</time>
      </trkpt>
      <trkpt lat="46.09334" lon="6.41179">
        <ele>696</ele>
        <time>2011-04-03T12:32:23Z</time>
      </trkpt>
      <trkpt lat="46.09323" lon="6.41177">
        <ele>690</ele>
        <time>2011-04-03T12:32:27Z</time>
      </trkpt>
      <trkpt lat="46.09311" lon="6.41174">
        <ele>690</ele>
        <time>2011-04-03T12:32:31Z</time>
      </trkpt>
      <trkpt lat="46.09302" lon="6.4118">
        <ele>684</ele>
        <time>2011-04-03T12:32:34Z</time>
      </trkpt>
      <trkpt lat="46.09295" lon="6.41188">
        <ele>684</ele>
        <time>2011-04-03T12:32:37Z</time>
      </trkpt>
      <trkpt lat="46.09286" lon="6.41182">
        <ele>674</ele>
        <time>2011-04-03T12:32:42Z</time>
      </trkpt>
      <trkpt lat="46.09279" lon="6.41171">
        <ele>674</ele>
        <time>2011-04-03T12:32:45Z</time>
      </trkpt>
      <trkpt lat="46.09268" lon="6.41164">
        <ele>665</ele>
        <time>2011-04-03T12:32:48Z</time>
      </trkpt>
      <trkpt lat="46.09259" lon="6.41159">
        <ele>660</ele>
        <time>2011-04-03T12:32:52Z</time>
      </trkpt>
      <trkpt lat="46.09248" lon="6.41147">
        <ele>660</ele>
        <time>2011-04-03T12:32:55Z</time>
      </trkpt>
      <trkpt lat="46.09237" lon="6.41136">
        <ele>654</ele>
        <time>2011-04-03T12:32:57Z</time>
      </trkpt>
      <trkpt lat="46.09228" lon="6.41129">
        <ele>654</ele>
        <time>2011-04-03T12:32:59Z</time>
      </trkpt>
      <trkpt lat="46.09217" lon="6.41127">
        <ele>648</ele>
        <time>2011-04-03T12:33:02Z</time>
      </trkpt>
      <trkpt lat="46.09205" lon="6.41124">
        <ele>648</ele>
        <time>2011-04-03T12:33:05Z</time>
      </trkpt>
      <trkpt lat="46.09194" lon="6.41125">
        <ele>642</ele>
        <time>2011-04-03T12:33:09Z</time>
      </trkpt>
      <trkpt lat="46.09184" lon="6.41127">
        <ele>642</ele>
        <time>2011-04-03T12:33:12Z</time>
      </trkpt>
      <trkpt lat="46.09173" lon="6.41121">
        <ele>634</ele>
        <time>2011-04-03T12:33:15Z</time>
      </trkpt>
      <trkpt lat="46.09164" lon="6.41119">
        <ele>634</ele>
        <time>2011-04-03T12:33:17Z</time>
      </trkpt>
      <trkpt lat="46.09154" lon="6.41119">
        <ele>634</ele>
        <time>2011-04-03T12:33:19Z</time>
      </trkpt>
      <trkpt lat="46.09142" lon="6.41128">
        <ele>628</ele>
        <time>2011-04-03T12:33:22Z</time>
      </trkpt>
      <trkpt lat="46.09134" lon="6.41138">
        <ele>623</ele>
        <time>2011-04-03T12:33:25Z</time>
      </trkpt>
      <trkpt lat="46.09124" lon="6.41142">
        <ele>615</ele>
        <time>2011-04-03T12:33:29Z</time>
      </trkpt>
      <trkpt lat="46.0911" lon="6.41134">
        <ele>615</ele>
        <time>2011-04-03T12:33:32Z</time>
      </trkpt>
      <trkpt lat="46.09099" lon="6.41129">
        <ele>609</ele>
        <time>2011-04-03T12:33:34Z</time>
      </trkpt>
      <trkpt lat="46.09091" lon="6.41126">
        <ele>609</ele>
        <time>2011-04-03T12:33:36Z</time>
      </trkpt>
      <trkpt lat="46.09079" lon="6.41119">
        <ele>604</ele>
        <time>2011-04-03T12:33:39Z</time>
      </trkpt>
      <trkpt lat="46.09067" lon="6.4112">
        <ele>604</ele>
        <time>2011-04-03T12:33:43Z</time>
      </trkpt>
      <trkpt lat="46.09059" lon="6.41124">
        <ele>604</ele>
        <time>2011-04-03T12:33:46Z</time>
      </trkpt>
      <trkpt lat="46.09046" lon="6.41126">
        <ele>604</ele>
        <time>2011-04-03T12:33:49Z</time>
      </trkpt>
      <trkpt lat="46.09033" lon="6.41129">
        <ele>604</ele>
        <time>2011-04-03T12:33:53Z</time>
      </trkpt>
      <trkpt lat="46.09022" lon="6.41124">
        <ele>596</ele>
        <time>2011-04-03T12:33:56Z</time>
      </trkpt>
      <trkpt lat="46.09012" lon="6.41115">
        <ele>596</ele>
        <time>2011-04-03T12:33:59Z</time>
      </trkpt>
      <trkpt lat="46.09002" lon="6.41113">
        <ele>596</ele>
        <time>2011-04-03T12:34:01Z</time>
      </trkpt>
      <trkpt lat="46.08992" lon="6.41113">
        <ele>596</ele>
        <time>2011-04-03T12:34:03Z</time>
      </trkpt>
      <trkpt lat="46.08981" lon="6.41114">
        <ele>590</ele>
        <time>2011-04-03T12:34:06Z</time>
      </trkpt>
      <trkpt lat="46.08972" lon="6.41123">
        <ele>582</ele>
        <time>2011-04-03T12:34:11Z</time>
      </trkpt>
      <trkpt lat="46.08961" lon="6.41121">
        <ele>582</ele>
        <time>2011-04-03T12:34:15Z</time>
      </trkpt>
      <trkpt lat="46.08951" lon="6.41115">
        <ele>572</ele>
        <time>2011-04-03T12:34:18Z</time>
      </trkpt>
      <trkpt lat="46.08942" lon="6.41107">
        <ele>566</ele>
        <time>2011-04-03T12:34:22Z</time>
      </trkpt>
      <trkpt lat="46.08931" lon="6.41111">
        <ele>561</ele>
        <time>2011-04-03T12:34:25Z</time>
      </trkpt>
      <trkpt lat="46.08923" lon="6.41119">
        <ele>561</ele>
        <time>2011-04-03T12:34:27Z</time>
      </trkpt>
      <trkpt lat="46.08918" lon="6.41132">
        <ele>561</ele>
        <time>2011-04-03T12:34:30Z</time>
      </trkpt>
      <trkpt lat="46.08909" lon="6.41136">
        <ele>553</ele>
        <time>2011-04-03T12:34:33Z</time>
      </trkpt>
      <trkpt lat="46.08897" lon="6.41131">
        <ele>553</ele>
        <time>2011-04-03T12:34:35Z</time>
      </trkpt>
      <trkpt lat="46.08887" lon="6.41126">
        <ele>553</ele>
        <time>2011-04-03T12:34:37Z</time>
      </trkpt>
      <trkpt lat="46.08873" lon="6.41133">
        <ele>553</ele>
        <time>2011-04-03T12:34:40Z</time>
      </trkpt>
      <trkpt lat="46.08861" lon="6.4114">
        <ele>545</ele>
        <time>2011-04-03T12:34:42Z</time>
      </trkpt>
      <trkpt lat="46.08846" lon="6.41146">
        <ele>545</ele>
        <time>2011-04-03T12:34:44Z</time>
      </trkpt>
      <trkpt lat="46.08835" lon="6.41149">
        <ele>545</ele>
        <time>2011-04-03T12:34:46Z</time>
      </trkpt>
      <trkpt lat="46.08824" lon="6.41151">
        <ele>539</ele>
        <time>2011-04-03T12:34:48Z</time>
      </trkpt>
      <trkpt lat="46.08812" lon="6.41155">
        <ele>539</ele>
        <time>2011-04-03T12:34:50Z</time>
      </trkpt>
      <trkpt lat="46.08801" lon="6.41156">
        <ele>539</ele>
        <time>2011-04-03T12:34:52Z</time>
      </trkpt>
      <trkpt lat="46.08791" lon="6.41155">
        <ele>533</ele>
        <time>2011-04-03T12:34:54Z</time>
      </trkpt>
      <trkpt lat="46.08779" lon="6.41147">
        <ele>533</ele>
        <time>2011-04-03T12:34:57Z</time>
      </trkpt>
      <trkpt lat="46.0877" lon="6.41144">
        <ele>527</ele>
        <time>2011-04-03T12:35:00Z</time>
      </trkpt>
      <trkpt lat="46.08764" lon="6.41131">
        <ele>527</ele>
        <time>2011-04-03T12:35:22Z</time>
      </trkpt>
      <trkpt lat="46.08767" lon="6.41118">
        <ele>527</ele>
        <time>2011-04-03T12:35:24Z</time>
      </trkpt>
      <trkpt lat="46.08769" lon="6.41102">
        <ele>521</ele>
        <time>2011-04-03T12:35:26Z</time>
      </trkpt>
      <trkpt lat="46.08772" lon="6.41083">
        <ele>521</ele>
        <time>2011-04-03T12:35:28Z</time>
      </trkpt>
      <trkpt lat="46.08775" lon="6.41066">
        <ele>521</ele>
        <time>2011-04-03T12:35:30Z</time>
      </trkpt>
      <trkpt lat="46.08778" lon="6.4105">
        <ele>521</ele>
        <time>2011-04-03T12:35:32Z</time>
      </trkpt>
      <trkpt lat="46.08784" lon="6.41032">
        <ele>521</ele>
        <time>2011-04-03T12:35:34Z</time>
      </trkpt>
      <trkpt lat="46.0879" lon="6.41014">
        <ele>521</ele>
        <time>2011-04-03T12:35:36Z</time>
      </trkpt>
      <trkpt lat="46.08796" lon="6.40998">
        <ele>521</ele>
        <time>2011-04-03T12:35:38Z</time>
      </trkpt>
      <trkpt lat="46.08799" lon="6.40984">
        <ele>516</ele>
        <time>2011-04-03T12:35:40Z</time>
      </trkpt>
      <trkpt lat="46.08802" lon="6.4097">
        <ele>516</ele>
        <time>2011-04-03T12:35:42Z</time>
      </trkpt>
      <trkpt lat="46.08805" lon="6.40956">
        <ele>516</ele>
        <time>2011-04-03T12:35:44Z</time>
      </trkpt>
      <trkpt lat="46.08807" lon="6.40938">
        <ele>509</ele>
        <time>2011-04-03T12:35:47Z</time>
      </trkpt>
      <trkpt lat="46.08794" lon="6.40928">
        <ele>509</ele>
        <time>2011-04-03T12:35:50Z</time>
      </trkpt>
      <trkpt lat="46.08782" lon="6.40921">
        <ele>509</ele>
        <time>2011-04-03T12:35:52Z</time>
      </trkpt>
      <trkpt lat="46.08769" lon="6.40915">
        <ele>502</ele>
        <time>2011-04-03T12:35:54Z</time>
      </trkpt>
      <trkpt lat="46.08756" lon="6.40907">
        <ele>502</ele>
        <time>2011-04-03T12:35:56Z</time>
      </trkpt>
      <trkpt lat="46.08744" lon="6.40898">
        <ele>496</ele>
        <time>2011-04-03T12:35:58Z</time>
      </trkpt>
      <trkpt lat="46.08731" lon="6.4089">
        <ele>496</ele>
        <time>2011-04-03T12:36:00Z</time>
      </trkpt>
      <trkpt lat="46.08719" lon="6.40884">
        <ele>496</ele>
        <time>2011-04-03T12:36:02Z</time>
      </trkpt>
      <trkpt lat="46.08709" lon="6.40885">
        <ele>490</ele>
        <time>2011-04-03T12:36:04Z</time>
      </trkpt>
      <trkpt lat="46.08699" lon="6.4089">
        <ele>490</ele>
        <time>2011-04-03T12:36:06Z</time>
      </trkpt>
      <trkpt lat="46.08687" lon="6.40897">
        <ele>490</ele>
        <time>2011-04-03T12:36:08Z</time>
      </trkpt>
      <trkpt lat="46.08674" lon="6.40901">
        <ele>490</ele>
        <time>2011-04-03T12:36:10Z</time>
      </trkpt>
      <trkpt lat="46.08661" lon="6.40908">
        <ele>485</ele>
        <time>2011-04-03T12:36:12Z</time>
      </trkpt>
      <trkpt lat="46.08649" lon="6.40918">
        <ele>485</ele>
        <time>2011-04-03T12:36:14Z</time>
      </trkpt>
      <trkpt lat="46.08636" lon="6.40934">
        <ele>485</ele>
        <time>2011-04-03T12:36:16Z</time>
      </trkpt>
      <trkpt lat="46.08626" lon="6.40949">
        <ele>485</ele>
        <time>2011-04-03T12:36:18Z</time>
      </trkpt>
      <trkpt lat="46.08617" lon="6.40961">
        <ele>480</ele>
        <time>2011-04-03T12:36:20Z</time>
      </trkpt>
      <trkpt lat="46.08609" lon="6.4097">
        <ele>480</ele>
        <time>2011-04-03T12:36:22Z</time>
      </trkpt>
      <trkpt lat="46.08599" lon="6.40965">
        <ele>480</ele>
        <time>2011-04-03T12:36:24Z</time>
      </trkpt>
      <trkpt lat="46.08586" lon="6.40954">
        <ele>480</ele>
        <time>2011-04-03T12:36:26Z</time>
      </trkpt>
      <trkpt lat="46.08572" lon="6.40942">
        <ele>473</ele>
        <time>2011-04-03T12:36:28Z</time>
      </trkpt>
      <trkpt lat="46.08558" lon="6.40929">
        <ele>473</ele>
        <time>2011-04-03T12:36:30Z</time>
      </trkpt>
      <trkpt lat="46.08545" lon="6.40919">
        <ele>467</ele>
        <time>2011-04-03T12:36:32Z</time>
      </trkpt>
      <trkpt lat="46.08534" lon="6.40914">
        <ele>467</ele>
        <time>2011-04-03T12:36:34Z</time>
      </trkpt>
      <trkpt lat="46.08525" lon="6.40908">
        <ele>467</ele>
        <time>2011-04-03T12:36:37Z</time>
      </trkpt>
      <trkpt lat="46.08515" lon="6.4091">
        <ele>467</ele>
        <time>2011-04-03T12:36:40Z</time>
      </trkpt>
      <trkpt lat="46.08506" lon="6.40917">
        <ele>467</ele>
        <time>2011-04-03T12:36:42Z</time>
      </trkpt>
      <trkpt lat="46.08497" lon="6.40926">
        <ele>467</ele>
        <time>2011-04-03T12:36:44Z</time>
      </trkpt>
      <trkpt lat="46.08488" lon="6.40938">
        <ele>467</ele>
        <time>2011-04-03T12:36:47Z</time>
      </trkpt>
      <trkpt lat="46.08482" lon="6.40927">
        <ele>467</ele>
        <time>2011-04-03T12:37:56Z</time>
      </trkpt>
      <trkpt lat="46.08477" lon="6.40916">
        <ele>467</ele>
        <time>2011-04-03T12:37:59Z</time>
      </trkpt>
      <trkpt lat="46.08477" lon="6.409">
        <ele>467</ele>
        <time>2011-04-03T12:38:01Z</time>
      </trkpt>
      <trkpt lat="46.08482" lon="6.40875">
        <ele>467</ele>
        <time>2011-04-03T12:38:03Z</time>
      </trkpt>
      <trkpt lat="46.08484" lon="6.40859">
        <ele>467</ele>
        <time>2011-04-03T12:38:04Z</time>
      </trkpt>
      <trkpt lat="46.08486" lon="6.40842">
        <ele>467</ele>
        <time>2011-04-03T12:38:05Z</time>
      </trkpt>
      <trkpt lat="46.08489" lon="6.40824">
        <ele>467</ele>
        <time>2011-04-03T12:38:06Z</time>
      </trkpt>
      <trkpt lat="46.08491" lon="6.40807">
        <ele>467</ele>
        <time>2011-04-03T12:38:07Z</time>
      </trkpt>
      <trkpt lat="46.08492" lon="6.40791">
        <ele>467</ele>
        <time>2011-04-03T12:38:08Z</time>
      </trkpt>
      <trkpt lat="46.08494" lon="6.40776">
        <ele>467</ele>
        <time>2011-04-03T12:38:09Z</time>
      </trkpt>
      <trkpt lat="46.08496" lon="6.40761">
        <ele>467</ele>
        <time>2011-04-03T12:38:10Z</time>
      </trkpt>
      <trkpt lat="46.08497" lon="6.40736">
        <ele>467</ele>
        <time>2011-04-03T12:38:12Z</time>
      </trkpt>
      <trkpt lat="46.08496" lon="6.40715">
        <ele>467</ele>
        <time>2011-04-03T12:38:14Z</time>
      </trkpt>
      <trkpt lat="46.08491" lon="6.40703">
        <ele>467</ele>
        <time>2011-04-03T12:38:16Z</time>
      </trkpt>
      <trkpt lat="46.08479" lon="6.40697">
        <ele>467</ele>
        <time>2011-04-03T12:38:18Z</time>
      </trkpt>
      <trkpt lat="46.0847" lon="6.40699">
        <ele>467</ele>
        <time>2011-04-03T12:38:19Z</time>
      </trkpt>
      <trkpt lat="46.08453" lon="6.40706">
        <ele>467</ele>
        <time>2011-04-03T12:38:21Z</time>
      </trkpt>
      <trkpt lat="46.08443" lon="6.4073">
        <ele>467</ele>
        <time>2011-04-03T12:38:23Z</time>
      </trkpt>
      <trkpt lat="46.08438" lon="6.40741">
        <ele>467</ele>
        <time>2011-04-03T12:38:24Z</time>
      </trkpt>
      <trkpt lat="46.08431" lon="6.4075">
        <ele>467</ele>
        <time>2011-04-03T12:38:25Z</time>
      </trkpt>
      <trkpt lat="46.08416" lon="6.40762">
        <ele>467</ele>
        <time>2011-04-03T12:38:27Z</time>
      </trkpt>
      <trkpt lat="46.08407" lon="6.40763">
        <ele>462</ele>
        <time>2011-04-03T12:38:28Z</time>
      </trkpt>
      <trkpt lat="46.08397" lon="6.40762">
        <ele>462</ele>
        <time>2011-04-03T12:38:29Z</time>
      </trkpt>
      <trkpt lat="46.08387" lon="6.4076">
        <ele>462</ele>
        <time>2011-04-03T12:38:30Z</time>
      </trkpt>
      <trkpt lat="46.08376" lon="6.40757">
        <ele>462</ele>
        <time>2011-04-03T12:38:31Z</time>
      </trkpt>
      <trkpt lat="46.08365" lon="6.4075">
        <ele>462</ele>
        <time>2011-04-03T12:38:32Z</time>
      </trkpt>
      <trkpt lat="46.08354" lon="6.40744">
        <ele>462</ele>
        <time>2011-04-03T12:38:33Z</time>
      </trkpt>
      <trkpt lat="46.08343" lon="6.40738">
        <ele>462</ele>
        <time>2011-04-03T12:38:34Z</time>
      </trkpt>
      <trkpt lat="46.08332" lon="6.40732">
        <ele>462</ele>
        <time>2011-04-03T12:38:35Z</time>
      </trkpt>
      <trkpt lat="46.08322" lon="6.40726">
        <ele>462</ele>
        <time>2011-04-03T12:38:36Z</time>
      </trkpt>
      <trkpt lat="46.08313" lon="6.4072">
        <ele>462</ele>
        <time>2011-04-03T12:38:37Z</time>
      </trkpt>
      <trkpt lat="46.08304" lon="6.40714">
        <ele>462</ele>
        <time>2011-04-03T12:38:38Z</time>
      </trkpt>
      <trkpt lat="46.08288" lon="6.40704">
        <ele>462</ele>
        <time>2011-04-03T12:38:40Z</time>
      </trkpt>
      <trkpt lat="46.08279" lon="6.40696">
        <ele>462</ele>
        <time>2011-04-03T12:38:41Z</time>
      </trkpt>
      <trkpt lat="46.08271" lon="6.40689">
        <ele>462</ele>
        <time>2011-04-03T12:38:42Z</time>
      </trkpt>
      <trkpt lat="46.08264" lon="6.40681">
        <ele>462</ele>
        <time>2011-04-03T12:38:43Z</time>
      </trkpt>
      <trkpt lat="46.08254" lon="6.40673">
        <ele>462</ele>
        <time>2011-04-03T12:38:44Z</time>
      </trkpt>
      <trkpt lat="46.08246" lon="6.40664">
        <ele>462</ele>
        <time>2011-04-03T12:38:45Z</time>
      </trkpt>
      <trkpt lat="46.08236" lon="6.40653">
        <ele>462</ele>
        <time>2011-04-03T12:38:46Z</time>
      </trkpt>
      <trkpt lat="46.08227" lon="6.40643">
        <ele>462</ele>
        <time>2011-04-03T12:38:47Z</time>
      </trkpt>
      <trkpt lat="46.08219" lon="6.40632">
        <ele>462</ele>
        <time>2011-04-03T12:38:48Z</time>
      </trkpt>
      <trkpt lat="46.08211" lon="6.40621">
        <ele>462</ele>
        <time>2011-04-03T12:38:49Z</time>
      </trkpt>
      <trkpt lat="46.08204" lon="6.40611">
        <ele>462</ele>
        <time>2011-04-03T12:38:50Z</time>
      </trkpt>
      <trkpt lat="46.08194" lon="6.406">
        <ele>462</ele>
        <time>2011-04-03T12:38:51Z</time>
      </trkpt>
      <trkpt lat="46.08184" lon="6.4059">
        <ele>456</ele>
        <time>2011-04-03T12:38:52Z</time>
      </trkpt>
      <trkpt lat="46.08174" lon="6.40581">
        <ele>456</ele>
        <time>2011-04-03T12:38:53Z</time>
      </trkpt>
      <trkpt lat="46.08164" lon="6.40573">
        <ele>456</ele>
        <time>2011-04-03T12:38:54Z</time>
      </trkpt>
      <trkpt lat="46.08154" lon="6.40565">
        <ele>456</ele>
        <time>2011-04-03T12:38:55Z</time>
      </trkpt>
      <trkpt lat="46.08145" lon="6.40558">
        <ele>456</ele>
        <time>2011-04-03T12:38:56Z</time>
      </trkpt>
      <trkpt lat="46.08135" lon="6.40552">
        <ele>456</ele>
        <time>2011-04-03T12:38:57Z</time>
      </trkpt>
      <trkpt lat="46.08125" lon="6.40546">
        <ele>456</ele>
        <time>2011-04-03T12:38:58Z</time>
      </trkpt>
      <trkpt lat="46.08115" lon="6.40543">
        <ele>456</ele>
        <time>2011-04-03T12:38:59Z</time>
      </trkpt>
      <trkpt lat="46.08104" lon="6.40543">
        <ele>456</ele>
        <time>2011-04-03T12:39:00Z</time>
      </trkpt>
      <trkpt lat="46.08092" lon="6.40546">
        <ele>456</ele>
        <time>2011-04-03T12:39:01Z</time>
      </trkpt>
      <trkpt lat="46.08082" lon="6.40549">
        <ele>456</ele>
        <time>2011-04-03T12:39:02Z</time>
      </trkpt>
      <trkpt lat="46.08071" lon="6.40553">
        <ele>456</ele>
        <time>2011-04-03T12:39:03Z</time>
      </trkpt>
      <trkpt lat="46.08062" lon="6.40556">
        <ele>456</ele>
        <time>2011-04-03T12:39:04Z</time>
      </trkpt>
      <trkpt lat="46.08045" lon="6.40562">
        <ele>456</ele>
        <time>2011-04-03T12:39:06Z</time>
      </trkpt>
      <trkpt lat="46.0803" lon="6.40566">
        <ele>456</ele>
        <time>2011-04-03T12:39:08Z</time>
      </trkpt>
      <trkpt lat="46.08019" lon="6.40567">
        <ele>456</ele>
        <time>2011-04-03T12:39:10Z</time>
      </trkpt>
      <trkpt lat="46.08009" lon="6.40564">
        <ele>456</ele>
        <time>2011-04-03T12:39:13Z</time>
      </trkpt>
      <trkpt lat="46.07998" lon="6.40569">
        <ele>456</ele>
        <time>2011-04-03T12:39:15Z</time>
      </trkpt>
      <trkpt lat="46.07985" lon="6.40581">
        <ele>456</ele>
        <time>2011-04-03T12:39:17Z</time>
      </trkpt>
      <trkpt lat="46.07975" lon="6.40584">
        <ele>456</ele>
        <time>2011-04-03T12:39:19Z</time>
      </trkpt>
      <trkpt lat="46.07968" lon="6.40568">
        <ele>456</ele>
        <time>2011-04-03T12:39:21Z</time>
      </trkpt>
      <trkpt lat="46.07967" lon="6.40555">
        <ele>456</ele>
        <time>2011-04-03T12:39:22Z</time>
      </trkpt>
      <trkpt lat="46.07964" lon="6.4054">
        <ele>456</ele>
        <time>2011-04-03T12:39:23Z</time>
      </trkpt>
      <trkpt lat="46.07962" lon="6.40525">
        <ele>456</ele>
        <time>2011-04-03T12:39:24Z</time>
      </trkpt>
      <trkpt lat="46.07958" lon="6.4051">
        <ele>456</ele>
        <time>2011-04-03T12:39:25Z</time>
      </trkpt>
      <trkpt lat="46.07954" lon="6.40496">
        <ele>456</ele>
        <time>2011-04-03T12:39:26Z</time>
      </trkpt>
      <trkpt lat="46.07949" lon="6.40483">
        <ele>456</ele>
        <time>2011-04-03T12:39:27Z</time>
      </trkpt>
      <trkpt lat="46.07945" lon="6.40471">
        <ele>456</ele>
        <time>2011-04-03T12:39:28Z</time>
      </trkpt>
      <trkpt lat="46.07938" lon="6.40449">
        <ele>456</ele>
        <time>2011-04-03T12:39:30Z</time>
      </trkpt>
      <trkpt lat="46.07936" lon="6.40431">
        <ele>456</ele>
        <time>2011-04-03T12:39:32Z</time>
      </trkpt>
      <trkpt lat="46.07936" lon="6.40415">
        <ele>456</ele>
        <time>2011-04-03T12:39:35Z</time>
      </trkpt>
      <trkpt lat="46.07925" lon="6.40418">
        <ele>456</ele>
        <time>2011-04-03T12:39:39Z</time>
      </trkpt>
      <trkpt lat="46.07917" lon="6.404">
        <ele>456</ele>
        <time>2011-04-03T12:39:44Z</time>
      </trkpt>
      <trkpt lat="46.07909" lon="6.40378">
        <ele>456</ele>
        <time>2011-04-03T12:39:46Z</time>
      </trkpt>
      <trkpt lat="46.07902" lon="6.40359">
        <ele>456</ele>
        <time>2011-04-03T12:39:48Z</time>
      </trkpt>
      <trkpt lat="46.07895" lon="6.40342">
        <ele>456</ele>
        <time>2011-04-03T12:39:50Z</time>
      </trkpt>
      <trkpt lat="46.07889" lon="6.40326">
        <ele>456</ele>
        <time>2011-04-03T12:39:52Z</time>
      </trkpt>
      <trkpt lat="46.07883" lon="6.40311">
        <ele>456</ele>
        <time>2011-04-03T12:39:54Z</time>
      </trkpt>
      <trkpt lat="46.07878" lon="6.40298">
        <ele>456</ele>
        <time>2011-04-03T12:39:56Z</time>
      </trkpt>
      <trkpt lat="46.07874" lon="6.40284">
        <ele>456</ele>
        <time>2011-04-03T12:39:58Z</time>
      </trkpt>
      <trkpt lat="46.07878" lon="6.40269">
        <ele>456</ele>
        <time>2011-04-03T12:40:00Z</time>
      </trkpt>
      <trkpt lat="46.07884" lon="6.4025">
        <ele>456</ele>
        <time>2011-04-03T12:40:02Z</time>
      </trkpt>
      <trkpt lat="46.07888" lon="6.40231">
        <ele>456</ele>
        <time>2011-04-03T12:40:04Z</time>
      </trkpt>
      <trkpt lat="46.07891" lon="6.40217">
        <ele>456</ele>
        <time>2011-04-03T12:40:06Z</time>
      </trkpt>
      <trkpt lat="46.07895" lon="6.40203">
        <ele>456</ele>
        <time>2011-04-03T12:40:19Z</time>
      </trkpt>
      <trkpt lat="46.07901" lon="6.40173">
        <ele>451</ele>
        <time>2011-04-03T12:40:21Z</time>
      </trkpt>
      <trkpt lat="46.07905" lon="6.40149">
        <ele>451</ele>
        <time>2011-04-03T12:40:22Z</time>
      </trkpt>
      <trkpt lat="46.0791" lon="6.40119">
        <ele>451</ele>
        <time>2011-04-03T12:40:23Z</time>
      </trkpt>
      <trkpt lat="46.07915" lon="6.40089">
        <ele>451</ele>
        <time>2011-04-03T12:40:24Z</time>
      </trkpt>
      <trkpt lat="46.0792" lon="6.4006">
        <ele>451</ele>
        <time>2011-04-03T12:40:25Z</time>
      </trkpt>
      <trkpt lat="46.07924" lon="6.40036">
        <ele>451</ele>
        <time>2011-04-03T12:40:26Z</time>
      </trkpt>
      <trkpt lat="46.07926" lon="6.40018">
        <ele>451</ele>
        <time>2011-04-03T12:40:27Z</time>
      </trkpt>
      <trkpt lat="46.07927" lon="6.40003">
        <ele>451</ele>
        <time>2011-04-03T12:40:28Z</time>
      </trkpt>
      <trkpt lat="46.0793" lon="6.39982">
        <ele>451</ele>
        <time>2011-04-03T12:40:30Z</time>
      </trkpt>
      <trkpt lat="46.07929" lon="6.39969">
        <ele>451</ele>
        <time>2011-04-03T12:40:34Z</time>
      </trkpt>
      <trkpt lat="46.07917" lon="6.39975">
        <ele>451</ele>
        <time>2011-04-03T12:40:38Z</time>
      </trkpt>
      <trkpt lat="46.079" lon="6.39977">
        <ele>451</ele>
        <time>2011-04-03T12:40:40Z</time>
      </trkpt>
      <trkpt lat="46.07889" lon="6.39976">
        <ele>451</ele>
        <time>2011-04-03T12:40:41Z</time>
      </trkpt>
      <trkpt lat="46.07877" lon="6.39973">
        <ele>451</ele>
        <time>2011-04-03T12:40:42Z</time>
      </trkpt>
      <trkpt lat="46.07864" lon="6.39971">
        <ele>451</ele>
        <time>2011-04-03T12:40:43Z</time>
      </trkpt>
      <trkpt lat="46.07851" lon="6.39968">
        <ele>451</ele>
        <time>2011-04-03T12:40:44Z</time>
      </trkpt>
      <trkpt lat="46.07838" lon="6.39965">
        <ele>451</ele>
        <time>2011-04-03T12:40:45Z</time>
      </trkpt>
      <trkpt lat="46.07827" lon="6.39963">
        <ele>451</ele>
        <time>2011-04-03T12:40:46Z</time>
      </trkpt>
      <trkpt lat="46.07815" lon="6.39959">
        <ele>451</ele>
        <time>2011-04-03T12:40:47Z</time>
      </trkpt>
      <trkpt lat="46.07802" lon="6.39954">
        <ele>451</ele>
        <time>2011-04-03T12:40:48Z</time>
      </trkpt>
      <trkpt lat="46.0779" lon="6.3995">
        <ele>451</ele>
        <time>2011-04-03T12:40:49Z</time>
      </trkpt>
      <trkpt lat="46.07778" lon="6.39945">
        <ele>451</ele>
        <time>2011-04-03T12:40:50Z</time>
      </trkpt>
      <trkpt lat="46.07766" lon="6.39939">
        <ele>451</ele>
        <time>2011-04-03T12:40:51Z</time>
      </trkpt>
      <trkpt lat="46.07754" lon="6.39934">
        <ele>451</ele>
        <time>2011-04-03T12:40:52Z</time>
      </trkpt>
      <trkpt lat="46.07742" lon="6.39928">
        <ele>451</ele>
        <time>2011-04-03T12:40:53Z</time>
      </trkpt>
      <trkpt lat="46.07731" lon="6.39923">
        <ele>451</ele>
        <time>2011-04-03T12:40:54Z</time>
      </trkpt>
      <trkpt lat="46.07721" lon="6.39918">
        <ele>451</ele>
        <time>2011-04-03T12:40:55Z</time>
      </trkpt>
      <trkpt lat="46.0771" lon="6.39912">
        <ele>451</ele>
        <time>2011-04-03T12:40:56Z</time>
      </trkpt>
      <trkpt lat="46.07699" lon="6.39906">
        <ele>451</ele>
        <time>2011-04-03T12:40:57Z</time>
      </trkpt>
      <trkpt lat="46.07688" lon="6.399">
        <ele>451</ele>
        <time>2011-04-03T12:40:58Z</time>
      </trkpt>
      <trkpt lat="46.07678" lon="6.39893">
        <ele>451</ele>
        <time>2011-04-03T12:40:59Z</time>
      </trkpt>
      <trkpt lat="46.07667" lon="6.39885">
        <ele>451</ele>
        <time>2011-04-03T12:41:00Z</time>
      </trkpt>
      <trkpt lat="46.07657" lon="6.39878">
        <ele>451</ele>
        <time>2011-04-03T12:41:01Z</time>
      </trkpt>
      <trkpt lat="46.07647" lon="6.3987">
        <ele>451</ele>
        <time>2011-04-03T12:41:02Z</time>
      </trkpt>
      <trkpt lat="46.07635" lon="6.39861">
        <ele>451</ele>
        <time>2011-04-03T12:41:03Z</time>
      </trkpt>
      <trkpt lat="46.07624" lon="6.39851">
        <ele>451</ele>
        <time>2011-04-03T12:41:04Z</time>
      </trkpt>
      <trkpt lat="46.07614" lon="6.39841">
        <ele>451</ele>
        <time>2011-04-03T12:41:05Z</time>
      </trkpt>
      <trkpt lat="46.07603" lon="6.39831">
        <ele>451</ele>
        <time>2011-04-03T12:41:06Z</time>
      </trkpt>
      <trkpt lat="46.07593" lon="6.3982">
        <ele>451</ele>
        <time>2011-04-03T12:41:07Z</time>
      </trkpt>
      <trkpt lat="46.07582" lon="6.39808">
        <ele>451</ele>
        <time>2011-04-03T12:41:08Z</time>
      </trkpt>
      <trkpt lat="46.07571" lon="6.39797">
        <ele>451</ele>
        <time>2011-04-03T12:41:09Z</time>
      </trkpt>
      <trkpt lat="46.0756" lon="6.39786">
        <ele>451</ele>
        <time>2011-04-03T12:41:10Z</time>
      </trkpt>
      <trkpt lat="46.0755" lon="6.39777">
        <ele>451</ele>
        <time>2011-04-03T12:41:11Z</time>
      </trkpt>
      <trkpt lat="46.0754" lon="6.39768">
        <ele>456</ele>
        <time>2011-04-03T12:41:12Z</time>
      </trkpt>
      <trkpt lat="46.0753" lon="6.39758">
        <ele>456</ele>
        <time>2011-04-03T12:41:13Z</time>
      </trkpt>
      <trkpt lat="46.0752" lon="6.39749">
        <ele>456</ele>
        <time>2011-04-03T12:41:14Z</time>
      </trkpt>
      <trkpt lat="46.07509" lon="6.39738">
        <ele>456</ele>
        <time>2011-04-03T12:41:16Z</time>
      </trkpt>
      <trkpt lat="46.07515" lon="6.39728">
        <ele>456</ele>
        <time>2011-04-03T12:41:26Z</time>
      </trkpt>
      <trkpt lat="46.07505" lon="6.39716">
        <ele>456</ele>
        <time>2011-04-03T12:41:29Z</time>
      </trkpt>
      <trkpt lat="46.07492" lon="6.39706">
        <ele>456</ele>
        <time>2011-04-03T12:41:31Z</time>
      </trkpt>
      <trkpt lat="46.07483" lon="6.39698">
        <ele>456</ele>
        <time>2011-04-03T12:41:33Z</time>
      </trkpt>
      <trkpt lat="46.07474" lon="6.39692">
        <ele>456</ele>
        <time>2011-04-03T12:41:36Z</time>
      </trkpt>
      <trkpt lat="46.07465" lon="6.3968">
        <ele>456</ele>
        <time>2011-04-03T12:41:38Z</time>
      </trkpt>
      <trkpt lat="46.07457" lon="6.39672">
        <ele>456</ele>
        <time>2011-04-03T12:41:39Z</time>
      </trkpt>
      <trkpt lat="46.07448" lon="6.39664">
        <ele>456</ele>
        <time>2011-04-03T12:41:40Z</time>
      </trkpt>
      <trkpt lat="46.0744" lon="6.39657">
        <ele>456</ele>
        <time>2011-04-03T12:41:41Z</time>
      </trkpt>
      <trkpt lat="46.07425" lon="6.39644">
        <ele>456</ele>
        <time>2011-04-03T12:41:43Z</time>
      </trkpt>
      <trkpt lat="46.0741" lon="6.39629">
        <ele>456</ele>
        <time>2011-04-03T12:41:45Z</time>
      </trkpt>
      <trkpt lat="46.07402" lon="6.39623">
        <ele>456</ele>
        <time>2011-04-03T12:41:46Z</time>
      </trkpt>
      <trkpt lat="46.07393" lon="6.39617">
        <ele>456</ele>
        <time>2011-04-03T12:41:47Z</time>
      </trkpt>
      <trkpt lat="46.07377" lon="6.39601">
        <ele>456</ele>
        <time>2011-04-03T12:41:49Z</time>
      </trkpt>
      <trkpt lat="46.07369" lon="6.39594">
        <ele>456</ele>
        <time>2011-04-03T12:41:50Z</time>
      </trkpt>
      <trkpt lat="46.0736" lon="6.39586">
        <ele>456</ele>
        <time>2011-04-03T12:41:51Z</time>
      </trkpt>
      <trkpt lat="46.07352" lon="6.39579">
        <ele>456</ele>
        <time>2011-04-03T12:41:52Z</time>
      </trkpt>
      <trkpt lat="46.07344" lon="6.39572">
        <ele>456</ele>
        <time>2011-04-03T12:41:53Z</time>
      </trkpt>
      <trkpt lat="46.07336" lon="6.39565">
        <ele>456</ele>
        <time>2011-04-03T12:41:54Z</time>
      </trkpt>
      <trkpt lat="46.07322" lon="6.39552">
        <ele>456</ele>
        <time>2011-04-03T12:41:56Z</time>
      </trkpt>
      <trkpt lat="46.07314" lon="6.39544">
        <ele>462</ele>
        <time>2011-04-03T12:41:58Z</time>
      </trkpt>
      <trkpt lat="46.073" lon="6.3953">
        <ele>462</ele>
        <time>2011-04-03T12:42:10Z</time>
      </trkpt>
      <trkpt lat="46.0729" lon="6.39521">
        <ele>462</ele>
        <time>2011-04-03T12:42:11Z</time>
      </trkpt>
      <trkpt lat="46.07278" lon="6.39506">
        <ele>462</ele>
        <time>2011-04-03T12:42:12Z</time>
      </trkpt>
      <trkpt lat="46.07261" lon="6.39488">
        <ele>462</ele>
        <time>2011-04-03T12:42:13Z</time>
      </trkpt>
      <trkpt lat="46.0724" lon="6.39468">
        <ele>462</ele>
        <time>2011-04-03T12:42:14Z</time>
      </trkpt>
      <trkpt lat="46.07216" lon="6.39444">
        <ele>462</ele>
        <time>2011-04-03T12:42:15Z</time>
      </trkpt>
      <trkpt lat="46.07191" lon="6.3942">
        <ele>462</ele>
        <time>2011-04-03T12:42:16Z</time>
      </trkpt>
      <trkpt lat="46.07166" lon="6.39395">
        <ele>462</ele>
        <time>2011-04-03T12:42:17Z</time>
      </trkpt>
      <trkpt lat="46.07139" lon="6.39369">
        <ele>462</ele>
        <time>2011-04-03T12:42:18Z</time>
      </trkpt>
      <trkpt lat="46.07111" lon="6.39342">
        <ele>462</ele>
        <time>2011-04-03T12:42:19Z</time>
      </trkpt>
      <trkpt lat="46.07084" lon="6.39315">
        <ele>462</ele>
        <time>2011-04-03T12:42:20Z</time>
      </trkpt>
      <trkpt lat="46.07056" lon="6.39288">
        <ele>462</ele>
        <time>2011-04-03T12:42:21Z</time>
      </trkpt>
      <trkpt lat="46.07028" lon="6.3926">
        <ele>462</ele>
        <time>2011-04-03T12:42:22Z</time>
      </trkpt>
      <trkpt lat="46.06998" lon="6.39232">
        <ele>462</ele>
        <time>2011-04-03T12:42:23Z</time>
      </trkpt>
      <trkpt lat="46.06968" lon="6.39203">
        <ele>462</ele>
        <time>2011-04-03T12:42:24Z</time>
      </trkpt>
      <trkpt lat="46.06939" lon="6.39175">
        <ele>462</ele>
        <time>2011-04-03T12:42:25Z</time>
      </trkpt>
      <trkpt lat="46.06909" lon="6.39145">
        <ele>462</ele>
        <time>2011-04-03T12:42:26Z</time>
      </trkpt>
      <trkpt lat="46.06878" lon="6.39115">
        <ele>462</ele>
        <time>2011-04-03T12:42:27Z</time>
      </trkpt>
      <trkpt lat="46.06848" lon="6.39086">
        <ele>467</ele>
        <time>2011-04-03T12:42:28Z</time>
      </trkpt>
      <trkpt lat="46.06817" lon="6.39056">
        <ele>467</ele>
        <time>2011-04-03T12:42:29Z</time>
      </trkpt>
      <trkpt lat="46.06786" lon="6.39027">
        <ele>467</ele>
        <time>2011-04-03T12:42:30Z</time>
      </trkpt>
      <trkpt lat="46.06755" lon="6.38996">
        <ele>467</ele>
        <time>2011-04-03T12:42:31Z</time>
      </trkpt>
      <trkpt lat="46.06724" lon="6.38965">
        <ele>467</ele>
        <time>2011-04-03T12:42:32Z</time>
      </trkpt>
      <trkpt lat="46.06693" lon="6.38935">
        <ele>467</ele>
        <time>2011-04-03T12:42:33Z</time>
      </trkpt>
      <trkpt lat="46.06662" lon="6.38905">
        <ele>467</ele>
        <time>2011-04-03T12:42:34Z</time>
      </trkpt>
      <trkpt lat="46.06631" lon="6.38875">
        <ele>467</ele>
        <time>2011-04-03T12:42:35Z</time>
      </trkpt>
      <trkpt lat="46.06599" lon="6.38845">
        <ele>467</ele>
        <time>2011-04-03T12:42:36Z</time>
      </trkpt>
      <trkpt lat="46.06569" lon="6.38815">
        <ele>467</ele>
        <time>2011-04-03T12:42:37Z</time>
      </trkpt>
      <trkpt lat="46.06537" lon="6.38785">
        <ele>472</ele>
        <time>2011-04-03T12:42:38Z</time>
      </trkpt>
      <trkpt lat="46.06507" lon="6.38756">
        <ele>472</ele>
        <time>2011-04-03T12:42:39Z</time>
      </trkpt>
      <trkpt lat="46.06479" lon="6.38728">
        <ele>472</ele>
        <time>2011-04-03T12:42:40Z</time>
      </trkpt>
      <trkpt lat="46.06452" lon="6.38702">
        <ele>472</ele>
        <time>2011-04-03T12:42:41Z</time>
      </trkpt>
      <trkpt lat="46.06427" lon="6.38679">
        <ele>472</ele>
        <time>2011-04-03T12:42:42Z</time>
      </trkpt>
      <trkpt lat="46.06405" lon="6.38657">
        <ele>472</ele>
        <time>2011-04-03T12:42:43Z</time>
      </trkpt>
      <trkpt lat="46.06385" lon="6.38639">
        <ele>472</ele>
        <time>2011-04-03T12:42:44Z</time>
      </trkpt>
      <trkpt lat="46.0637" lon="6.38623">
        <ele>472</ele>
        <time>2011-04-03T12:42:45Z</time>
      </trkpt>
      <trkpt lat="46.06354" lon="6.38607">
        <ele>472</ele>
        <time>2011-04-03T12:42:46Z</time>
      </trkpt>
      <trkpt lat="46.06339" lon="6.38593">
        <ele>472</ele>
        <time>2011-04-03T12:42:47Z</time>
      </trkpt>
      <trkpt lat="46.06323" lon="6.38577">
        <ele>477</ele>
        <time>2011-04-03T12:42:48Z</time>
      </trkpt>
      <trkpt lat="46.06308" lon="6.38564">
        <ele>477</ele>
        <time>2011-04-03T12:42:49Z</time>
      </trkpt>
      <trkpt lat="46.06294" lon="6.3855">
        <ele>477</ele>
        <time>2011-04-03T12:42:50Z</time>
      </trkpt>
      <trkpt lat="46.06281" lon="6.38538">
        <ele>477</ele>
        <time>2011-04-03T12:42:51Z</time>
      </trkpt>
      <trkpt lat="46.06268" lon="6.38524">
        <ele>477</ele>
        <time>2011-04-03T12:42:52Z</time>
      </trkpt>
      <trkpt lat="46.06255" lon="6.38512">
        <ele>477</ele>
        <time>2011-04-03T12:42:53Z</time>
      </trkpt>
      <trkpt lat="46.06243" lon="6.38499">
        <ele>477</ele>
        <time>2011-04-03T12:42:54Z</time>
      </trkpt>
      <trkpt lat="46.06231" lon="6.38487">
        <ele>477</ele>
        <time>2011-04-03T12:42:55Z</time>
      </trkpt>
      <trkpt lat="46.06219" lon="6.38475">
        <ele>477</ele>
        <time>2011-04-03T12:42:56Z</time>
      </trkpt>
      <trkpt lat="46.06209" lon="6.38464">
        <ele>477</ele>
        <time>2011-04-03T12:42:57Z</time>
      </trkpt>
      <trkpt lat="46.06199" lon="6.38454">
        <ele>477</ele>
        <time>2011-04-03T12:42:58Z</time>
      </trkpt>
      <trkpt lat="46.0619" lon="6.38446">
        <ele>477</ele>
        <time>2011-04-03T12:42:59Z</time>
      </trkpt>
      <trkpt lat="46.06183" lon="6.38438">
        <ele>477</ele>
        <time>2011-04-03T12:43:00Z</time>
      </trkpt>
      <trkpt lat="46.06169" lon="6.38424">
        <ele>477</ele>
        <time>2011-04-03T12:43:02Z</time>
      </trkpt>
      <trkpt lat="46.06158" lon="6.38407">
        <ele>477</ele>
        <time>2011-04-03T12:43:04Z</time>
      </trkpt>
      <trkpt lat="46.0615" lon="6.38388">
        <ele>477</ele>
        <time>2011-04-03T12:43:06Z</time>
      </trkpt>
      <trkpt lat="46.06148" lon="6.38366">
        <ele>477</ele>
        <time>2011-04-03T12:43:08Z</time>
      </trkpt>
      <trkpt lat="46.06148" lon="6.38341">
        <ele>477</ele>
        <time>2011-04-03T12:43:10Z</time>
      </trkpt>
      <trkpt lat="46.06148" lon="6.38328">
        <ele>477</ele>
        <time>2011-04-03T12:43:11Z</time>
      </trkpt>
      <trkpt lat="46.06148" lon="6.38313">
        <ele>477</ele>
        <time>2011-04-03T12:43:12Z</time>
      </trkpt>
      <trkpt lat="46.06148" lon="6.38298">
        <ele>477</ele>
        <time>2011-04-03T12:43:13Z</time>
      </trkpt>
      <trkpt lat="46.06148" lon="6.38283">
        <ele>477</ele>
        <time>2011-04-03T12:43:14Z</time>
      </trkpt>
      <trkpt lat="46.06148" lon="6.38267">
        <ele>477</ele>
        <time>2011-04-03T12:43:15Z</time>
      </trkpt>
      <trkpt lat="46.06147" lon="6.3825">
        <ele>477</ele>
        <time>2011-04-03T12:43:16Z</time>
      </trkpt>
      <trkpt lat="46.06147" lon="6.38232">
        <ele>477</ele>
        <time>2011-04-03T12:43:17Z</time>
      </trkpt>
      <trkpt lat="46.06146" lon="6.38214">
        <ele>477</ele>
        <time>2011-04-03T12:43:18Z</time>
      </trkpt>
      <trkpt lat="46.06145" lon="6.38196">
        <ele>477</ele>
        <time>2011-04-03T12:43:19Z</time>
      </trkpt>
      <trkpt lat="46.06145" lon="6.38176">
        <ele>477</ele>
        <time>2011-04-03T12:43:20Z</time>
      </trkpt>
      <trkpt lat="46.06143" lon="6.38154">
        <ele>477</ele>
        <time>2011-04-03T12:43:21Z</time>
      </trkpt>
      <trkpt lat="46.06142" lon="6.38133">
        <ele>477</ele>
        <time>2011-04-03T12:43:22Z</time>
      </trkpt>
      <trkpt lat="46.06141" lon="6.38112">
        <ele>477</ele>
        <time>2011-04-03T12:43:23Z</time>
      </trkpt>
      <trkpt lat="46.06139" lon="6.38091">
        <ele>477</ele>
        <time>2011-04-03T12:43:24Z</time>
      </trkpt>
      <trkpt lat="46.06137" lon="6.38071">
        <ele>477</ele>
        <time>2011-04-03T12:43:25Z</time>
      </trkpt>
      <trkpt lat="46.06133" lon="6.38051">
        <ele>477</ele>
        <time>2011-04-03T12:43:26Z</time>
      </trkpt>
      <trkpt lat="46.06129" lon="6.38031">
        <ele>477</ele>
        <time>2011-04-03T12:43:27Z</time>
      </trkpt>
      <trkpt lat="46.06125" lon="6.38011">
        <ele>477</ele>
        <time>2011-04-03T12:43:28Z</time>
      </trkpt>
      <trkpt lat="46.0612" lon="6.37991">
        <ele>477</ele>
        <time>2011-04-03T12:43:29Z</time>
      </trkpt>
      <trkpt lat="46.06115" lon="6.37971">
        <ele>477</ele>
        <time>2011-04-03T12:43:30Z</time>
      </trkpt>
      <trkpt lat="46.06109" lon="6.37951">
        <ele>477</ele>
        <time>2011-04-03T12:43:31Z</time>
      </trkpt>
      <trkpt lat="46.06103" lon="6.37931">
        <ele>477</ele>
        <time>2011-04-03T12:43:32Z</time>
      </trkpt>
      <trkpt lat="46.06098" lon="6.37911">
        <ele>482</ele>
        <time>2011-04-03T12:43:33Z</time>
      </trkpt>
      <trkpt lat="46.06092" lon="6.37891">
        <ele>482</ele>
        <time>2011-04-03T12:43:34Z</time>
      </trkpt>
      <trkpt lat="46.06087" lon="6.37871">
        <ele>482</ele>
        <time>2011-04-03T12:43:35Z</time>
      </trkpt>
      <trkpt lat="46.06081" lon="6.37852">
        <ele>482</ele>
        <time>2011-04-03T12:43:36Z</time>
      </trkpt>
      <trkpt lat="46.06075" lon="6.37833">
        <ele>482</ele>
        <time>2011-04-03T12:43:37Z</time>
      </trkpt>
      <trkpt lat="46.06069" lon="6.37815">
        <ele>482</ele>
        <time>2011-04-03T12:43:38Z</time>
      </trkpt>
      <trkpt lat="46.06063" lon="6.37797">
        <ele>482</ele>
        <time>2011-04-03T12:43:39Z</time>
      </trkpt>
      <trkpt lat="46.06056" lon="6.37779">
        <ele>482</ele>
        <time>2011-04-03T12:43:40Z</time>
      </trkpt>
      <trkpt lat="46.0605" lon="6.37761">
        <ele>482</ele>
        <time>2011-04-03T12:43:41Z</time>
      </trkpt>
      <trkpt lat="46.06043" lon="6.37744">
        <ele>482</ele>
        <time>2011-04-03T12:43:42Z</time>
      </trkpt>
      <trkpt lat="46.06035" lon="6.37727">
        <ele>482</ele>
        <time>2011-04-03T12:43:43Z</time>
      </trkpt>
      <trkpt lat="46.06028" lon="6.3771">
        <ele>482</ele>
        <time>2011-04-03T12:43:44Z</time>
      </trkpt>
      <trkpt lat="46.0602" lon="6.37693">
        <ele>482</ele>
        <time>2011-04-03T12:43:45Z</time>
      </trkpt>
      <trkpt lat="46.06013" lon="6.37676">
        <ele>482</ele>
        <time>2011-04-03T12:43:46Z</time>
      </trkpt>
      <trkpt lat="46.06005" lon="6.37659">
        <ele>482</ele>
        <time>2011-04-03T12:43:47Z</time>
      </trkpt>
      <trkpt lat="46.05997" lon="6.37642">
        <ele>482</ele>
        <time>2011-04-03T12:43:48Z</time>
      </trkpt>
      <trkpt lat="46.05989" lon="6.37626">
        <ele>482</ele>
        <time>2011-04-03T12:43:49Z</time>
      </trkpt>
      <trkpt lat="46.05982" lon="6.3761">
        <ele>482</ele>
        <time>2011-04-03T12:43:50Z</time>
      </trkpt>
      <trkpt lat="46.05974" lon="6.37593">
        <ele>482</ele>
        <time>2011-04-03T12:43:51Z</time>
      </trkpt>
      <trkpt lat="46.05966" lon="6.37577">
        <ele>482</ele>
        <time>2011-04-03T12:43:52Z</time>
      </trkpt>
      <trkpt lat="46.05958" lon="6.3756">
        <ele>482</ele>
        <time>2011-04-03T12:43:53Z</time>
      </trkpt>
      <trkpt lat="46.0595" lon="6.37543">
        <ele>482</ele>
        <time>2011-04-03T12:43:54Z</time>
      </trkpt>
      <trkpt lat="46.05942" lon="6.37527">
        <ele>482</ele>
        <time>2011-04-03T12:43:55Z</time>
      </trkpt>
      <trkpt lat="46.05936" lon="6.37512">
        <ele>482</ele>
        <time>2011-04-03T12:43:56Z</time>
      </trkpt>
      <trkpt lat="46.05929" lon="6.37498">
        <ele>482</ele>
        <time>2011-04-03T12:43:57Z</time>
      </trkpt>
      <trkpt lat="46.05923" lon="6.37485">
        <ele>482</ele>
        <time>2011-04-03T12:43:58Z</time>
      </trkpt>
      <trkpt lat="46.05917" lon="6.37472">
        <ele>482</ele>
        <time>2011-04-03T12:43:59Z</time>
      </trkpt>
      <trkpt lat="46.05912" lon="6.37461">
        <ele>482</ele>
        <time>2011-04-03T12:44:00Z</time>
      </trkpt>
      <trkpt lat="46.05906" lon="6.3745">
        <ele>482</ele>
        <time>2011-04-03T12:44:01Z</time>
      </trkpt>
      <trkpt lat="46.05897" lon="6.37431">
        <ele>482</ele>
        <time>2011-04-03T12:44:03Z</time>
      </trkpt>
      <trkpt lat="46.05891" lon="6.37413">
        <ele>482</ele>
        <time>2011-04-03T12:44:05Z</time>
      </trkpt>
      <trkpt lat="46.05891" lon="6.37394">
        <ele>482</ele>
        <time>2011-04-03T12:44:07Z</time>
      </trkpt>
      <trkpt lat="46.05901" lon="6.37373">
        <ele>482</ele>
        <time>2011-04-03T12:44:09Z</time>
      </trkpt>
      <trkpt lat="46.05908" lon="6.3736">
        <ele>482</ele>
        <time>2011-04-03T12:44:10Z</time>
      </trkpt>
      <trkpt lat="46.05916" lon="6.37348">
        <ele>482</ele>
        <time>2011-04-03T12:44:11Z</time>
      </trkpt>
      <trkpt lat="46.05924" lon="6.37338">
        <ele>482</ele>
        <time>2011-04-03T12:44:12Z</time>
      </trkpt>
      <trkpt lat="46.05932" lon="6.37329">
        <ele>482</ele>
        <time>2011-04-03T12:44:13Z</time>
      </trkpt>
      <trkpt lat="46.05947" lon="6.37322">
        <ele>482</ele>
        <time>2011-04-03T12:44:15Z</time>
      </trkpt>
      <trkpt lat="46.05955" lon="6.3733">
        <ele>482</ele>
        <time>2011-04-03T12:44:17Z</time>
      </trkpt>
      <trkpt lat="46.05954" lon="6.37348">
        <ele>482</ele>
        <time>2011-04-03T12:44:20Z</time>
      </trkpt>
      <trkpt lat="46.05951" lon="6.3736">
        <ele>482</ele>
        <time>2011-04-03T12:44:26Z</time>
      </trkpt>
      <trkpt lat="46.05957" lon="6.37371">
        <ele>488</ele>
        <time>2011-04-03T12:46:20Z</time>
      </trkpt>
      <trkpt lat="46.05953" lon="6.37358">
        <ele>488</ele>
        <time>2011-04-03T12:50:16Z</time>
      </trkpt>
      <trkpt lat="46.05962" lon="6.37365">
        <ele>497</ele>
        <time>2011-04-03T12:52:03Z</time>
      </trkpt>
      <trkpt lat="46.05961" lon="6.37351">
        <ele>497</ele>
        <time>2011-04-03T12:52:25Z</time>
      </trkpt>
      <trkpt lat="46.05949" lon="6.37339">
        <ele>497</ele>
        <time>2011-04-03T12:52:30Z</time>
      </trkpt>
      <trkpt lat="46.05942" lon="6.37304">
        <ele>489</ele>
        <time>2011-04-03T12:52:47Z</time>
      </trkpt>
    </trkseg>
  </trk>
</gpx>